<?xml version="1.0" encoding="UTF-8"?>
<gpx version="1.1" creator="https://www.youtrack.es" xsi:schemaLocation="http://www.topografix.com/GPX/1/1 http://www.topografix.com/GPX/1/1/gpx.xsd http://www.garmin.com/xmlschemas/GpxExtensions/v3 http://www.garmin.com/xmlschemas/GpxExtensionsv3.xsd http://www.garmin.com/xmlschemas/TrackPointExtension/v1 http://www.garmin.com/xmlschemas/TrackPointExtensionv1.xsd" xmlns:gpxtpx="http://www.garmin.com/xmlschemas/TrackPointExtension/v1" xmlns:gpxx="http://www.garmin.com/xmlschemas/GpxExtensions/v3" xmlns:xsi="http://www.w3.org/2001/XMLSchema-instance">
  <metadata>
    <link href="https://www.youtrack.es">
      <text>YouTrack.es</text>
    </link>
    <time>2026-05-09T01:21:33Z</time>
  </metadata>
  <trk>
    <src>https://www.youtrack.es</src>
    <link href="https://www.youtrack.es/ruta/38534-paseo-viendo-la-maraton-de-donosti-y-subida-a-igeldo">
      <text>YouTrack.es</text>
    </link>
    <trkseg>
      <trkpt lat="43.3071970" lon="-2.0132050">
        <ele>15.8</ele>
        <time>2022-11-27T08:16:53Z</time>
      </trkpt>
      <trkpt lat="43.3072010" lon="-2.0131080">
        <ele>15.8</ele>
        <time>2022-11-27T08:16:54Z</time>
      </trkpt>
      <trkpt lat="43.3072130" lon="-2.0130080">
        <ele>15.8</ele>
        <time>2022-11-27T08:16:55Z</time>
      </trkpt>
      <trkpt lat="43.3072360" lon="-2.0129060">
        <ele>15.8</ele>
        <time>2022-11-27T08:16:56Z</time>
      </trkpt>
      <trkpt lat="43.3072640" lon="-2.0128030">
        <ele>15.8</ele>
        <time>2022-11-27T08:16:57Z</time>
      </trkpt>
      <trkpt lat="43.3072990" lon="-2.0127010">
        <ele>15.8</ele>
        <time>2022-11-27T08:16:58Z</time>
      </trkpt>
      <trkpt lat="43.3073370" lon="-2.0126000">
        <ele>15.8</ele>
        <time>2022-11-27T08:16:59Z</time>
      </trkpt>
      <trkpt lat="43.3073780" lon="-2.0125030">
        <ele>15.8</ele>
        <time>2022-11-27T08:17:00Z</time>
      </trkpt>
      <trkpt lat="43.3074230" lon="-2.0124090">
        <ele>15.8</ele>
        <time>2022-11-27T08:17:01Z</time>
      </trkpt>
      <trkpt lat="43.3074680" lon="-2.0123190">
        <ele>15.8</ele>
        <time>2022-11-27T08:17:02Z</time>
      </trkpt>
      <trkpt lat="43.3075100" lon="-2.0122320">
        <ele>15.4</ele>
        <time>2022-11-27T08:17:03Z</time>
      </trkpt>
      <trkpt lat="43.3075440" lon="-2.0121540">
        <ele>14.8</ele>
        <time>2022-11-27T08:17:04Z</time>
      </trkpt>
      <trkpt lat="43.3075700" lon="-2.0120960">
        <ele>14.6</ele>
        <time>2022-11-27T08:17:05Z</time>
      </trkpt>
      <trkpt lat="43.3075840" lon="-2.0120540">
        <ele>14.4</ele>
        <time>2022-11-27T08:17:06Z</time>
      </trkpt>
      <trkpt lat="43.3075860" lon="-2.0120200">
        <ele>14.4</ele>
        <time>2022-11-27T08:17:07Z</time>
      </trkpt>
      <trkpt lat="43.3075850" lon="-2.0119830">
        <ele>14.2</ele>
        <time>2022-11-27T08:17:08Z</time>
      </trkpt>
      <trkpt lat="43.3075890" lon="-2.0119320">
        <ele>14.0</ele>
        <time>2022-11-27T08:17:09Z</time>
      </trkpt>
      <trkpt lat="43.3076010" lon="-2.0118710">
        <ele>13.2</ele>
        <time>2022-11-27T08:17:10Z</time>
      </trkpt>
      <trkpt lat="43.3076220" lon="-2.0118120">
        <ele>12.8</ele>
        <time>2022-11-27T08:17:11Z</time>
      </trkpt>
      <trkpt lat="43.3076490" lon="-2.0117550">
        <ele>12.6</ele>
        <time>2022-11-27T08:17:12Z</time>
      </trkpt>
      <trkpt lat="43.3076780" lon="-2.0116970">
        <ele>12.6</ele>
        <time>2022-11-27T08:17:13Z</time>
      </trkpt>
      <trkpt lat="43.3077090" lon="-2.0116360">
        <ele>12.4</ele>
        <time>2022-11-27T08:17:14Z</time>
      </trkpt>
      <trkpt lat="43.3077420" lon="-2.0115740">
        <ele>12.4</ele>
        <time>2022-11-27T08:17:15Z</time>
      </trkpt>
      <trkpt lat="43.3077770" lon="-2.0115130">
        <ele>12.4</ele>
        <time>2022-11-27T08:17:16Z</time>
      </trkpt>
      <trkpt lat="43.3078120" lon="-2.0114480">
        <ele>12.4</ele>
        <time>2022-11-27T08:17:17Z</time>
      </trkpt>
      <trkpt lat="43.3078480" lon="-2.0113820">
        <ele>12.4</ele>
        <time>2022-11-27T08:17:18Z</time>
      </trkpt>
      <trkpt lat="43.3078820" lon="-2.0113160">
        <ele>12.2</ele>
        <time>2022-11-27T08:17:19Z</time>
      </trkpt>
      <trkpt lat="43.3079160" lon="-2.0112510">
        <ele>12.2</ele>
        <time>2022-11-27T08:17:20Z</time>
      </trkpt>
      <trkpt lat="43.3079500" lon="-2.0111840">
        <ele>12.0</ele>
        <time>2022-11-27T08:17:21Z</time>
      </trkpt>
      <trkpt lat="43.3079850" lon="-2.0111140">
        <ele>12.0</ele>
        <time>2022-11-27T08:17:22Z</time>
      </trkpt>
      <trkpt lat="43.3080210" lon="-2.0110400">
        <ele>12.0</ele>
        <time>2022-11-27T08:17:23Z</time>
      </trkpt>
      <trkpt lat="43.3080600" lon="-2.0109660">
        <ele>11.8</ele>
        <time>2022-11-27T08:17:24Z</time>
      </trkpt>
      <trkpt lat="43.3080960" lon="-2.0108900">
        <ele>11.8</ele>
        <time>2022-11-27T08:17:25Z</time>
      </trkpt>
      <trkpt lat="43.3081320" lon="-2.0108130">
        <ele>11.8</ele>
        <time>2022-11-27T08:17:26Z</time>
      </trkpt>
      <trkpt lat="43.3081670" lon="-2.0107360">
        <ele>11.8</ele>
        <time>2022-11-27T08:17:27Z</time>
      </trkpt>
      <trkpt lat="43.3082040" lon="-2.0106600">
        <ele>11.6</ele>
        <time>2022-11-27T08:17:28Z</time>
      </trkpt>
      <trkpt lat="43.3082410" lon="-2.0105840">
        <ele>11.6</ele>
        <time>2022-11-27T08:17:29Z</time>
      </trkpt>
      <trkpt lat="43.3082800" lon="-2.0105050">
        <ele>11.6</ele>
        <time>2022-11-27T08:17:30Z</time>
      </trkpt>
      <trkpt lat="43.3083190" lon="-2.0104270">
        <ele>11.4</ele>
        <time>2022-11-27T08:17:31Z</time>
      </trkpt>
      <trkpt lat="43.3083540" lon="-2.0103540">
        <ele>11.2</ele>
        <time>2022-11-27T08:17:32Z</time>
      </trkpt>
      <trkpt lat="43.3083820" lon="-2.0102910">
        <ele>11.2</ele>
        <time>2022-11-27T08:17:33Z</time>
      </trkpt>
      <trkpt lat="43.3083970" lon="-2.0102380">
        <ele>11.0</ele>
        <time>2022-11-27T08:17:34Z</time>
      </trkpt>
      <trkpt lat="43.3084030" lon="-2.0101910">
        <ele>11.0</ele>
        <time>2022-11-27T08:17:35Z</time>
      </trkpt>
      <trkpt lat="43.3084020" lon="-2.0101430">
        <ele>10.8</ele>
        <time>2022-11-27T08:17:36Z</time>
      </trkpt>
      <trkpt lat="43.3083810" lon="-2.0100870">
        <ele>10.8</ele>
        <time>2022-11-27T08:17:37Z</time>
      </trkpt>
      <trkpt lat="43.3083520" lon="-2.0100330">
        <ele>10.8</ele>
        <time>2022-11-27T08:17:38Z</time>
      </trkpt>
      <trkpt lat="43.3083120" lon="-2.0099770">
        <ele>10.8</ele>
        <time>2022-11-27T08:17:39Z</time>
      </trkpt>
      <trkpt lat="43.3082720" lon="-2.0099190">
        <ele>10.8</ele>
        <time>2022-11-27T08:17:40Z</time>
      </trkpt>
      <trkpt lat="43.3082270" lon="-2.0098630">
        <ele>10.6</ele>
        <time>2022-11-27T08:17:41Z</time>
      </trkpt>
      <trkpt lat="43.3081800" lon="-2.0098110">
        <ele>10.6</ele>
        <time>2022-11-27T08:17:42Z</time>
      </trkpt>
      <trkpt lat="43.3081290" lon="-2.0097600">
        <ele>10.6</ele>
        <time>2022-11-27T08:17:43Z</time>
      </trkpt>
      <trkpt lat="43.3080750" lon="-2.0097100">
        <ele>10.4</ele>
        <time>2022-11-27T08:17:44Z</time>
      </trkpt>
      <trkpt lat="43.3080190" lon="-2.0096620">
        <ele>10.4</ele>
        <time>2022-11-27T08:17:45Z</time>
      </trkpt>
      <trkpt lat="43.3079600" lon="-2.0096160">
        <ele>10.4</ele>
        <time>2022-11-27T08:17:46Z</time>
      </trkpt>
      <trkpt lat="43.3079010" lon="-2.0095710">
        <ele>10.4</ele>
        <time>2022-11-27T08:17:47Z</time>
      </trkpt>
      <trkpt lat="43.3078420" lon="-2.0095240">
        <ele>10.4</ele>
        <time>2022-11-27T08:17:48Z</time>
      </trkpt>
      <trkpt lat="43.3077850" lon="-2.0094730">
        <ele>10.4</ele>
        <time>2022-11-27T08:17:49Z</time>
      </trkpt>
      <trkpt lat="43.3077290" lon="-2.0094200">
        <ele>10.4</ele>
        <time>2022-11-27T08:17:50Z</time>
      </trkpt>
      <trkpt lat="43.3076730" lon="-2.0093680">
        <ele>10.4</ele>
        <time>2022-11-27T08:17:51Z</time>
      </trkpt>
      <trkpt lat="43.3076160" lon="-2.0093160">
        <ele>10.4</ele>
        <time>2022-11-27T08:17:52Z</time>
      </trkpt>
      <trkpt lat="43.3075620" lon="-2.0092650">
        <ele>10.4</ele>
        <time>2022-11-27T08:17:53Z</time>
      </trkpt>
      <trkpt lat="43.3075100" lon="-2.0092150">
        <ele>10.4</ele>
        <time>2022-11-27T08:17:54Z</time>
      </trkpt>
      <trkpt lat="43.3074620" lon="-2.0091680">
        <ele>10.4</ele>
        <time>2022-11-27T08:17:55Z</time>
      </trkpt>
      <trkpt lat="43.3074190" lon="-2.0091290">
        <ele>10.4</ele>
        <time>2022-11-27T08:17:56Z</time>
      </trkpt>
      <trkpt lat="43.3073820" lon="-2.0090970">
        <ele>10.4</ele>
        <time>2022-11-27T08:17:57Z</time>
      </trkpt>
      <trkpt lat="43.3073510" lon="-2.0090710">
        <ele>10.4</ele>
        <time>2022-11-27T08:17:58Z</time>
      </trkpt>
      <trkpt lat="43.3073270" lon="-2.0090470">
        <ele>10.4</ele>
        <time>2022-11-27T08:17:59Z</time>
      </trkpt>
      <trkpt lat="43.3073110" lon="-2.0090310">
        <ele>10.4</ele>
        <time>2022-11-27T08:18:00Z</time>
      </trkpt>
      <trkpt lat="43.3073010" lon="-2.0090230">
        <ele>10.4</ele>
        <time>2022-11-27T08:18:01Z</time>
      </trkpt>
      <trkpt lat="43.3072980" lon="-2.0090210">
        <ele>10.4</ele>
        <time>2022-11-27T08:18:02Z</time>
      </trkpt>
      <trkpt lat="43.3072980" lon="-2.0090220">
        <ele>10.4</ele>
        <time>2022-11-27T08:18:03Z</time>
      </trkpt>
      <trkpt lat="43.3072580" lon="-2.0089890">
        <ele>10.6</ele>
        <time>2022-11-27T08:18:09Z</time>
      </trkpt>
      <trkpt lat="43.3072350" lon="-2.0089680">
        <ele>10.6</ele>
        <time>2022-11-27T08:18:10Z</time>
      </trkpt>
      <trkpt lat="43.3072070" lon="-2.0089440">
        <ele>10.8</ele>
        <time>2022-11-27T08:18:11Z</time>
      </trkpt>
      <trkpt lat="43.3071750" lon="-2.0089140">
        <ele>10.8</ele>
        <time>2022-11-27T08:18:12Z</time>
      </trkpt>
      <trkpt lat="43.3071350" lon="-2.0088800">
        <ele>10.8</ele>
        <time>2022-11-27T08:18:13Z</time>
      </trkpt>
      <trkpt lat="43.3070940" lon="-2.0088430">
        <ele>10.8</ele>
        <time>2022-11-27T08:18:14Z</time>
      </trkpt>
      <trkpt lat="43.3070510" lon="-2.0088030">
        <ele>10.8</ele>
        <time>2022-11-27T08:18:15Z</time>
      </trkpt>
      <trkpt lat="43.3070070" lon="-2.0087590">
        <ele>10.8</ele>
        <time>2022-11-27T08:18:16Z</time>
      </trkpt>
      <trkpt lat="43.3069610" lon="-2.0087140">
        <ele>10.8</ele>
        <time>2022-11-27T08:18:17Z</time>
      </trkpt>
      <trkpt lat="43.3069130" lon="-2.0086690">
        <ele>10.8</ele>
        <time>2022-11-27T08:18:18Z</time>
      </trkpt>
      <trkpt lat="43.3068630" lon="-2.0086210">
        <ele>10.8</ele>
        <time>2022-11-27T08:18:19Z</time>
      </trkpt>
      <trkpt lat="43.3068140" lon="-2.0085730">
        <ele>10.8</ele>
        <time>2022-11-27T08:18:20Z</time>
      </trkpt>
      <trkpt lat="43.3067630" lon="-2.0085240">
        <ele>10.8</ele>
        <time>2022-11-27T08:18:21Z</time>
      </trkpt>
      <trkpt lat="43.3067110" lon="-2.0084740">
        <ele>10.6</ele>
        <time>2022-11-27T08:18:22Z</time>
      </trkpt>
      <trkpt lat="43.3066570" lon="-2.0084260">
        <ele>10.6</ele>
        <time>2022-11-27T08:18:23Z</time>
      </trkpt>
      <trkpt lat="43.3066050" lon="-2.0083780">
        <ele>10.4</ele>
        <time>2022-11-27T08:18:24Z</time>
      </trkpt>
      <trkpt lat="43.3065540" lon="-2.0083260">
        <ele>10.4</ele>
        <time>2022-11-27T08:18:25Z</time>
      </trkpt>
      <trkpt lat="43.3065020" lon="-2.0082750">
        <ele>10.4</ele>
        <time>2022-11-27T08:18:26Z</time>
      </trkpt>
      <trkpt lat="43.3064500" lon="-2.0082220">
        <ele>10.4</ele>
        <time>2022-11-27T08:18:27Z</time>
      </trkpt>
      <trkpt lat="43.3063960" lon="-2.0081690">
        <ele>10.4</ele>
        <time>2022-11-27T08:18:28Z</time>
      </trkpt>
      <trkpt lat="43.3063420" lon="-2.0081160">
        <ele>10.4</ele>
        <time>2022-11-27T08:18:29Z</time>
      </trkpt>
      <trkpt lat="43.3062880" lon="-2.0080640">
        <ele>10.2</ele>
        <time>2022-11-27T08:18:30Z</time>
      </trkpt>
      <trkpt lat="43.3062310" lon="-2.0080120">
        <ele>10.2</ele>
        <time>2022-11-27T08:18:31Z</time>
      </trkpt>
      <trkpt lat="43.3061770" lon="-2.0079580">
        <ele>10.2</ele>
        <time>2022-11-27T08:18:32Z</time>
      </trkpt>
      <trkpt lat="43.3061210" lon="-2.0079060">
        <ele>10.2</ele>
        <time>2022-11-27T08:18:33Z</time>
      </trkpt>
      <trkpt lat="43.3060640" lon="-2.0078520">
        <ele>10.2</ele>
        <time>2022-11-27T08:18:34Z</time>
      </trkpt>
      <trkpt lat="43.3060080" lon="-2.0077990">
        <ele>10.0</ele>
        <time>2022-11-27T08:18:35Z</time>
      </trkpt>
      <trkpt lat="43.3059510" lon="-2.0077450">
        <ele>10.0</ele>
        <time>2022-11-27T08:18:36Z</time>
      </trkpt>
      <trkpt lat="43.3058940" lon="-2.0076900">
        <ele>10.0</ele>
        <time>2022-11-27T08:18:37Z</time>
      </trkpt>
      <trkpt lat="43.3058380" lon="-2.0076360">
        <ele>10.0</ele>
        <time>2022-11-27T08:18:38Z</time>
      </trkpt>
      <trkpt lat="43.3057810" lon="-2.0075810">
        <ele>9.8</ele>
        <time>2022-11-27T08:18:39Z</time>
      </trkpt>
      <trkpt lat="43.3057240" lon="-2.0075270">
        <ele>9.8</ele>
        <time>2022-11-27T08:18:40Z</time>
      </trkpt>
      <trkpt lat="43.3056680" lon="-2.0074730">
        <ele>9.8</ele>
        <time>2022-11-27T08:18:41Z</time>
      </trkpt>
      <trkpt lat="43.3056110" lon="-2.0074180">
        <ele>9.8</ele>
        <time>2022-11-27T08:18:42Z</time>
      </trkpt>
      <trkpt lat="43.3055550" lon="-2.0073620">
        <ele>9.8</ele>
        <time>2022-11-27T08:18:43Z</time>
      </trkpt>
      <trkpt lat="43.3054970" lon="-2.0073060">
        <ele>9.8</ele>
        <time>2022-11-27T08:18:44Z</time>
      </trkpt>
      <trkpt lat="43.3054390" lon="-2.0072510">
        <ele>9.8</ele>
        <time>2022-11-27T08:18:45Z</time>
      </trkpt>
      <trkpt lat="43.3053820" lon="-2.0071960">
        <ele>9.8</ele>
        <time>2022-11-27T08:18:46Z</time>
      </trkpt>
      <trkpt lat="43.3053250" lon="-2.0071400">
        <ele>9.8</ele>
        <time>2022-11-27T08:18:47Z</time>
      </trkpt>
      <trkpt lat="43.3052690" lon="-2.0070830">
        <ele>9.8</ele>
        <time>2022-11-27T08:18:48Z</time>
      </trkpt>
      <trkpt lat="43.3052120" lon="-2.0070270">
        <ele>9.8</ele>
        <time>2022-11-27T08:18:49Z</time>
      </trkpt>
      <trkpt lat="43.3051540" lon="-2.0069740">
        <ele>10.0</ele>
        <time>2022-11-27T08:18:50Z</time>
      </trkpt>
      <trkpt lat="43.3050970" lon="-2.0069210">
        <ele>10.0</ele>
        <time>2022-11-27T08:18:51Z</time>
      </trkpt>
      <trkpt lat="43.3050400" lon="-2.0068690">
        <ele>10.0</ele>
        <time>2022-11-27T08:18:52Z</time>
      </trkpt>
      <trkpt lat="43.3049870" lon="-2.0068160">
        <ele>10.0</ele>
        <time>2022-11-27T08:18:53Z</time>
      </trkpt>
      <trkpt lat="43.3049320" lon="-2.0067670">
        <ele>10.0</ele>
        <time>2022-11-27T08:18:54Z</time>
      </trkpt>
      <trkpt lat="43.3048800" lon="-2.0067190">
        <ele>10.0</ele>
        <time>2022-11-27T08:18:55Z</time>
      </trkpt>
      <trkpt lat="43.3048300" lon="-2.0066710">
        <ele>10.0</ele>
        <time>2022-11-27T08:18:56Z</time>
      </trkpt>
      <trkpt lat="43.3047810" lon="-2.0066240">
        <ele>10.0</ele>
        <time>2022-11-27T08:18:57Z</time>
      </trkpt>
      <trkpt lat="43.3047320" lon="-2.0065820">
        <ele>10.0</ele>
        <time>2022-11-27T08:18:58Z</time>
      </trkpt>
      <trkpt lat="43.3046860" lon="-2.0065490">
        <ele>10.0</ele>
        <time>2022-11-27T08:18:59Z</time>
      </trkpt>
      <trkpt lat="43.3046450" lon="-2.0065190">
        <ele>10.0</ele>
        <time>2022-11-27T08:19:00Z</time>
      </trkpt>
      <trkpt lat="43.3046140" lon="-2.0064820">
        <ele>10.2</ele>
        <time>2022-11-27T08:19:01Z</time>
      </trkpt>
      <trkpt lat="43.3046020" lon="-2.0064420">
        <ele>10.2</ele>
        <time>2022-11-27T08:19:02Z</time>
      </trkpt>
      <trkpt lat="43.3046090" lon="-2.0064140">
        <ele>10.2</ele>
        <time>2022-11-27T08:19:03Z</time>
      </trkpt>
      <trkpt lat="43.3046320" lon="-2.0064050">
        <ele>10.2</ele>
        <time>2022-11-27T08:19:04Z</time>
      </trkpt>
      <trkpt lat="43.3046700" lon="-2.0064140">
        <ele>10.2</ele>
        <time>2022-11-27T08:19:05Z</time>
      </trkpt>
      <trkpt lat="43.3047100" lon="-2.0064310">
        <ele>10.4</ele>
        <time>2022-11-27T08:19:06Z</time>
      </trkpt>
      <trkpt lat="43.3047540" lon="-2.0064570">
        <ele>10.4</ele>
        <time>2022-11-27T08:19:07Z</time>
      </trkpt>
      <trkpt lat="43.3048010" lon="-2.0064930">
        <ele>10.4</ele>
        <time>2022-11-27T08:19:08Z</time>
      </trkpt>
      <trkpt lat="43.3048520" lon="-2.0065380">
        <ele>10.4</ele>
        <time>2022-11-27T08:19:09Z</time>
      </trkpt>
      <trkpt lat="43.3049030" lon="-2.0065830">
        <ele>10.4</ele>
        <time>2022-11-27T08:19:10Z</time>
      </trkpt>
      <trkpt lat="43.3049560" lon="-2.0066270">
        <ele>10.4</ele>
        <time>2022-11-27T08:19:11Z</time>
      </trkpt>
      <trkpt lat="43.3050100" lon="-2.0066770">
        <ele>10.6</ele>
        <time>2022-11-27T08:19:12Z</time>
      </trkpt>
      <trkpt lat="43.3050640" lon="-2.0067280">
        <ele>10.6</ele>
        <time>2022-11-27T08:19:13Z</time>
      </trkpt>
      <trkpt lat="43.3051190" lon="-2.0067730">
        <ele>10.6</ele>
        <time>2022-11-27T08:19:14Z</time>
      </trkpt>
      <trkpt lat="43.3051720" lon="-2.0068190">
        <ele>10.6</ele>
        <time>2022-11-27T08:19:15Z</time>
      </trkpt>
      <trkpt lat="43.3052230" lon="-2.0068680">
        <ele>10.6</ele>
        <time>2022-11-27T08:19:16Z</time>
      </trkpt>
      <trkpt lat="43.3052740" lon="-2.0069170">
        <ele>10.6</ele>
        <time>2022-11-27T08:19:17Z</time>
      </trkpt>
      <trkpt lat="43.3053280" lon="-2.0069650">
        <ele>10.6</ele>
        <time>2022-11-27T08:19:18Z</time>
      </trkpt>
      <trkpt lat="43.3053820" lon="-2.0070150">
        <ele>10.6</ele>
        <time>2022-11-27T08:19:19Z</time>
      </trkpt>
      <trkpt lat="43.3054380" lon="-2.0070680">
        <ele>10.6</ele>
        <time>2022-11-27T08:19:20Z</time>
      </trkpt>
      <trkpt lat="43.3054950" lon="-2.0071220">
        <ele>10.6</ele>
        <time>2022-11-27T08:19:21Z</time>
      </trkpt>
      <trkpt lat="43.3055510" lon="-2.0071740">
        <ele>10.6</ele>
        <time>2022-11-27T08:19:22Z</time>
      </trkpt>
      <trkpt lat="43.3056090" lon="-2.0072270">
        <ele>10.4</ele>
        <time>2022-11-27T08:19:23Z</time>
      </trkpt>
      <trkpt lat="43.3056640" lon="-2.0072840">
        <ele>10.4</ele>
        <time>2022-11-27T08:19:24Z</time>
      </trkpt>
      <trkpt lat="43.3057200" lon="-2.0073370">
        <ele>10.4</ele>
        <time>2022-11-27T08:19:25Z</time>
      </trkpt>
      <trkpt lat="43.3057790" lon="-2.0073900">
        <ele>10.4</ele>
        <time>2022-11-27T08:19:26Z</time>
      </trkpt>
      <trkpt lat="43.3058370" lon="-2.0074420">
        <ele>10.4</ele>
        <time>2022-11-27T08:19:27Z</time>
      </trkpt>
      <trkpt lat="43.3058950" lon="-2.0074950">
        <ele>10.4</ele>
        <time>2022-11-27T08:19:28Z</time>
      </trkpt>
      <trkpt lat="43.3059520" lon="-2.0075480">
        <ele>10.2</ele>
        <time>2022-11-27T08:19:29Z</time>
      </trkpt>
      <trkpt lat="43.3060090" lon="-2.0076000">
        <ele>10.2</ele>
        <time>2022-11-27T08:19:30Z</time>
      </trkpt>
      <trkpt lat="43.3060660" lon="-2.0076530">
        <ele>10.2</ele>
        <time>2022-11-27T08:19:31Z</time>
      </trkpt>
      <trkpt lat="43.3061230" lon="-2.0077060">
        <ele>10.2</ele>
        <time>2022-11-27T08:19:32Z</time>
      </trkpt>
      <trkpt lat="43.3061790" lon="-2.0077580">
        <ele>10.2</ele>
        <time>2022-11-27T08:19:33Z</time>
      </trkpt>
      <trkpt lat="43.3062360" lon="-2.0078120">
        <ele>10.2</ele>
        <time>2022-11-27T08:19:34Z</time>
      </trkpt>
      <trkpt lat="43.3062920" lon="-2.0078650">
        <ele>10.2</ele>
        <time>2022-11-27T08:19:35Z</time>
      </trkpt>
      <trkpt lat="43.3063480" lon="-2.0079190">
        <ele>10.2</ele>
        <time>2022-11-27T08:19:36Z</time>
      </trkpt>
      <trkpt lat="43.3064060" lon="-2.0079730">
        <ele>10.0</ele>
        <time>2022-11-27T08:19:37Z</time>
      </trkpt>
      <trkpt lat="43.3064640" lon="-2.0080270">
        <ele>10.0</ele>
        <time>2022-11-27T08:19:38Z</time>
      </trkpt>
      <trkpt lat="43.3065210" lon="-2.0080760">
        <ele>10.0</ele>
        <time>2022-11-27T08:19:39Z</time>
      </trkpt>
      <trkpt lat="43.3065790" lon="-2.0081280">
        <ele>10.0</ele>
        <time>2022-11-27T08:19:40Z</time>
      </trkpt>
      <trkpt lat="43.3066350" lon="-2.0081840">
        <ele>10.0</ele>
        <time>2022-11-27T08:19:41Z</time>
      </trkpt>
      <trkpt lat="43.3066920" lon="-2.0082380">
        <ele>10.0</ele>
        <time>2022-11-27T08:19:42Z</time>
      </trkpt>
      <trkpt lat="43.3067470" lon="-2.0082910">
        <ele>10.0</ele>
        <time>2022-11-27T08:19:43Z</time>
      </trkpt>
      <trkpt lat="43.3068030" lon="-2.0083430">
        <ele>10.0</ele>
        <time>2022-11-27T08:19:44Z</time>
      </trkpt>
      <trkpt lat="43.3068600" lon="-2.0083920">
        <ele>9.8</ele>
        <time>2022-11-27T08:19:45Z</time>
      </trkpt>
      <trkpt lat="43.3069170" lon="-2.0084450">
        <ele>9.8</ele>
        <time>2022-11-27T08:19:46Z</time>
      </trkpt>
      <trkpt lat="43.3069730" lon="-2.0084980">
        <ele>9.8</ele>
        <time>2022-11-27T08:19:47Z</time>
      </trkpt>
      <trkpt lat="43.3070280" lon="-2.0085500">
        <ele>9.8</ele>
        <time>2022-11-27T08:19:48Z</time>
      </trkpt>
      <trkpt lat="43.3070810" lon="-2.0086080">
        <ele>9.8</ele>
        <time>2022-11-27T08:19:49Z</time>
      </trkpt>
      <trkpt lat="43.3071370" lon="-2.0086620">
        <ele>9.8</ele>
        <time>2022-11-27T08:19:50Z</time>
      </trkpt>
      <trkpt lat="43.3071920" lon="-2.0087130">
        <ele>9.8</ele>
        <time>2022-11-27T08:19:51Z</time>
      </trkpt>
      <trkpt lat="43.3072480" lon="-2.0087640">
        <ele>9.8</ele>
        <time>2022-11-27T08:19:52Z</time>
      </trkpt>
      <trkpt lat="43.3073020" lon="-2.0088140">
        <ele>9.8</ele>
        <time>2022-11-27T08:19:53Z</time>
      </trkpt>
      <trkpt lat="43.3073580" lon="-2.0088660">
        <ele>9.8</ele>
        <time>2022-11-27T08:19:54Z</time>
      </trkpt>
      <trkpt lat="43.3074150" lon="-2.0089180">
        <ele>9.6</ele>
        <time>2022-11-27T08:19:55Z</time>
      </trkpt>
      <trkpt lat="43.3074720" lon="-2.0089700">
        <ele>9.6</ele>
        <time>2022-11-27T08:19:56Z</time>
      </trkpt>
      <trkpt lat="43.3075310" lon="-2.0090240">
        <ele>9.6</ele>
        <time>2022-11-27T08:19:57Z</time>
      </trkpt>
      <trkpt lat="43.3075890" lon="-2.0090770">
        <ele>9.6</ele>
        <time>2022-11-27T08:19:58Z</time>
      </trkpt>
      <trkpt lat="43.3076460" lon="-2.0091290">
        <ele>9.6</ele>
        <time>2022-11-27T08:19:59Z</time>
      </trkpt>
      <trkpt lat="43.3077040" lon="-2.0091830">
        <ele>9.6</ele>
        <time>2022-11-27T08:20:00Z</time>
      </trkpt>
      <trkpt lat="43.3077600" lon="-2.0092380">
        <ele>9.6</ele>
        <time>2022-11-27T08:20:01Z</time>
      </trkpt>
      <trkpt lat="43.3078160" lon="-2.0092910">
        <ele>9.6</ele>
        <time>2022-11-27T08:20:02Z</time>
      </trkpt>
      <trkpt lat="43.3078710" lon="-2.0093440">
        <ele>9.6</ele>
        <time>2022-11-27T08:20:03Z</time>
      </trkpt>
      <trkpt lat="43.3079230" lon="-2.0093940">
        <ele>9.6</ele>
        <time>2022-11-27T08:20:04Z</time>
      </trkpt>
      <trkpt lat="43.3079740" lon="-2.0094430">
        <ele>9.6</ele>
        <time>2022-11-27T08:20:05Z</time>
      </trkpt>
      <trkpt lat="43.3080200" lon="-2.0094890">
        <ele>9.6</ele>
        <time>2022-11-27T08:20:06Z</time>
      </trkpt>
      <trkpt lat="43.3080580" lon="-2.0095280">
        <ele>9.6</ele>
        <time>2022-11-27T08:20:07Z</time>
      </trkpt>
      <trkpt lat="43.3080880" lon="-2.0095520">
        <ele>9.6</ele>
        <time>2022-11-27T08:20:08Z</time>
      </trkpt>
      <trkpt lat="43.3081170" lon="-2.0095540">
        <ele>9.6</ele>
        <time>2022-11-27T08:20:09Z</time>
      </trkpt>
      <trkpt lat="43.3081380" lon="-2.0095400">
        <ele>9.6</ele>
        <time>2022-11-27T08:20:10Z</time>
      </trkpt>
      <trkpt lat="43.3081610" lon="-2.0095170">
        <ele>9.6</ele>
        <time>2022-11-27T08:20:11Z</time>
      </trkpt>
      <trkpt lat="43.3081910" lon="-2.0094850">
        <ele>9.6</ele>
        <time>2022-11-27T08:20:12Z</time>
      </trkpt>
      <trkpt lat="43.3082300" lon="-2.0094610">
        <ele>9.6</ele>
        <time>2022-11-27T08:20:13Z</time>
      </trkpt>
      <trkpt lat="43.3082780" lon="-2.0094420">
        <ele>9.6</ele>
        <time>2022-11-27T08:20:14Z</time>
      </trkpt>
      <trkpt lat="43.3083240" lon="-2.0094260">
        <ele>9.6</ele>
        <time>2022-11-27T08:20:15Z</time>
      </trkpt>
      <trkpt lat="43.3083690" lon="-2.0094300">
        <ele>9.6</ele>
        <time>2022-11-27T08:20:16Z</time>
      </trkpt>
      <trkpt lat="43.3084150" lon="-2.0094500">
        <ele>9.6</ele>
        <time>2022-11-27T08:20:17Z</time>
      </trkpt>
      <trkpt lat="43.3084590" lon="-2.0094630">
        <ele>9.6</ele>
        <time>2022-11-27T08:20:18Z</time>
      </trkpt>
      <trkpt lat="43.3085010" lon="-2.0094530">
        <ele>9.6</ele>
        <time>2022-11-27T08:20:19Z</time>
      </trkpt>
      <trkpt lat="43.3085410" lon="-2.0094310">
        <ele>9.6</ele>
        <time>2022-11-27T08:20:20Z</time>
      </trkpt>
      <trkpt lat="43.3085830" lon="-2.0094090">
        <ele>9.6</ele>
        <time>2022-11-27T08:20:21Z</time>
      </trkpt>
      <trkpt lat="43.3086250" lon="-2.0093940">
        <ele>9.8</ele>
        <time>2022-11-27T08:20:22Z</time>
      </trkpt>
      <trkpt lat="43.3086610" lon="-2.0093860">
        <ele>9.8</ele>
        <time>2022-11-27T08:20:23Z</time>
      </trkpt>
      <trkpt lat="43.3086940" lon="-2.0093850">
        <ele>9.8</ele>
        <time>2022-11-27T08:20:24Z</time>
      </trkpt>
      <trkpt lat="43.3087250" lon="-2.0093830">
        <ele>9.8</ele>
        <time>2022-11-27T08:20:25Z</time>
      </trkpt>
      <trkpt lat="43.3087560" lon="-2.0093920">
        <ele>9.8</ele>
        <time>2022-11-27T08:20:26Z</time>
      </trkpt>
      <trkpt lat="43.3087880" lon="-2.0094170">
        <ele>9.8</ele>
        <time>2022-11-27T08:20:27Z</time>
      </trkpt>
      <trkpt lat="43.3088170" lon="-2.0094430">
        <ele>9.8</ele>
        <time>2022-11-27T08:20:28Z</time>
      </trkpt>
      <trkpt lat="43.3088420" lon="-2.0094630">
        <ele>10.0</ele>
        <time>2022-11-27T08:20:29Z</time>
      </trkpt>
      <trkpt lat="43.3088630" lon="-2.0094810">
        <ele>10.0</ele>
        <time>2022-11-27T08:20:30Z</time>
      </trkpt>
      <trkpt lat="43.3088820" lon="-2.0095010">
        <ele>10.0</ele>
        <time>2022-11-27T08:20:31Z</time>
      </trkpt>
      <trkpt lat="43.3089000" lon="-2.0095200">
        <ele>10.0</ele>
        <time>2022-11-27T08:20:32Z</time>
      </trkpt>
      <trkpt lat="43.3089170" lon="-2.0095380">
        <ele>10.0</ele>
        <time>2022-11-27T08:20:33Z</time>
      </trkpt>
      <trkpt lat="43.3089360" lon="-2.0095520">
        <ele>10.0</ele>
        <time>2022-11-27T08:20:34Z</time>
      </trkpt>
      <trkpt lat="43.3089550" lon="-2.0095670">
        <ele>10.0</ele>
        <time>2022-11-27T08:20:35Z</time>
      </trkpt>
      <trkpt lat="43.3089710" lon="-2.0095920">
        <ele>10.0</ele>
        <time>2022-11-27T08:20:36Z</time>
      </trkpt>
      <trkpt lat="43.3089910" lon="-2.0096290">
        <ele>10.0</ele>
        <time>2022-11-27T08:20:37Z</time>
      </trkpt>
      <trkpt lat="43.3090130" lon="-2.0096780">
        <ele>10.0</ele>
        <time>2022-11-27T08:20:38Z</time>
      </trkpt>
      <trkpt lat="43.3090280" lon="-2.0097350">
        <ele>10.0</ele>
        <time>2022-11-27T08:20:39Z</time>
      </trkpt>
      <trkpt lat="43.3090360" lon="-2.0097990">
        <ele>10.0</ele>
        <time>2022-11-27T08:20:40Z</time>
      </trkpt>
      <trkpt lat="43.3090360" lon="-2.0098590">
        <ele>10.0</ele>
        <time>2022-11-27T08:20:41Z</time>
      </trkpt>
      <trkpt lat="43.3090400" lon="-2.0099120">
        <ele>10.0</ele>
        <time>2022-11-27T08:20:42Z</time>
      </trkpt>
      <trkpt lat="43.3090470" lon="-2.0099540">
        <ele>10.0</ele>
        <time>2022-11-27T08:20:43Z</time>
      </trkpt>
      <trkpt lat="43.3090670" lon="-2.0099850">
        <ele>10.0</ele>
        <time>2022-11-27T08:20:44Z</time>
      </trkpt>
      <trkpt lat="43.3090960" lon="-2.0100090">
        <ele>10.0</ele>
        <time>2022-11-27T08:20:45Z</time>
      </trkpt>
      <trkpt lat="43.3091370" lon="-2.0100290">
        <ele>10.0</ele>
        <time>2022-11-27T08:20:46Z</time>
      </trkpt>
      <trkpt lat="43.3091880" lon="-2.0100460">
        <ele>10.0</ele>
        <time>2022-11-27T08:20:47Z</time>
      </trkpt>
      <trkpt lat="43.3092400" lon="-2.0100600">
        <ele>10.0</ele>
        <time>2022-11-27T08:20:48Z</time>
      </trkpt>
      <trkpt lat="43.3092950" lon="-2.0100760">
        <ele>10.0</ele>
        <time>2022-11-27T08:20:49Z</time>
      </trkpt>
      <trkpt lat="43.3093560" lon="-2.0100960">
        <ele>10.0</ele>
        <time>2022-11-27T08:20:50Z</time>
      </trkpt>
      <trkpt lat="43.3094190" lon="-2.0101170">
        <ele>10.0</ele>
        <time>2022-11-27T08:20:51Z</time>
      </trkpt>
      <trkpt lat="43.3094820" lon="-2.0101330">
        <ele>10.0</ele>
        <time>2022-11-27T08:20:52Z</time>
      </trkpt>
      <trkpt lat="43.3095440" lon="-2.0101460">
        <ele>10.0</ele>
        <time>2022-11-27T08:20:53Z</time>
      </trkpt>
      <trkpt lat="43.3096030" lon="-2.0101540">
        <ele>10.0</ele>
        <time>2022-11-27T08:20:54Z</time>
      </trkpt>
      <trkpt lat="43.3096630" lon="-2.0101590">
        <ele>9.8</ele>
        <time>2022-11-27T08:20:55Z</time>
      </trkpt>
      <trkpt lat="43.3097250" lon="-2.0101620">
        <ele>9.8</ele>
        <time>2022-11-27T08:20:56Z</time>
      </trkpt>
      <trkpt lat="43.3097860" lon="-2.0101630">
        <ele>9.8</ele>
        <time>2022-11-27T08:20:57Z</time>
      </trkpt>
      <trkpt lat="43.3098460" lon="-2.0101640">
        <ele>9.8</ele>
        <time>2022-11-27T08:20:58Z</time>
      </trkpt>
      <trkpt lat="43.3099050" lon="-2.0101580">
        <ele>9.8</ele>
        <time>2022-11-27T08:20:59Z</time>
      </trkpt>
      <trkpt lat="43.3099640" lon="-2.0101480">
        <ele>9.8</ele>
        <time>2022-11-27T08:21:00Z</time>
      </trkpt>
      <trkpt lat="43.3100230" lon="-2.0101340">
        <ele>9.8</ele>
        <time>2022-11-27T08:21:01Z</time>
      </trkpt>
      <trkpt lat="43.3100800" lon="-2.0101140">
        <ele>9.8</ele>
        <time>2022-11-27T08:21:02Z</time>
      </trkpt>
      <trkpt lat="43.3101400" lon="-2.0100910">
        <ele>9.8</ele>
        <time>2022-11-27T08:21:03Z</time>
      </trkpt>
      <trkpt lat="43.3102030" lon="-2.0100660">
        <ele>9.6</ele>
        <time>2022-11-27T08:21:04Z</time>
      </trkpt>
      <trkpt lat="43.3102630" lon="-2.0100410">
        <ele>9.8</ele>
        <time>2022-11-27T08:21:05Z</time>
      </trkpt>
      <trkpt lat="43.3103220" lon="-2.0100130">
        <ele>9.8</ele>
        <time>2022-11-27T08:21:06Z</time>
      </trkpt>
      <trkpt lat="43.3103830" lon="-2.0099770">
        <ele>9.8</ele>
        <time>2022-11-27T08:21:07Z</time>
      </trkpt>
      <trkpt lat="43.3104400" lon="-2.0099380">
        <ele>9.8</ele>
        <time>2022-11-27T08:21:08Z</time>
      </trkpt>
      <trkpt lat="43.3104950" lon="-2.0098960">
        <ele>9.8</ele>
        <time>2022-11-27T08:21:09Z</time>
      </trkpt>
      <trkpt lat="43.3105500" lon="-2.0098530">
        <ele>9.8</ele>
        <time>2022-11-27T08:21:10Z</time>
      </trkpt>
      <trkpt lat="43.3106040" lon="-2.0098070">
        <ele>9.8</ele>
        <time>2022-11-27T08:21:11Z</time>
      </trkpt>
      <trkpt lat="43.3106540" lon="-2.0097570">
        <ele>9.8</ele>
        <time>2022-11-27T08:21:12Z</time>
      </trkpt>
      <trkpt lat="43.3107080" lon="-2.0097090">
        <ele>9.8</ele>
        <time>2022-11-27T08:21:13Z</time>
      </trkpt>
      <trkpt lat="43.3107540" lon="-2.0096580">
        <ele>9.8</ele>
        <time>2022-11-27T08:21:14Z</time>
      </trkpt>
      <trkpt lat="43.3108000" lon="-2.0096060">
        <ele>9.8</ele>
        <time>2022-11-27T08:21:15Z</time>
      </trkpt>
      <trkpt lat="43.3108480" lon="-2.0095540">
        <ele>9.8</ele>
        <time>2022-11-27T08:21:16Z</time>
      </trkpt>
      <trkpt lat="43.3108920" lon="-2.0095000">
        <ele>9.8</ele>
        <time>2022-11-27T08:21:17Z</time>
      </trkpt>
      <trkpt lat="43.3109350" lon="-2.0094450">
        <ele>9.8</ele>
        <time>2022-11-27T08:21:18Z</time>
      </trkpt>
      <trkpt lat="43.3109750" lon="-2.0093890">
        <ele>9.8</ele>
        <time>2022-11-27T08:21:19Z</time>
      </trkpt>
      <trkpt lat="43.3110160" lon="-2.0093300">
        <ele>9.8</ele>
        <time>2022-11-27T08:21:20Z</time>
      </trkpt>
      <trkpt lat="43.3110580" lon="-2.0092690">
        <ele>9.8</ele>
        <time>2022-11-27T08:21:21Z</time>
      </trkpt>
      <trkpt lat="43.3111000" lon="-2.0092070">
        <ele>9.8</ele>
        <time>2022-11-27T08:21:22Z</time>
      </trkpt>
      <trkpt lat="43.3111410" lon="-2.0091390">
        <ele>9.8</ele>
        <time>2022-11-27T08:21:23Z</time>
      </trkpt>
      <trkpt lat="43.3111800" lon="-2.0090720">
        <ele>9.8</ele>
        <time>2022-11-27T08:21:24Z</time>
      </trkpt>
      <trkpt lat="43.3112170" lon="-2.0090040">
        <ele>9.6</ele>
        <time>2022-11-27T08:21:25Z</time>
      </trkpt>
      <trkpt lat="43.3112550" lon="-2.0089350">
        <ele>9.6</ele>
        <time>2022-11-27T08:21:26Z</time>
      </trkpt>
      <trkpt lat="43.3112910" lon="-2.0088650">
        <ele>9.6</ele>
        <time>2022-11-27T08:21:27Z</time>
      </trkpt>
      <trkpt lat="43.3113250" lon="-2.0087960">
        <ele>9.6</ele>
        <time>2022-11-27T08:21:28Z</time>
      </trkpt>
      <trkpt lat="43.3113560" lon="-2.0087290">
        <ele>9.6</ele>
        <time>2022-11-27T08:21:29Z</time>
      </trkpt>
      <trkpt lat="43.3113830" lon="-2.0086580">
        <ele>9.6</ele>
        <time>2022-11-27T08:21:30Z</time>
      </trkpt>
      <trkpt lat="43.3114010" lon="-2.0085840">
        <ele>9.6</ele>
        <time>2022-11-27T08:21:31Z</time>
      </trkpt>
      <trkpt lat="43.3114230" lon="-2.0085110">
        <ele>9.6</ele>
        <time>2022-11-27T08:21:32Z</time>
      </trkpt>
      <trkpt lat="43.3114510" lon="-2.0084380">
        <ele>9.6</ele>
        <time>2022-11-27T08:21:33Z</time>
      </trkpt>
      <trkpt lat="43.3114890" lon="-2.0083700">
        <ele>9.4</ele>
        <time>2022-11-27T08:21:34Z</time>
      </trkpt>
      <trkpt lat="43.3115270" lon="-2.0083050">
        <ele>9.4</ele>
        <time>2022-11-27T08:21:35Z</time>
      </trkpt>
      <trkpt lat="43.3115640" lon="-2.0082370">
        <ele>9.4</ele>
        <time>2022-11-27T08:21:36Z</time>
      </trkpt>
      <trkpt lat="43.3116070" lon="-2.0081730">
        <ele>9.4</ele>
        <time>2022-11-27T08:21:37Z</time>
      </trkpt>
      <trkpt lat="43.3116550" lon="-2.0081170">
        <ele>9.4</ele>
        <time>2022-11-27T08:21:38Z</time>
      </trkpt>
      <trkpt lat="43.3116970" lon="-2.0080530">
        <ele>9.4</ele>
        <time>2022-11-27T08:21:39Z</time>
      </trkpt>
      <trkpt lat="43.3117370" lon="-2.0079850">
        <ele>9.4</ele>
        <time>2022-11-27T08:21:40Z</time>
      </trkpt>
      <trkpt lat="43.3117730" lon="-2.0079150">
        <ele>9.4</ele>
        <time>2022-11-27T08:21:41Z</time>
      </trkpt>
      <trkpt lat="43.3118080" lon="-2.0078420">
        <ele>9.2</ele>
        <time>2022-11-27T08:21:42Z</time>
      </trkpt>
      <trkpt lat="43.3118460" lon="-2.0077690">
        <ele>9.2</ele>
        <time>2022-11-27T08:21:43Z</time>
      </trkpt>
      <trkpt lat="43.3118850" lon="-2.0076980">
        <ele>9.2</ele>
        <time>2022-11-27T08:21:44Z</time>
      </trkpt>
      <trkpt lat="43.3119200" lon="-2.0076270">
        <ele>9.2</ele>
        <time>2022-11-27T08:21:45Z</time>
      </trkpt>
      <trkpt lat="43.3119480" lon="-2.0075520">
        <ele>9.2</ele>
        <time>2022-11-27T08:21:46Z</time>
      </trkpt>
      <trkpt lat="43.3119660" lon="-2.0074730">
        <ele>9.2</ele>
        <time>2022-11-27T08:21:47Z</time>
      </trkpt>
      <trkpt lat="43.3119890" lon="-2.0073960">
        <ele>9.2</ele>
        <time>2022-11-27T08:21:48Z</time>
      </trkpt>
      <trkpt lat="43.3120190" lon="-2.0073220">
        <ele>9.2</ele>
        <time>2022-11-27T08:21:49Z</time>
      </trkpt>
      <trkpt lat="43.3120560" lon="-2.0072520">
        <ele>9.2</ele>
        <time>2022-11-27T08:21:50Z</time>
      </trkpt>
      <trkpt lat="43.3120940" lon="-2.0071870">
        <ele>9.2</ele>
        <time>2022-11-27T08:21:51Z</time>
      </trkpt>
      <trkpt lat="43.3121350" lon="-2.0071220">
        <ele>9.2</ele>
        <time>2022-11-27T08:21:52Z</time>
      </trkpt>
      <trkpt lat="43.3121760" lon="-2.0070650">
        <ele>9.2</ele>
        <time>2022-11-27T08:21:53Z</time>
      </trkpt>
      <trkpt lat="43.3122220" lon="-2.0070220">
        <ele>9.2</ele>
        <time>2022-11-27T08:21:54Z</time>
      </trkpt>
      <trkpt lat="43.3122640" lon="-2.0069780">
        <ele>9.2</ele>
        <time>2022-11-27T08:21:55Z</time>
      </trkpt>
      <trkpt lat="43.3122960" lon="-2.0069220">
        <ele>9.2</ele>
        <time>2022-11-27T08:21:56Z</time>
      </trkpt>
      <trkpt lat="43.3123250" lon="-2.0068610">
        <ele>9.2</ele>
        <time>2022-11-27T08:21:57Z</time>
      </trkpt>
      <trkpt lat="43.3123570" lon="-2.0067990">
        <ele>9.2</ele>
        <time>2022-11-27T08:21:58Z</time>
      </trkpt>
      <trkpt lat="43.3123910" lon="-2.0067320">
        <ele>9.2</ele>
        <time>2022-11-27T08:21:59Z</time>
      </trkpt>
      <trkpt lat="43.3124240" lon="-2.0066670">
        <ele>9.2</ele>
        <time>2022-11-27T08:22:00Z</time>
      </trkpt>
      <trkpt lat="43.3124530" lon="-2.0066030">
        <ele>9.2</ele>
        <time>2022-11-27T08:22:01Z</time>
      </trkpt>
      <trkpt lat="43.3124830" lon="-2.0065410">
        <ele>9.2</ele>
        <time>2022-11-27T08:22:02Z</time>
      </trkpt>
      <trkpt lat="43.3125100" lon="-2.0064770">
        <ele>9.2</ele>
        <time>2022-11-27T08:22:03Z</time>
      </trkpt>
      <trkpt lat="43.3125260" lon="-2.0064100">
        <ele>9.2</ele>
        <time>2022-11-27T08:22:04Z</time>
      </trkpt>
      <trkpt lat="43.3125410" lon="-2.0063410">
        <ele>9.2</ele>
        <time>2022-11-27T08:22:05Z</time>
      </trkpt>
      <trkpt lat="43.3125650" lon="-2.0062710">
        <ele>9.2</ele>
        <time>2022-11-27T08:22:06Z</time>
      </trkpt>
      <trkpt lat="43.3125970" lon="-2.0062030">
        <ele>9.2</ele>
        <time>2022-11-27T08:22:07Z</time>
      </trkpt>
      <trkpt lat="43.3126360" lon="-2.0061360">
        <ele>9.2</ele>
        <time>2022-11-27T08:22:08Z</time>
      </trkpt>
      <trkpt lat="43.3126680" lon="-2.0060710">
        <ele>9.2</ele>
        <time>2022-11-27T08:22:09Z</time>
      </trkpt>
      <trkpt lat="43.3127000" lon="-2.0060060">
        <ele>9.2</ele>
        <time>2022-11-27T08:22:10Z</time>
      </trkpt>
      <trkpt lat="43.3127330" lon="-2.0059360">
        <ele>9.2</ele>
        <time>2022-11-27T08:22:11Z</time>
      </trkpt>
      <trkpt lat="43.3127680" lon="-2.0058680">
        <ele>9.2</ele>
        <time>2022-11-27T08:22:12Z</time>
      </trkpt>
      <trkpt lat="43.3127970" lon="-2.0058010">
        <ele>9.2</ele>
        <time>2022-11-27T08:22:13Z</time>
      </trkpt>
      <trkpt lat="43.3128200" lon="-2.0057340">
        <ele>9.2</ele>
        <time>2022-11-27T08:22:14Z</time>
      </trkpt>
      <trkpt lat="43.3128400" lon="-2.0056680">
        <ele>9.2</ele>
        <time>2022-11-27T08:22:15Z</time>
      </trkpt>
      <trkpt lat="43.3128590" lon="-2.0056020">
        <ele>9.2</ele>
        <time>2022-11-27T08:22:16Z</time>
      </trkpt>
      <trkpt lat="43.3128770" lon="-2.0055380">
        <ele>9.2</ele>
        <time>2022-11-27T08:22:17Z</time>
      </trkpt>
      <trkpt lat="43.3128960" lon="-2.0054800">
        <ele>9.2</ele>
        <time>2022-11-27T08:22:18Z</time>
      </trkpt>
      <trkpt lat="43.3129110" lon="-2.0054240">
        <ele>9.2</ele>
        <time>2022-11-27T08:22:19Z</time>
      </trkpt>
      <trkpt lat="43.3129270" lon="-2.0053790">
        <ele>9.2</ele>
        <time>2022-11-27T08:22:20Z</time>
      </trkpt>
      <trkpt lat="43.3129470" lon="-2.0053360">
        <ele>9.4</ele>
        <time>2022-11-27T08:22:21Z</time>
      </trkpt>
      <trkpt lat="43.3129650" lon="-2.0052920">
        <ele>9.4</ele>
        <time>2022-11-27T08:22:22Z</time>
      </trkpt>
      <trkpt lat="43.3129840" lon="-2.0052530">
        <ele>9.4</ele>
        <time>2022-11-27T08:22:23Z</time>
      </trkpt>
      <trkpt lat="43.3130100" lon="-2.0052260">
        <ele>9.4</ele>
        <time>2022-11-27T08:22:24Z</time>
      </trkpt>
      <trkpt lat="43.3130430" lon="-2.0052120">
        <ele>9.6</ele>
        <time>2022-11-27T08:22:25Z</time>
      </trkpt>
      <trkpt lat="43.3130770" lon="-2.0052100">
        <ele>9.6</ele>
        <time>2022-11-27T08:22:26Z</time>
      </trkpt>
      <trkpt lat="43.3131100" lon="-2.0052130">
        <ele>9.6</ele>
        <time>2022-11-27T08:22:27Z</time>
      </trkpt>
      <trkpt lat="43.3131390" lon="-2.0052230">
        <ele>9.8</ele>
        <time>2022-11-27T08:22:28Z</time>
      </trkpt>
      <trkpt lat="43.3131600" lon="-2.0052440">
        <ele>9.8</ele>
        <time>2022-11-27T08:22:29Z</time>
      </trkpt>
      <trkpt lat="43.3131780" lon="-2.0052670">
        <ele>9.8</ele>
        <time>2022-11-27T08:22:30Z</time>
      </trkpt>
      <trkpt lat="43.3131930" lon="-2.0052870">
        <ele>9.8</ele>
        <time>2022-11-27T08:22:31Z</time>
      </trkpt>
      <trkpt lat="43.3132070" lon="-2.0053040">
        <ele>9.8</ele>
        <time>2022-11-27T08:22:32Z</time>
      </trkpt>
      <trkpt lat="43.3132190" lon="-2.0053180">
        <ele>10.0</ele>
        <time>2022-11-27T08:22:33Z</time>
      </trkpt>
      <trkpt lat="43.3132260" lon="-2.0053270">
        <ele>10.0</ele>
        <time>2022-11-27T08:22:34Z</time>
      </trkpt>
      <trkpt lat="43.3132300" lon="-2.0053300">
        <ele>10.0</ele>
        <time>2022-11-27T08:22:35Z</time>
      </trkpt>
      <trkpt lat="43.3132860" lon="-2.0054080">
        <ele>9.8</ele>
        <time>2022-11-27T08:23:17Z</time>
      </trkpt>
      <trkpt lat="43.3132950" lon="-2.0054370">
        <ele>9.8</ele>
        <time>2022-11-27T08:23:18Z</time>
      </trkpt>
      <trkpt lat="43.3133000" lon="-2.0054670">
        <ele>9.8</ele>
        <time>2022-11-27T08:23:19Z</time>
      </trkpt>
      <trkpt lat="43.3133130" lon="-2.0054990">
        <ele>9.8</ele>
        <time>2022-11-27T08:23:20Z</time>
      </trkpt>
      <trkpt lat="43.3133400" lon="-2.0055340">
        <ele>9.8</ele>
        <time>2022-11-27T08:23:21Z</time>
      </trkpt>
      <trkpt lat="43.3133760" lon="-2.0055680">
        <ele>9.8</ele>
        <time>2022-11-27T08:23:22Z</time>
      </trkpt>
      <trkpt lat="43.3134160" lon="-2.0056030">
        <ele>9.8</ele>
        <time>2022-11-27T08:23:23Z</time>
      </trkpt>
      <trkpt lat="43.3134560" lon="-2.0056410">
        <ele>9.8</ele>
        <time>2022-11-27T08:23:24Z</time>
      </trkpt>
      <trkpt lat="43.3134950" lon="-2.0056790">
        <ele>9.8</ele>
        <time>2022-11-27T08:23:25Z</time>
      </trkpt>
      <trkpt lat="43.3135320" lon="-2.0057150">
        <ele>9.8</ele>
        <time>2022-11-27T08:23:26Z</time>
      </trkpt>
      <trkpt lat="43.3135700" lon="-2.0057490">
        <ele>9.8</ele>
        <time>2022-11-27T08:23:27Z</time>
      </trkpt>
      <trkpt lat="43.3136060" lon="-2.0057690">
        <ele>9.8</ele>
        <time>2022-11-27T08:23:28Z</time>
      </trkpt>
      <trkpt lat="43.3136400" lon="-2.0057710">
        <ele>9.8</ele>
        <time>2022-11-27T08:23:29Z</time>
      </trkpt>
      <trkpt lat="43.3136690" lon="-2.0057710">
        <ele>9.8</ele>
        <time>2022-11-27T08:23:30Z</time>
      </trkpt>
      <trkpt lat="43.3136880" lon="-2.0057900">
        <ele>9.8</ele>
        <time>2022-11-27T08:23:31Z</time>
      </trkpt>
      <trkpt lat="43.3137090" lon="-2.0058310">
        <ele>9.8</ele>
        <time>2022-11-27T08:23:32Z</time>
      </trkpt>
      <trkpt lat="43.3137370" lon="-2.0058760">
        <ele>9.8</ele>
        <time>2022-11-27T08:23:33Z</time>
      </trkpt>
      <trkpt lat="43.3137750" lon="-2.0059220">
        <ele>9.8</ele>
        <time>2022-11-27T08:23:34Z</time>
      </trkpt>
      <trkpt lat="43.3138190" lon="-2.0059700">
        <ele>9.8</ele>
        <time>2022-11-27T08:23:35Z</time>
      </trkpt>
      <trkpt lat="43.3138640" lon="-2.0060170">
        <ele>9.8</ele>
        <time>2022-11-27T08:23:36Z</time>
      </trkpt>
      <trkpt lat="43.3139100" lon="-2.0060630">
        <ele>9.8</ele>
        <time>2022-11-27T08:23:37Z</time>
      </trkpt>
      <trkpt lat="43.3139570" lon="-2.0061070">
        <ele>9.8</ele>
        <time>2022-11-27T08:23:38Z</time>
      </trkpt>
      <trkpt lat="43.3140030" lon="-2.0061510">
        <ele>9.8</ele>
        <time>2022-11-27T08:23:39Z</time>
      </trkpt>
      <trkpt lat="43.3140480" lon="-2.0061970">
        <ele>9.8</ele>
        <time>2022-11-27T08:23:40Z</time>
      </trkpt>
      <trkpt lat="43.3140940" lon="-2.0062420">
        <ele>9.8</ele>
        <time>2022-11-27T08:23:41Z</time>
      </trkpt>
      <trkpt lat="43.3141420" lon="-2.0062850">
        <ele>9.8</ele>
        <time>2022-11-27T08:23:42Z</time>
      </trkpt>
      <trkpt lat="43.3141900" lon="-2.0063220">
        <ele>9.8</ele>
        <time>2022-11-27T08:23:43Z</time>
      </trkpt>
      <trkpt lat="43.3142410" lon="-2.0063470">
        <ele>9.8</ele>
        <time>2022-11-27T08:23:44Z</time>
      </trkpt>
      <trkpt lat="43.3142910" lon="-2.0063500">
        <ele>9.8</ele>
        <time>2022-11-27T08:23:45Z</time>
      </trkpt>
      <trkpt lat="43.3143390" lon="-2.0063300">
        <ele>9.8</ele>
        <time>2022-11-27T08:23:46Z</time>
      </trkpt>
      <trkpt lat="43.3143770" lon="-2.0062830">
        <ele>10.0</ele>
        <time>2022-11-27T08:23:47Z</time>
      </trkpt>
      <trkpt lat="43.3144120" lon="-2.0062270">
        <ele>10.0</ele>
        <time>2022-11-27T08:23:48Z</time>
      </trkpt>
      <trkpt lat="43.3144440" lon="-2.0061640">
        <ele>10.2</ele>
        <time>2022-11-27T08:23:49Z</time>
      </trkpt>
      <trkpt lat="43.3144780" lon="-2.0060980">
        <ele>10.2</ele>
        <time>2022-11-27T08:23:50Z</time>
      </trkpt>
      <trkpt lat="43.3145170" lon="-2.0060360">
        <ele>10.2</ele>
        <time>2022-11-27T08:23:51Z</time>
      </trkpt>
      <trkpt lat="43.3145560" lon="-2.0059770">
        <ele>10.2</ele>
        <time>2022-11-27T08:23:52Z</time>
      </trkpt>
      <trkpt lat="43.3146010" lon="-2.0059240">
        <ele>10.4</ele>
        <time>2022-11-27T08:23:53Z</time>
      </trkpt>
      <trkpt lat="43.3146480" lon="-2.0058740">
        <ele>10.4</ele>
        <time>2022-11-27T08:23:54Z</time>
      </trkpt>
      <trkpt lat="43.3146980" lon="-2.0058330">
        <ele>10.6</ele>
        <time>2022-11-27T08:23:55Z</time>
      </trkpt>
      <trkpt lat="43.3147570" lon="-2.0057970">
        <ele>10.6</ele>
        <time>2022-11-27T08:23:56Z</time>
      </trkpt>
      <trkpt lat="43.3148160" lon="-2.0057590">
        <ele>10.6</ele>
        <time>2022-11-27T08:23:57Z</time>
      </trkpt>
      <trkpt lat="43.3148770" lon="-2.0057230">
        <ele>10.6</ele>
        <time>2022-11-27T08:23:58Z</time>
      </trkpt>
      <trkpt lat="43.3149360" lon="-2.0056860">
        <ele>10.6</ele>
        <time>2022-11-27T08:23:59Z</time>
      </trkpt>
      <trkpt lat="43.3150020" lon="-2.0056550">
        <ele>10.6</ele>
        <time>2022-11-27T08:24:00Z</time>
      </trkpt>
      <trkpt lat="43.3150660" lon="-2.0056210">
        <ele>10.6</ele>
        <time>2022-11-27T08:24:01Z</time>
      </trkpt>
      <trkpt lat="43.3151320" lon="-2.0055890">
        <ele>10.6</ele>
        <time>2022-11-27T08:24:02Z</time>
      </trkpt>
      <trkpt lat="43.3151960" lon="-2.0055560">
        <ele>10.6</ele>
        <time>2022-11-27T08:24:03Z</time>
      </trkpt>
      <trkpt lat="43.3152590" lon="-2.0055200">
        <ele>10.6</ele>
        <time>2022-11-27T08:24:04Z</time>
      </trkpt>
      <trkpt lat="43.3153220" lon="-2.0054840">
        <ele>10.6</ele>
        <time>2022-11-27T08:24:05Z</time>
      </trkpt>
      <trkpt lat="43.3153840" lon="-2.0054460">
        <ele>10.6</ele>
        <time>2022-11-27T08:24:06Z</time>
      </trkpt>
      <trkpt lat="43.3154510" lon="-2.0054110">
        <ele>10.6</ele>
        <time>2022-11-27T08:24:07Z</time>
      </trkpt>
      <trkpt lat="43.3155150" lon="-2.0053710">
        <ele>10.4</ele>
        <time>2022-11-27T08:24:08Z</time>
      </trkpt>
      <trkpt lat="43.3155790" lon="-2.0053310">
        <ele>10.4</ele>
        <time>2022-11-27T08:24:09Z</time>
      </trkpt>
      <trkpt lat="43.3156460" lon="-2.0052920">
        <ele>10.4</ele>
        <time>2022-11-27T08:24:10Z</time>
      </trkpt>
      <trkpt lat="43.3157130" lon="-2.0052530">
        <ele>10.4</ele>
        <time>2022-11-27T08:24:11Z</time>
      </trkpt>
      <trkpt lat="43.3157800" lon="-2.0052150">
        <ele>10.4</ele>
        <time>2022-11-27T08:24:12Z</time>
      </trkpt>
      <trkpt lat="43.3158450" lon="-2.0051770">
        <ele>10.4</ele>
        <time>2022-11-27T08:24:13Z</time>
      </trkpt>
      <trkpt lat="43.3159130" lon="-2.0051380">
        <ele>10.4</ele>
        <time>2022-11-27T08:24:14Z</time>
      </trkpt>
      <trkpt lat="43.3159800" lon="-2.0051000">
        <ele>10.4</ele>
        <time>2022-11-27T08:24:15Z</time>
      </trkpt>
      <trkpt lat="43.3160470" lon="-2.0050640">
        <ele>10.2</ele>
        <time>2022-11-27T08:24:16Z</time>
      </trkpt>
      <trkpt lat="43.3161150" lon="-2.0050290">
        <ele>10.2</ele>
        <time>2022-11-27T08:24:17Z</time>
      </trkpt>
      <trkpt lat="43.3161820" lon="-2.0049960">
        <ele>10.2</ele>
        <time>2022-11-27T08:24:18Z</time>
      </trkpt>
      <trkpt lat="43.3162480" lon="-2.0049640">
        <ele>10.0</ele>
        <time>2022-11-27T08:24:19Z</time>
      </trkpt>
      <trkpt lat="43.3163130" lon="-2.0049300">
        <ele>10.0</ele>
        <time>2022-11-27T08:24:20Z</time>
      </trkpt>
      <trkpt lat="43.3163760" lon="-2.0048960">
        <ele>9.8</ele>
        <time>2022-11-27T08:24:21Z</time>
      </trkpt>
      <trkpt lat="43.3164310" lon="-2.0048630">
        <ele>9.8</ele>
        <time>2022-11-27T08:24:22Z</time>
      </trkpt>
      <trkpt lat="43.3164760" lon="-2.0048300">
        <ele>9.8</ele>
        <time>2022-11-27T08:24:23Z</time>
      </trkpt>
      <trkpt lat="43.3165150" lon="-2.0047980">
        <ele>9.8</ele>
        <time>2022-11-27T08:24:24Z</time>
      </trkpt>
      <trkpt lat="43.3165560" lon="-2.0047680">
        <ele>9.6</ele>
        <time>2022-11-27T08:24:25Z</time>
      </trkpt>
      <trkpt lat="43.3165960" lon="-2.0047460">
        <ele>9.6</ele>
        <time>2022-11-27T08:24:26Z</time>
      </trkpt>
      <trkpt lat="43.3166300" lon="-2.0047250">
        <ele>9.4</ele>
        <time>2022-11-27T08:24:27Z</time>
      </trkpt>
      <trkpt lat="43.3166590" lon="-2.0046970">
        <ele>9.4</ele>
        <time>2022-11-27T08:24:28Z</time>
      </trkpt>
      <trkpt lat="43.3166740" lon="-2.0046660">
        <ele>9.4</ele>
        <time>2022-11-27T08:24:29Z</time>
      </trkpt>
      <trkpt lat="43.3166710" lon="-2.0046280">
        <ele>9.4</ele>
        <time>2022-11-27T08:24:30Z</time>
      </trkpt>
      <trkpt lat="43.3166540" lon="-2.0045920">
        <ele>9.2</ele>
        <time>2022-11-27T08:24:31Z</time>
      </trkpt>
      <trkpt lat="43.3166250" lon="-2.0045540">
        <ele>9.2</ele>
        <time>2022-11-27T08:24:32Z</time>
      </trkpt>
      <trkpt lat="43.3165870" lon="-2.0045160">
        <ele>9.2</ele>
        <time>2022-11-27T08:24:33Z</time>
      </trkpt>
      <trkpt lat="43.3165470" lon="-2.0044780">
        <ele>9.2</ele>
        <time>2022-11-27T08:24:34Z</time>
      </trkpt>
      <trkpt lat="43.3165120" lon="-2.0044260">
        <ele>9.2</ele>
        <time>2022-11-27T08:24:35Z</time>
      </trkpt>
      <trkpt lat="43.3164840" lon="-2.0043590">
        <ele>9.2</ele>
        <time>2022-11-27T08:24:36Z</time>
      </trkpt>
      <trkpt lat="43.3164590" lon="-2.0042850">
        <ele>9.2</ele>
        <time>2022-11-27T08:24:37Z</time>
      </trkpt>
      <trkpt lat="43.3164340" lon="-2.0042100">
        <ele>9.2</ele>
        <time>2022-11-27T08:24:38Z</time>
      </trkpt>
      <trkpt lat="43.3164080" lon="-2.0041340">
        <ele>9.2</ele>
        <time>2022-11-27T08:24:39Z</time>
      </trkpt>
      <trkpt lat="43.3163850" lon="-2.0040550">
        <ele>9.2</ele>
        <time>2022-11-27T08:24:40Z</time>
      </trkpt>
      <trkpt lat="43.3163610" lon="-2.0039750">
        <ele>9.2</ele>
        <time>2022-11-27T08:24:41Z</time>
      </trkpt>
      <trkpt lat="43.3163360" lon="-2.0038960">
        <ele>9.2</ele>
        <time>2022-11-27T08:24:42Z</time>
      </trkpt>
      <trkpt lat="43.3163110" lon="-2.0038160">
        <ele>9.2</ele>
        <time>2022-11-27T08:24:43Z</time>
      </trkpt>
      <trkpt lat="43.3162860" lon="-2.0037360">
        <ele>9.2</ele>
        <time>2022-11-27T08:24:44Z</time>
      </trkpt>
      <trkpt lat="43.3162610" lon="-2.0036570">
        <ele>9.2</ele>
        <time>2022-11-27T08:24:45Z</time>
      </trkpt>
      <trkpt lat="43.3162370" lon="-2.0035770">
        <ele>9.0</ele>
        <time>2022-11-27T08:24:46Z</time>
      </trkpt>
      <trkpt lat="43.3162120" lon="-2.0034960">
        <ele>9.0</ele>
        <time>2022-11-27T08:24:47Z</time>
      </trkpt>
      <trkpt lat="43.3161900" lon="-2.0034140">
        <ele>9.0</ele>
        <time>2022-11-27T08:24:48Z</time>
      </trkpt>
      <trkpt lat="43.3161680" lon="-2.0033310">
        <ele>9.0</ele>
        <time>2022-11-27T08:24:49Z</time>
      </trkpt>
      <trkpt lat="43.3161420" lon="-2.0032470">
        <ele>9.0</ele>
        <time>2022-11-27T08:24:50Z</time>
      </trkpt>
      <trkpt lat="43.3161120" lon="-2.0031630">
        <ele>9.0</ele>
        <time>2022-11-27T08:24:51Z</time>
      </trkpt>
      <trkpt lat="43.3160840" lon="-2.0030770">
        <ele>9.0</ele>
        <time>2022-11-27T08:24:52Z</time>
      </trkpt>
      <trkpt lat="43.3160570" lon="-2.0029900">
        <ele>9.0</ele>
        <time>2022-11-27T08:24:53Z</time>
      </trkpt>
      <trkpt lat="43.3160310" lon="-2.0029020">
        <ele>9.0</ele>
        <time>2022-11-27T08:24:54Z</time>
      </trkpt>
      <trkpt lat="43.3160040" lon="-2.0028160">
        <ele>9.0</ele>
        <time>2022-11-27T08:24:55Z</time>
      </trkpt>
      <trkpt lat="43.3159760" lon="-2.0027300">
        <ele>9.0</ele>
        <time>2022-11-27T08:24:56Z</time>
      </trkpt>
      <trkpt lat="43.3159480" lon="-2.0026440">
        <ele>9.0</ele>
        <time>2022-11-27T08:24:57Z</time>
      </trkpt>
      <trkpt lat="43.3159210" lon="-2.0025580">
        <ele>8.8</ele>
        <time>2022-11-27T08:24:58Z</time>
      </trkpt>
      <trkpt lat="43.3158960" lon="-2.0024720">
        <ele>8.8</ele>
        <time>2022-11-27T08:24:59Z</time>
      </trkpt>
      <trkpt lat="43.3158690" lon="-2.0023890">
        <ele>8.8</ele>
        <time>2022-11-27T08:25:00Z</time>
      </trkpt>
      <trkpt lat="43.3158430" lon="-2.0023070">
        <ele>8.8</ele>
        <time>2022-11-27T08:25:01Z</time>
      </trkpt>
      <trkpt lat="43.3158190" lon="-2.0022280">
        <ele>8.8</ele>
        <time>2022-11-27T08:25:02Z</time>
      </trkpt>
      <trkpt lat="43.3157950" lon="-2.0021530">
        <ele>8.8</ele>
        <time>2022-11-27T08:25:03Z</time>
      </trkpt>
      <trkpt lat="43.3157740" lon="-2.0020820">
        <ele>8.8</ele>
        <time>2022-11-27T08:25:04Z</time>
      </trkpt>
      <trkpt lat="43.3157540" lon="-2.0020170">
        <ele>8.8</ele>
        <time>2022-11-27T08:25:05Z</time>
      </trkpt>
      <trkpt lat="43.3157340" lon="-2.0019540">
        <ele>8.8</ele>
        <time>2022-11-27T08:25:06Z</time>
      </trkpt>
      <trkpt lat="43.3157150" lon="-2.0018940">
        <ele>8.8</ele>
        <time>2022-11-27T08:25:07Z</time>
      </trkpt>
      <trkpt lat="43.3156970" lon="-2.0018360">
        <ele>8.8</ele>
        <time>2022-11-27T08:25:08Z</time>
      </trkpt>
      <trkpt lat="43.3156830" lon="-2.0017770">
        <ele>8.8</ele>
        <time>2022-11-27T08:25:09Z</time>
      </trkpt>
      <trkpt lat="43.3156730" lon="-2.0017140">
        <ele>8.8</ele>
        <time>2022-11-27T08:25:10Z</time>
      </trkpt>
      <trkpt lat="43.3156610" lon="-2.0016520">
        <ele>8.8</ele>
        <time>2022-11-27T08:25:11Z</time>
      </trkpt>
      <trkpt lat="43.3156400" lon="-2.0015930">
        <ele>9.0</ele>
        <time>2022-11-27T08:25:12Z</time>
      </trkpt>
      <trkpt lat="43.3156170" lon="-2.0015370">
        <ele>9.0</ele>
        <time>2022-11-27T08:25:13Z</time>
      </trkpt>
      <trkpt lat="43.3155960" lon="-2.0014800">
        <ele>9.0</ele>
        <time>2022-11-27T08:25:14Z</time>
      </trkpt>
      <trkpt lat="43.3155780" lon="-2.0014230">
        <ele>9.0</ele>
        <time>2022-11-27T08:25:15Z</time>
      </trkpt>
      <trkpt lat="43.3155610" lon="-2.0013640">
        <ele>9.0</ele>
        <time>2022-11-27T08:25:16Z</time>
      </trkpt>
      <trkpt lat="43.3155460" lon="-2.0013040">
        <ele>9.2</ele>
        <time>2022-11-27T08:25:17Z</time>
      </trkpt>
      <trkpt lat="43.3155340" lon="-2.0012420">
        <ele>9.2</ele>
        <time>2022-11-27T08:25:18Z</time>
      </trkpt>
      <trkpt lat="43.3155240" lon="-2.0011780">
        <ele>9.2</ele>
        <time>2022-11-27T08:25:19Z</time>
      </trkpt>
      <trkpt lat="43.3155210" lon="-2.0011150">
        <ele>9.2</ele>
        <time>2022-11-27T08:25:20Z</time>
      </trkpt>
      <trkpt lat="43.3155250" lon="-2.0010530">
        <ele>9.4</ele>
        <time>2022-11-27T08:25:21Z</time>
      </trkpt>
      <trkpt lat="43.3155370" lon="-2.0009950">
        <ele>9.4</ele>
        <time>2022-11-27T08:25:22Z</time>
      </trkpt>
      <trkpt lat="43.3155540" lon="-2.0009430">
        <ele>9.4</ele>
        <time>2022-11-27T08:25:23Z</time>
      </trkpt>
      <trkpt lat="43.3155740" lon="-2.0008970">
        <ele>9.4</ele>
        <time>2022-11-27T08:25:24Z</time>
      </trkpt>
      <trkpt lat="43.3155930" lon="-2.0008550">
        <ele>9.4</ele>
        <time>2022-11-27T08:25:25Z</time>
      </trkpt>
      <trkpt lat="43.3156120" lon="-2.0008140">
        <ele>9.4</ele>
        <time>2022-11-27T08:25:26Z</time>
      </trkpt>
      <trkpt lat="43.3156310" lon="-2.0007660">
        <ele>9.4</ele>
        <time>2022-11-27T08:25:27Z</time>
      </trkpt>
      <trkpt lat="43.3156440" lon="-2.0007100">
        <ele>9.4</ele>
        <time>2022-11-27T08:25:28Z</time>
      </trkpt>
      <trkpt lat="43.3156550" lon="-2.0006510">
        <ele>9.4</ele>
        <time>2022-11-27T08:25:29Z</time>
      </trkpt>
      <trkpt lat="43.3156660" lon="-2.0005970">
        <ele>9.4</ele>
        <time>2022-11-27T08:25:30Z</time>
      </trkpt>
      <trkpt lat="43.3156770" lon="-2.0005450">
        <ele>9.4</ele>
        <time>2022-11-27T08:25:31Z</time>
      </trkpt>
      <trkpt lat="43.3156850" lon="-2.0004900">
        <ele>9.4</ele>
        <time>2022-11-27T08:25:32Z</time>
      </trkpt>
      <trkpt lat="43.3156900" lon="-2.0004330">
        <ele>9.6</ele>
        <time>2022-11-27T08:25:33Z</time>
      </trkpt>
      <trkpt lat="43.3156940" lon="-2.0003740">
        <ele>9.6</ele>
        <time>2022-11-27T08:25:34Z</time>
      </trkpt>
      <trkpt lat="43.3156990" lon="-2.0003140">
        <ele>9.6</ele>
        <time>2022-11-27T08:25:35Z</time>
      </trkpt>
      <trkpt lat="43.3157010" lon="-2.0002520">
        <ele>9.6</ele>
        <time>2022-11-27T08:25:36Z</time>
      </trkpt>
      <trkpt lat="43.3156990" lon="-2.0001910">
        <ele>9.6</ele>
        <time>2022-11-27T08:25:37Z</time>
      </trkpt>
      <trkpt lat="43.3156950" lon="-2.0001320">
        <ele>9.6</ele>
        <time>2022-11-27T08:25:38Z</time>
      </trkpt>
      <trkpt lat="43.3156870" lon="-2.0000760">
        <ele>9.8</ele>
        <time>2022-11-27T08:25:39Z</time>
      </trkpt>
      <trkpt lat="43.3156800" lon="-2.0000270">
        <ele>9.8</ele>
        <time>2022-11-27T08:25:40Z</time>
      </trkpt>
      <trkpt lat="43.3156740" lon="-1.9999880">
        <ele>10.0</ele>
        <time>2022-11-27T08:25:41Z</time>
      </trkpt>
      <trkpt lat="43.3156700" lon="-1.9999540">
        <ele>10.0</ele>
        <time>2022-11-27T08:25:42Z</time>
      </trkpt>
      <trkpt lat="43.3156640" lon="-1.9999220">
        <ele>10.2</ele>
        <time>2022-11-27T08:25:43Z</time>
      </trkpt>
      <trkpt lat="43.3156590" lon="-1.9998930">
        <ele>10.4</ele>
        <time>2022-11-27T08:25:44Z</time>
      </trkpt>
      <trkpt lat="43.3156600" lon="-1.9998500">
        <ele>10.4</ele>
        <time>2022-11-27T08:25:45Z</time>
      </trkpt>
      <trkpt lat="43.3156570" lon="-1.9997920">
        <ele>10.6</ele>
        <time>2022-11-27T08:25:46Z</time>
      </trkpt>
      <trkpt lat="43.3156480" lon="-1.9997290">
        <ele>10.8</ele>
        <time>2022-11-27T08:25:47Z</time>
      </trkpt>
      <trkpt lat="43.3156350" lon="-1.9996630">
        <ele>11.0</ele>
        <time>2022-11-27T08:25:48Z</time>
      </trkpt>
      <trkpt lat="43.3156190" lon="-1.9995970">
        <ele>11.0</ele>
        <time>2022-11-27T08:25:49Z</time>
      </trkpt>
      <trkpt lat="43.3156060" lon="-1.9995340">
        <ele>11.2</ele>
        <time>2022-11-27T08:25:50Z</time>
      </trkpt>
      <trkpt lat="43.3155970" lon="-1.9994700">
        <ele>11.4</ele>
        <time>2022-11-27T08:25:51Z</time>
      </trkpt>
      <trkpt lat="43.3155900" lon="-1.9994050">
        <ele>11.4</ele>
        <time>2022-11-27T08:25:52Z</time>
      </trkpt>
      <trkpt lat="43.3155800" lon="-1.9993390">
        <ele>11.6</ele>
        <time>2022-11-27T08:25:53Z</time>
      </trkpt>
      <trkpt lat="43.3155650" lon="-1.9992730">
        <ele>11.6</ele>
        <time>2022-11-27T08:25:54Z</time>
      </trkpt>
      <trkpt lat="43.3155460" lon="-1.9992110">
        <ele>11.8</ele>
        <time>2022-11-27T08:25:55Z</time>
      </trkpt>
      <trkpt lat="43.3155250" lon="-1.9991520">
        <ele>11.8</ele>
        <time>2022-11-27T08:25:56Z</time>
      </trkpt>
      <trkpt lat="43.3155060" lon="-1.9990970">
        <ele>12.0</ele>
        <time>2022-11-27T08:25:57Z</time>
      </trkpt>
      <trkpt lat="43.3154910" lon="-1.9990420">
        <ele>12.0</ele>
        <time>2022-11-27T08:25:58Z</time>
      </trkpt>
      <trkpt lat="43.3154790" lon="-1.9989900">
        <ele>12.2</ele>
        <time>2022-11-27T08:25:59Z</time>
      </trkpt>
      <trkpt lat="43.3154700" lon="-1.9989440">
        <ele>12.2</ele>
        <time>2022-11-27T08:26:00Z</time>
      </trkpt>
      <trkpt lat="43.3154600" lon="-1.9989050">
        <ele>12.4</ele>
        <time>2022-11-27T08:26:01Z</time>
      </trkpt>
      <trkpt lat="43.3154420" lon="-1.9988640">
        <ele>12.4</ele>
        <time>2022-11-27T08:26:02Z</time>
      </trkpt>
      <trkpt lat="43.3154210" lon="-1.9988170">
        <ele>12.6</ele>
        <time>2022-11-27T08:26:03Z</time>
      </trkpt>
      <trkpt lat="43.3154000" lon="-1.9987670">
        <ele>12.6</ele>
        <time>2022-11-27T08:26:04Z</time>
      </trkpt>
      <trkpt lat="43.3153820" lon="-1.9987120">
        <ele>12.8</ele>
        <time>2022-11-27T08:26:05Z</time>
      </trkpt>
      <trkpt lat="43.3153610" lon="-1.9986550">
        <ele>12.8</ele>
        <time>2022-11-27T08:26:06Z</time>
      </trkpt>
      <trkpt lat="43.3153450" lon="-1.9986000">
        <ele>12.8</ele>
        <time>2022-11-27T08:26:07Z</time>
      </trkpt>
      <trkpt lat="43.3153370" lon="-1.9985420">
        <ele>13.0</ele>
        <time>2022-11-27T08:26:08Z</time>
      </trkpt>
      <trkpt lat="43.3153260" lon="-1.9984810">
        <ele>13.0</ele>
        <time>2022-11-27T08:26:09Z</time>
      </trkpt>
      <trkpt lat="43.3153150" lon="-1.9984200">
        <ele>13.0</ele>
        <time>2022-11-27T08:26:10Z</time>
      </trkpt>
      <trkpt lat="43.3153040" lon="-1.9983630">
        <ele>13.0</ele>
        <time>2022-11-27T08:26:11Z</time>
      </trkpt>
      <trkpt lat="43.3152840" lon="-1.9983020">
        <ele>13.0</ele>
        <time>2022-11-27T08:26:12Z</time>
      </trkpt>
      <trkpt lat="43.3152620" lon="-1.9982430">
        <ele>13.0</ele>
        <time>2022-11-27T08:26:13Z</time>
      </trkpt>
      <trkpt lat="43.3152430" lon="-1.9981850">
        <ele>13.0</ele>
        <time>2022-11-27T08:26:14Z</time>
      </trkpt>
      <trkpt lat="43.3152180" lon="-1.9981250">
        <ele>13.0</ele>
        <time>2022-11-27T08:26:15Z</time>
      </trkpt>
      <trkpt lat="43.3151980" lon="-1.9980620">
        <ele>13.0</ele>
        <time>2022-11-27T08:26:16Z</time>
      </trkpt>
      <trkpt lat="43.3151580" lon="-1.9980140">
        <ele>13.2</ele>
        <time>2022-11-27T08:26:17Z</time>
      </trkpt>
      <trkpt lat="43.3151120" lon="-1.9979760">
        <ele>13.2</ele>
        <time>2022-11-27T08:26:18Z</time>
      </trkpt>
      <trkpt lat="43.3150800" lon="-1.9979190">
        <ele>13.2</ele>
        <time>2022-11-27T08:26:19Z</time>
      </trkpt>
      <trkpt lat="43.3149640" lon="-1.9979160">
        <ele>13.2</ele>
        <time>2022-11-27T08:26:20Z</time>
      </trkpt>
      <trkpt lat="43.3149120" lon="-1.9978460">
        <ele>13.2</ele>
        <time>2022-11-27T08:26:21Z</time>
      </trkpt>
      <trkpt lat="43.3149120" lon="-1.9977830">
        <ele>13.2</ele>
        <time>2022-11-27T08:26:22Z</time>
      </trkpt>
      <trkpt lat="43.3149070" lon="-1.9976900">
        <ele>13.2</ele>
        <time>2022-11-27T08:26:23Z</time>
      </trkpt>
      <trkpt lat="43.3148850" lon="-1.9976100">
        <ele>13.2</ele>
        <time>2022-11-27T08:26:24Z</time>
      </trkpt>
      <trkpt lat="43.3148550" lon="-1.9975380">
        <ele>13.4</ele>
        <time>2022-11-27T08:26:25Z</time>
      </trkpt>
      <trkpt lat="43.3148320" lon="-1.9974740">
        <ele>13.4</ele>
        <time>2022-11-27T08:26:26Z</time>
      </trkpt>
      <trkpt lat="43.3148100" lon="-1.9974110">
        <ele>13.4</ele>
        <time>2022-11-27T08:26:27Z</time>
      </trkpt>
      <trkpt lat="43.3147910" lon="-1.9973470">
        <ele>13.4</ele>
        <time>2022-11-27T08:26:28Z</time>
      </trkpt>
      <trkpt lat="43.3147730" lon="-1.9972780">
        <ele>13.4</ele>
        <time>2022-11-27T08:26:29Z</time>
      </trkpt>
      <trkpt lat="43.3147550" lon="-1.9972050">
        <ele>13.6</ele>
        <time>2022-11-27T08:26:30Z</time>
      </trkpt>
      <trkpt lat="43.3147400" lon="-1.9971290">
        <ele>13.6</ele>
        <time>2022-11-27T08:26:31Z</time>
      </trkpt>
      <trkpt lat="43.3147240" lon="-1.9970520">
        <ele>13.6</ele>
        <time>2022-11-27T08:26:32Z</time>
      </trkpt>
      <trkpt lat="43.3147070" lon="-1.9969730">
        <ele>13.6</ele>
        <time>2022-11-27T08:26:33Z</time>
      </trkpt>
      <trkpt lat="43.3146910" lon="-1.9968920">
        <ele>13.6</ele>
        <time>2022-11-27T08:26:34Z</time>
      </trkpt>
      <trkpt lat="43.3146750" lon="-1.9968070">
        <ele>13.6</ele>
        <time>2022-11-27T08:26:35Z</time>
      </trkpt>
      <trkpt lat="43.3146590" lon="-1.9967240">
        <ele>13.8</ele>
        <time>2022-11-27T08:26:36Z</time>
      </trkpt>
      <trkpt lat="43.3146430" lon="-1.9966390">
        <ele>13.8</ele>
        <time>2022-11-27T08:26:37Z</time>
      </trkpt>
      <trkpt lat="43.3146270" lon="-1.9965540">
        <ele>13.8</ele>
        <time>2022-11-27T08:26:38Z</time>
      </trkpt>
      <trkpt lat="43.3146120" lon="-1.9964690">
        <ele>14.0</ele>
        <time>2022-11-27T08:26:39Z</time>
      </trkpt>
      <trkpt lat="43.3145980" lon="-1.9963840">
        <ele>14.0</ele>
        <time>2022-11-27T08:26:40Z</time>
      </trkpt>
      <trkpt lat="43.3145830" lon="-1.9963000">
        <ele>14.0</ele>
        <time>2022-11-27T08:26:41Z</time>
      </trkpt>
      <trkpt lat="43.3145670" lon="-1.9962160">
        <ele>14.2</ele>
        <time>2022-11-27T08:26:42Z</time>
      </trkpt>
      <trkpt lat="43.3145490" lon="-1.9961330">
        <ele>14.2</ele>
        <time>2022-11-27T08:26:43Z</time>
      </trkpt>
      <trkpt lat="43.3145340" lon="-1.9960490">
        <ele>14.2</ele>
        <time>2022-11-27T08:26:44Z</time>
      </trkpt>
      <trkpt lat="43.3145230" lon="-1.9959640">
        <ele>14.2</ele>
        <time>2022-11-27T08:26:45Z</time>
      </trkpt>
      <trkpt lat="43.3145150" lon="-1.9958790">
        <ele>14.2</ele>
        <time>2022-11-27T08:26:46Z</time>
      </trkpt>
      <trkpt lat="43.3145080" lon="-1.9957950">
        <ele>14.2</ele>
        <time>2022-11-27T08:26:47Z</time>
      </trkpt>
      <trkpt lat="43.3145050" lon="-1.9957130">
        <ele>14.2</ele>
        <time>2022-11-27T08:26:48Z</time>
      </trkpt>
      <trkpt lat="43.3145030" lon="-1.9956380">
        <ele>14.2</ele>
        <time>2022-11-27T08:26:49Z</time>
      </trkpt>
      <trkpt lat="43.3145040" lon="-1.9955760">
        <ele>14.2</ele>
        <time>2022-11-27T08:26:50Z</time>
      </trkpt>
      <trkpt lat="43.3145000" lon="-1.9955180">
        <ele>14.2</ele>
        <time>2022-11-27T08:26:51Z</time>
      </trkpt>
      <trkpt lat="43.3144950" lon="-1.9954520">
        <ele>14.2</ele>
        <time>2022-11-27T08:26:52Z</time>
      </trkpt>
      <trkpt lat="43.3144950" lon="-1.9953780">
        <ele>14.4</ele>
        <time>2022-11-27T08:26:53Z</time>
      </trkpt>
      <trkpt lat="43.3144970" lon="-1.9953000">
        <ele>14.4</ele>
        <time>2022-11-27T08:26:54Z</time>
      </trkpt>
      <trkpt lat="43.3144980" lon="-1.9952190">
        <ele>14.4</ele>
        <time>2022-11-27T08:26:55Z</time>
      </trkpt>
      <trkpt lat="43.3144980" lon="-1.9951360">
        <ele>14.4</ele>
        <time>2022-11-27T08:26:56Z</time>
      </trkpt>
      <trkpt lat="43.3145000" lon="-1.9950520">
        <ele>14.4</ele>
        <time>2022-11-27T08:26:57Z</time>
      </trkpt>
      <trkpt lat="43.3145010" lon="-1.9949660">
        <ele>14.4</ele>
        <time>2022-11-27T08:26:58Z</time>
      </trkpt>
      <trkpt lat="43.3145030" lon="-1.9948800">
        <ele>14.4</ele>
        <time>2022-11-27T08:26:59Z</time>
      </trkpt>
      <trkpt lat="43.3145040" lon="-1.9947920">
        <ele>14.4</ele>
        <time>2022-11-27T08:27:00Z</time>
      </trkpt>
      <trkpt lat="43.3145040" lon="-1.9947040">
        <ele>14.4</ele>
        <time>2022-11-27T08:27:01Z</time>
      </trkpt>
      <trkpt lat="43.3145040" lon="-1.9946160">
        <ele>14.4</ele>
        <time>2022-11-27T08:27:02Z</time>
      </trkpt>
      <trkpt lat="43.3145060" lon="-1.9945290">
        <ele>14.4</ele>
        <time>2022-11-27T08:27:03Z</time>
      </trkpt>
      <trkpt lat="43.3145100" lon="-1.9944440">
        <ele>14.4</ele>
        <time>2022-11-27T08:27:04Z</time>
      </trkpt>
      <trkpt lat="43.3145140" lon="-1.9943600">
        <ele>14.4</ele>
        <time>2022-11-27T08:27:05Z</time>
      </trkpt>
      <trkpt lat="43.3145150" lon="-1.9942740">
        <ele>14.4</ele>
        <time>2022-11-27T08:27:06Z</time>
      </trkpt>
      <trkpt lat="43.3145160" lon="-1.9941870">
        <ele>14.4</ele>
        <time>2022-11-27T08:27:07Z</time>
      </trkpt>
      <trkpt lat="43.3145150" lon="-1.9940990">
        <ele>14.4</ele>
        <time>2022-11-27T08:27:08Z</time>
      </trkpt>
      <trkpt lat="43.3145130" lon="-1.9940100">
        <ele>14.4</ele>
        <time>2022-11-27T08:27:09Z</time>
      </trkpt>
      <trkpt lat="43.3145130" lon="-1.9939210">
        <ele>14.4</ele>
        <time>2022-11-27T08:27:10Z</time>
      </trkpt>
      <trkpt lat="43.3145130" lon="-1.9938320">
        <ele>14.4</ele>
        <time>2022-11-27T08:27:11Z</time>
      </trkpt>
      <trkpt lat="43.3145150" lon="-1.9937440">
        <ele>14.4</ele>
        <time>2022-11-27T08:27:12Z</time>
      </trkpt>
      <trkpt lat="43.3145170" lon="-1.9936560">
        <ele>14.4</ele>
        <time>2022-11-27T08:27:13Z</time>
      </trkpt>
      <trkpt lat="43.3145180" lon="-1.9935710">
        <ele>14.4</ele>
        <time>2022-11-27T08:27:14Z</time>
      </trkpt>
      <trkpt lat="43.3145170" lon="-1.9934880">
        <ele>14.4</ele>
        <time>2022-11-27T08:27:15Z</time>
      </trkpt>
      <trkpt lat="43.3145170" lon="-1.9934060">
        <ele>14.4</ele>
        <time>2022-11-27T08:27:16Z</time>
      </trkpt>
      <trkpt lat="43.3145200" lon="-1.9933280">
        <ele>14.4</ele>
        <time>2022-11-27T08:27:17Z</time>
      </trkpt>
      <trkpt lat="43.3145230" lon="-1.9932550">
        <ele>14.4</ele>
        <time>2022-11-27T08:27:18Z</time>
      </trkpt>
      <trkpt lat="43.3145270" lon="-1.9931840">
        <ele>14.4</ele>
        <time>2022-11-27T08:27:19Z</time>
      </trkpt>
      <trkpt lat="43.3145300" lon="-1.9931120">
        <ele>14.4</ele>
        <time>2022-11-27T08:27:20Z</time>
      </trkpt>
      <trkpt lat="43.3145310" lon="-1.9930420">
        <ele>14.2</ele>
        <time>2022-11-27T08:27:21Z</time>
      </trkpt>
      <trkpt lat="43.3145300" lon="-1.9929740">
        <ele>14.2</ele>
        <time>2022-11-27T08:27:22Z</time>
      </trkpt>
      <trkpt lat="43.3145310" lon="-1.9929140">
        <ele>14.2</ele>
        <time>2022-11-27T08:27:23Z</time>
      </trkpt>
      <trkpt lat="43.3145330" lon="-1.9928610">
        <ele>14.2</ele>
        <time>2022-11-27T08:27:24Z</time>
      </trkpt>
      <trkpt lat="43.3145330" lon="-1.9928200">
        <ele>14.2</ele>
        <time>2022-11-27T08:27:25Z</time>
      </trkpt>
      <trkpt lat="43.3145290" lon="-1.9927910">
        <ele>14.2</ele>
        <time>2022-11-27T08:27:26Z</time>
      </trkpt>
      <trkpt lat="43.3145270" lon="-1.9927660">
        <ele>14.2</ele>
        <time>2022-11-27T08:27:27Z</time>
      </trkpt>
      <trkpt lat="43.3145240" lon="-1.9927440">
        <ele>14.2</ele>
        <time>2022-11-27T08:27:28Z</time>
      </trkpt>
      <trkpt lat="43.3145210" lon="-1.9927240">
        <ele>14.2</ele>
        <time>2022-11-27T08:27:29Z</time>
      </trkpt>
      <trkpt lat="43.3145200" lon="-1.9927090">
        <ele>14.2</ele>
        <time>2022-11-27T08:27:30Z</time>
      </trkpt>
      <trkpt lat="43.3145210" lon="-1.9927020">
        <ele>14.2</ele>
        <time>2022-11-27T08:27:31Z</time>
      </trkpt>
      <trkpt lat="43.3145200" lon="-1.9926980">
        <ele>14.2</ele>
        <time>2022-11-27T08:27:32Z</time>
      </trkpt>
      <trkpt lat="43.3145310" lon="-1.9926020">
        <ele>14.4</ele>
        <time>2022-11-27T08:27:36Z</time>
      </trkpt>
      <trkpt lat="43.3145360" lon="-1.9925620">
        <ele>14.4</ele>
        <time>2022-11-27T08:27:37Z</time>
      </trkpt>
      <trkpt lat="43.3145460" lon="-1.9925210">
        <ele>14.4</ele>
        <time>2022-11-27T08:27:38Z</time>
      </trkpt>
      <trkpt lat="43.3145530" lon="-1.9924840">
        <ele>14.4</ele>
        <time>2022-11-27T08:27:39Z</time>
      </trkpt>
      <trkpt lat="43.3145590" lon="-1.9924450">
        <ele>14.2</ele>
        <time>2022-11-27T08:27:40Z</time>
      </trkpt>
      <trkpt lat="43.3145630" lon="-1.9924000">
        <ele>14.2</ele>
        <time>2022-11-27T08:27:41Z</time>
      </trkpt>
      <trkpt lat="43.3145660" lon="-1.9923490">
        <ele>14.2</ele>
        <time>2022-11-27T08:27:42Z</time>
      </trkpt>
      <trkpt lat="43.3145720" lon="-1.9922980">
        <ele>14.2</ele>
        <time>2022-11-27T08:27:43Z</time>
      </trkpt>
      <trkpt lat="43.3145790" lon="-1.9922450">
        <ele>14.2</ele>
        <time>2022-11-27T08:27:44Z</time>
      </trkpt>
      <trkpt lat="43.3145860" lon="-1.9921890">
        <ele>14.2</ele>
        <time>2022-11-27T08:27:45Z</time>
      </trkpt>
      <trkpt lat="43.3145930" lon="-1.9921350">
        <ele>14.2</ele>
        <time>2022-11-27T08:27:46Z</time>
      </trkpt>
      <trkpt lat="43.3146010" lon="-1.9920820">
        <ele>14.2</ele>
        <time>2022-11-27T08:27:47Z</time>
      </trkpt>
      <trkpt lat="43.3146080" lon="-1.9920330">
        <ele>14.2</ele>
        <time>2022-11-27T08:27:48Z</time>
      </trkpt>
      <trkpt lat="43.3146120" lon="-1.9919910">
        <ele>14.2</ele>
        <time>2022-11-27T08:27:49Z</time>
      </trkpt>
      <trkpt lat="43.3146170" lon="-1.9919570">
        <ele>14.0</ele>
        <time>2022-11-27T08:27:50Z</time>
      </trkpt>
      <trkpt lat="43.3146210" lon="-1.9919320">
        <ele>14.0</ele>
        <time>2022-11-27T08:27:51Z</time>
      </trkpt>
      <trkpt lat="43.3146250" lon="-1.9919100">
        <ele>14.0</ele>
        <time>2022-11-27T08:27:52Z</time>
      </trkpt>
      <trkpt lat="43.3146280" lon="-1.9918880">
        <ele>14.0</ele>
        <time>2022-11-27T08:27:53Z</time>
      </trkpt>
      <trkpt lat="43.3146310" lon="-1.9918660">
        <ele>14.0</ele>
        <time>2022-11-27T08:27:54Z</time>
      </trkpt>
      <trkpt lat="43.3146330" lon="-1.9918430">
        <ele>13.8</ele>
        <time>2022-11-27T08:27:55Z</time>
      </trkpt>
      <trkpt lat="43.3146360" lon="-1.9918210">
        <ele>13.8</ele>
        <time>2022-11-27T08:27:56Z</time>
      </trkpt>
      <trkpt lat="43.3146390" lon="-1.9918000">
        <ele>13.8</ele>
        <time>2022-11-27T08:27:57Z</time>
      </trkpt>
      <trkpt lat="43.3146420" lon="-1.9917810">
        <ele>13.8</ele>
        <time>2022-11-27T08:27:58Z</time>
      </trkpt>
      <trkpt lat="43.3146450" lon="-1.9917610">
        <ele>13.8</ele>
        <time>2022-11-27T08:27:59Z</time>
      </trkpt>
      <trkpt lat="43.3146500" lon="-1.9917420">
        <ele>13.8</ele>
        <time>2022-11-27T08:28:00Z</time>
      </trkpt>
      <trkpt lat="43.3146540" lon="-1.9917220">
        <ele>13.8</ele>
        <time>2022-11-27T08:28:01Z</time>
      </trkpt>
      <trkpt lat="43.3146550" lon="-1.9917010">
        <ele>13.8</ele>
        <time>2022-11-27T08:28:02Z</time>
      </trkpt>
      <trkpt lat="43.3146590" lon="-1.9916800">
        <ele>13.8</ele>
        <time>2022-11-27T08:28:03Z</time>
      </trkpt>
      <trkpt lat="43.3146620" lon="-1.9916580">
        <ele>13.8</ele>
        <time>2022-11-27T08:28:04Z</time>
      </trkpt>
      <trkpt lat="43.3146660" lon="-1.9916370">
        <ele>13.8</ele>
        <time>2022-11-27T08:28:05Z</time>
      </trkpt>
      <trkpt lat="43.3146700" lon="-1.9916150">
        <ele>13.8</ele>
        <time>2022-11-27T08:28:06Z</time>
      </trkpt>
      <trkpt lat="43.3146760" lon="-1.9915940">
        <ele>13.8</ele>
        <time>2022-11-27T08:28:07Z</time>
      </trkpt>
      <trkpt lat="43.3146800" lon="-1.9915710">
        <ele>13.8</ele>
        <time>2022-11-27T08:28:08Z</time>
      </trkpt>
      <trkpt lat="43.3146880" lon="-1.9915430">
        <ele>13.8</ele>
        <time>2022-11-27T08:28:09Z</time>
      </trkpt>
      <trkpt lat="43.3146980" lon="-1.9915080">
        <ele>13.8</ele>
        <time>2022-11-27T08:28:10Z</time>
      </trkpt>
      <trkpt lat="43.3147040" lon="-1.9914690">
        <ele>13.8</ele>
        <time>2022-11-27T08:28:11Z</time>
      </trkpt>
      <trkpt lat="43.3147080" lon="-1.9914330">
        <ele>13.8</ele>
        <time>2022-11-27T08:28:12Z</time>
      </trkpt>
      <trkpt lat="43.3147100" lon="-1.9914020">
        <ele>13.8</ele>
        <time>2022-11-27T08:28:13Z</time>
      </trkpt>
      <trkpt lat="43.3147130" lon="-1.9913760">
        <ele>13.8</ele>
        <time>2022-11-27T08:28:14Z</time>
      </trkpt>
      <trkpt lat="43.3147160" lon="-1.9913500">
        <ele>13.8</ele>
        <time>2022-11-27T08:28:15Z</time>
      </trkpt>
      <trkpt lat="43.3147200" lon="-1.9913250">
        <ele>13.8</ele>
        <time>2022-11-27T08:28:16Z</time>
      </trkpt>
      <trkpt lat="43.3147240" lon="-1.9912980">
        <ele>13.6</ele>
        <time>2022-11-27T08:28:17Z</time>
      </trkpt>
      <trkpt lat="43.3147310" lon="-1.9912670">
        <ele>13.6</ele>
        <time>2022-11-27T08:28:18Z</time>
      </trkpt>
      <trkpt lat="43.3147390" lon="-1.9912350">
        <ele>13.6</ele>
        <time>2022-11-27T08:28:19Z</time>
      </trkpt>
      <trkpt lat="43.3147500" lon="-1.9911960">
        <ele>13.6</ele>
        <time>2022-11-27T08:28:20Z</time>
      </trkpt>
      <trkpt lat="43.3147610" lon="-1.9911510">
        <ele>13.4</ele>
        <time>2022-11-27T08:28:21Z</time>
      </trkpt>
      <trkpt lat="43.3147690" lon="-1.9911060">
        <ele>13.4</ele>
        <time>2022-11-27T08:28:22Z</time>
      </trkpt>
      <trkpt lat="43.3147820" lon="-1.9910720">
        <ele>13.4</ele>
        <time>2022-11-27T08:28:23Z</time>
      </trkpt>
      <trkpt lat="43.3148060" lon="-1.9910560">
        <ele>13.4</ele>
        <time>2022-11-27T08:28:24Z</time>
      </trkpt>
      <trkpt lat="43.3148260" lon="-1.9910370">
        <ele>13.4</ele>
        <time>2022-11-27T08:28:25Z</time>
      </trkpt>
      <trkpt lat="43.3148360" lon="-1.9910030">
        <ele>13.4</ele>
        <time>2022-11-27T08:28:26Z</time>
      </trkpt>
      <trkpt lat="43.3148400" lon="-1.9909650">
        <ele>13.4</ele>
        <time>2022-11-27T08:28:27Z</time>
      </trkpt>
      <trkpt lat="43.3148470" lon="-1.9909310">
        <ele>13.4</ele>
        <time>2022-11-27T08:28:28Z</time>
      </trkpt>
      <trkpt lat="43.3148570" lon="-1.9908910">
        <ele>13.4</ele>
        <time>2022-11-27T08:28:29Z</time>
      </trkpt>
      <trkpt lat="43.3148640" lon="-1.9908430">
        <ele>13.2</ele>
        <time>2022-11-27T08:28:30Z</time>
      </trkpt>
      <trkpt lat="43.3148730" lon="-1.9907980">
        <ele>13.2</ele>
        <time>2022-11-27T08:28:31Z</time>
      </trkpt>
      <trkpt lat="43.3148830" lon="-1.9907520">
        <ele>13.2</ele>
        <time>2022-11-27T08:28:32Z</time>
      </trkpt>
      <trkpt lat="43.3148930" lon="-1.9907070">
        <ele>13.2</ele>
        <time>2022-11-27T08:28:33Z</time>
      </trkpt>
      <trkpt lat="43.3149010" lon="-1.9906620">
        <ele>13.0</ele>
        <time>2022-11-27T08:28:34Z</time>
      </trkpt>
      <trkpt lat="43.3149070" lon="-1.9906170">
        <ele>13.0</ele>
        <time>2022-11-27T08:28:35Z</time>
      </trkpt>
      <trkpt lat="43.3149120" lon="-1.9905770">
        <ele>12.8</ele>
        <time>2022-11-27T08:28:36Z</time>
      </trkpt>
      <trkpt lat="43.3149140" lon="-1.9905530">
        <ele>12.8</ele>
        <time>2022-11-27T08:28:37Z</time>
      </trkpt>
      <trkpt lat="43.3149150" lon="-1.9905450">
        <ele>12.8</ele>
        <time>2022-11-27T08:28:38Z</time>
      </trkpt>
      <trkpt lat="43.3149130" lon="-1.9905450">
        <ele>12.8</ele>
        <time>2022-11-27T08:28:39Z</time>
      </trkpt>
      <trkpt lat="43.3149250" lon="-1.9904800">
        <ele>13.0</ele>
        <time>2022-11-27T08:29:41Z</time>
      </trkpt>
      <trkpt lat="43.3149340" lon="-1.9904350">
        <ele>13.0</ele>
        <time>2022-11-27T08:29:42Z</time>
      </trkpt>
      <trkpt lat="43.3149440" lon="-1.9903830">
        <ele>13.0</ele>
        <time>2022-11-27T08:29:43Z</time>
      </trkpt>
      <trkpt lat="43.3149540" lon="-1.9903290">
        <ele>13.0</ele>
        <time>2022-11-27T08:29:44Z</time>
      </trkpt>
      <trkpt lat="43.3149650" lon="-1.9902780">
        <ele>13.0</ele>
        <time>2022-11-27T08:29:45Z</time>
      </trkpt>
      <trkpt lat="43.3149780" lon="-1.9902290">
        <ele>13.0</ele>
        <time>2022-11-27T08:29:46Z</time>
      </trkpt>
      <trkpt lat="43.3149890" lon="-1.9901810">
        <ele>12.8</ele>
        <time>2022-11-27T08:29:47Z</time>
      </trkpt>
      <trkpt lat="43.3149990" lon="-1.9901310">
        <ele>12.8</ele>
        <time>2022-11-27T08:29:48Z</time>
      </trkpt>
      <trkpt lat="43.3150110" lon="-1.9900800">
        <ele>12.8</ele>
        <time>2022-11-27T08:29:49Z</time>
      </trkpt>
      <trkpt lat="43.3150230" lon="-1.9900280">
        <ele>12.8</ele>
        <time>2022-11-27T08:29:50Z</time>
      </trkpt>
      <trkpt lat="43.3150340" lon="-1.9899780">
        <ele>12.8</ele>
        <time>2022-11-27T08:29:51Z</time>
      </trkpt>
      <trkpt lat="43.3150460" lon="-1.9899300">
        <ele>12.8</ele>
        <time>2022-11-27T08:29:52Z</time>
      </trkpt>
      <trkpt lat="43.3150610" lon="-1.9898830">
        <ele>12.6</ele>
        <time>2022-11-27T08:29:53Z</time>
      </trkpt>
      <trkpt lat="43.3150790" lon="-1.9898360">
        <ele>12.6</ele>
        <time>2022-11-27T08:29:54Z</time>
      </trkpt>
      <trkpt lat="43.3150990" lon="-1.9897860">
        <ele>12.6</ele>
        <time>2022-11-27T08:29:55Z</time>
      </trkpt>
      <trkpt lat="43.3151180" lon="-1.9897360">
        <ele>12.6</ele>
        <time>2022-11-27T08:29:56Z</time>
      </trkpt>
      <trkpt lat="43.3151370" lon="-1.9896840">
        <ele>12.6</ele>
        <time>2022-11-27T08:29:57Z</time>
      </trkpt>
      <trkpt lat="43.3151530" lon="-1.9896320">
        <ele>12.4</ele>
        <time>2022-11-27T08:29:58Z</time>
      </trkpt>
      <trkpt lat="43.3151660" lon="-1.9895870">
        <ele>12.4</ele>
        <time>2022-11-27T08:29:59Z</time>
      </trkpt>
      <trkpt lat="43.3151750" lon="-1.9895480">
        <ele>12.4</ele>
        <time>2022-11-27T08:30:00Z</time>
      </trkpt>
      <trkpt lat="43.3151820" lon="-1.9895110">
        <ele>12.4</ele>
        <time>2022-11-27T08:30:01Z</time>
      </trkpt>
      <trkpt lat="43.3151880" lon="-1.9894740">
        <ele>12.4</ele>
        <time>2022-11-27T08:30:02Z</time>
      </trkpt>
      <trkpt lat="43.3151920" lon="-1.9894420">
        <ele>12.4</ele>
        <time>2022-11-27T08:30:03Z</time>
      </trkpt>
      <trkpt lat="43.3151960" lon="-1.9894140">
        <ele>12.4</ele>
        <time>2022-11-27T08:30:04Z</time>
      </trkpt>
      <trkpt lat="43.3152010" lon="-1.9893780">
        <ele>12.4</ele>
        <time>2022-11-27T08:30:05Z</time>
      </trkpt>
      <trkpt lat="43.3152130" lon="-1.9893340">
        <ele>12.4</ele>
        <time>2022-11-27T08:30:06Z</time>
      </trkpt>
      <trkpt lat="43.3152260" lon="-1.9892820">
        <ele>12.4</ele>
        <time>2022-11-27T08:30:07Z</time>
      </trkpt>
      <trkpt lat="43.3152380" lon="-1.9892250">
        <ele>12.4</ele>
        <time>2022-11-27T08:30:08Z</time>
      </trkpt>
      <trkpt lat="43.3152500" lon="-1.9891700">
        <ele>12.2</ele>
        <time>2022-11-27T08:30:09Z</time>
      </trkpt>
      <trkpt lat="43.3152650" lon="-1.9891180">
        <ele>12.2</ele>
        <time>2022-11-27T08:30:10Z</time>
      </trkpt>
      <trkpt lat="43.3152830" lon="-1.9890670">
        <ele>12.2</ele>
        <time>2022-11-27T08:30:11Z</time>
      </trkpt>
      <trkpt lat="43.3153040" lon="-1.9890180">
        <ele>12.2</ele>
        <time>2022-11-27T08:30:12Z</time>
      </trkpt>
      <trkpt lat="43.3153300" lon="-1.9889710">
        <ele>12.2</ele>
        <time>2022-11-27T08:30:13Z</time>
      </trkpt>
      <trkpt lat="43.3153580" lon="-1.9889190">
        <ele>12.2</ele>
        <time>2022-11-27T08:30:14Z</time>
      </trkpt>
      <trkpt lat="43.3153830" lon="-1.9888610">
        <ele>12.2</ele>
        <time>2022-11-27T08:30:15Z</time>
      </trkpt>
      <trkpt lat="43.3154040" lon="-1.9887990">
        <ele>12.2</ele>
        <time>2022-11-27T08:30:16Z</time>
      </trkpt>
      <trkpt lat="43.3154230" lon="-1.9887330">
        <ele>12.0</ele>
        <time>2022-11-27T08:30:17Z</time>
      </trkpt>
      <trkpt lat="43.3154430" lon="-1.9886680">
        <ele>12.0</ele>
        <time>2022-11-27T08:30:18Z</time>
      </trkpt>
      <trkpt lat="43.3154650" lon="-1.9886030">
        <ele>12.0</ele>
        <time>2022-11-27T08:30:19Z</time>
      </trkpt>
      <trkpt lat="43.3154920" lon="-1.9885400">
        <ele>12.0</ele>
        <time>2022-11-27T08:30:20Z</time>
      </trkpt>
      <trkpt lat="43.3155200" lon="-1.9884820">
        <ele>12.0</ele>
        <time>2022-11-27T08:30:21Z</time>
      </trkpt>
      <trkpt lat="43.3155460" lon="-1.9884340">
        <ele>12.0</ele>
        <time>2022-11-27T08:30:22Z</time>
      </trkpt>
      <trkpt lat="43.3155710" lon="-1.9883900">
        <ele>11.8</ele>
        <time>2022-11-27T08:30:23Z</time>
      </trkpt>
      <trkpt lat="43.3155980" lon="-1.9883510">
        <ele>11.8</ele>
        <time>2022-11-27T08:30:24Z</time>
      </trkpt>
      <trkpt lat="43.3156310" lon="-1.9883120">
        <ele>11.8</ele>
        <time>2022-11-27T08:30:25Z</time>
      </trkpt>
      <trkpt lat="43.3156650" lon="-1.9882610">
        <ele>11.8</ele>
        <time>2022-11-27T08:30:26Z</time>
      </trkpt>
      <trkpt lat="43.3156990" lon="-1.9882050">
        <ele>11.8</ele>
        <time>2022-11-27T08:30:27Z</time>
      </trkpt>
      <trkpt lat="43.3157370" lon="-1.9881490">
        <ele>11.8</ele>
        <time>2022-11-27T08:30:28Z</time>
      </trkpt>
      <trkpt lat="43.3157760" lon="-1.9880920">
        <ele>11.8</ele>
        <time>2022-11-27T08:30:29Z</time>
      </trkpt>
      <trkpt lat="43.3158110" lon="-1.9880330">
        <ele>11.8</ele>
        <time>2022-11-27T08:30:30Z</time>
      </trkpt>
      <trkpt lat="43.3158490" lon="-1.9879740">
        <ele>11.8</ele>
        <time>2022-11-27T08:30:31Z</time>
      </trkpt>
      <trkpt lat="43.3158870" lon="-1.9879150">
        <ele>11.8</ele>
        <time>2022-11-27T08:30:32Z</time>
      </trkpt>
      <trkpt lat="43.3159280" lon="-1.9878560">
        <ele>11.8</ele>
        <time>2022-11-27T08:30:33Z</time>
      </trkpt>
      <trkpt lat="43.3159690" lon="-1.9877970">
        <ele>11.8</ele>
        <time>2022-11-27T08:30:34Z</time>
      </trkpt>
      <trkpt lat="43.3160140" lon="-1.9877380">
        <ele>11.6</ele>
        <time>2022-11-27T08:30:35Z</time>
      </trkpt>
      <trkpt lat="43.3160560" lon="-1.9876790">
        <ele>11.6</ele>
        <time>2022-11-27T08:30:36Z</time>
      </trkpt>
      <trkpt lat="43.3160990" lon="-1.9876200">
        <ele>11.6</ele>
        <time>2022-11-27T08:30:37Z</time>
      </trkpt>
      <trkpt lat="43.3161420" lon="-1.9875580">
        <ele>11.6</ele>
        <time>2022-11-27T08:30:38Z</time>
      </trkpt>
      <trkpt lat="43.3161870" lon="-1.9874920">
        <ele>11.6</ele>
        <time>2022-11-27T08:30:39Z</time>
      </trkpt>
      <trkpt lat="43.3162330" lon="-1.9874260">
        <ele>11.6</ele>
        <time>2022-11-27T08:30:40Z</time>
      </trkpt>
      <trkpt lat="43.3162800" lon="-1.9873640">
        <ele>11.6</ele>
        <time>2022-11-27T08:30:41Z</time>
      </trkpt>
      <trkpt lat="43.3163250" lon="-1.9873020">
        <ele>11.6</ele>
        <time>2022-11-27T08:30:42Z</time>
      </trkpt>
      <trkpt lat="43.3163690" lon="-1.9872410">
        <ele>11.4</ele>
        <time>2022-11-27T08:30:43Z</time>
      </trkpt>
      <trkpt lat="43.3164140" lon="-1.9871830">
        <ele>11.4</ele>
        <time>2022-11-27T08:30:44Z</time>
      </trkpt>
      <trkpt lat="43.3164570" lon="-1.9871250">
        <ele>11.4</ele>
        <time>2022-11-27T08:30:45Z</time>
      </trkpt>
      <trkpt lat="43.3164970" lon="-1.9870690">
        <ele>11.4</ele>
        <time>2022-11-27T08:30:46Z</time>
      </trkpt>
      <trkpt lat="43.3165370" lon="-1.9870160">
        <ele>11.4</ele>
        <time>2022-11-27T08:30:47Z</time>
      </trkpt>
      <trkpt lat="43.3165750" lon="-1.9869790">
        <ele>11.4</ele>
        <time>2022-11-27T08:30:48Z</time>
      </trkpt>
      <trkpt lat="43.3166060" lon="-1.9869600">
        <ele>11.4</ele>
        <time>2022-11-27T08:30:49Z</time>
      </trkpt>
      <trkpt lat="43.3166230" lon="-1.9869480">
        <ele>11.4</ele>
        <time>2022-11-27T08:30:50Z</time>
      </trkpt>
      <trkpt lat="43.3166290" lon="-1.9869440">
        <ele>11.2</ele>
        <time>2022-11-27T08:30:51Z</time>
      </trkpt>
      <trkpt lat="43.3166320" lon="-1.9869430">
        <ele>11.2</ele>
        <time>2022-11-27T08:30:52Z</time>
      </trkpt>
      <trkpt lat="43.3166670" lon="-1.9868740">
        <ele>11.8</ele>
        <time>2022-11-27T08:31:22Z</time>
      </trkpt>
      <trkpt lat="43.3166800" lon="-1.9868530">
        <ele>11.8</ele>
        <time>2022-11-27T08:31:23Z</time>
      </trkpt>
      <trkpt lat="43.3166970" lon="-1.9868230">
        <ele>11.8</ele>
        <time>2022-11-27T08:31:24Z</time>
      </trkpt>
      <trkpt lat="43.3167170" lon="-1.9867810">
        <ele>11.8</ele>
        <time>2022-11-27T08:31:25Z</time>
      </trkpt>
      <trkpt lat="43.3167480" lon="-1.9867330">
        <ele>11.8</ele>
        <time>2022-11-27T08:31:26Z</time>
      </trkpt>
      <trkpt lat="43.3167900" lon="-1.9866800">
        <ele>11.8</ele>
        <time>2022-11-27T08:31:27Z</time>
      </trkpt>
      <trkpt lat="43.3168320" lon="-1.9866270">
        <ele>11.8</ele>
        <time>2022-11-27T08:31:28Z</time>
      </trkpt>
      <trkpt lat="43.3168730" lon="-1.9865730">
        <ele>11.8</ele>
        <time>2022-11-27T08:31:29Z</time>
      </trkpt>
      <trkpt lat="43.3169170" lon="-1.9865200">
        <ele>11.8</ele>
        <time>2022-11-27T08:31:30Z</time>
      </trkpt>
      <trkpt lat="43.3169600" lon="-1.9864670">
        <ele>11.8</ele>
        <time>2022-11-27T08:31:31Z</time>
      </trkpt>
      <trkpt lat="43.3170030" lon="-1.9864140">
        <ele>11.8</ele>
        <time>2022-11-27T08:31:32Z</time>
      </trkpt>
      <trkpt lat="43.3170480" lon="-1.9863620">
        <ele>11.8</ele>
        <time>2022-11-27T08:31:33Z</time>
      </trkpt>
      <trkpt lat="43.3170930" lon="-1.9863090">
        <ele>11.8</ele>
        <time>2022-11-27T08:31:34Z</time>
      </trkpt>
      <trkpt lat="43.3171370" lon="-1.9862560">
        <ele>11.6</ele>
        <time>2022-11-27T08:31:35Z</time>
      </trkpt>
      <trkpt lat="43.3171850" lon="-1.9862070">
        <ele>11.6</ele>
        <time>2022-11-27T08:31:36Z</time>
      </trkpt>
      <trkpt lat="43.3172350" lon="-1.9861580">
        <ele>11.4</ele>
        <time>2022-11-27T08:31:37Z</time>
      </trkpt>
      <trkpt lat="43.3172850" lon="-1.9861090">
        <ele>11.4</ele>
        <time>2022-11-27T08:31:38Z</time>
      </trkpt>
      <trkpt lat="43.3173350" lon="-1.9860580">
        <ele>11.4</ele>
        <time>2022-11-27T08:31:39Z</time>
      </trkpt>
      <trkpt lat="43.3173850" lon="-1.9860060">
        <ele>11.4</ele>
        <time>2022-11-27T08:31:40Z</time>
      </trkpt>
      <trkpt lat="43.3174370" lon="-1.9859560">
        <ele>11.4</ele>
        <time>2022-11-27T08:31:41Z</time>
      </trkpt>
      <trkpt lat="43.3174880" lon="-1.9859060">
        <ele>11.2</ele>
        <time>2022-11-27T08:31:42Z</time>
      </trkpt>
      <trkpt lat="43.3175370" lon="-1.9858560">
        <ele>11.2</ele>
        <time>2022-11-27T08:31:43Z</time>
      </trkpt>
      <trkpt lat="43.3175850" lon="-1.9858050">
        <ele>11.2</ele>
        <time>2022-11-27T08:31:44Z</time>
      </trkpt>
      <trkpt lat="43.3176310" lon="-1.9857540">
        <ele>11.2</ele>
        <time>2022-11-27T08:31:45Z</time>
      </trkpt>
      <trkpt lat="43.3176800" lon="-1.9857040">
        <ele>11.2</ele>
        <time>2022-11-27T08:31:46Z</time>
      </trkpt>
      <trkpt lat="43.3177290" lon="-1.9856540">
        <ele>11.2</ele>
        <time>2022-11-27T08:31:47Z</time>
      </trkpt>
      <trkpt lat="43.3177790" lon="-1.9856060">
        <ele>11.2</ele>
        <time>2022-11-27T08:31:48Z</time>
      </trkpt>
      <trkpt lat="43.3178300" lon="-1.9855620">
        <ele>11.2</ele>
        <time>2022-11-27T08:31:49Z</time>
      </trkpt>
      <trkpt lat="43.3178790" lon="-1.9855220">
        <ele>11.2</ele>
        <time>2022-11-27T08:31:50Z</time>
      </trkpt>
      <trkpt lat="43.3179260" lon="-1.9854820">
        <ele>11.0</ele>
        <time>2022-11-27T08:31:51Z</time>
      </trkpt>
      <trkpt lat="43.3179730" lon="-1.9854410">
        <ele>11.0</ele>
        <time>2022-11-27T08:31:52Z</time>
      </trkpt>
      <trkpt lat="43.3180210" lon="-1.9853990">
        <ele>11.0</ele>
        <time>2022-11-27T08:31:53Z</time>
      </trkpt>
      <trkpt lat="43.3180720" lon="-1.9853580">
        <ele>11.0</ele>
        <time>2022-11-27T08:31:54Z</time>
      </trkpt>
      <trkpt lat="43.3181240" lon="-1.9853160">
        <ele>11.0</ele>
        <time>2022-11-27T08:31:55Z</time>
      </trkpt>
      <trkpt lat="43.3181760" lon="-1.9852720">
        <ele>11.0</ele>
        <time>2022-11-27T08:31:56Z</time>
      </trkpt>
      <trkpt lat="43.3182280" lon="-1.9852290">
        <ele>11.0</ele>
        <time>2022-11-27T08:31:57Z</time>
      </trkpt>
      <trkpt lat="43.3182820" lon="-1.9851890">
        <ele>11.0</ele>
        <time>2022-11-27T08:31:58Z</time>
      </trkpt>
      <trkpt lat="43.3183350" lon="-1.9851480">
        <ele>10.8</ele>
        <time>2022-11-27T08:31:59Z</time>
      </trkpt>
      <trkpt lat="43.3183900" lon="-1.9851060">
        <ele>10.8</ele>
        <time>2022-11-27T08:32:00Z</time>
      </trkpt>
      <trkpt lat="43.3184470" lon="-1.9850720">
        <ele>10.8</ele>
        <time>2022-11-27T08:32:01Z</time>
      </trkpt>
      <trkpt lat="43.3185010" lon="-1.9850360">
        <ele>10.8</ele>
        <time>2022-11-27T08:32:02Z</time>
      </trkpt>
      <trkpt lat="43.3185520" lon="-1.9849990">
        <ele>10.6</ele>
        <time>2022-11-27T08:32:03Z</time>
      </trkpt>
      <trkpt lat="43.3186010" lon="-1.9849650">
        <ele>10.6</ele>
        <time>2022-11-27T08:32:04Z</time>
      </trkpt>
      <trkpt lat="43.3186480" lon="-1.9849290">
        <ele>10.6</ele>
        <time>2022-11-27T08:32:05Z</time>
      </trkpt>
      <trkpt lat="43.3186860" lon="-1.9848800">
        <ele>10.6</ele>
        <time>2022-11-27T08:32:06Z</time>
      </trkpt>
      <trkpt lat="43.3187160" lon="-1.9848180">
        <ele>10.6</ele>
        <time>2022-11-27T08:32:07Z</time>
      </trkpt>
      <trkpt lat="43.3187440" lon="-1.9847520">
        <ele>10.6</ele>
        <time>2022-11-27T08:32:08Z</time>
      </trkpt>
      <trkpt lat="43.3187740" lon="-1.9846850">
        <ele>10.6</ele>
        <time>2022-11-27T08:32:09Z</time>
      </trkpt>
      <trkpt lat="43.3188050" lon="-1.9846190">
        <ele>10.6</ele>
        <time>2022-11-27T08:32:10Z</time>
      </trkpt>
      <trkpt lat="43.3188310" lon="-1.9845630">
        <ele>10.4</ele>
        <time>2022-11-27T08:32:11Z</time>
      </trkpt>
      <trkpt lat="43.3188530" lon="-1.9845190">
        <ele>10.4</ele>
        <time>2022-11-27T08:32:12Z</time>
      </trkpt>
      <trkpt lat="43.3188700" lon="-1.9844930">
        <ele>10.4</ele>
        <time>2022-11-27T08:32:13Z</time>
      </trkpt>
      <trkpt lat="43.3188790" lon="-1.9844770">
        <ele>10.4</ele>
        <time>2022-11-27T08:32:14Z</time>
      </trkpt>
      <trkpt lat="43.3188900" lon="-1.9844640">
        <ele>10.4</ele>
        <time>2022-11-27T08:32:15Z</time>
      </trkpt>
      <trkpt lat="43.3189140" lon="-1.9844540">
        <ele>10.4</ele>
        <time>2022-11-27T08:32:16Z</time>
      </trkpt>
      <trkpt lat="43.3189490" lon="-1.9844500">
        <ele>10.4</ele>
        <time>2022-11-27T08:32:17Z</time>
      </trkpt>
      <trkpt lat="43.3189940" lon="-1.9844560">
        <ele>10.4</ele>
        <time>2022-11-27T08:32:18Z</time>
      </trkpt>
      <trkpt lat="43.3190440" lon="-1.9844790">
        <ele>10.4</ele>
        <time>2022-11-27T08:32:19Z</time>
      </trkpt>
      <trkpt lat="43.3190950" lon="-1.9845160">
        <ele>10.4</ele>
        <time>2022-11-27T08:32:20Z</time>
      </trkpt>
      <trkpt lat="43.3191460" lon="-1.9845530">
        <ele>10.4</ele>
        <time>2022-11-27T08:32:21Z</time>
      </trkpt>
      <trkpt lat="43.3191990" lon="-1.9845900">
        <ele>10.4</ele>
        <time>2022-11-27T08:32:22Z</time>
      </trkpt>
      <trkpt lat="43.3192510" lon="-1.9846270">
        <ele>10.4</ele>
        <time>2022-11-27T08:32:23Z</time>
      </trkpt>
      <trkpt lat="43.3193060" lon="-1.9846650">
        <ele>10.4</ele>
        <time>2022-11-27T08:32:24Z</time>
      </trkpt>
      <trkpt lat="43.3193610" lon="-1.9847030">
        <ele>10.4</ele>
        <time>2022-11-27T08:32:25Z</time>
      </trkpt>
      <trkpt lat="43.3194150" lon="-1.9847400">
        <ele>10.4</ele>
        <time>2022-11-27T08:32:26Z</time>
      </trkpt>
      <trkpt lat="43.3194710" lon="-1.9847710">
        <ele>10.4</ele>
        <time>2022-11-27T08:32:27Z</time>
      </trkpt>
      <trkpt lat="43.3195260" lon="-1.9847890">
        <ele>10.2</ele>
        <time>2022-11-27T08:32:28Z</time>
      </trkpt>
      <trkpt lat="43.3195790" lon="-1.9848000">
        <ele>10.2</ele>
        <time>2022-11-27T08:32:29Z</time>
      </trkpt>
      <trkpt lat="43.3196290" lon="-1.9848100">
        <ele>10.2</ele>
        <time>2022-11-27T08:32:30Z</time>
      </trkpt>
      <trkpt lat="43.3196770" lon="-1.9848130">
        <ele>10.2</ele>
        <time>2022-11-27T08:32:31Z</time>
      </trkpt>
      <trkpt lat="43.3197210" lon="-1.9847990">
        <ele>10.2</ele>
        <time>2022-11-27T08:32:32Z</time>
      </trkpt>
      <trkpt lat="43.3197640" lon="-1.9847670">
        <ele>10.2</ele>
        <time>2022-11-27T08:32:33Z</time>
      </trkpt>
      <trkpt lat="43.3198010" lon="-1.9847200">
        <ele>10.2</ele>
        <time>2022-11-27T08:32:34Z</time>
      </trkpt>
      <trkpt lat="43.3198290" lon="-1.9846530">
        <ele>10.2</ele>
        <time>2022-11-27T08:32:35Z</time>
      </trkpt>
      <trkpt lat="43.3198610" lon="-1.9845810">
        <ele>10.2</ele>
        <time>2022-11-27T08:32:36Z</time>
      </trkpt>
      <trkpt lat="43.3198900" lon="-1.9845040">
        <ele>10.2</ele>
        <time>2022-11-27T08:32:37Z</time>
      </trkpt>
      <trkpt lat="43.3199160" lon="-1.9844230">
        <ele>10.2</ele>
        <time>2022-11-27T08:32:38Z</time>
      </trkpt>
      <trkpt lat="43.3199430" lon="-1.9843410">
        <ele>10.2</ele>
        <time>2022-11-27T08:32:39Z</time>
      </trkpt>
      <trkpt lat="43.3199700" lon="-1.9842610">
        <ele>10.2</ele>
        <time>2022-11-27T08:32:40Z</time>
      </trkpt>
      <trkpt lat="43.3199960" lon="-1.9841870">
        <ele>10.2</ele>
        <time>2022-11-27T08:32:41Z</time>
      </trkpt>
      <trkpt lat="43.3200180" lon="-1.9841250">
        <ele>10.2</ele>
        <time>2022-11-27T08:32:42Z</time>
      </trkpt>
      <trkpt lat="43.3200380" lon="-1.9840800">
        <ele>10.2</ele>
        <time>2022-11-27T08:32:43Z</time>
      </trkpt>
      <trkpt lat="43.3200620" lon="-1.9840560">
        <ele>10.2</ele>
        <time>2022-11-27T08:32:44Z</time>
      </trkpt>
      <trkpt lat="43.3200920" lon="-1.9840530">
        <ele>10.2</ele>
        <time>2022-11-27T08:32:45Z</time>
      </trkpt>
      <trkpt lat="43.3201270" lon="-1.9840640">
        <ele>10.2</ele>
        <time>2022-11-27T08:32:46Z</time>
      </trkpt>
      <trkpt lat="43.3201630" lon="-1.9840830">
        <ele>10.2</ele>
        <time>2022-11-27T08:32:47Z</time>
      </trkpt>
      <trkpt lat="43.3201980" lon="-1.9841060">
        <ele>10.4</ele>
        <time>2022-11-27T08:32:48Z</time>
      </trkpt>
      <trkpt lat="43.3202370" lon="-1.9841300">
        <ele>10.4</ele>
        <time>2022-11-27T08:32:49Z</time>
      </trkpt>
      <trkpt lat="43.3202800" lon="-1.9841580">
        <ele>10.4</ele>
        <time>2022-11-27T08:32:50Z</time>
      </trkpt>
      <trkpt lat="43.3203220" lon="-1.9841890">
        <ele>10.4</ele>
        <time>2022-11-27T08:32:51Z</time>
      </trkpt>
      <trkpt lat="43.3203650" lon="-1.9842180">
        <ele>10.2</ele>
        <time>2022-11-27T08:32:52Z</time>
      </trkpt>
      <trkpt lat="43.3204050" lon="-1.9842450">
        <ele>10.2</ele>
        <time>2022-11-27T08:32:53Z</time>
      </trkpt>
      <trkpt lat="43.3204440" lon="-1.9842720">
        <ele>10.2</ele>
        <time>2022-11-27T08:32:54Z</time>
      </trkpt>
      <trkpt lat="43.3204810" lon="-1.9842990">
        <ele>10.2</ele>
        <time>2022-11-27T08:32:55Z</time>
      </trkpt>
      <trkpt lat="43.3205140" lon="-1.9843220">
        <ele>10.2</ele>
        <time>2022-11-27T08:32:56Z</time>
      </trkpt>
      <trkpt lat="43.3205410" lon="-1.9843390">
        <ele>10.4</ele>
        <time>2022-11-27T08:32:57Z</time>
      </trkpt>
      <trkpt lat="43.3205650" lon="-1.9843560">
        <ele>10.4</ele>
        <time>2022-11-27T08:32:58Z</time>
      </trkpt>
      <trkpt lat="43.3205830" lon="-1.9843770">
        <ele>10.4</ele>
        <time>2022-11-27T08:32:59Z</time>
      </trkpt>
      <trkpt lat="43.3205920" lon="-1.9844040">
        <ele>10.4</ele>
        <time>2022-11-27T08:33:00Z</time>
      </trkpt>
      <trkpt lat="43.3206000" lon="-1.9844270">
        <ele>10.4</ele>
        <time>2022-11-27T08:33:01Z</time>
      </trkpt>
      <trkpt lat="43.3206090" lon="-1.9844440">
        <ele>10.6</ele>
        <time>2022-11-27T08:33:02Z</time>
      </trkpt>
      <trkpt lat="43.3206180" lon="-1.9844560">
        <ele>10.6</ele>
        <time>2022-11-27T08:33:03Z</time>
      </trkpt>
      <trkpt lat="43.3206270" lon="-1.9844670">
        <ele>10.6</ele>
        <time>2022-11-27T08:33:04Z</time>
      </trkpt>
      <trkpt lat="43.3206380" lon="-1.9844780">
        <ele>10.6</ele>
        <time>2022-11-27T08:33:05Z</time>
      </trkpt>
      <trkpt lat="43.3206470" lon="-1.9844850">
        <ele>10.6</ele>
        <time>2022-11-27T08:33:06Z</time>
      </trkpt>
      <trkpt lat="43.3206540" lon="-1.9844880">
        <ele>10.6</ele>
        <time>2022-11-27T08:33:07Z</time>
      </trkpt>
      <trkpt lat="43.3206600" lon="-1.9844920">
        <ele>10.8</ele>
        <time>2022-11-27T08:33:08Z</time>
      </trkpt>
      <trkpt lat="43.3206690" lon="-1.9845000">
        <ele>10.8</ele>
        <time>2022-11-27T08:33:09Z</time>
      </trkpt>
      <trkpt lat="43.3206850" lon="-1.9845050">
        <ele>10.8</ele>
        <time>2022-11-27T08:33:10Z</time>
      </trkpt>
      <trkpt lat="43.3207090" lon="-1.9845100">
        <ele>10.8</ele>
        <time>2022-11-27T08:33:11Z</time>
      </trkpt>
      <trkpt lat="43.3207330" lon="-1.9845210">
        <ele>11.0</ele>
        <time>2022-11-27T08:33:12Z</time>
      </trkpt>
      <trkpt lat="43.3207580" lon="-1.9845370">
        <ele>11.0</ele>
        <time>2022-11-27T08:33:13Z</time>
      </trkpt>
      <trkpt lat="43.3207800" lon="-1.9845560">
        <ele>11.0</ele>
        <time>2022-11-27T08:33:14Z</time>
      </trkpt>
      <trkpt lat="43.3208030" lon="-1.9845730">
        <ele>11.0</ele>
        <time>2022-11-27T08:33:15Z</time>
      </trkpt>
      <trkpt lat="43.3208290" lon="-1.9845940">
        <ele>11.0</ele>
        <time>2022-11-27T08:33:16Z</time>
      </trkpt>
      <trkpt lat="43.3208560" lon="-1.9846120">
        <ele>11.0</ele>
        <time>2022-11-27T08:33:17Z</time>
      </trkpt>
      <trkpt lat="43.3208850" lon="-1.9846290">
        <ele>11.0</ele>
        <time>2022-11-27T08:33:18Z</time>
      </trkpt>
      <trkpt lat="43.3209140" lon="-1.9846470">
        <ele>11.0</ele>
        <time>2022-11-27T08:33:19Z</time>
      </trkpt>
      <trkpt lat="43.3209420" lon="-1.9846640">
        <ele>11.0</ele>
        <time>2022-11-27T08:33:20Z</time>
      </trkpt>
      <trkpt lat="43.3209680" lon="-1.9846830">
        <ele>11.2</ele>
        <time>2022-11-27T08:33:21Z</time>
      </trkpt>
      <trkpt lat="43.3209900" lon="-1.9847000">
        <ele>11.2</ele>
        <time>2022-11-27T08:33:22Z</time>
      </trkpt>
      <trkpt lat="43.3210080" lon="-1.9847080">
        <ele>11.2</ele>
        <time>2022-11-27T08:33:23Z</time>
      </trkpt>
      <trkpt lat="43.3210220" lon="-1.9847180">
        <ele>11.2</ele>
        <time>2022-11-27T08:33:24Z</time>
      </trkpt>
      <trkpt lat="43.3210370" lon="-1.9847360">
        <ele>11.2</ele>
        <time>2022-11-27T08:33:25Z</time>
      </trkpt>
      <trkpt lat="43.3210560" lon="-1.9847570">
        <ele>11.2</ele>
        <time>2022-11-27T08:33:26Z</time>
      </trkpt>
      <trkpt lat="43.3210800" lon="-1.9847770">
        <ele>11.2</ele>
        <time>2022-11-27T08:33:27Z</time>
      </trkpt>
      <trkpt lat="43.3211060" lon="-1.9847990">
        <ele>11.2</ele>
        <time>2022-11-27T08:33:28Z</time>
      </trkpt>
      <trkpt lat="43.3211390" lon="-1.9848260">
        <ele>11.0</ele>
        <time>2022-11-27T08:33:29Z</time>
      </trkpt>
      <trkpt lat="43.3211720" lon="-1.9848550">
        <ele>11.0</ele>
        <time>2022-11-27T08:33:30Z</time>
      </trkpt>
      <trkpt lat="43.3212050" lon="-1.9848810">
        <ele>11.0</ele>
        <time>2022-11-27T08:33:31Z</time>
      </trkpt>
      <trkpt lat="43.3212410" lon="-1.9849040">
        <ele>11.0</ele>
        <time>2022-11-27T08:33:32Z</time>
      </trkpt>
      <trkpt lat="43.3212760" lon="-1.9849220">
        <ele>11.0</ele>
        <time>2022-11-27T08:33:33Z</time>
      </trkpt>
      <trkpt lat="43.3213080" lon="-1.9849370">
        <ele>11.0</ele>
        <time>2022-11-27T08:33:34Z</time>
      </trkpt>
      <trkpt lat="43.3213390" lon="-1.9849520">
        <ele>11.0</ele>
        <time>2022-11-27T08:33:35Z</time>
      </trkpt>
      <trkpt lat="43.3213640" lon="-1.9849670">
        <ele>11.0</ele>
        <time>2022-11-27T08:33:36Z</time>
      </trkpt>
      <trkpt lat="43.3213830" lon="-1.9849800">
        <ele>11.0</ele>
        <time>2022-11-27T08:33:37Z</time>
      </trkpt>
      <trkpt lat="43.3213970" lon="-1.9849900">
        <ele>11.0</ele>
        <time>2022-11-27T08:33:38Z</time>
      </trkpt>
      <trkpt lat="43.3214090" lon="-1.9849970">
        <ele>11.0</ele>
        <time>2022-11-27T08:33:39Z</time>
      </trkpt>
      <trkpt lat="43.3214210" lon="-1.9849990">
        <ele>11.0</ele>
        <time>2022-11-27T08:33:40Z</time>
      </trkpt>
      <trkpt lat="43.3214320" lon="-1.9849980">
        <ele>11.0</ele>
        <time>2022-11-27T08:33:41Z</time>
      </trkpt>
      <trkpt lat="43.3214430" lon="-1.9849990">
        <ele>11.0</ele>
        <time>2022-11-27T08:33:42Z</time>
      </trkpt>
      <trkpt lat="43.3214540" lon="-1.9850100">
        <ele>11.0</ele>
        <time>2022-11-27T08:33:43Z</time>
      </trkpt>
      <trkpt lat="43.3214680" lon="-1.9850130">
        <ele>11.0</ele>
        <time>2022-11-27T08:33:44Z</time>
      </trkpt>
      <trkpt lat="43.3214790" lon="-1.9850190">
        <ele>11.0</ele>
        <time>2022-11-27T08:33:45Z</time>
      </trkpt>
      <trkpt lat="43.3214920" lon="-1.9850220">
        <ele>11.0</ele>
        <time>2022-11-27T08:33:46Z</time>
      </trkpt>
      <trkpt lat="43.3215030" lon="-1.9850230">
        <ele>11.0</ele>
        <time>2022-11-27T08:33:47Z</time>
      </trkpt>
      <trkpt lat="43.3215080" lon="-1.9850240">
        <ele>11.0</ele>
        <time>2022-11-27T08:33:48Z</time>
      </trkpt>
      <trkpt lat="43.3215130" lon="-1.9850250">
        <ele>11.0</ele>
        <time>2022-11-27T08:33:49Z</time>
      </trkpt>
      <trkpt lat="43.3214820" lon="-1.9848940">
        <ele>11.8</ele>
        <time>2022-11-27T08:35:08Z</time>
      </trkpt>
      <trkpt lat="43.3214660" lon="-1.9848890">
        <ele>11.8</ele>
        <time>2022-11-27T08:35:09Z</time>
      </trkpt>
      <trkpt lat="43.3214540" lon="-1.9848800">
        <ele>11.8</ele>
        <time>2022-11-27T08:35:10Z</time>
      </trkpt>
      <trkpt lat="43.3214380" lon="-1.9848670">
        <ele>11.8</ele>
        <time>2022-11-27T08:35:11Z</time>
      </trkpt>
      <trkpt lat="43.3214130" lon="-1.9848590">
        <ele>11.8</ele>
        <time>2022-11-27T08:35:12Z</time>
      </trkpt>
      <trkpt lat="43.3213890" lon="-1.9848580">
        <ele>11.8</ele>
        <time>2022-11-27T08:35:13Z</time>
      </trkpt>
      <trkpt lat="43.3213620" lon="-1.9848550">
        <ele>11.8</ele>
        <time>2022-11-27T08:35:14Z</time>
      </trkpt>
      <trkpt lat="43.3213310" lon="-1.9848440">
        <ele>11.8</ele>
        <time>2022-11-27T08:35:15Z</time>
      </trkpt>
      <trkpt lat="43.3213010" lon="-1.9848330">
        <ele>11.8</ele>
        <time>2022-11-27T08:35:16Z</time>
      </trkpt>
      <trkpt lat="43.3212730" lon="-1.9848220">
        <ele>11.8</ele>
        <time>2022-11-27T08:35:17Z</time>
      </trkpt>
      <trkpt lat="43.3212420" lon="-1.9848090">
        <ele>11.8</ele>
        <time>2022-11-27T08:35:18Z</time>
      </trkpt>
      <trkpt lat="43.3212080" lon="-1.9847950">
        <ele>11.8</ele>
        <time>2022-11-27T08:35:19Z</time>
      </trkpt>
      <trkpt lat="43.3211750" lon="-1.9847800">
        <ele>11.8</ele>
        <time>2022-11-27T08:35:20Z</time>
      </trkpt>
      <trkpt lat="43.3211430" lon="-1.9847640">
        <ele>11.8</ele>
        <time>2022-11-27T08:35:21Z</time>
      </trkpt>
      <trkpt lat="43.3211120" lon="-1.9847460">
        <ele>11.8</ele>
        <time>2022-11-27T08:35:22Z</time>
      </trkpt>
      <trkpt lat="43.3210820" lon="-1.9847310">
        <ele>11.6</ele>
        <time>2022-11-27T08:35:23Z</time>
      </trkpt>
      <trkpt lat="43.3210540" lon="-1.9847150">
        <ele>11.6</ele>
        <time>2022-11-27T08:35:24Z</time>
      </trkpt>
      <trkpt lat="43.3210280" lon="-1.9846980">
        <ele>11.6</ele>
        <time>2022-11-27T08:35:25Z</time>
      </trkpt>
      <trkpt lat="43.3210030" lon="-1.9846830">
        <ele>11.8</ele>
        <time>2022-11-27T08:35:26Z</time>
      </trkpt>
      <trkpt lat="43.3209820" lon="-1.9846660">
        <ele>11.8</ele>
        <time>2022-11-27T08:35:27Z</time>
      </trkpt>
      <trkpt lat="43.3209600" lon="-1.9846430">
        <ele>11.8</ele>
        <time>2022-11-27T08:35:28Z</time>
      </trkpt>
      <trkpt lat="43.3209390" lon="-1.9846230">
        <ele>11.0</ele>
        <time>2022-11-27T08:35:29Z</time>
      </trkpt>
      <trkpt lat="43.3209180" lon="-1.9846050">
        <ele>11.0</ele>
        <time>2022-11-27T08:35:30Z</time>
      </trkpt>
      <trkpt lat="43.3208960" lon="-1.9845930">
        <ele>11.0</ele>
        <time>2022-11-27T08:35:31Z</time>
      </trkpt>
      <trkpt lat="43.3208730" lon="-1.9845850">
        <ele>11.0</ele>
        <time>2022-11-27T08:35:32Z</time>
      </trkpt>
      <trkpt lat="43.3208520" lon="-1.9845810">
        <ele>11.0</ele>
        <time>2022-11-27T08:35:33Z</time>
      </trkpt>
      <trkpt lat="43.3208330" lon="-1.9845750">
        <ele>11.0</ele>
        <time>2022-11-27T08:35:34Z</time>
      </trkpt>
      <trkpt lat="43.3208110" lon="-1.9845680">
        <ele>11.0</ele>
        <time>2022-11-27T08:35:35Z</time>
      </trkpt>
      <trkpt lat="43.3207880" lon="-1.9845580">
        <ele>11.0</ele>
        <time>2022-11-27T08:35:36Z</time>
      </trkpt>
      <trkpt lat="43.3207650" lon="-1.9845420">
        <ele>11.0</ele>
        <time>2022-11-27T08:35:37Z</time>
      </trkpt>
      <trkpt lat="43.3207440" lon="-1.9845250">
        <ele>11.0</ele>
        <time>2022-11-27T08:35:38Z</time>
      </trkpt>
      <trkpt lat="43.3207240" lon="-1.9845100">
        <ele>11.2</ele>
        <time>2022-11-27T08:35:39Z</time>
      </trkpt>
      <trkpt lat="43.3207030" lon="-1.9844950">
        <ele>11.2</ele>
        <time>2022-11-27T08:35:40Z</time>
      </trkpt>
      <trkpt lat="43.3206820" lon="-1.9844810">
        <ele>11.2</ele>
        <time>2022-11-27T08:35:41Z</time>
      </trkpt>
      <trkpt lat="43.3206570" lon="-1.9844610">
        <ele>11.2</ele>
        <time>2022-11-27T08:35:42Z</time>
      </trkpt>
      <trkpt lat="43.3206320" lon="-1.9844420">
        <ele>11.2</ele>
        <time>2022-11-27T08:35:43Z</time>
      </trkpt>
      <trkpt lat="43.3206020" lon="-1.9844200">
        <ele>10.6</ele>
        <time>2022-11-27T08:35:44Z</time>
      </trkpt>
      <trkpt lat="43.3205720" lon="-1.9843910">
        <ele>10.6</ele>
        <time>2022-11-27T08:35:45Z</time>
      </trkpt>
      <trkpt lat="43.3205420" lon="-1.9843580">
        <ele>10.6</ele>
        <time>2022-11-27T08:35:46Z</time>
      </trkpt>
      <trkpt lat="43.3205130" lon="-1.9843190">
        <ele>10.6</ele>
        <time>2022-11-27T08:35:47Z</time>
      </trkpt>
      <trkpt lat="43.3204780" lon="-1.9842810">
        <ele>10.6</ele>
        <time>2022-11-27T08:35:48Z</time>
      </trkpt>
      <trkpt lat="43.3204380" lon="-1.9842470">
        <ele>10.6</ele>
        <time>2022-11-27T08:35:49Z</time>
      </trkpt>
      <trkpt lat="43.3203940" lon="-1.9842150">
        <ele>10.6</ele>
        <time>2022-11-27T08:35:50Z</time>
      </trkpt>
      <trkpt lat="43.3203500" lon="-1.9841840">
        <ele>10.6</ele>
        <time>2022-11-27T08:35:51Z</time>
      </trkpt>
      <trkpt lat="43.3203050" lon="-1.9841520">
        <ele>10.6</ele>
        <time>2022-11-27T08:35:52Z</time>
      </trkpt>
      <trkpt lat="43.3202600" lon="-1.9841200">
        <ele>10.4</ele>
        <time>2022-11-27T08:35:53Z</time>
      </trkpt>
      <trkpt lat="43.3202180" lon="-1.9840880">
        <ele>10.2</ele>
        <time>2022-11-27T08:35:54Z</time>
      </trkpt>
      <trkpt lat="43.3201770" lon="-1.9840580">
        <ele>10.2</ele>
        <time>2022-11-27T08:35:55Z</time>
      </trkpt>
      <trkpt lat="43.3201400" lon="-1.9840360">
        <ele>10.2</ele>
        <time>2022-11-27T08:35:56Z</time>
      </trkpt>
      <trkpt lat="43.3201000" lon="-1.9840180">
        <ele>10.0</ele>
        <time>2022-11-27T08:35:57Z</time>
      </trkpt>
      <trkpt lat="43.3200570" lon="-1.9840090">
        <ele>10.0</ele>
        <time>2022-11-27T08:35:58Z</time>
      </trkpt>
      <trkpt lat="43.3200130" lon="-1.9840200">
        <ele>10.0</ele>
        <time>2022-11-27T08:35:59Z</time>
      </trkpt>
      <trkpt lat="43.3199770" lon="-1.9840570">
        <ele>10.0</ele>
        <time>2022-11-27T08:36:00Z</time>
      </trkpt>
      <trkpt lat="43.3199600" lon="-1.9841250">
        <ele>10.0</ele>
        <time>2022-11-27T08:36:01Z</time>
      </trkpt>
      <trkpt lat="43.3199400" lon="-1.9841910">
        <ele>10.0</ele>
        <time>2022-11-27T08:36:02Z</time>
      </trkpt>
      <trkpt lat="43.3199200" lon="-1.9842600">
        <ele>10.0</ele>
        <time>2022-11-27T08:36:03Z</time>
      </trkpt>
      <trkpt lat="43.3198980" lon="-1.9843300">
        <ele>10.0</ele>
        <time>2022-11-27T08:36:04Z</time>
      </trkpt>
      <trkpt lat="43.3198720" lon="-1.9843960">
        <ele>10.0</ele>
        <time>2022-11-27T08:36:05Z</time>
      </trkpt>
      <trkpt lat="43.3198470" lon="-1.9844640">
        <ele>10.0</ele>
        <time>2022-11-27T08:36:06Z</time>
      </trkpt>
      <trkpt lat="43.3198220" lon="-1.9845330">
        <ele>10.0</ele>
        <time>2022-11-27T08:36:07Z</time>
      </trkpt>
      <trkpt lat="43.3197970" lon="-1.9846030">
        <ele>10.0</ele>
        <time>2022-11-27T08:36:08Z</time>
      </trkpt>
      <trkpt lat="43.3197720" lon="-1.9846700">
        <ele>10.0</ele>
        <time>2022-11-27T08:36:09Z</time>
      </trkpt>
      <trkpt lat="43.3197450" lon="-1.9847270">
        <ele>10.0</ele>
        <time>2022-11-27T08:36:10Z</time>
      </trkpt>
      <trkpt lat="43.3197100" lon="-1.9847650">
        <ele>10.0</ele>
        <time>2022-11-27T08:36:11Z</time>
      </trkpt>
      <trkpt lat="43.3196700" lon="-1.9847800">
        <ele>10.0</ele>
        <time>2022-11-27T08:36:12Z</time>
      </trkpt>
      <trkpt lat="43.3196280" lon="-1.9847770">
        <ele>10.0</ele>
        <time>2022-11-27T08:36:13Z</time>
      </trkpt>
      <trkpt lat="43.3195830" lon="-1.9847660">
        <ele>10.2</ele>
        <time>2022-11-27T08:36:14Z</time>
      </trkpt>
      <trkpt lat="43.3195360" lon="-1.9847520">
        <ele>10.2</ele>
        <time>2022-11-27T08:36:15Z</time>
      </trkpt>
      <trkpt lat="43.3194860" lon="-1.9847350">
        <ele>10.2</ele>
        <time>2022-11-27T08:36:16Z</time>
      </trkpt>
      <trkpt lat="43.3194380" lon="-1.9847120">
        <ele>10.2</ele>
        <time>2022-11-27T08:36:17Z</time>
      </trkpt>
      <trkpt lat="43.3193920" lon="-1.9846810">
        <ele>10.2</ele>
        <time>2022-11-27T08:36:18Z</time>
      </trkpt>
      <trkpt lat="43.3193440" lon="-1.9846460">
        <ele>10.2</ele>
        <time>2022-11-27T08:36:19Z</time>
      </trkpt>
      <trkpt lat="43.3192940" lon="-1.9846110">
        <ele>10.2</ele>
        <time>2022-11-27T08:36:20Z</time>
      </trkpt>
      <trkpt lat="43.3192440" lon="-1.9845750">
        <ele>10.2</ele>
        <time>2022-11-27T08:36:21Z</time>
      </trkpt>
      <trkpt lat="43.3191960" lon="-1.9845360">
        <ele>10.2</ele>
        <time>2022-11-27T08:36:22Z</time>
      </trkpt>
      <trkpt lat="43.3191490" lon="-1.9845010">
        <ele>10.2</ele>
        <time>2022-11-27T08:36:23Z</time>
      </trkpt>
      <trkpt lat="43.3191010" lon="-1.9844660">
        <ele>10.2</ele>
        <time>2022-11-27T08:36:24Z</time>
      </trkpt>
      <trkpt lat="43.3190560" lon="-1.9844380">
        <ele>10.2</ele>
        <time>2022-11-27T08:36:25Z</time>
      </trkpt>
      <trkpt lat="43.3190150" lon="-1.9844210">
        <ele>10.2</ele>
        <time>2022-11-27T08:36:26Z</time>
      </trkpt>
      <trkpt lat="43.3189760" lon="-1.9844180">
        <ele>10.2</ele>
        <time>2022-11-27T08:36:27Z</time>
      </trkpt>
      <trkpt lat="43.3189400" lon="-1.9844250">
        <ele>10.2</ele>
        <time>2022-11-27T08:36:28Z</time>
      </trkpt>
      <trkpt lat="43.3189090" lon="-1.9844450">
        <ele>10.2</ele>
        <time>2022-11-27T08:36:29Z</time>
      </trkpt>
      <trkpt lat="43.3188820" lon="-1.9844740">
        <ele>10.2</ele>
        <time>2022-11-27T08:36:30Z</time>
      </trkpt>
      <trkpt lat="43.3188590" lon="-1.9845090">
        <ele>10.2</ele>
        <time>2022-11-27T08:36:31Z</time>
      </trkpt>
      <trkpt lat="43.3188430" lon="-1.9845400">
        <ele>10.2</ele>
        <time>2022-11-27T08:36:32Z</time>
      </trkpt>
      <trkpt lat="43.3188320" lon="-1.9845660">
        <ele>10.2</ele>
        <time>2022-11-27T08:36:33Z</time>
      </trkpt>
      <trkpt lat="43.3188240" lon="-1.9845890">
        <ele>10.2</ele>
        <time>2022-11-27T08:36:34Z</time>
      </trkpt>
      <trkpt lat="43.3188110" lon="-1.9846100">
        <ele>10.2</ele>
        <time>2022-11-27T08:36:35Z</time>
      </trkpt>
      <trkpt lat="43.3187920" lon="-1.9846410">
        <ele>10.2</ele>
        <time>2022-11-27T08:36:36Z</time>
      </trkpt>
      <trkpt lat="43.3187730" lon="-1.9846820">
        <ele>10.2</ele>
        <time>2022-11-27T08:36:37Z</time>
      </trkpt>
      <trkpt lat="43.3187540" lon="-1.9847310">
        <ele>10.2</ele>
        <time>2022-11-27T08:36:38Z</time>
      </trkpt>
      <trkpt lat="43.3187310" lon="-1.9847870">
        <ele>10.2</ele>
        <time>2022-11-27T08:36:39Z</time>
      </trkpt>
      <trkpt lat="43.3187070" lon="-1.9848400">
        <ele>10.2</ele>
        <time>2022-11-27T08:36:40Z</time>
      </trkpt>
      <trkpt lat="43.3186830" lon="-1.9848900">
        <ele>10.2</ele>
        <time>2022-11-27T08:36:41Z</time>
      </trkpt>
      <trkpt lat="43.3186580" lon="-1.9849380">
        <ele>10.2</ele>
        <time>2022-11-27T08:36:42Z</time>
      </trkpt>
      <trkpt lat="43.3186210" lon="-1.9849770">
        <ele>10.2</ele>
        <time>2022-11-27T08:36:43Z</time>
      </trkpt>
      <trkpt lat="43.3185760" lon="-1.9850090">
        <ele>10.4</ele>
        <time>2022-11-27T08:36:44Z</time>
      </trkpt>
      <trkpt lat="43.3185290" lon="-1.9850410">
        <ele>10.4</ele>
        <time>2022-11-27T08:36:45Z</time>
      </trkpt>
      <trkpt lat="43.3184810" lon="-1.9850720">
        <ele>10.4</ele>
        <time>2022-11-27T08:36:46Z</time>
      </trkpt>
      <trkpt lat="43.3184330" lon="-1.9851000">
        <ele>10.4</ele>
        <time>2022-11-27T08:36:47Z</time>
      </trkpt>
      <trkpt lat="43.3183860" lon="-1.9851290">
        <ele>10.4</ele>
        <time>2022-11-27T08:36:48Z</time>
      </trkpt>
      <trkpt lat="43.3183400" lon="-1.9851630">
        <ele>10.4</ele>
        <time>2022-11-27T08:36:49Z</time>
      </trkpt>
      <trkpt lat="43.3182940" lon="-1.9852000">
        <ele>10.4</ele>
        <time>2022-11-27T08:36:50Z</time>
      </trkpt>
      <trkpt lat="43.3182470" lon="-1.9852380">
        <ele>10.4</ele>
        <time>2022-11-27T08:36:51Z</time>
      </trkpt>
      <trkpt lat="43.3181980" lon="-1.9852740">
        <ele>11.0</ele>
        <time>2022-11-27T08:36:52Z</time>
      </trkpt>
      <trkpt lat="43.3181500" lon="-1.9853120">
        <ele>11.0</ele>
        <time>2022-11-27T08:36:53Z</time>
      </trkpt>
      <trkpt lat="43.3181010" lon="-1.9853480">
        <ele>11.0</ele>
        <time>2022-11-27T08:36:54Z</time>
      </trkpt>
      <trkpt lat="43.3180540" lon="-1.9853840">
        <ele>11.0</ele>
        <time>2022-11-27T08:36:55Z</time>
      </trkpt>
      <trkpt lat="43.3180030" lon="-1.9854230">
        <ele>11.0</ele>
        <time>2022-11-27T08:36:56Z</time>
      </trkpt>
      <trkpt lat="43.3179540" lon="-1.9854610">
        <ele>11.0</ele>
        <time>2022-11-27T08:36:57Z</time>
      </trkpt>
      <trkpt lat="43.3179060" lon="-1.9855000">
        <ele>11.0</ele>
        <time>2022-11-27T08:36:58Z</time>
      </trkpt>
      <trkpt lat="43.3178570" lon="-1.9855390">
        <ele>11.0</ele>
        <time>2022-11-27T08:36:59Z</time>
      </trkpt>
      <trkpt lat="43.3178080" lon="-1.9855790">
        <ele>11.0</ele>
        <time>2022-11-27T08:37:00Z</time>
      </trkpt>
      <trkpt lat="43.3177580" lon="-1.9856210">
        <ele>11.0</ele>
        <time>2022-11-27T08:37:01Z</time>
      </trkpt>
      <trkpt lat="43.3177100" lon="-1.9856660">
        <ele>11.0</ele>
        <time>2022-11-27T08:37:02Z</time>
      </trkpt>
      <trkpt lat="43.3176620" lon="-1.9857110">
        <ele>11.0</ele>
        <time>2022-11-27T08:37:03Z</time>
      </trkpt>
      <trkpt lat="43.3176140" lon="-1.9857570">
        <ele>11.0</ele>
        <time>2022-11-27T08:37:04Z</time>
      </trkpt>
      <trkpt lat="43.3175650" lon="-1.9858040">
        <ele>11.0</ele>
        <time>2022-11-27T08:37:05Z</time>
      </trkpt>
      <trkpt lat="43.3175150" lon="-1.9858520">
        <ele>11.0</ele>
        <time>2022-11-27T08:37:06Z</time>
      </trkpt>
      <trkpt lat="43.3174640" lon="-1.9858990">
        <ele>11.0</ele>
        <time>2022-11-27T08:37:07Z</time>
      </trkpt>
      <trkpt lat="43.3174140" lon="-1.9859480">
        <ele>11.0</ele>
        <time>2022-11-27T08:37:08Z</time>
      </trkpt>
      <trkpt lat="43.3173640" lon="-1.9859950">
        <ele>11.0</ele>
        <time>2022-11-27T08:37:09Z</time>
      </trkpt>
      <trkpt lat="43.3173140" lon="-1.9860430">
        <ele>11.0</ele>
        <time>2022-11-27T08:37:10Z</time>
      </trkpt>
      <trkpt lat="43.3172640" lon="-1.9860920">
        <ele>11.0</ele>
        <time>2022-11-27T08:37:11Z</time>
      </trkpt>
      <trkpt lat="43.3172160" lon="-1.9861420">
        <ele>11.0</ele>
        <time>2022-11-27T08:37:12Z</time>
      </trkpt>
      <trkpt lat="43.3171670" lon="-1.9861920">
        <ele>11.0</ele>
        <time>2022-11-27T08:37:13Z</time>
      </trkpt>
      <trkpt lat="43.3171170" lon="-1.9862430">
        <ele>11.0</ele>
        <time>2022-11-27T08:37:14Z</time>
      </trkpt>
      <trkpt lat="43.3170700" lon="-1.9862990">
        <ele>11.0</ele>
        <time>2022-11-27T08:37:15Z</time>
      </trkpt>
      <trkpt lat="43.3170250" lon="-1.9863550">
        <ele>11.0</ele>
        <time>2022-11-27T08:37:16Z</time>
      </trkpt>
      <trkpt lat="43.3169790" lon="-1.9864110">
        <ele>11.0</ele>
        <time>2022-11-27T08:37:17Z</time>
      </trkpt>
      <trkpt lat="43.3169310" lon="-1.9864640">
        <ele>11.0</ele>
        <time>2022-11-27T08:37:18Z</time>
      </trkpt>
      <trkpt lat="43.3168830" lon="-1.9865180">
        <ele>11.0</ele>
        <time>2022-11-27T08:37:19Z</time>
      </trkpt>
      <trkpt lat="43.3168360" lon="-1.9865740">
        <ele>11.0</ele>
        <time>2022-11-27T08:37:20Z</time>
      </trkpt>
      <trkpt lat="43.3167910" lon="-1.9866300">
        <ele>11.0</ele>
        <time>2022-11-27T08:37:21Z</time>
      </trkpt>
      <trkpt lat="43.3167440" lon="-1.9866870">
        <ele>11.0</ele>
        <time>2022-11-27T08:37:22Z</time>
      </trkpt>
      <trkpt lat="43.3166970" lon="-1.9867450">
        <ele>11.0</ele>
        <time>2022-11-27T08:37:23Z</time>
      </trkpt>
      <trkpt lat="43.3166520" lon="-1.9868050">
        <ele>11.0</ele>
        <time>2022-11-27T08:37:24Z</time>
      </trkpt>
      <trkpt lat="43.3166080" lon="-1.9868650">
        <ele>11.8</ele>
        <time>2022-11-27T08:37:25Z</time>
      </trkpt>
      <trkpt lat="43.3165650" lon="-1.9869250">
        <ele>11.8</ele>
        <time>2022-11-27T08:37:26Z</time>
      </trkpt>
      <trkpt lat="43.3165200" lon="-1.9869840">
        <ele>11.8</ele>
        <time>2022-11-27T08:37:27Z</time>
      </trkpt>
      <trkpt lat="43.3164750" lon="-1.9870430">
        <ele>11.8</ele>
        <time>2022-11-27T08:37:28Z</time>
      </trkpt>
      <trkpt lat="43.3164300" lon="-1.9871040">
        <ele>11.8</ele>
        <time>2022-11-27T08:37:29Z</time>
      </trkpt>
      <trkpt lat="43.3163860" lon="-1.9871650">
        <ele>11.8</ele>
        <time>2022-11-27T08:37:30Z</time>
      </trkpt>
      <trkpt lat="43.3163430" lon="-1.9872240">
        <ele>11.8</ele>
        <time>2022-11-27T08:37:31Z</time>
      </trkpt>
      <trkpt lat="43.3162980" lon="-1.9872850">
        <ele>11.8</ele>
        <time>2022-11-27T08:37:32Z</time>
      </trkpt>
      <trkpt lat="43.3162540" lon="-1.9873450">
        <ele>11.8</ele>
        <time>2022-11-27T08:37:33Z</time>
      </trkpt>
      <trkpt lat="43.3162110" lon="-1.9874030">
        <ele>11.8</ele>
        <time>2022-11-27T08:37:34Z</time>
      </trkpt>
      <trkpt lat="43.3161680" lon="-1.9874600">
        <ele>11.8</ele>
        <time>2022-11-27T08:37:35Z</time>
      </trkpt>
      <trkpt lat="43.3161290" lon="-1.9875160">
        <ele>11.8</ele>
        <time>2022-11-27T08:37:36Z</time>
      </trkpt>
      <trkpt lat="43.3160890" lon="-1.9875720">
        <ele>11.8</ele>
        <time>2022-11-27T08:37:37Z</time>
      </trkpt>
      <trkpt lat="43.3160500" lon="-1.9876280">
        <ele>11.8</ele>
        <time>2022-11-27T08:37:38Z</time>
      </trkpt>
      <trkpt lat="43.3160070" lon="-1.9876810">
        <ele>11.8</ele>
        <time>2022-11-27T08:37:39Z</time>
      </trkpt>
      <trkpt lat="43.3159630" lon="-1.9877350">
        <ele>11.8</ele>
        <time>2022-11-27T08:37:40Z</time>
      </trkpt>
      <trkpt lat="43.3159220" lon="-1.9877950">
        <ele>11.8</ele>
        <time>2022-11-27T08:37:41Z</time>
      </trkpt>
      <trkpt lat="43.3158820" lon="-1.9878570">
        <ele>11.8</ele>
        <time>2022-11-27T08:37:42Z</time>
      </trkpt>
      <trkpt lat="43.3158440" lon="-1.9879170">
        <ele>12.0</ele>
        <time>2022-11-27T08:37:43Z</time>
      </trkpt>
      <trkpt lat="43.3158030" lon="-1.9879760">
        <ele>12.0</ele>
        <time>2022-11-27T08:37:44Z</time>
      </trkpt>
      <trkpt lat="43.3157640" lon="-1.9880330">
        <ele>12.0</ele>
        <time>2022-11-27T08:37:45Z</time>
      </trkpt>
      <trkpt lat="43.3157260" lon="-1.9880890">
        <ele>12.0</ele>
        <time>2022-11-27T08:37:46Z</time>
      </trkpt>
      <trkpt lat="43.3156910" lon="-1.9881450">
        <ele>12.0</ele>
        <time>2022-11-27T08:37:47Z</time>
      </trkpt>
      <trkpt lat="43.3156590" lon="-1.9882010">
        <ele>12.0</ele>
        <time>2022-11-27T08:37:48Z</time>
      </trkpt>
      <trkpt lat="43.3156270" lon="-1.9882550">
        <ele>12.0</ele>
        <time>2022-11-27T08:37:49Z</time>
      </trkpt>
      <trkpt lat="43.3155980" lon="-1.9883140">
        <ele>12.0</ele>
        <time>2022-11-27T08:37:50Z</time>
      </trkpt>
      <trkpt lat="43.3155690" lon="-1.9883750">
        <ele>12.0</ele>
        <time>2022-11-27T08:37:51Z</time>
      </trkpt>
      <trkpt lat="43.3155390" lon="-1.9884360">
        <ele>12.0</ele>
        <time>2022-11-27T08:37:52Z</time>
      </trkpt>
      <trkpt lat="43.3155070" lon="-1.9884960">
        <ele>12.0</ele>
        <time>2022-11-27T08:37:53Z</time>
      </trkpt>
      <trkpt lat="43.3154750" lon="-1.9885540">
        <ele>12.0</ele>
        <time>2022-11-27T08:37:54Z</time>
      </trkpt>
      <trkpt lat="43.3154420" lon="-1.9886120">
        <ele>12.0</ele>
        <time>2022-11-27T08:37:55Z</time>
      </trkpt>
      <trkpt lat="43.3154110" lon="-1.9886720">
        <ele>12.2</ele>
        <time>2022-11-27T08:37:56Z</time>
      </trkpt>
      <trkpt lat="43.3153790" lon="-1.9887320">
        <ele>12.2</ele>
        <time>2022-11-27T08:37:57Z</time>
      </trkpt>
      <trkpt lat="43.3153480" lon="-1.9887890">
        <ele>12.2</ele>
        <time>2022-11-27T08:37:58Z</time>
      </trkpt>
      <trkpt lat="43.3153180" lon="-1.9888440">
        <ele>12.2</ele>
        <time>2022-11-27T08:37:59Z</time>
      </trkpt>
      <trkpt lat="43.3152920" lon="-1.9888950">
        <ele>12.2</ele>
        <time>2022-11-27T08:38:00Z</time>
      </trkpt>
      <trkpt lat="43.3152770" lon="-1.9889480">
        <ele>12.2</ele>
        <time>2022-11-27T08:38:01Z</time>
      </trkpt>
      <trkpt lat="43.3152680" lon="-1.9890020">
        <ele>12.2</ele>
        <time>2022-11-27T08:38:02Z</time>
      </trkpt>
      <trkpt lat="43.3152590" lon="-1.9890570">
        <ele>12.2</ele>
        <time>2022-11-27T08:38:03Z</time>
      </trkpt>
      <trkpt lat="43.3152440" lon="-1.9891140">
        <ele>12.4</ele>
        <time>2022-11-27T08:38:04Z</time>
      </trkpt>
      <trkpt lat="43.3152260" lon="-1.9891690">
        <ele>12.4</ele>
        <time>2022-11-27T08:38:05Z</time>
      </trkpt>
      <trkpt lat="43.3152110" lon="-1.9892230">
        <ele>12.4</ele>
        <time>2022-11-27T08:38:06Z</time>
      </trkpt>
      <trkpt lat="43.3151970" lon="-1.9892730">
        <ele>12.4</ele>
        <time>2022-11-27T08:38:07Z</time>
      </trkpt>
      <trkpt lat="43.3151870" lon="-1.9893120">
        <ele>12.4</ele>
        <time>2022-11-27T08:38:08Z</time>
      </trkpt>
      <trkpt lat="43.3151820" lon="-1.9893380">
        <ele>12.4</ele>
        <time>2022-11-27T08:38:09Z</time>
      </trkpt>
      <trkpt lat="43.3151760" lon="-1.9893620">
        <ele>12.6</ele>
        <time>2022-11-27T08:38:10Z</time>
      </trkpt>
      <trkpt lat="43.3151680" lon="-1.9893960">
        <ele>12.6</ele>
        <time>2022-11-27T08:38:11Z</time>
      </trkpt>
      <trkpt lat="43.3151590" lon="-1.9894390">
        <ele>12.6</ele>
        <time>2022-11-27T08:38:12Z</time>
      </trkpt>
      <trkpt lat="43.3151490" lon="-1.9894870">
        <ele>12.6</ele>
        <time>2022-11-27T08:38:13Z</time>
      </trkpt>
      <trkpt lat="43.3151370" lon="-1.9895430">
        <ele>12.6</ele>
        <time>2022-11-27T08:38:14Z</time>
      </trkpt>
      <trkpt lat="43.3151220" lon="-1.9896000">
        <ele>12.8</ele>
        <time>2022-11-27T08:38:15Z</time>
      </trkpt>
      <trkpt lat="43.3151050" lon="-1.9896500">
        <ele>12.8</ele>
        <time>2022-11-27T08:38:16Z</time>
      </trkpt>
      <trkpt lat="43.3150890" lon="-1.9896980">
        <ele>12.8</ele>
        <time>2022-11-27T08:38:17Z</time>
      </trkpt>
      <trkpt lat="43.3150750" lon="-1.9897450">
        <ele>12.8</ele>
        <time>2022-11-27T08:38:18Z</time>
      </trkpt>
      <trkpt lat="43.3150650" lon="-1.9897920">
        <ele>12.8</ele>
        <time>2022-11-27T08:38:19Z</time>
      </trkpt>
      <trkpt lat="43.3150540" lon="-1.9898410">
        <ele>12.8</ele>
        <time>2022-11-27T08:38:20Z</time>
      </trkpt>
      <trkpt lat="43.3150440" lon="-1.9898880">
        <ele>12.8</ele>
        <time>2022-11-27T08:38:21Z</time>
      </trkpt>
      <trkpt lat="43.3150320" lon="-1.9899350">
        <ele>12.8</ele>
        <time>2022-11-27T08:38:22Z</time>
      </trkpt>
      <trkpt lat="43.3150180" lon="-1.9899810">
        <ele>13.0</ele>
        <time>2022-11-27T08:38:23Z</time>
      </trkpt>
      <trkpt lat="43.3150010" lon="-1.9900260">
        <ele>13.0</ele>
        <time>2022-11-27T08:38:24Z</time>
      </trkpt>
      <trkpt lat="43.3149880" lon="-1.9900720">
        <ele>13.0</ele>
        <time>2022-11-27T08:38:25Z</time>
      </trkpt>
      <trkpt lat="43.3149780" lon="-1.9901190">
        <ele>13.0</ele>
        <time>2022-11-27T08:38:26Z</time>
      </trkpt>
      <trkpt lat="43.3149700" lon="-1.9901630">
        <ele>13.0</ele>
        <time>2022-11-27T08:38:27Z</time>
      </trkpt>
      <trkpt lat="43.3149640" lon="-1.9902040">
        <ele>13.2</ele>
        <time>2022-11-27T08:38:28Z</time>
      </trkpt>
      <trkpt lat="43.3149560" lon="-1.9902410">
        <ele>13.2</ele>
        <time>2022-11-27T08:38:29Z</time>
      </trkpt>
      <trkpt lat="43.3149490" lon="-1.9902810">
        <ele>13.2</ele>
        <time>2022-11-27T08:38:30Z</time>
      </trkpt>
      <trkpt lat="43.3149480" lon="-1.9903260">
        <ele>13.2</ele>
        <time>2022-11-27T08:38:31Z</time>
      </trkpt>
      <trkpt lat="43.3149470" lon="-1.9903710">
        <ele>13.2</ele>
        <time>2022-11-27T08:38:32Z</time>
      </trkpt>
      <trkpt lat="43.3149360" lon="-1.9904140">
        <ele>13.2</ele>
        <time>2022-11-27T08:38:33Z</time>
      </trkpt>
      <trkpt lat="43.3149230" lon="-1.9904590">
        <ele>13.4</ele>
        <time>2022-11-27T08:38:34Z</time>
      </trkpt>
      <trkpt lat="43.3149130" lon="-1.9905060">
        <ele>13.4</ele>
        <time>2022-11-27T08:38:35Z</time>
      </trkpt>
      <trkpt lat="43.3149040" lon="-1.9905530">
        <ele>13.6</ele>
        <time>2022-11-27T08:38:36Z</time>
      </trkpt>
      <trkpt lat="43.3148970" lon="-1.9906000">
        <ele>13.6</ele>
        <time>2022-11-27T08:38:37Z</time>
      </trkpt>
      <trkpt lat="43.3148920" lon="-1.9906520">
        <ele>13.6</ele>
        <time>2022-11-27T08:38:38Z</time>
      </trkpt>
      <trkpt lat="43.3148870" lon="-1.9907040">
        <ele>13.8</ele>
        <time>2022-11-27T08:38:39Z</time>
      </trkpt>
      <trkpt lat="43.3148800" lon="-1.9907570">
        <ele>13.8</ele>
        <time>2022-11-27T08:38:40Z</time>
      </trkpt>
      <trkpt lat="43.3148710" lon="-1.9908100">
        <ele>13.8</ele>
        <time>2022-11-27T08:38:41Z</time>
      </trkpt>
      <trkpt lat="43.3148620" lon="-1.9908620">
        <ele>13.8</ele>
        <time>2022-11-27T08:38:42Z</time>
      </trkpt>
      <trkpt lat="43.3148520" lon="-1.9909070">
        <ele>13.8</ele>
        <time>2022-11-27T08:38:43Z</time>
      </trkpt>
      <trkpt lat="43.3148450" lon="-1.9909430">
        <ele>14.0</ele>
        <time>2022-11-27T08:38:44Z</time>
      </trkpt>
      <trkpt lat="43.3148390" lon="-1.9909700">
        <ele>14.0</ele>
        <time>2022-11-27T08:38:45Z</time>
      </trkpt>
      <trkpt lat="43.3148320" lon="-1.9909910">
        <ele>14.0</ele>
        <time>2022-11-27T08:38:46Z</time>
      </trkpt>
      <trkpt lat="43.3148270" lon="-1.9910080">
        <ele>14.0</ele>
        <time>2022-11-27T08:38:47Z</time>
      </trkpt>
      <trkpt lat="43.3148210" lon="-1.9910220">
        <ele>14.0</ele>
        <time>2022-11-27T08:38:48Z</time>
      </trkpt>
      <trkpt lat="43.3148130" lon="-1.9910310">
        <ele>14.2</ele>
        <time>2022-11-27T08:38:49Z</time>
      </trkpt>
      <trkpt lat="43.3148000" lon="-1.9910360">
        <ele>14.2</ele>
        <time>2022-11-27T08:38:50Z</time>
      </trkpt>
      <trkpt lat="43.3147880" lon="-1.9910380">
        <ele>14.2</ele>
        <time>2022-11-27T08:38:51Z</time>
      </trkpt>
      <trkpt lat="43.3147780" lon="-1.9910430">
        <ele>14.2</ele>
        <time>2022-11-27T08:38:52Z</time>
      </trkpt>
      <trkpt lat="43.3147680" lon="-1.9910550">
        <ele>14.4</ele>
        <time>2022-11-27T08:38:53Z</time>
      </trkpt>
      <trkpt lat="43.3147600" lon="-1.9910730">
        <ele>14.4</ele>
        <time>2022-11-27T08:38:54Z</time>
      </trkpt>
      <trkpt lat="43.3147550" lon="-1.9910880">
        <ele>14.4</ele>
        <time>2022-11-27T08:38:55Z</time>
      </trkpt>
      <trkpt lat="43.3147520" lon="-1.9911030">
        <ele>14.4</ele>
        <time>2022-11-27T08:38:56Z</time>
      </trkpt>
      <trkpt lat="43.3147460" lon="-1.9911190">
        <ele>14.6</ele>
        <time>2022-11-27T08:38:57Z</time>
      </trkpt>
      <trkpt lat="43.3147390" lon="-1.9911320">
        <ele>14.6</ele>
        <time>2022-11-27T08:38:58Z</time>
      </trkpt>
      <trkpt lat="43.3147350" lon="-1.9911460">
        <ele>14.6</ele>
        <time>2022-11-27T08:38:59Z</time>
      </trkpt>
      <trkpt lat="43.3147340" lon="-1.9911610">
        <ele>14.6</ele>
        <time>2022-11-27T08:39:00Z</time>
      </trkpt>
      <trkpt lat="43.3147330" lon="-1.9911760">
        <ele>14.6</ele>
        <time>2022-11-27T08:39:01Z</time>
      </trkpt>
      <trkpt lat="43.3147270" lon="-1.9911960">
        <ele>14.8</ele>
        <time>2022-11-27T08:39:02Z</time>
      </trkpt>
      <trkpt lat="43.3147140" lon="-1.9912260">
        <ele>14.8</ele>
        <time>2022-11-27T08:39:03Z</time>
      </trkpt>
      <trkpt lat="43.3147010" lon="-1.9912710">
        <ele>14.8</ele>
        <time>2022-11-27T08:39:04Z</time>
      </trkpt>
      <trkpt lat="43.3146950" lon="-1.9913250">
        <ele>14.8</ele>
        <time>2022-11-27T08:39:05Z</time>
      </trkpt>
      <trkpt lat="43.3146900" lon="-1.9913790">
        <ele>14.8</ele>
        <time>2022-11-27T08:39:06Z</time>
      </trkpt>
      <trkpt lat="43.3146830" lon="-1.9914320">
        <ele>15.0</ele>
        <time>2022-11-27T08:39:07Z</time>
      </trkpt>
      <trkpt lat="43.3146750" lon="-1.9914830">
        <ele>15.0</ele>
        <time>2022-11-27T08:39:08Z</time>
      </trkpt>
      <trkpt lat="43.3146660" lon="-1.9915330">
        <ele>15.0</ele>
        <time>2022-11-27T08:39:09Z</time>
      </trkpt>
      <trkpt lat="43.3146580" lon="-1.9915820">
        <ele>15.0</ele>
        <time>2022-11-27T08:39:10Z</time>
      </trkpt>
      <trkpt lat="43.3146470" lon="-1.9916270">
        <ele>15.0</ele>
        <time>2022-11-27T08:39:11Z</time>
      </trkpt>
      <trkpt lat="43.3146350" lon="-1.9916680">
        <ele>15.0</ele>
        <time>2022-11-27T08:39:12Z</time>
      </trkpt>
      <trkpt lat="43.3146230" lon="-1.9917070">
        <ele>15.0</ele>
        <time>2022-11-27T08:39:13Z</time>
      </trkpt>
      <trkpt lat="43.3146140" lon="-1.9917430">
        <ele>15.0</ele>
        <time>2022-11-27T08:39:14Z</time>
      </trkpt>
      <trkpt lat="43.3146070" lon="-1.9917750">
        <ele>15.0</ele>
        <time>2022-11-27T08:39:15Z</time>
      </trkpt>
      <trkpt lat="43.3146020" lon="-1.9918030">
        <ele>13.8</ele>
        <time>2022-11-27T08:39:16Z</time>
      </trkpt>
      <trkpt lat="43.3145990" lon="-1.9918280">
        <ele>13.8</ele>
        <time>2022-11-27T08:39:17Z</time>
      </trkpt>
      <trkpt lat="43.3146010" lon="-1.9918550">
        <ele>13.8</ele>
        <time>2022-11-27T08:39:18Z</time>
      </trkpt>
      <trkpt lat="43.3146040" lon="-1.9918890">
        <ele>13.8</ele>
        <time>2022-11-27T08:39:19Z</time>
      </trkpt>
      <trkpt lat="43.3146010" lon="-1.9919280">
        <ele>13.8</ele>
        <time>2022-11-27T08:39:20Z</time>
      </trkpt>
      <trkpt lat="43.3145970" lon="-1.9919630">
        <ele>13.8</ele>
        <time>2022-11-27T08:39:21Z</time>
      </trkpt>
      <trkpt lat="43.3145910" lon="-1.9919890">
        <ele>13.8</ele>
        <time>2022-11-27T08:39:22Z</time>
      </trkpt>
      <trkpt lat="43.3145870" lon="-1.9920100">
        <ele>13.8</ele>
        <time>2022-11-27T08:39:23Z</time>
      </trkpt>
      <trkpt lat="43.3145830" lon="-1.9920320">
        <ele>13.8</ele>
        <time>2022-11-27T08:39:24Z</time>
      </trkpt>
      <trkpt lat="43.3145770" lon="-1.9920590">
        <ele>13.8</ele>
        <time>2022-11-27T08:39:25Z</time>
      </trkpt>
      <trkpt lat="43.3145690" lon="-1.9920970">
        <ele>13.8</ele>
        <time>2022-11-27T08:39:26Z</time>
      </trkpt>
      <trkpt lat="43.3145630" lon="-1.9921460">
        <ele>13.8</ele>
        <time>2022-11-27T08:39:27Z</time>
      </trkpt>
      <trkpt lat="43.3145570" lon="-1.9921990">
        <ele>13.8</ele>
        <time>2022-11-27T08:39:28Z</time>
      </trkpt>
      <trkpt lat="43.3145510" lon="-1.9922510">
        <ele>13.8</ele>
        <time>2022-11-27T08:39:29Z</time>
      </trkpt>
      <trkpt lat="43.3145460" lon="-1.9923020">
        <ele>13.8</ele>
        <time>2022-11-27T08:39:30Z</time>
      </trkpt>
      <trkpt lat="43.3145410" lon="-1.9923490">
        <ele>13.8</ele>
        <time>2022-11-27T08:39:31Z</time>
      </trkpt>
      <trkpt lat="43.3145370" lon="-1.9923910">
        <ele>13.8</ele>
        <time>2022-11-27T08:39:32Z</time>
      </trkpt>
      <trkpt lat="43.3145330" lon="-1.9924260">
        <ele>13.8</ele>
        <time>2022-11-27T08:39:33Z</time>
      </trkpt>
      <trkpt lat="43.3145290" lon="-1.9924530">
        <ele>13.8</ele>
        <time>2022-11-27T08:39:34Z</time>
      </trkpt>
      <trkpt lat="43.3145270" lon="-1.9924710">
        <ele>13.8</ele>
        <time>2022-11-27T08:39:35Z</time>
      </trkpt>
      <trkpt lat="43.3145260" lon="-1.9924910">
        <ele>13.8</ele>
        <time>2022-11-27T08:39:36Z</time>
      </trkpt>
      <trkpt lat="43.3145230" lon="-1.9925210">
        <ele>14.0</ele>
        <time>2022-11-27T08:39:37Z</time>
      </trkpt>
      <trkpt lat="43.3145200" lon="-1.9925570">
        <ele>14.0</ele>
        <time>2022-11-27T08:39:38Z</time>
      </trkpt>
      <trkpt lat="43.3145190" lon="-1.9925930">
        <ele>14.0</ele>
        <time>2022-11-27T08:39:39Z</time>
      </trkpt>
      <trkpt lat="43.3145170" lon="-1.9926280">
        <ele>14.0</ele>
        <time>2022-11-27T08:39:40Z</time>
      </trkpt>
      <trkpt lat="43.3145140" lon="-1.9926630">
        <ele>14.0</ele>
        <time>2022-11-27T08:39:41Z</time>
      </trkpt>
      <trkpt lat="43.3145100" lon="-1.9927020">
        <ele>14.0</ele>
        <time>2022-11-27T08:39:42Z</time>
      </trkpt>
      <trkpt lat="43.3145070" lon="-1.9927430">
        <ele>14.0</ele>
        <time>2022-11-27T08:39:43Z</time>
      </trkpt>
      <trkpt lat="43.3145040" lon="-1.9927880">
        <ele>14.0</ele>
        <time>2022-11-27T08:39:44Z</time>
      </trkpt>
      <trkpt lat="43.3145000" lon="-1.9928340">
        <ele>14.2</ele>
        <time>2022-11-27T08:39:45Z</time>
      </trkpt>
      <trkpt lat="43.3144980" lon="-1.9928810">
        <ele>14.2</ele>
        <time>2022-11-27T08:39:46Z</time>
      </trkpt>
      <trkpt lat="43.3144990" lon="-1.9929230">
        <ele>14.2</ele>
        <time>2022-11-27T08:39:47Z</time>
      </trkpt>
      <trkpt lat="43.3145000" lon="-1.9929580">
        <ele>14.2</ele>
        <time>2022-11-27T08:39:48Z</time>
      </trkpt>
      <trkpt lat="43.3145010" lon="-1.9929890">
        <ele>14.2</ele>
        <time>2022-11-27T08:39:49Z</time>
      </trkpt>
      <trkpt lat="43.3145010" lon="-1.9930170">
        <ele>14.2</ele>
        <time>2022-11-27T08:39:50Z</time>
      </trkpt>
      <trkpt lat="43.3145010" lon="-1.9930430">
        <ele>14.2</ele>
        <time>2022-11-27T08:39:51Z</time>
      </trkpt>
      <trkpt lat="43.3145010" lon="-1.9930650">
        <ele>14.2</ele>
        <time>2022-11-27T08:39:52Z</time>
      </trkpt>
      <trkpt lat="43.3144980" lon="-1.9930890">
        <ele>14.2</ele>
        <time>2022-11-27T08:39:53Z</time>
      </trkpt>
      <trkpt lat="43.3144930" lon="-1.9931170">
        <ele>14.2</ele>
        <time>2022-11-27T08:39:54Z</time>
      </trkpt>
      <trkpt lat="43.3144880" lon="-1.9931490">
        <ele>14.2</ele>
        <time>2022-11-27T08:39:55Z</time>
      </trkpt>
      <trkpt lat="43.3144880" lon="-1.9931920">
        <ele>14.2</ele>
        <time>2022-11-27T08:39:56Z</time>
      </trkpt>
      <trkpt lat="43.3144910" lon="-1.9932440">
        <ele>14.2</ele>
        <time>2022-11-27T08:39:57Z</time>
      </trkpt>
      <trkpt lat="43.3144960" lon="-1.9933050">
        <ele>14.2</ele>
        <time>2022-11-27T08:39:58Z</time>
      </trkpt>
      <trkpt lat="43.3144990" lon="-1.9933720">
        <ele>14.2</ele>
        <time>2022-11-27T08:39:59Z</time>
      </trkpt>
      <trkpt lat="43.3144980" lon="-1.9934410">
        <ele>14.2</ele>
        <time>2022-11-27T08:40:00Z</time>
      </trkpt>
      <trkpt lat="43.3144970" lon="-1.9935120">
        <ele>14.2</ele>
        <time>2022-11-27T08:40:01Z</time>
      </trkpt>
      <trkpt lat="43.3144970" lon="-1.9935860">
        <ele>14.2</ele>
        <time>2022-11-27T08:40:02Z</time>
      </trkpt>
      <trkpt lat="43.3144970" lon="-1.9936610">
        <ele>14.2</ele>
        <time>2022-11-27T08:40:03Z</time>
      </trkpt>
      <trkpt lat="43.3144970" lon="-1.9937390">
        <ele>14.2</ele>
        <time>2022-11-27T08:40:04Z</time>
      </trkpt>
      <trkpt lat="43.3144970" lon="-1.9938170">
        <ele>14.2</ele>
        <time>2022-11-27T08:40:05Z</time>
      </trkpt>
      <trkpt lat="43.3144970" lon="-1.9938980">
        <ele>14.2</ele>
        <time>2022-11-27T08:40:06Z</time>
      </trkpt>
      <trkpt lat="43.3144970" lon="-1.9939780">
        <ele>14.2</ele>
        <time>2022-11-27T08:40:07Z</time>
      </trkpt>
      <trkpt lat="43.3144960" lon="-1.9940590">
        <ele>14.2</ele>
        <time>2022-11-27T08:40:08Z</time>
      </trkpt>
      <trkpt lat="43.3144950" lon="-1.9941410">
        <ele>14.2</ele>
        <time>2022-11-27T08:40:09Z</time>
      </trkpt>
      <trkpt lat="43.3144940" lon="-1.9942230">
        <ele>14.2</ele>
        <time>2022-11-27T08:40:10Z</time>
      </trkpt>
      <trkpt lat="43.3144930" lon="-1.9943060">
        <ele>14.2</ele>
        <time>2022-11-27T08:40:11Z</time>
      </trkpt>
      <trkpt lat="43.3144920" lon="-1.9943910">
        <ele>14.2</ele>
        <time>2022-11-27T08:40:12Z</time>
      </trkpt>
      <trkpt lat="43.3144890" lon="-1.9944750">
        <ele>14.2</ele>
        <time>2022-11-27T08:40:13Z</time>
      </trkpt>
      <trkpt lat="43.3144880" lon="-1.9945600">
        <ele>14.2</ele>
        <time>2022-11-27T08:40:14Z</time>
      </trkpt>
      <trkpt lat="43.3144870" lon="-1.9946450">
        <ele>14.2</ele>
        <time>2022-11-27T08:40:15Z</time>
      </trkpt>
      <trkpt lat="43.3144880" lon="-1.9947310">
        <ele>14.2</ele>
        <time>2022-11-27T08:40:16Z</time>
      </trkpt>
      <trkpt lat="43.3144870" lon="-1.9948160">
        <ele>14.2</ele>
        <time>2022-11-27T08:40:17Z</time>
      </trkpt>
      <trkpt lat="43.3144870" lon="-1.9949030">
        <ele>14.4</ele>
        <time>2022-11-27T08:40:18Z</time>
      </trkpt>
      <trkpt lat="43.3144870" lon="-1.9949910">
        <ele>14.4</ele>
        <time>2022-11-27T08:40:19Z</time>
      </trkpt>
      <trkpt lat="43.3144870" lon="-1.9950800">
        <ele>14.4</ele>
        <time>2022-11-27T08:40:20Z</time>
      </trkpt>
      <trkpt lat="43.3144870" lon="-1.9951690">
        <ele>14.4</ele>
        <time>2022-11-27T08:40:21Z</time>
      </trkpt>
      <trkpt lat="43.3144870" lon="-1.9952580">
        <ele>14.4</ele>
        <time>2022-11-27T08:40:22Z</time>
      </trkpt>
      <trkpt lat="43.3144860" lon="-1.9953480">
        <ele>14.4</ele>
        <time>2022-11-27T08:40:23Z</time>
      </trkpt>
      <trkpt lat="43.3144850" lon="-1.9954370">
        <ele>14.4</ele>
        <time>2022-11-27T08:40:24Z</time>
      </trkpt>
      <trkpt lat="43.3144840" lon="-1.9955280">
        <ele>14.4</ele>
        <time>2022-11-27T08:40:25Z</time>
      </trkpt>
      <trkpt lat="43.3144850" lon="-1.9956180">
        <ele>14.6</ele>
        <time>2022-11-27T08:40:26Z</time>
      </trkpt>
      <trkpt lat="43.3144890" lon="-1.9957080">
        <ele>14.6</ele>
        <time>2022-11-27T08:40:27Z</time>
      </trkpt>
      <trkpt lat="43.3144940" lon="-1.9957970">
        <ele>14.6</ele>
        <time>2022-11-27T08:40:28Z</time>
      </trkpt>
      <trkpt lat="43.3145020" lon="-1.9958840">
        <ele>14.6</ele>
        <time>2022-11-27T08:40:29Z</time>
      </trkpt>
      <trkpt lat="43.3145130" lon="-1.9959720">
        <ele>14.6</ele>
        <time>2022-11-27T08:40:30Z</time>
      </trkpt>
      <trkpt lat="43.3145260" lon="-1.9960590">
        <ele>14.6</ele>
        <time>2022-11-27T08:40:31Z</time>
      </trkpt>
      <trkpt lat="43.3145410" lon="-1.9961460">
        <ele>14.6</ele>
        <time>2022-11-27T08:40:32Z</time>
      </trkpt>
      <trkpt lat="43.3145570" lon="-1.9962310">
        <ele>14.6</ele>
        <time>2022-11-27T08:40:33Z</time>
      </trkpt>
      <trkpt lat="43.3145740" lon="-1.9963140">
        <ele>14.6</ele>
        <time>2022-11-27T08:40:34Z</time>
      </trkpt>
      <trkpt lat="43.3145890" lon="-1.9963960">
        <ele>14.6</ele>
        <time>2022-11-27T08:40:35Z</time>
      </trkpt>
      <trkpt lat="43.3146050" lon="-1.9964790">
        <ele>14.6</ele>
        <time>2022-11-27T08:40:36Z</time>
      </trkpt>
      <trkpt lat="43.3146210" lon="-1.9965640">
        <ele>14.6</ele>
        <time>2022-11-27T08:40:37Z</time>
      </trkpt>
      <trkpt lat="43.3146360" lon="-1.9966500">
        <ele>14.6</ele>
        <time>2022-11-27T08:40:38Z</time>
      </trkpt>
      <trkpt lat="43.3146530" lon="-1.9967360">
        <ele>14.8</ele>
        <time>2022-11-27T08:40:39Z</time>
      </trkpt>
      <trkpt lat="43.3146710" lon="-1.9968230">
        <ele>14.8</ele>
        <time>2022-11-27T08:40:40Z</time>
      </trkpt>
      <trkpt lat="43.3146880" lon="-1.9969110">
        <ele>14.8</ele>
        <time>2022-11-27T08:40:41Z</time>
      </trkpt>
      <trkpt lat="43.3147050" lon="-1.9970000">
        <ele>14.8</ele>
        <time>2022-11-27T08:40:42Z</time>
      </trkpt>
      <trkpt lat="43.3147240" lon="-1.9970890">
        <ele>14.8</ele>
        <time>2022-11-27T08:40:43Z</time>
      </trkpt>
      <trkpt lat="43.3147450" lon="-1.9971770">
        <ele>14.8</ele>
        <time>2022-11-27T08:40:44Z</time>
      </trkpt>
      <trkpt lat="43.3147670" lon="-1.9972620">
        <ele>14.8</ele>
        <time>2022-11-27T08:40:45Z</time>
      </trkpt>
      <trkpt lat="43.3147920" lon="-1.9973470">
        <ele>14.8</ele>
        <time>2022-11-27T08:40:46Z</time>
      </trkpt>
      <trkpt lat="43.3148180" lon="-1.9974270">
        <ele>14.8</ele>
        <time>2022-11-27T08:40:47Z</time>
      </trkpt>
      <trkpt lat="43.3148460" lon="-1.9975060">
        <ele>14.8</ele>
        <time>2022-11-27T08:40:48Z</time>
      </trkpt>
      <trkpt lat="43.3148790" lon="-1.9975770">
        <ele>14.8</ele>
        <time>2022-11-27T08:40:49Z</time>
      </trkpt>
      <trkpt lat="43.3149130" lon="-1.9976410">
        <ele>14.8</ele>
        <time>2022-11-27T08:40:50Z</time>
      </trkpt>
      <trkpt lat="43.3149450" lon="-1.9976940">
        <ele>14.8</ele>
        <time>2022-11-27T08:40:51Z</time>
      </trkpt>
      <trkpt lat="43.3149660" lon="-1.9977420">
        <ele>14.8</ele>
        <time>2022-11-27T08:40:52Z</time>
      </trkpt>
      <trkpt lat="43.3149850" lon="-1.9977860">
        <ele>14.8</ele>
        <time>2022-11-27T08:40:53Z</time>
      </trkpt>
      <trkpt lat="43.3150010" lon="-1.9978250">
        <ele>14.8</ele>
        <time>2022-11-27T08:40:54Z</time>
      </trkpt>
      <trkpt lat="43.3150180" lon="-1.9978630">
        <ele>14.8</ele>
        <time>2022-11-27T08:40:55Z</time>
      </trkpt>
      <trkpt lat="43.3150320" lon="-1.9978990">
        <ele>14.8</ele>
        <time>2022-11-27T08:40:56Z</time>
      </trkpt>
      <trkpt lat="43.3150470" lon="-1.9979370">
        <ele>14.8</ele>
        <time>2022-11-27T08:40:57Z</time>
      </trkpt>
      <trkpt lat="43.3150610" lon="-1.9979770">
        <ele>14.8</ele>
        <time>2022-11-27T08:40:58Z</time>
      </trkpt>
      <trkpt lat="43.3150730" lon="-1.9980130">
        <ele>14.6</ele>
        <time>2022-11-27T08:40:59Z</time>
      </trkpt>
      <trkpt lat="43.3150890" lon="-1.9980480">
        <ele>14.6</ele>
        <time>2022-11-27T08:41:00Z</time>
      </trkpt>
      <trkpt lat="43.3151070" lon="-1.9980830">
        <ele>14.6</ele>
        <time>2022-11-27T08:41:01Z</time>
      </trkpt>
      <trkpt lat="43.3151230" lon="-1.9981190">
        <ele>14.6</ele>
        <time>2022-11-27T08:41:02Z</time>
      </trkpt>
      <trkpt lat="43.3151420" lon="-1.9981530">
        <ele>14.6</ele>
        <time>2022-11-27T08:41:03Z</time>
      </trkpt>
      <trkpt lat="43.3151640" lon="-1.9981840">
        <ele>14.6</ele>
        <time>2022-11-27T08:41:04Z</time>
      </trkpt>
      <trkpt lat="43.3151820" lon="-1.9982190">
        <ele>14.6</ele>
        <time>2022-11-27T08:41:05Z</time>
      </trkpt>
      <trkpt lat="43.3152100" lon="-1.9982480">
        <ele>14.6</ele>
        <time>2022-11-27T08:41:06Z</time>
      </trkpt>
      <trkpt lat="43.3152330" lon="-1.9982840">
        <ele>14.6</ele>
        <time>2022-11-27T08:41:07Z</time>
      </trkpt>
      <trkpt lat="43.3152570" lon="-1.9983220">
        <ele>14.6</ele>
        <time>2022-11-27T08:41:08Z</time>
      </trkpt>
      <trkpt lat="43.3152740" lon="-1.9983670">
        <ele>14.6</ele>
        <time>2022-11-27T08:41:09Z</time>
      </trkpt>
      <trkpt lat="43.3152880" lon="-1.9984100">
        <ele>14.6</ele>
        <time>2022-11-27T08:41:10Z</time>
      </trkpt>
      <trkpt lat="43.3153070" lon="-1.9984470">
        <ele>14.6</ele>
        <time>2022-11-27T08:41:11Z</time>
      </trkpt>
      <trkpt lat="43.3153400" lon="-1.9984820">
        <ele>13.0</ele>
        <time>2022-11-27T08:41:12Z</time>
      </trkpt>
      <trkpt lat="43.3153670" lon="-1.9985100">
        <ele>13.0</ele>
        <time>2022-11-27T08:41:13Z</time>
      </trkpt>
      <trkpt lat="43.3153880" lon="-1.9985380">
        <ele>13.0</ele>
        <time>2022-11-27T08:41:14Z</time>
      </trkpt>
      <trkpt lat="43.3154030" lon="-1.9986170">
        <ele>13.0</ele>
        <time>2022-11-27T08:41:15Z</time>
      </trkpt>
      <trkpt lat="43.3154160" lon="-1.9986690">
        <ele>13.0</ele>
        <time>2022-11-27T08:41:16Z</time>
      </trkpt>
      <trkpt lat="43.3154130" lon="-1.9987260">
        <ele>13.0</ele>
        <time>2022-11-27T08:41:17Z</time>
      </trkpt>
      <trkpt lat="43.3153720" lon="-1.9988150">
        <ele>13.0</ele>
        <time>2022-11-27T08:41:18Z</time>
      </trkpt>
      <trkpt lat="43.3153830" lon="-1.9988460">
        <ele>13.0</ele>
        <time>2022-11-27T08:41:19Z</time>
      </trkpt>
      <trkpt lat="43.3154020" lon="-1.9988680">
        <ele>13.0</ele>
        <time>2022-11-27T08:41:20Z</time>
      </trkpt>
      <trkpt lat="43.3153870" lon="-1.9988770">
        <ele>13.0</ele>
        <time>2022-11-27T08:41:21Z</time>
      </trkpt>
      <trkpt lat="43.3154200" lon="-1.9988870">
        <ele>13.0</ele>
        <time>2022-11-27T08:41:22Z</time>
      </trkpt>
      <trkpt lat="43.3154390" lon="-1.9989170">
        <ele>13.0</ele>
        <time>2022-11-27T08:41:23Z</time>
      </trkpt>
      <trkpt lat="43.3154530" lon="-1.9989670">
        <ele>13.0</ele>
        <time>2022-11-27T08:41:24Z</time>
      </trkpt>
      <trkpt lat="43.3154670" lon="-1.9990240">
        <ele>13.0</ele>
        <time>2022-11-27T08:41:25Z</time>
      </trkpt>
      <trkpt lat="43.3154870" lon="-1.9990870">
        <ele>13.0</ele>
        <time>2022-11-27T08:41:26Z</time>
      </trkpt>
      <trkpt lat="43.3155110" lon="-1.9991500">
        <ele>12.8</ele>
        <time>2022-11-27T08:41:27Z</time>
      </trkpt>
      <trkpt lat="43.3155320" lon="-1.9992150">
        <ele>12.8</ele>
        <time>2022-11-27T08:41:28Z</time>
      </trkpt>
      <trkpt lat="43.3155480" lon="-1.9992790">
        <ele>12.8</ele>
        <time>2022-11-27T08:41:29Z</time>
      </trkpt>
      <trkpt lat="43.3155580" lon="-1.9993460">
        <ele>12.6</ele>
        <time>2022-11-27T08:41:30Z</time>
      </trkpt>
      <trkpt lat="43.3155670" lon="-1.9994150">
        <ele>12.6</ele>
        <time>2022-11-27T08:41:31Z</time>
      </trkpt>
      <trkpt lat="43.3155810" lon="-1.9994860">
        <ele>12.6</ele>
        <time>2022-11-27T08:41:32Z</time>
      </trkpt>
      <trkpt lat="43.3155960" lon="-1.9995580">
        <ele>12.6</ele>
        <time>2022-11-27T08:41:33Z</time>
      </trkpt>
      <trkpt lat="43.3156080" lon="-1.9996330">
        <ele>12.6</ele>
        <time>2022-11-27T08:41:34Z</time>
      </trkpt>
      <trkpt lat="43.3156200" lon="-1.9997100">
        <ele>12.4</ele>
        <time>2022-11-27T08:41:35Z</time>
      </trkpt>
      <trkpt lat="43.3156320" lon="-1.9997890">
        <ele>12.4</ele>
        <time>2022-11-27T08:41:36Z</time>
      </trkpt>
      <trkpt lat="43.3156450" lon="-1.9998670">
        <ele>12.4</ele>
        <time>2022-11-27T08:41:37Z</time>
      </trkpt>
      <trkpt lat="43.3156550" lon="-1.9999400">
        <ele>12.4</ele>
        <time>2022-11-27T08:41:38Z</time>
      </trkpt>
      <trkpt lat="43.3156640" lon="-2.0000120">
        <ele>12.2</ele>
        <time>2022-11-27T08:41:39Z</time>
      </trkpt>
      <trkpt lat="43.3156770" lon="-2.0000870">
        <ele>12.2</ele>
        <time>2022-11-27T08:41:40Z</time>
      </trkpt>
      <trkpt lat="43.3156900" lon="-2.0001650">
        <ele>12.2</ele>
        <time>2022-11-27T08:41:41Z</time>
      </trkpt>
      <trkpt lat="43.3156940" lon="-2.0002460">
        <ele>12.2</ele>
        <time>2022-11-27T08:41:42Z</time>
      </trkpt>
      <trkpt lat="43.3156910" lon="-2.0003260">
        <ele>12.0</ele>
        <time>2022-11-27T08:41:43Z</time>
      </trkpt>
      <trkpt lat="43.3156830" lon="-2.0004060">
        <ele>12.0</ele>
        <time>2022-11-27T08:41:44Z</time>
      </trkpt>
      <trkpt lat="43.3156720" lon="-2.0004850">
        <ele>11.8</ele>
        <time>2022-11-27T08:41:45Z</time>
      </trkpt>
      <trkpt lat="43.3156570" lon="-2.0005620">
        <ele>11.8</ele>
        <time>2022-11-27T08:41:46Z</time>
      </trkpt>
      <trkpt lat="43.3156410" lon="-2.0006400">
        <ele>11.6</ele>
        <time>2022-11-27T08:41:47Z</time>
      </trkpt>
      <trkpt lat="43.3156230" lon="-2.0007210">
        <ele>11.6</ele>
        <time>2022-11-27T08:41:48Z</time>
      </trkpt>
      <trkpt lat="43.3156010" lon="-2.0007970">
        <ele>11.4</ele>
        <time>2022-11-27T08:41:49Z</time>
      </trkpt>
      <trkpt lat="43.3155770" lon="-2.0008660">
        <ele>11.2</ele>
        <time>2022-11-27T08:41:50Z</time>
      </trkpt>
      <trkpt lat="43.3155530" lon="-2.0009320">
        <ele>10.8</ele>
        <time>2022-11-27T08:41:51Z</time>
      </trkpt>
      <trkpt lat="43.3155330" lon="-2.0009960">
        <ele>10.6</ele>
        <time>2022-11-27T08:41:52Z</time>
      </trkpt>
      <trkpt lat="43.3155220" lon="-2.0010580">
        <ele>10.4</ele>
        <time>2022-11-27T08:41:53Z</time>
      </trkpt>
      <trkpt lat="43.3155230" lon="-2.0011190">
        <ele>10.2</ele>
        <time>2022-11-27T08:41:54Z</time>
      </trkpt>
      <trkpt lat="43.3155320" lon="-2.0011810">
        <ele>10.0</ele>
        <time>2022-11-27T08:41:55Z</time>
      </trkpt>
      <trkpt lat="43.3155410" lon="-2.0012490">
        <ele>9.6</ele>
        <time>2022-11-27T08:41:56Z</time>
      </trkpt>
      <trkpt lat="43.3155530" lon="-2.0013190">
        <ele>9.4</ele>
        <time>2022-11-27T08:41:57Z</time>
      </trkpt>
      <trkpt lat="43.3155700" lon="-2.0013890">
        <ele>9.2</ele>
        <time>2022-11-27T08:41:58Z</time>
      </trkpt>
      <trkpt lat="43.3155910" lon="-2.0014580">
        <ele>9.0</ele>
        <time>2022-11-27T08:41:59Z</time>
      </trkpt>
      <trkpt lat="43.3156190" lon="-2.0015280">
        <ele>8.8</ele>
        <time>2022-11-27T08:42:00Z</time>
      </trkpt>
      <trkpt lat="43.3156480" lon="-2.0015990">
        <ele>8.8</ele>
        <time>2022-11-27T08:42:01Z</time>
      </trkpt>
      <trkpt lat="43.3156700" lon="-2.0016760">
        <ele>8.8</ele>
        <time>2022-11-27T08:42:02Z</time>
      </trkpt>
      <trkpt lat="43.3156870" lon="-2.0017570">
        <ele>8.8</ele>
        <time>2022-11-27T08:42:03Z</time>
      </trkpt>
      <trkpt lat="43.3157080" lon="-2.0018410">
        <ele>8.8</ele>
        <time>2022-11-27T08:42:04Z</time>
      </trkpt>
      <trkpt lat="43.3157280" lon="-2.0019300">
        <ele>8.8</ele>
        <time>2022-11-27T08:42:05Z</time>
      </trkpt>
      <trkpt lat="43.3157450" lon="-2.0020190">
        <ele>8.6</ele>
        <time>2022-11-27T08:42:06Z</time>
      </trkpt>
      <trkpt lat="43.3157630" lon="-2.0021090">
        <ele>8.6</ele>
        <time>2022-11-27T08:42:07Z</time>
      </trkpt>
      <trkpt lat="43.3157840" lon="-2.0021970">
        <ele>8.6</ele>
        <time>2022-11-27T08:42:08Z</time>
      </trkpt>
      <trkpt lat="43.3158090" lon="-2.0022850">
        <ele>8.6</ele>
        <time>2022-11-27T08:42:09Z</time>
      </trkpt>
      <trkpt lat="43.3158350" lon="-2.0023730">
        <ele>8.6</ele>
        <time>2022-11-27T08:42:10Z</time>
      </trkpt>
      <trkpt lat="43.3158620" lon="-2.0024620">
        <ele>8.6</ele>
        <time>2022-11-27T08:42:11Z</time>
      </trkpt>
      <trkpt lat="43.3158880" lon="-2.0025520">
        <ele>8.4</ele>
        <time>2022-11-27T08:42:12Z</time>
      </trkpt>
      <trkpt lat="43.3159130" lon="-2.0026430">
        <ele>8.4</ele>
        <time>2022-11-27T08:42:13Z</time>
      </trkpt>
      <trkpt lat="43.3159400" lon="-2.0027330">
        <ele>8.8</ele>
        <time>2022-11-27T08:42:14Z</time>
      </trkpt>
      <trkpt lat="43.3159680" lon="-2.0028240">
        <ele>8.8</ele>
        <time>2022-11-27T08:42:15Z</time>
      </trkpt>
      <trkpt lat="43.3159960" lon="-2.0029130">
        <ele>8.8</ele>
        <time>2022-11-27T08:42:16Z</time>
      </trkpt>
      <trkpt lat="43.3160220" lon="-2.0030010">
        <ele>8.8</ele>
        <time>2022-11-27T08:42:17Z</time>
      </trkpt>
      <trkpt lat="43.3160460" lon="-2.0030850">
        <ele>8.8</ele>
        <time>2022-11-27T08:42:18Z</time>
      </trkpt>
      <trkpt lat="43.3160680" lon="-2.0031660">
        <ele>8.8</ele>
        <time>2022-11-27T08:42:19Z</time>
      </trkpt>
      <trkpt lat="43.3160910" lon="-2.0032490">
        <ele>8.8</ele>
        <time>2022-11-27T08:42:20Z</time>
      </trkpt>
      <trkpt lat="43.3161190" lon="-2.0033330">
        <ele>8.8</ele>
        <time>2022-11-27T08:42:21Z</time>
      </trkpt>
      <trkpt lat="43.3161480" lon="-2.0034190">
        <ele>8.8</ele>
        <time>2022-11-27T08:42:22Z</time>
      </trkpt>
      <trkpt lat="43.3161770" lon="-2.0035050">
        <ele>8.8</ele>
        <time>2022-11-27T08:42:23Z</time>
      </trkpt>
      <trkpt lat="43.3162060" lon="-2.0035910">
        <ele>8.8</ele>
        <time>2022-11-27T08:42:24Z</time>
      </trkpt>
      <trkpt lat="43.3162350" lon="-2.0036780">
        <ele>8.8</ele>
        <time>2022-11-27T08:42:25Z</time>
      </trkpt>
      <trkpt lat="43.3162630" lon="-2.0037660">
        <ele>9.0</ele>
        <time>2022-11-27T08:42:26Z</time>
      </trkpt>
      <trkpt lat="43.3162900" lon="-2.0038550">
        <ele>9.0</ele>
        <time>2022-11-27T08:42:27Z</time>
      </trkpt>
      <trkpt lat="43.3163180" lon="-2.0039430">
        <ele>9.0</ele>
        <time>2022-11-27T08:42:28Z</time>
      </trkpt>
      <trkpt lat="43.3163440" lon="-2.0040310">
        <ele>9.0</ele>
        <time>2022-11-27T08:42:29Z</time>
      </trkpt>
      <trkpt lat="43.3163700" lon="-2.0041190">
        <ele>9.0</ele>
        <time>2022-11-27T08:42:30Z</time>
      </trkpt>
      <trkpt lat="43.3163960" lon="-2.0042080">
        <ele>9.0</ele>
        <time>2022-11-27T08:42:31Z</time>
      </trkpt>
      <trkpt lat="43.3164240" lon="-2.0042960">
        <ele>9.0</ele>
        <time>2022-11-27T08:42:32Z</time>
      </trkpt>
      <trkpt lat="43.3164520" lon="-2.0043810">
        <ele>9.0</ele>
        <time>2022-11-27T08:42:33Z</time>
      </trkpt>
      <trkpt lat="43.3164800" lon="-2.0044650">
        <ele>9.0</ele>
        <time>2022-11-27T08:42:34Z</time>
      </trkpt>
      <trkpt lat="43.3165080" lon="-2.0045460">
        <ele>9.0</ele>
        <time>2022-11-27T08:42:35Z</time>
      </trkpt>
      <trkpt lat="43.3165320" lon="-2.0046280">
        <ele>9.0</ele>
        <time>2022-11-27T08:42:36Z</time>
      </trkpt>
      <trkpt lat="43.3165540" lon="-2.0047090">
        <ele>9.0</ele>
        <time>2022-11-27T08:42:37Z</time>
      </trkpt>
      <trkpt lat="43.3165720" lon="-2.0047900">
        <ele>9.0</ele>
        <time>2022-11-27T08:42:38Z</time>
      </trkpt>
      <trkpt lat="43.3165900" lon="-2.0048710">
        <ele>9.0</ele>
        <time>2022-11-27T08:42:39Z</time>
      </trkpt>
      <trkpt lat="43.3166090" lon="-2.0049490">
        <ele>9.0</ele>
        <time>2022-11-27T08:42:40Z</time>
      </trkpt>
      <trkpt lat="43.3166300" lon="-2.0050240">
        <ele>9.0</ele>
        <time>2022-11-27T08:42:41Z</time>
      </trkpt>
      <trkpt lat="43.3166540" lon="-2.0050970">
        <ele>9.2</ele>
        <time>2022-11-27T08:42:42Z</time>
      </trkpt>
      <trkpt lat="43.3166790" lon="-2.0051680">
        <ele>9.2</ele>
        <time>2022-11-27T08:42:43Z</time>
      </trkpt>
      <trkpt lat="43.3167060" lon="-2.0052390">
        <ele>9.2</ele>
        <time>2022-11-27T08:42:44Z</time>
      </trkpt>
      <trkpt lat="43.3167310" lon="-2.0053130">
        <ele>9.2</ele>
        <time>2022-11-27T08:42:45Z</time>
      </trkpt>
      <trkpt lat="43.3167520" lon="-2.0053860">
        <ele>9.2</ele>
        <time>2022-11-27T08:42:46Z</time>
      </trkpt>
      <trkpt lat="43.3167700" lon="-2.0054530">
        <ele>9.2</ele>
        <time>2022-11-27T08:42:47Z</time>
      </trkpt>
      <trkpt lat="43.3167920" lon="-2.0055120">
        <ele>9.2</ele>
        <time>2022-11-27T08:42:48Z</time>
      </trkpt>
      <trkpt lat="43.3168170" lon="-2.0055650">
        <ele>9.2</ele>
        <time>2022-11-27T08:42:49Z</time>
      </trkpt>
      <trkpt lat="43.3168250" lon="-2.0056150">
        <ele>9.2</ele>
        <time>2022-11-27T08:42:50Z</time>
      </trkpt>
      <trkpt lat="43.3168070" lon="-2.0056560">
        <ele>9.2</ele>
        <time>2022-11-27T08:42:51Z</time>
      </trkpt>
      <trkpt lat="43.3167700" lon="-2.0056840">
        <ele>9.2</ele>
        <time>2022-11-27T08:42:52Z</time>
      </trkpt>
      <trkpt lat="43.3167260" lon="-2.0057080">
        <ele>9.2</ele>
        <time>2022-11-27T08:42:53Z</time>
      </trkpt>
      <trkpt lat="43.3166770" lon="-2.0057310">
        <ele>9.2</ele>
        <time>2022-11-27T08:42:54Z</time>
      </trkpt>
      <trkpt lat="43.3166230" lon="-2.0057550">
        <ele>9.2</ele>
        <time>2022-11-27T08:42:55Z</time>
      </trkpt>
      <trkpt lat="43.3165650" lon="-2.0057820">
        <ele>9.2</ele>
        <time>2022-11-27T08:42:56Z</time>
      </trkpt>
      <trkpt lat="43.3165050" lon="-2.0058110">
        <ele>9.2</ele>
        <time>2022-11-27T08:42:57Z</time>
      </trkpt>
      <trkpt lat="43.3164430" lon="-2.0058370">
        <ele>9.2</ele>
        <time>2022-11-27T08:42:58Z</time>
      </trkpt>
      <trkpt lat="43.3163800" lon="-2.0058630">
        <ele>9.2</ele>
        <time>2022-11-27T08:42:59Z</time>
      </trkpt>
      <trkpt lat="43.3163170" lon="-2.0058900">
        <ele>9.2</ele>
        <time>2022-11-27T08:43:00Z</time>
      </trkpt>
      <trkpt lat="43.3162540" lon="-2.0059160">
        <ele>9.2</ele>
        <time>2022-11-27T08:43:01Z</time>
      </trkpt>
      <trkpt lat="43.3161900" lon="-2.0059430">
        <ele>9.0</ele>
        <time>2022-11-27T08:43:02Z</time>
      </trkpt>
      <trkpt lat="43.3161240" lon="-2.0059660">
        <ele>9.0</ele>
        <time>2022-11-27T08:43:03Z</time>
      </trkpt>
      <trkpt lat="43.3160580" lon="-2.0059950">
        <ele>9.0</ele>
        <time>2022-11-27T08:43:04Z</time>
      </trkpt>
      <trkpt lat="43.3159950" lon="-2.0060290">
        <ele>8.8</ele>
        <time>2022-11-27T08:43:05Z</time>
      </trkpt>
      <trkpt lat="43.3159340" lon="-2.0060660">
        <ele>8.8</ele>
        <time>2022-11-27T08:43:06Z</time>
      </trkpt>
      <trkpt lat="43.3158750" lon="-2.0061060">
        <ele>8.8</ele>
        <time>2022-11-27T08:43:07Z</time>
      </trkpt>
      <trkpt lat="43.3158190" lon="-2.0061440">
        <ele>8.8</ele>
        <time>2022-11-27T08:43:08Z</time>
      </trkpt>
      <trkpt lat="43.3157660" lon="-2.0061830">
        <ele>8.8</ele>
        <time>2022-11-27T08:43:09Z</time>
      </trkpt>
      <trkpt lat="43.3157160" lon="-2.0062250">
        <ele>8.8</ele>
        <time>2022-11-27T08:43:10Z</time>
      </trkpt>
      <trkpt lat="43.3156690" lon="-2.0062680">
        <ele>8.8</ele>
        <time>2022-11-27T08:43:11Z</time>
      </trkpt>
      <trkpt lat="43.3156230" lon="-2.0063120">
        <ele>8.8</ele>
        <time>2022-11-27T08:43:12Z</time>
      </trkpt>
      <trkpt lat="43.3155820" lon="-2.0063590">
        <ele>8.8</ele>
        <time>2022-11-27T08:43:13Z</time>
      </trkpt>
      <trkpt lat="43.3155480" lon="-2.0064110">
        <ele>8.8</ele>
        <time>2022-11-27T08:43:14Z</time>
      </trkpt>
      <trkpt lat="43.3153040" lon="-2.0067960">
        <ele>21.6</ele>
        <time>2022-11-27T08:43:23Z</time>
      </trkpt>
      <trkpt lat="43.3152810" lon="-2.0068320">
        <ele>21.6</ele>
        <time>2022-11-27T08:43:24Z</time>
      </trkpt>
      <trkpt lat="43.3152580" lon="-2.0068720">
        <ele>21.6</ele>
        <time>2022-11-27T08:43:25Z</time>
      </trkpt>
      <trkpt lat="43.3152330" lon="-2.0069180">
        <ele>21.6</ele>
        <time>2022-11-27T08:43:26Z</time>
      </trkpt>
      <trkpt lat="43.3152070" lon="-2.0069670">
        <ele>21.6</ele>
        <time>2022-11-27T08:43:27Z</time>
      </trkpt>
      <trkpt lat="43.3151800" lon="-2.0070150">
        <ele>21.6</ele>
        <time>2022-11-27T08:43:28Z</time>
      </trkpt>
      <trkpt lat="43.3151550" lon="-2.0070630">
        <ele>21.6</ele>
        <time>2022-11-27T08:43:29Z</time>
      </trkpt>
      <trkpt lat="43.3151310" lon="-2.0071110">
        <ele>21.6</ele>
        <time>2022-11-27T08:43:30Z</time>
      </trkpt>
      <trkpt lat="43.3151090" lon="-2.0071580">
        <ele>21.6</ele>
        <time>2022-11-27T08:43:31Z</time>
      </trkpt>
      <trkpt lat="43.3150880" lon="-2.0072040">
        <ele>21.6</ele>
        <time>2022-11-27T08:43:32Z</time>
      </trkpt>
      <trkpt lat="43.3150650" lon="-2.0072470">
        <ele>22.8</ele>
        <time>2022-11-27T08:43:33Z</time>
      </trkpt>
      <trkpt lat="43.3150400" lon="-2.0072900">
        <ele>23.6</ele>
        <time>2022-11-27T08:43:34Z</time>
      </trkpt>
      <trkpt lat="43.3150140" lon="-2.0073320">
        <ele>24.0</ele>
        <time>2022-11-27T08:43:35Z</time>
      </trkpt>
      <trkpt lat="43.3149850" lon="-2.0073710">
        <ele>24.4</ele>
        <time>2022-11-27T08:43:36Z</time>
      </trkpt>
      <trkpt lat="43.3149520" lon="-2.0074050">
        <ele>24.6</ele>
        <time>2022-11-27T08:43:37Z</time>
      </trkpt>
      <trkpt lat="43.3149210" lon="-2.0074420">
        <ele>24.8</ele>
        <time>2022-11-27T08:43:38Z</time>
      </trkpt>
      <trkpt lat="43.3148860" lon="-2.0074750">
        <ele>25.0</ele>
        <time>2022-11-27T08:43:39Z</time>
      </trkpt>
      <trkpt lat="43.3148530" lon="-2.0075110">
        <ele>25.4</ele>
        <time>2022-11-27T08:43:40Z</time>
      </trkpt>
      <trkpt lat="43.3148180" lon="-2.0075490">
        <ele>25.8</ele>
        <time>2022-11-27T08:43:41Z</time>
      </trkpt>
      <trkpt lat="43.3147760" lon="-2.0075780">
        <ele>26.2</ele>
        <time>2022-11-27T08:43:42Z</time>
      </trkpt>
      <trkpt lat="43.3147370" lon="-2.0076080">
        <ele>26.6</ele>
        <time>2022-11-27T08:43:43Z</time>
      </trkpt>
      <trkpt lat="43.3147000" lon="-2.0076410">
        <ele>27.0</ele>
        <time>2022-11-27T08:43:44Z</time>
      </trkpt>
      <trkpt lat="43.3146630" lon="-2.0076700">
        <ele>27.0</ele>
        <time>2022-11-27T08:43:45Z</time>
      </trkpt>
      <trkpt lat="43.3146270" lon="-2.0076980">
        <ele>27.4</ele>
        <time>2022-11-27T08:43:46Z</time>
      </trkpt>
      <trkpt lat="43.3145920" lon="-2.0077250">
        <ele>27.8</ele>
        <time>2022-11-27T08:43:47Z</time>
      </trkpt>
      <trkpt lat="43.3145560" lon="-2.0077510">
        <ele>28.2</ele>
        <time>2022-11-27T08:43:48Z</time>
      </trkpt>
      <trkpt lat="43.3145190" lon="-2.0077750">
        <ele>28.6</ele>
        <time>2022-11-27T08:43:49Z</time>
      </trkpt>
      <trkpt lat="43.3144820" lon="-2.0078010">
        <ele>29.0</ele>
        <time>2022-11-27T08:43:50Z</time>
      </trkpt>
      <trkpt lat="43.3144480" lon="-2.0078320">
        <ele>29.6</ele>
        <time>2022-11-27T08:43:51Z</time>
      </trkpt>
      <trkpt lat="43.3144120" lon="-2.0078620">
        <ele>30.0</ele>
        <time>2022-11-27T08:43:52Z</time>
      </trkpt>
      <trkpt lat="43.3143770" lon="-2.0078940">
        <ele>30.4</ele>
        <time>2022-11-27T08:43:53Z</time>
      </trkpt>
      <trkpt lat="43.3143420" lon="-2.0079290">
        <ele>30.8</ele>
        <time>2022-11-27T08:43:54Z</time>
      </trkpt>
      <trkpt lat="43.3143090" lon="-2.0079680">
        <ele>31.2</ele>
        <time>2022-11-27T08:43:55Z</time>
      </trkpt>
      <trkpt lat="43.3142810" lon="-2.0080120">
        <ele>31.6</ele>
        <time>2022-11-27T08:43:56Z</time>
      </trkpt>
      <trkpt lat="43.3142560" lon="-2.0080570">
        <ele>32.0</ele>
        <time>2022-11-27T08:43:57Z</time>
      </trkpt>
      <trkpt lat="43.3142400" lon="-2.0081090">
        <ele>32.4</ele>
        <time>2022-11-27T08:43:58Z</time>
      </trkpt>
      <trkpt lat="43.3142290" lon="-2.0081670">
        <ele>32.8</ele>
        <time>2022-11-27T08:43:59Z</time>
      </trkpt>
      <trkpt lat="43.3142220" lon="-2.0082250">
        <ele>33.2</ele>
        <time>2022-11-27T08:44:00Z</time>
      </trkpt>
      <trkpt lat="43.3142140" lon="-2.0082830">
        <ele>33.6</ele>
        <time>2022-11-27T08:44:01Z</time>
      </trkpt>
      <trkpt lat="43.3142060" lon="-2.0083400">
        <ele>34.0</ele>
        <time>2022-11-27T08:44:02Z</time>
      </trkpt>
      <trkpt lat="43.3142020" lon="-2.0083970">
        <ele>34.4</ele>
        <time>2022-11-27T08:44:03Z</time>
      </trkpt>
      <trkpt lat="43.3141980" lon="-2.0084530">
        <ele>34.4</ele>
        <time>2022-11-27T08:44:04Z</time>
      </trkpt>
      <trkpt lat="43.3141950" lon="-2.0085080">
        <ele>34.8</ele>
        <time>2022-11-27T08:44:05Z</time>
      </trkpt>
      <trkpt lat="43.3141920" lon="-2.0085620">
        <ele>35.4</ele>
        <time>2022-11-27T08:44:06Z</time>
      </trkpt>
      <trkpt lat="43.3141900" lon="-2.0086180">
        <ele>35.4</ele>
        <time>2022-11-27T08:44:07Z</time>
      </trkpt>
      <trkpt lat="43.3141870" lon="-2.0086740">
        <ele>35.8</ele>
        <time>2022-11-27T08:44:08Z</time>
      </trkpt>
      <trkpt lat="43.3141820" lon="-2.0087290">
        <ele>36.0</ele>
        <time>2022-11-27T08:44:09Z</time>
      </trkpt>
      <trkpt lat="43.3141760" lon="-2.0087810">
        <ele>36.4</ele>
        <time>2022-11-27T08:44:10Z</time>
      </trkpt>
      <trkpt lat="43.3141720" lon="-2.0088340">
        <ele>36.8</ele>
        <time>2022-11-27T08:44:11Z</time>
      </trkpt>
      <trkpt lat="43.3141690" lon="-2.0088860">
        <ele>37.4</ele>
        <time>2022-11-27T08:44:12Z</time>
      </trkpt>
      <trkpt lat="43.3141680" lon="-2.0089400">
        <ele>37.8</ele>
        <time>2022-11-27T08:44:13Z</time>
      </trkpt>
      <trkpt lat="43.3141700" lon="-2.0089970">
        <ele>38.2</ele>
        <time>2022-11-27T08:44:14Z</time>
      </trkpt>
      <trkpt lat="43.3141710" lon="-2.0090520">
        <ele>38.6</ele>
        <time>2022-11-27T08:44:15Z</time>
      </trkpt>
      <trkpt lat="43.3141700" lon="-2.0091050">
        <ele>39.0</ele>
        <time>2022-11-27T08:44:16Z</time>
      </trkpt>
      <trkpt lat="43.3141700" lon="-2.0091550">
        <ele>39.4</ele>
        <time>2022-11-27T08:44:17Z</time>
      </trkpt>
      <trkpt lat="43.3141700" lon="-2.0092040">
        <ele>39.8</ele>
        <time>2022-11-27T08:44:18Z</time>
      </trkpt>
      <trkpt lat="43.3141730" lon="-2.0092550">
        <ele>40.2</ele>
        <time>2022-11-27T08:44:19Z</time>
      </trkpt>
      <trkpt lat="43.3141740" lon="-2.0093060">
        <ele>40.6</ele>
        <time>2022-11-27T08:44:20Z</time>
      </trkpt>
      <trkpt lat="43.3141710" lon="-2.0093590">
        <ele>41.0</ele>
        <time>2022-11-27T08:44:21Z</time>
      </trkpt>
      <trkpt lat="43.3141660" lon="-2.0094090">
        <ele>41.4</ele>
        <time>2022-11-27T08:44:22Z</time>
      </trkpt>
      <trkpt lat="43.3141590" lon="-2.0094560">
        <ele>41.8</ele>
        <time>2022-11-27T08:44:23Z</time>
      </trkpt>
      <trkpt lat="43.3141510" lon="-2.0095030">
        <ele>42.2</ele>
        <time>2022-11-27T08:44:24Z</time>
      </trkpt>
      <trkpt lat="43.3141390" lon="-2.0095470">
        <ele>42.4</ele>
        <time>2022-11-27T08:44:25Z</time>
      </trkpt>
      <trkpt lat="43.3141200" lon="-2.0095870">
        <ele>42.8</ele>
        <time>2022-11-27T08:44:26Z</time>
      </trkpt>
      <trkpt lat="43.3141000" lon="-2.0096280">
        <ele>42.8</ele>
        <time>2022-11-27T08:44:27Z</time>
      </trkpt>
      <trkpt lat="43.3140790" lon="-2.0096720">
        <ele>43.2</ele>
        <time>2022-11-27T08:44:28Z</time>
      </trkpt>
      <trkpt lat="43.3140570" lon="-2.0097150">
        <ele>43.6</ele>
        <time>2022-11-27T08:44:29Z</time>
      </trkpt>
      <trkpt lat="43.3140340" lon="-2.0097540">
        <ele>44.0</ele>
        <time>2022-11-27T08:44:30Z</time>
      </trkpt>
      <trkpt lat="43.3140090" lon="-2.0097870">
        <ele>44.2</ele>
        <time>2022-11-27T08:44:31Z</time>
      </trkpt>
      <trkpt lat="43.3139840" lon="-2.0098160">
        <ele>44.4</ele>
        <time>2022-11-27T08:44:32Z</time>
      </trkpt>
      <trkpt lat="43.3139590" lon="-2.0098470">
        <ele>45.0</ele>
        <time>2022-11-27T08:44:33Z</time>
      </trkpt>
      <trkpt lat="43.3139360" lon="-2.0098760">
        <ele>45.4</ele>
        <time>2022-11-27T08:44:34Z</time>
      </trkpt>
      <trkpt lat="43.3139140" lon="-2.0099060">
        <ele>45.8</ele>
        <time>2022-11-27T08:44:35Z</time>
      </trkpt>
      <trkpt lat="43.3138920" lon="-2.0099360">
        <ele>46.0</ele>
        <time>2022-11-27T08:44:36Z</time>
      </trkpt>
      <trkpt lat="43.3138670" lon="-2.0099660">
        <ele>46.4</ele>
        <time>2022-11-27T08:44:37Z</time>
      </trkpt>
      <trkpt lat="43.3138430" lon="-2.0099960">
        <ele>46.6</ele>
        <time>2022-11-27T08:44:38Z</time>
      </trkpt>
      <trkpt lat="43.3138200" lon="-2.0100270">
        <ele>46.8</ele>
        <time>2022-11-27T08:44:39Z</time>
      </trkpt>
      <trkpt lat="43.3137950" lon="-2.0100570">
        <ele>47.0</ele>
        <time>2022-11-27T08:44:40Z</time>
      </trkpt>
      <trkpt lat="43.3137700" lon="-2.0100880">
        <ele>47.4</ele>
        <time>2022-11-27T08:44:41Z</time>
      </trkpt>
      <trkpt lat="43.3137480" lon="-2.0101200">
        <ele>47.8</ele>
        <time>2022-11-27T08:44:42Z</time>
      </trkpt>
      <trkpt lat="43.3137260" lon="-2.0101530">
        <ele>48.0</ele>
        <time>2022-11-27T08:44:43Z</time>
      </trkpt>
      <trkpt lat="43.3137040" lon="-2.0101870">
        <ele>48.4</ele>
        <time>2022-11-27T08:44:44Z</time>
      </trkpt>
      <trkpt lat="43.3136820" lon="-2.0102190">
        <ele>48.8</ele>
        <time>2022-11-27T08:44:45Z</time>
      </trkpt>
      <trkpt lat="43.3136610" lon="-2.0102520">
        <ele>49.0</ele>
        <time>2022-11-27T08:44:46Z</time>
      </trkpt>
      <trkpt lat="43.3136390" lon="-2.0102870">
        <ele>49.2</ele>
        <time>2022-11-27T08:44:47Z</time>
      </trkpt>
      <trkpt lat="43.3136200" lon="-2.0103230">
        <ele>49.2</ele>
        <time>2022-11-27T08:44:48Z</time>
      </trkpt>
      <trkpt lat="43.3135990" lon="-2.0103560">
        <ele>49.6</ele>
        <time>2022-11-27T08:44:49Z</time>
      </trkpt>
      <trkpt lat="43.3135760" lon="-2.0103870">
        <ele>49.8</ele>
        <time>2022-11-27T08:44:50Z</time>
      </trkpt>
      <trkpt lat="43.3135520" lon="-2.0104160">
        <ele>50.0</ele>
        <time>2022-11-27T08:44:51Z</time>
      </trkpt>
      <trkpt lat="43.3135290" lon="-2.0104450">
        <ele>50.4</ele>
        <time>2022-11-27T08:44:52Z</time>
      </trkpt>
      <trkpt lat="43.3135080" lon="-2.0104770">
        <ele>50.6</ele>
        <time>2022-11-27T08:44:53Z</time>
      </trkpt>
      <trkpt lat="43.3134890" lon="-2.0105110">
        <ele>51.0</ele>
        <time>2022-11-27T08:44:54Z</time>
      </trkpt>
      <trkpt lat="43.3134700" lon="-2.0105440">
        <ele>51.2</ele>
        <time>2022-11-27T08:44:55Z</time>
      </trkpt>
      <trkpt lat="43.3134480" lon="-2.0105760">
        <ele>51.4</ele>
        <time>2022-11-27T08:44:56Z</time>
      </trkpt>
      <trkpt lat="43.3134260" lon="-2.0106040">
        <ele>51.8</ele>
        <time>2022-11-27T08:44:57Z</time>
      </trkpt>
      <trkpt lat="43.3134030" lon="-2.0106310">
        <ele>52.0</ele>
        <time>2022-11-27T08:44:58Z</time>
      </trkpt>
      <trkpt lat="43.3133800" lon="-2.0106590">
        <ele>52.4</ele>
        <time>2022-11-27T08:44:59Z</time>
      </trkpt>
      <trkpt lat="43.3133580" lon="-2.0106900">
        <ele>52.6</ele>
        <time>2022-11-27T08:45:00Z</time>
      </trkpt>
      <trkpt lat="43.3133390" lon="-2.0107240">
        <ele>53.0</ele>
        <time>2022-11-27T08:45:01Z</time>
      </trkpt>
      <trkpt lat="43.3133200" lon="-2.0107590">
        <ele>53.2</ele>
        <time>2022-11-27T08:45:02Z</time>
      </trkpt>
      <trkpt lat="43.3133020" lon="-2.0107950">
        <ele>53.6</ele>
        <time>2022-11-27T08:45:03Z</time>
      </trkpt>
      <trkpt lat="43.3132850" lon="-2.0108320">
        <ele>53.8</ele>
        <time>2022-11-27T08:45:04Z</time>
      </trkpt>
      <trkpt lat="43.3132700" lon="-2.0108690">
        <ele>54.0</ele>
        <time>2022-11-27T08:45:05Z</time>
      </trkpt>
      <trkpt lat="43.3132580" lon="-2.0109090">
        <ele>54.2</ele>
        <time>2022-11-27T08:45:06Z</time>
      </trkpt>
      <trkpt lat="43.3132490" lon="-2.0109510">
        <ele>54.4</ele>
        <time>2022-11-27T08:45:07Z</time>
      </trkpt>
      <trkpt lat="43.3132460" lon="-2.0109960">
        <ele>54.6</ele>
        <time>2022-11-27T08:45:08Z</time>
      </trkpt>
      <trkpt lat="43.3132460" lon="-2.0110390">
        <ele>54.6</ele>
        <time>2022-11-27T08:45:09Z</time>
      </trkpt>
      <trkpt lat="43.3132510" lon="-2.0110830">
        <ele>55.0</ele>
        <time>2022-11-27T08:45:10Z</time>
      </trkpt>
      <trkpt lat="43.3132600" lon="-2.0111250">
        <ele>55.2</ele>
        <time>2022-11-27T08:45:11Z</time>
      </trkpt>
      <trkpt lat="43.3132740" lon="-2.0111660">
        <ele>55.6</ele>
        <time>2022-11-27T08:45:12Z</time>
      </trkpt>
      <trkpt lat="43.3132900" lon="-2.0112050">
        <ele>56.0</ele>
        <time>2022-11-27T08:45:13Z</time>
      </trkpt>
      <trkpt lat="43.3133070" lon="-2.0112430">
        <ele>56.2</ele>
        <time>2022-11-27T08:45:14Z</time>
      </trkpt>
      <trkpt lat="43.3133240" lon="-2.0112800">
        <ele>56.4</ele>
        <time>2022-11-27T08:45:15Z</time>
      </trkpt>
      <trkpt lat="43.3133410" lon="-2.0113160">
        <ele>56.6</ele>
        <time>2022-11-27T08:45:16Z</time>
      </trkpt>
      <trkpt lat="43.3133580" lon="-2.0113500">
        <ele>57.0</ele>
        <time>2022-11-27T08:45:17Z</time>
      </trkpt>
      <trkpt lat="43.3133780" lon="-2.0113850">
        <ele>57.2</ele>
        <time>2022-11-27T08:45:18Z</time>
      </trkpt>
      <trkpt lat="43.3133990" lon="-2.0114180">
        <ele>57.4</ele>
        <time>2022-11-27T08:45:19Z</time>
      </trkpt>
      <trkpt lat="43.3134180" lon="-2.0114510">
        <ele>57.8</ele>
        <time>2022-11-27T08:45:20Z</time>
      </trkpt>
      <trkpt lat="43.3134390" lon="-2.0114820">
        <ele>58.0</ele>
        <time>2022-11-27T08:45:21Z</time>
      </trkpt>
      <trkpt lat="43.3134610" lon="-2.0115140">
        <ele>58.2</ele>
        <time>2022-11-27T08:45:22Z</time>
      </trkpt>
      <trkpt lat="43.3134830" lon="-2.0115450">
        <ele>58.6</ele>
        <time>2022-11-27T08:45:23Z</time>
      </trkpt>
      <trkpt lat="43.3135050" lon="-2.0115740">
        <ele>59.0</ele>
        <time>2022-11-27T08:45:24Z</time>
      </trkpt>
      <trkpt lat="43.3135280" lon="-2.0116020">
        <ele>59.4</ele>
        <time>2022-11-27T08:45:25Z</time>
      </trkpt>
      <trkpt lat="43.3135510" lon="-2.0116290">
        <ele>59.8</ele>
        <time>2022-11-27T08:45:26Z</time>
      </trkpt>
      <trkpt lat="43.3135750" lon="-2.0116550">
        <ele>60.0</ele>
        <time>2022-11-27T08:45:27Z</time>
      </trkpt>
      <trkpt lat="43.3136000" lon="-2.0116810">
        <ele>60.2</ele>
        <time>2022-11-27T08:45:28Z</time>
      </trkpt>
      <trkpt lat="43.3136250" lon="-2.0117070">
        <ele>60.4</ele>
        <time>2022-11-27T08:45:29Z</time>
      </trkpt>
      <trkpt lat="43.3136490" lon="-2.0117330">
        <ele>60.4</ele>
        <time>2022-11-27T08:45:30Z</time>
      </trkpt>
      <trkpt lat="43.3136740" lon="-2.0117610">
        <ele>60.6</ele>
        <time>2022-11-27T08:45:31Z</time>
      </trkpt>
      <trkpt lat="43.3136990" lon="-2.0117880">
        <ele>60.6</ele>
        <time>2022-11-27T08:45:32Z</time>
      </trkpt>
      <trkpt lat="43.3137250" lon="-2.0118160">
        <ele>61.0</ele>
        <time>2022-11-27T08:45:33Z</time>
      </trkpt>
      <trkpt lat="43.3137520" lon="-2.0118400">
        <ele>61.2</ele>
        <time>2022-11-27T08:45:34Z</time>
      </trkpt>
      <trkpt lat="43.3137810" lon="-2.0118610">
        <ele>61.4</ele>
        <time>2022-11-27T08:45:35Z</time>
      </trkpt>
      <trkpt lat="43.3138100" lon="-2.0118830">
        <ele>61.8</ele>
        <time>2022-11-27T08:45:36Z</time>
      </trkpt>
      <trkpt lat="43.3138370" lon="-2.0119060">
        <ele>62.2</ele>
        <time>2022-11-27T08:45:37Z</time>
      </trkpt>
      <trkpt lat="43.3138660" lon="-2.0119270">
        <ele>62.6</ele>
        <time>2022-11-27T08:45:38Z</time>
      </trkpt>
      <trkpt lat="43.3138960" lon="-2.0119470">
        <ele>63.0</ele>
        <time>2022-11-27T08:45:39Z</time>
      </trkpt>
      <trkpt lat="43.3139260" lon="-2.0119660">
        <ele>63.4</ele>
        <time>2022-11-27T08:45:40Z</time>
      </trkpt>
      <trkpt lat="43.3139570" lon="-2.0119830">
        <ele>63.8</ele>
        <time>2022-11-27T08:45:41Z</time>
      </trkpt>
      <trkpt lat="43.3139880" lon="-2.0120000">
        <ele>64.2</ele>
        <time>2022-11-27T08:45:42Z</time>
      </trkpt>
      <trkpt lat="43.3140180" lon="-2.0120170">
        <ele>64.4</ele>
        <time>2022-11-27T08:45:43Z</time>
      </trkpt>
      <trkpt lat="43.3140460" lon="-2.0120380">
        <ele>64.8</ele>
        <time>2022-11-27T08:45:44Z</time>
      </trkpt>
      <trkpt lat="43.3140750" lon="-2.0120570">
        <ele>65.0</ele>
        <time>2022-11-27T08:45:45Z</time>
      </trkpt>
      <trkpt lat="43.3141050" lon="-2.0120760">
        <ele>65.4</ele>
        <time>2022-11-27T08:45:46Z</time>
      </trkpt>
      <trkpt lat="43.3141340" lon="-2.0120940">
        <ele>65.6</ele>
        <time>2022-11-27T08:45:47Z</time>
      </trkpt>
      <trkpt lat="43.3141640" lon="-2.0121140">
        <ele>66.0</ele>
        <time>2022-11-27T08:45:48Z</time>
      </trkpt>
      <trkpt lat="43.3141930" lon="-2.0121310">
        <ele>66.2</ele>
        <time>2022-11-27T08:45:49Z</time>
      </trkpt>
      <trkpt lat="43.3142210" lon="-2.0121490">
        <ele>66.6</ele>
        <time>2022-11-27T08:45:50Z</time>
      </trkpt>
      <trkpt lat="43.3142490" lon="-2.0121670">
        <ele>67.0</ele>
        <time>2022-11-27T08:45:51Z</time>
      </trkpt>
      <trkpt lat="43.3142770" lon="-2.0121840">
        <ele>67.0</ele>
        <time>2022-11-27T08:45:52Z</time>
      </trkpt>
      <trkpt lat="43.3143050" lon="-2.0122010">
        <ele>67.4</ele>
        <time>2022-11-27T08:45:53Z</time>
      </trkpt>
      <trkpt lat="43.3143330" lon="-2.0122200">
        <ele>67.8</ele>
        <time>2022-11-27T08:45:54Z</time>
      </trkpt>
      <trkpt lat="43.3143620" lon="-2.0122430">
        <ele>68.0</ele>
        <time>2022-11-27T08:45:55Z</time>
      </trkpt>
      <trkpt lat="43.3143920" lon="-2.0122650">
        <ele>68.2</ele>
        <time>2022-11-27T08:45:56Z</time>
      </trkpt>
      <trkpt lat="43.3144240" lon="-2.0122860">
        <ele>68.6</ele>
        <time>2022-11-27T08:45:57Z</time>
      </trkpt>
      <trkpt lat="43.3144540" lon="-2.0123070">
        <ele>68.8</ele>
        <time>2022-11-27T08:45:58Z</time>
      </trkpt>
      <trkpt lat="43.3144860" lon="-2.0123240">
        <ele>69.2</ele>
        <time>2022-11-27T08:45:59Z</time>
      </trkpt>
      <trkpt lat="43.3145160" lon="-2.0123410">
        <ele>69.4</ele>
        <time>2022-11-27T08:46:00Z</time>
      </trkpt>
      <trkpt lat="43.3145440" lon="-2.0123570">
        <ele>69.6</ele>
        <time>2022-11-27T08:46:01Z</time>
      </trkpt>
      <trkpt lat="43.3145700" lon="-2.0123740">
        <ele>70.0</ele>
        <time>2022-11-27T08:46:02Z</time>
      </trkpt>
      <trkpt lat="43.3145980" lon="-2.0123900">
        <ele>70.2</ele>
        <time>2022-11-27T08:46:03Z</time>
      </trkpt>
      <trkpt lat="43.3146270" lon="-2.0124070">
        <ele>70.6</ele>
        <time>2022-11-27T08:46:04Z</time>
      </trkpt>
      <trkpt lat="43.3146550" lon="-2.0124230">
        <ele>70.8</ele>
        <time>2022-11-27T08:46:05Z</time>
      </trkpt>
      <trkpt lat="43.3146810" lon="-2.0124430">
        <ele>71.0</ele>
        <time>2022-11-27T08:46:06Z</time>
      </trkpt>
      <trkpt lat="43.3147090" lon="-2.0124640">
        <ele>71.4</ele>
        <time>2022-11-27T08:46:07Z</time>
      </trkpt>
      <trkpt lat="43.3147370" lon="-2.0124830">
        <ele>71.6</ele>
        <time>2022-11-27T08:46:08Z</time>
      </trkpt>
      <trkpt lat="43.3147660" lon="-2.0125030">
        <ele>72.0</ele>
        <time>2022-11-27T08:46:09Z</time>
      </trkpt>
      <trkpt lat="43.3147930" lon="-2.0125240">
        <ele>72.2</ele>
        <time>2022-11-27T08:46:10Z</time>
      </trkpt>
      <trkpt lat="43.3148210" lon="-2.0125420">
        <ele>72.6</ele>
        <time>2022-11-27T08:46:11Z</time>
      </trkpt>
      <trkpt lat="43.3148510" lon="-2.0125610">
        <ele>73.0</ele>
        <time>2022-11-27T08:46:12Z</time>
      </trkpt>
      <trkpt lat="43.3148800" lon="-2.0125800">
        <ele>73.4</ele>
        <time>2022-11-27T08:46:13Z</time>
      </trkpt>
      <trkpt lat="43.3149070" lon="-2.0126010">
        <ele>73.4</ele>
        <time>2022-11-27T08:46:14Z</time>
      </trkpt>
      <trkpt lat="43.3149330" lon="-2.0126220">
        <ele>73.6</ele>
        <time>2022-11-27T08:46:15Z</time>
      </trkpt>
      <trkpt lat="43.3149600" lon="-2.0126410">
        <ele>74.0</ele>
        <time>2022-11-27T08:46:16Z</time>
      </trkpt>
      <trkpt lat="43.3149890" lon="-2.0126560">
        <ele>74.4</ele>
        <time>2022-11-27T08:46:17Z</time>
      </trkpt>
      <trkpt lat="43.3150170" lon="-2.0126750">
        <ele>74.6</ele>
        <time>2022-11-27T08:46:18Z</time>
      </trkpt>
      <trkpt lat="43.3150440" lon="-2.0126970">
        <ele>75.0</ele>
        <time>2022-11-27T08:46:19Z</time>
      </trkpt>
      <trkpt lat="43.3150710" lon="-2.0127160">
        <ele>75.4</ele>
        <time>2022-11-27T08:46:20Z</time>
      </trkpt>
      <trkpt lat="43.3150990" lon="-2.0127330">
        <ele>75.6</ele>
        <time>2022-11-27T08:46:21Z</time>
      </trkpt>
      <trkpt lat="43.3151260" lon="-2.0127530">
        <ele>76.0</ele>
        <time>2022-11-27T08:46:22Z</time>
      </trkpt>
      <trkpt lat="43.3151510" lon="-2.0127750">
        <ele>76.4</ele>
        <time>2022-11-27T08:46:23Z</time>
      </trkpt>
      <trkpt lat="43.3151760" lon="-2.0127950">
        <ele>76.8</ele>
        <time>2022-11-27T08:46:24Z</time>
      </trkpt>
      <trkpt lat="43.3152040" lon="-2.0128140">
        <ele>77.2</ele>
        <time>2022-11-27T08:46:25Z</time>
      </trkpt>
      <trkpt lat="43.3152300" lon="-2.0128370">
        <ele>77.8</ele>
        <time>2022-11-27T08:46:26Z</time>
      </trkpt>
      <trkpt lat="43.3152550" lon="-2.0128610">
        <ele>78.2</ele>
        <time>2022-11-27T08:46:27Z</time>
      </trkpt>
      <trkpt lat="43.3152820" lon="-2.0128810">
        <ele>78.6</ele>
        <time>2022-11-27T08:46:28Z</time>
      </trkpt>
      <trkpt lat="43.3153080" lon="-2.0129030">
        <ele>79.0</ele>
        <time>2022-11-27T08:46:29Z</time>
      </trkpt>
      <trkpt lat="43.3153360" lon="-2.0129130">
        <ele>79.4</ele>
        <time>2022-11-27T08:46:30Z</time>
      </trkpt>
      <trkpt lat="43.3153640" lon="-2.0129260">
        <ele>79.6</ele>
        <time>2022-11-27T08:46:31Z</time>
      </trkpt>
      <trkpt lat="43.3153870" lon="-2.0129500">
        <ele>80.0</ele>
        <time>2022-11-27T08:46:32Z</time>
      </trkpt>
      <trkpt lat="43.3154130" lon="-2.0129700">
        <ele>80.2</ele>
        <time>2022-11-27T08:46:33Z</time>
      </trkpt>
      <trkpt lat="43.3154370" lon="-2.0129960">
        <ele>80.2</ele>
        <time>2022-11-27T08:46:34Z</time>
      </trkpt>
      <trkpt lat="43.3154610" lon="-2.0130230">
        <ele>80.6</ele>
        <time>2022-11-27T08:46:35Z</time>
      </trkpt>
      <trkpt lat="43.3154810" lon="-2.0130610">
        <ele>81.2</ele>
        <time>2022-11-27T08:46:36Z</time>
      </trkpt>
      <trkpt lat="43.3155030" lon="-2.0130960">
        <ele>81.6</ele>
        <time>2022-11-27T08:46:37Z</time>
      </trkpt>
      <trkpt lat="43.3155270" lon="-2.0131240">
        <ele>81.8</ele>
        <time>2022-11-27T08:46:38Z</time>
      </trkpt>
      <trkpt lat="43.3155500" lon="-2.0131500">
        <ele>82.2</ele>
        <time>2022-11-27T08:46:39Z</time>
      </trkpt>
      <trkpt lat="43.3155770" lon="-2.0131710">
        <ele>82.6</ele>
        <time>2022-11-27T08:46:40Z</time>
      </trkpt>
      <trkpt lat="43.3156020" lon="-2.0131930">
        <ele>82.8</ele>
        <time>2022-11-27T08:46:41Z</time>
      </trkpt>
      <trkpt lat="43.3156250" lon="-2.0132160">
        <ele>83.0</ele>
        <time>2022-11-27T08:46:42Z</time>
      </trkpt>
      <trkpt lat="43.3156480" lon="-2.0132380">
        <ele>83.4</ele>
        <time>2022-11-27T08:46:43Z</time>
      </trkpt>
      <trkpt lat="43.3156700" lon="-2.0132620">
        <ele>83.6</ele>
        <time>2022-11-27T08:46:44Z</time>
      </trkpt>
      <trkpt lat="43.3156920" lon="-2.0132890">
        <ele>83.8</ele>
        <time>2022-11-27T08:46:45Z</time>
      </trkpt>
      <trkpt lat="43.3157160" lon="-2.0133140">
        <ele>84.2</ele>
        <time>2022-11-27T08:46:46Z</time>
      </trkpt>
      <trkpt lat="43.3157410" lon="-2.0133390">
        <ele>84.6</ele>
        <time>2022-11-27T08:46:47Z</time>
      </trkpt>
      <trkpt lat="43.3157650" lon="-2.0133650">
        <ele>85.0</ele>
        <time>2022-11-27T08:46:48Z</time>
      </trkpt>
      <trkpt lat="43.3157890" lon="-2.0133910">
        <ele>85.2</ele>
        <time>2022-11-27T08:46:49Z</time>
      </trkpt>
      <trkpt lat="43.3158130" lon="-2.0134200">
        <ele>85.6</ele>
        <time>2022-11-27T08:46:50Z</time>
      </trkpt>
      <trkpt lat="43.3158360" lon="-2.0134510">
        <ele>85.8</ele>
        <time>2022-11-27T08:46:51Z</time>
      </trkpt>
      <trkpt lat="43.3158600" lon="-2.0134810">
        <ele>86.2</ele>
        <time>2022-11-27T08:46:52Z</time>
      </trkpt>
      <trkpt lat="43.3158830" lon="-2.0135090">
        <ele>86.6</ele>
        <time>2022-11-27T08:46:53Z</time>
      </trkpt>
      <trkpt lat="43.3159060" lon="-2.0135380">
        <ele>87.0</ele>
        <time>2022-11-27T08:46:54Z</time>
      </trkpt>
      <trkpt lat="43.3159290" lon="-2.0135680">
        <ele>87.0</ele>
        <time>2022-11-27T08:46:55Z</time>
      </trkpt>
      <trkpt lat="43.3159500" lon="-2.0136010">
        <ele>87.2</ele>
        <time>2022-11-27T08:46:56Z</time>
      </trkpt>
      <trkpt lat="43.3159720" lon="-2.0136310">
        <ele>87.4</ele>
        <time>2022-11-27T08:46:57Z</time>
      </trkpt>
      <trkpt lat="43.3159930" lon="-2.0136600">
        <ele>87.8</ele>
        <time>2022-11-27T08:46:58Z</time>
      </trkpt>
      <trkpt lat="43.3160170" lon="-2.0136870">
        <ele>88.0</ele>
        <time>2022-11-27T08:46:59Z</time>
      </trkpt>
      <trkpt lat="43.3160410" lon="-2.0137130">
        <ele>88.4</ele>
        <time>2022-11-27T08:47:00Z</time>
      </trkpt>
      <trkpt lat="43.3160660" lon="-2.0137390">
        <ele>88.8</ele>
        <time>2022-11-27T08:47:01Z</time>
      </trkpt>
      <trkpt lat="43.3160900" lon="-2.0137660">
        <ele>89.0</ele>
        <time>2022-11-27T08:47:02Z</time>
      </trkpt>
      <trkpt lat="43.3161150" lon="-2.0137940">
        <ele>89.2</ele>
        <time>2022-11-27T08:47:03Z</time>
      </trkpt>
      <trkpt lat="43.3161400" lon="-2.0138230">
        <ele>89.4</ele>
        <time>2022-11-27T08:47:04Z</time>
      </trkpt>
      <trkpt lat="43.3161650" lon="-2.0138530">
        <ele>89.8</ele>
        <time>2022-11-27T08:47:05Z</time>
      </trkpt>
      <trkpt lat="43.3161900" lon="-2.0138820">
        <ele>90.0</ele>
        <time>2022-11-27T08:47:06Z</time>
      </trkpt>
      <trkpt lat="43.3162150" lon="-2.0139100">
        <ele>90.4</ele>
        <time>2022-11-27T08:47:07Z</time>
      </trkpt>
      <trkpt lat="43.3162390" lon="-2.0139400">
        <ele>90.6</ele>
        <time>2022-11-27T08:47:08Z</time>
      </trkpt>
      <trkpt lat="43.3162640" lon="-2.0139710">
        <ele>90.8</ele>
        <time>2022-11-27T08:47:09Z</time>
      </trkpt>
      <trkpt lat="43.3162870" lon="-2.0140030">
        <ele>91.2</ele>
        <time>2022-11-27T08:47:10Z</time>
      </trkpt>
      <trkpt lat="43.3163090" lon="-2.0140340">
        <ele>91.4</ele>
        <time>2022-11-27T08:47:11Z</time>
      </trkpt>
      <trkpt lat="43.3163320" lon="-2.0140660">
        <ele>91.6</ele>
        <time>2022-11-27T08:47:12Z</time>
      </trkpt>
      <trkpt lat="43.3163540" lon="-2.0140980">
        <ele>92.0</ele>
        <time>2022-11-27T08:47:13Z</time>
      </trkpt>
      <trkpt lat="43.3163770" lon="-2.0141280">
        <ele>92.2</ele>
        <time>2022-11-27T08:47:14Z</time>
      </trkpt>
      <trkpt lat="43.3164020" lon="-2.0141560">
        <ele>92.6</ele>
        <time>2022-11-27T08:47:15Z</time>
      </trkpt>
      <trkpt lat="43.3164250" lon="-2.0141840">
        <ele>92.6</ele>
        <time>2022-11-27T08:47:16Z</time>
      </trkpt>
      <trkpt lat="43.3164500" lon="-2.0142100">
        <ele>92.8</ele>
        <time>2022-11-27T08:47:17Z</time>
      </trkpt>
      <trkpt lat="43.3164730" lon="-2.0142370">
        <ele>93.0</ele>
        <time>2022-11-27T08:47:18Z</time>
      </trkpt>
      <trkpt lat="43.3164950" lon="-2.0142690">
        <ele>93.4</ele>
        <time>2022-11-27T08:47:19Z</time>
      </trkpt>
      <trkpt lat="43.3165170" lon="-2.0143000">
        <ele>93.6</ele>
        <time>2022-11-27T08:47:20Z</time>
      </trkpt>
      <trkpt lat="43.3165400" lon="-2.0143310">
        <ele>94.0</ele>
        <time>2022-11-27T08:47:21Z</time>
      </trkpt>
      <trkpt lat="43.3165640" lon="-2.0143620">
        <ele>94.2</ele>
        <time>2022-11-27T08:47:22Z</time>
      </trkpt>
      <trkpt lat="43.3165850" lon="-2.0143960">
        <ele>94.6</ele>
        <time>2022-11-27T08:47:23Z</time>
      </trkpt>
      <trkpt lat="43.3166050" lon="-2.0144310">
        <ele>94.8</ele>
        <time>2022-11-27T08:47:24Z</time>
      </trkpt>
      <trkpt lat="43.3166230" lon="-2.0144680">
        <ele>95.2</ele>
        <time>2022-11-27T08:47:25Z</time>
      </trkpt>
      <trkpt lat="43.3166400" lon="-2.0145060">
        <ele>95.4</ele>
        <time>2022-11-27T08:47:26Z</time>
      </trkpt>
      <trkpt lat="43.3166570" lon="-2.0145430">
        <ele>95.8</ele>
        <time>2022-11-27T08:47:27Z</time>
      </trkpt>
      <trkpt lat="43.3166740" lon="-2.0145830">
        <ele>96.0</ele>
        <time>2022-11-27T08:47:28Z</time>
      </trkpt>
      <trkpt lat="43.3166910" lon="-2.0146230">
        <ele>96.2</ele>
        <time>2022-11-27T08:47:29Z</time>
      </trkpt>
      <trkpt lat="43.3167050" lon="-2.0146650">
        <ele>96.6</ele>
        <time>2022-11-27T08:47:30Z</time>
      </trkpt>
      <trkpt lat="43.3167200" lon="-2.0147070">
        <ele>96.8</ele>
        <time>2022-11-27T08:47:31Z</time>
      </trkpt>
      <trkpt lat="43.3167330" lon="-2.0147500">
        <ele>97.2</ele>
        <time>2022-11-27T08:47:32Z</time>
      </trkpt>
      <trkpt lat="43.3167460" lon="-2.0147930">
        <ele>97.4</ele>
        <time>2022-11-27T08:47:33Z</time>
      </trkpt>
      <trkpt lat="43.3167570" lon="-2.0148360">
        <ele>97.6</ele>
        <time>2022-11-27T08:47:34Z</time>
      </trkpt>
      <trkpt lat="43.3167680" lon="-2.0148780">
        <ele>97.6</ele>
        <time>2022-11-27T08:47:35Z</time>
      </trkpt>
      <trkpt lat="43.3167800" lon="-2.0149200">
        <ele>97.8</ele>
        <time>2022-11-27T08:47:36Z</time>
      </trkpt>
      <trkpt lat="43.3167920" lon="-2.0149610">
        <ele>98.2</ele>
        <time>2022-11-27T08:47:37Z</time>
      </trkpt>
      <trkpt lat="43.3168050" lon="-2.0150010">
        <ele>98.4</ele>
        <time>2022-11-27T08:47:38Z</time>
      </trkpt>
      <trkpt lat="43.3168180" lon="-2.0150430">
        <ele>98.8</ele>
        <time>2022-11-27T08:47:39Z</time>
      </trkpt>
      <trkpt lat="43.3168290" lon="-2.0150850">
        <ele>99.0</ele>
        <time>2022-11-27T08:47:40Z</time>
      </trkpt>
      <trkpt lat="43.3168380" lon="-2.0151280">
        <ele>99.2</ele>
        <time>2022-11-27T08:47:41Z</time>
      </trkpt>
      <trkpt lat="43.3168460" lon="-2.0151720">
        <ele>99.6</ele>
        <time>2022-11-27T08:47:42Z</time>
      </trkpt>
      <trkpt lat="43.3168530" lon="-2.0152150">
        <ele>99.8</ele>
        <time>2022-11-27T08:47:43Z</time>
      </trkpt>
      <trkpt lat="43.3168630" lon="-2.0152580">
        <ele>100.2</ele>
        <time>2022-11-27T08:47:44Z</time>
      </trkpt>
      <trkpt lat="43.3168720" lon="-2.0153000">
        <ele>100.6</ele>
        <time>2022-11-27T08:47:45Z</time>
      </trkpt>
      <trkpt lat="43.3168790" lon="-2.0153420">
        <ele>100.8</ele>
        <time>2022-11-27T08:47:46Z</time>
      </trkpt>
      <trkpt lat="43.3168860" lon="-2.0153840">
        <ele>101.0</ele>
        <time>2022-11-27T08:47:47Z</time>
      </trkpt>
      <trkpt lat="43.3168910" lon="-2.0154250">
        <ele>101.4</ele>
        <time>2022-11-27T08:47:48Z</time>
      </trkpt>
      <trkpt lat="43.3168940" lon="-2.0154690">
        <ele>101.6</ele>
        <time>2022-11-27T08:47:49Z</time>
      </trkpt>
      <trkpt lat="43.3168950" lon="-2.0155130">
        <ele>102.0</ele>
        <time>2022-11-27T08:47:50Z</time>
      </trkpt>
      <trkpt lat="43.3169000" lon="-2.0155560">
        <ele>102.4</ele>
        <time>2022-11-27T08:47:51Z</time>
      </trkpt>
      <trkpt lat="43.3169070" lon="-2.0155970">
        <ele>102.6</ele>
        <time>2022-11-27T08:47:52Z</time>
      </trkpt>
      <trkpt lat="43.3169130" lon="-2.0156390">
        <ele>103.0</ele>
        <time>2022-11-27T08:47:53Z</time>
      </trkpt>
      <trkpt lat="43.3169170" lon="-2.0156830">
        <ele>103.4</ele>
        <time>2022-11-27T08:47:54Z</time>
      </trkpt>
      <trkpt lat="43.3169220" lon="-2.0157290">
        <ele>103.6</ele>
        <time>2022-11-27T08:47:55Z</time>
      </trkpt>
      <trkpt lat="43.3169270" lon="-2.0157740">
        <ele>103.6</ele>
        <time>2022-11-27T08:47:56Z</time>
      </trkpt>
      <trkpt lat="43.3169320" lon="-2.0158190">
        <ele>104.0</ele>
        <time>2022-11-27T08:47:57Z</time>
      </trkpt>
      <trkpt lat="43.3169370" lon="-2.0158630">
        <ele>104.2</ele>
        <time>2022-11-27T08:47:58Z</time>
      </trkpt>
      <trkpt lat="43.3169390" lon="-2.0159070">
        <ele>104.6</ele>
        <time>2022-11-27T08:47:59Z</time>
      </trkpt>
      <trkpt lat="43.3169430" lon="-2.0159510">
        <ele>105.0</ele>
        <time>2022-11-27T08:48:00Z</time>
      </trkpt>
      <trkpt lat="43.3169450" lon="-2.0159960">
        <ele>105.4</ele>
        <time>2022-11-27T08:48:01Z</time>
      </trkpt>
      <trkpt lat="43.3169480" lon="-2.0160400">
        <ele>105.6</ele>
        <time>2022-11-27T08:48:02Z</time>
      </trkpt>
      <trkpt lat="43.3169510" lon="-2.0160840">
        <ele>106.0</ele>
        <time>2022-11-27T08:48:03Z</time>
      </trkpt>
      <trkpt lat="43.3169520" lon="-2.0161280">
        <ele>106.4</ele>
        <time>2022-11-27T08:48:04Z</time>
      </trkpt>
      <trkpt lat="43.3169560" lon="-2.0161710">
        <ele>106.6</ele>
        <time>2022-11-27T08:48:05Z</time>
      </trkpt>
      <trkpt lat="43.3169590" lon="-2.0162140">
        <ele>107.0</ele>
        <time>2022-11-27T08:48:06Z</time>
      </trkpt>
      <trkpt lat="43.3169620" lon="-2.0162570">
        <ele>107.2</ele>
        <time>2022-11-27T08:48:07Z</time>
      </trkpt>
      <trkpt lat="43.3169650" lon="-2.0163010">
        <ele>107.4</ele>
        <time>2022-11-27T08:48:08Z</time>
      </trkpt>
      <trkpt lat="43.3169670" lon="-2.0163440">
        <ele>107.8</ele>
        <time>2022-11-27T08:48:09Z</time>
      </trkpt>
      <trkpt lat="43.3169670" lon="-2.0163870">
        <ele>108.2</ele>
        <time>2022-11-27T08:48:10Z</time>
      </trkpt>
      <trkpt lat="43.3169650" lon="-2.0164300">
        <ele>108.4</ele>
        <time>2022-11-27T08:48:11Z</time>
      </trkpt>
      <trkpt lat="43.3169630" lon="-2.0164730">
        <ele>108.8</ele>
        <time>2022-11-27T08:48:12Z</time>
      </trkpt>
      <trkpt lat="43.3169590" lon="-2.0165150">
        <ele>109.0</ele>
        <time>2022-11-27T08:48:13Z</time>
      </trkpt>
      <trkpt lat="43.3169540" lon="-2.0165580">
        <ele>109.4</ele>
        <time>2022-11-27T08:48:14Z</time>
      </trkpt>
      <trkpt lat="43.3169510" lon="-2.0166000">
        <ele>109.6</ele>
        <time>2022-11-27T08:48:15Z</time>
      </trkpt>
      <trkpt lat="43.3169460" lon="-2.0166430">
        <ele>109.6</ele>
        <time>2022-11-27T08:48:16Z</time>
      </trkpt>
      <trkpt lat="43.3169400" lon="-2.0166850">
        <ele>110.0</ele>
        <time>2022-11-27T08:48:17Z</time>
      </trkpt>
      <trkpt lat="43.3169330" lon="-2.0167270">
        <ele>110.2</ele>
        <time>2022-11-27T08:48:18Z</time>
      </trkpt>
      <trkpt lat="43.3169270" lon="-2.0167690">
        <ele>110.6</ele>
        <time>2022-11-27T08:48:19Z</time>
      </trkpt>
      <trkpt lat="43.3169210" lon="-2.0168110">
        <ele>110.8</ele>
        <time>2022-11-27T08:48:20Z</time>
      </trkpt>
      <trkpt lat="43.3169140" lon="-2.0168540">
        <ele>111.0</ele>
        <time>2022-11-27T08:48:21Z</time>
      </trkpt>
      <trkpt lat="43.3169080" lon="-2.0168970">
        <ele>111.4</ele>
        <time>2022-11-27T08:48:22Z</time>
      </trkpt>
      <trkpt lat="43.3169020" lon="-2.0169390">
        <ele>111.6</ele>
        <time>2022-11-27T08:48:23Z</time>
      </trkpt>
      <trkpt lat="43.3168970" lon="-2.0169820">
        <ele>111.8</ele>
        <time>2022-11-27T08:48:24Z</time>
      </trkpt>
      <trkpt lat="43.3168900" lon="-2.0170250">
        <ele>112.0</ele>
        <time>2022-11-27T08:48:25Z</time>
      </trkpt>
      <trkpt lat="43.3168840" lon="-2.0170670">
        <ele>112.2</ele>
        <time>2022-11-27T08:48:26Z</time>
      </trkpt>
      <trkpt lat="43.3168780" lon="-2.0171090">
        <ele>112.6</ele>
        <time>2022-11-27T08:48:27Z</time>
      </trkpt>
      <trkpt lat="43.3168720" lon="-2.0171510">
        <ele>112.8</ele>
        <time>2022-11-27T08:48:28Z</time>
      </trkpt>
      <trkpt lat="43.3168670" lon="-2.0171930">
        <ele>113.0</ele>
        <time>2022-11-27T08:48:29Z</time>
      </trkpt>
      <trkpt lat="43.3168600" lon="-2.0172340">
        <ele>113.4</ele>
        <time>2022-11-27T08:48:30Z</time>
      </trkpt>
      <trkpt lat="43.3168530" lon="-2.0172740">
        <ele>113.6</ele>
        <time>2022-11-27T08:48:31Z</time>
      </trkpt>
      <trkpt lat="43.3168450" lon="-2.0173130">
        <ele>114.0</ele>
        <time>2022-11-27T08:48:32Z</time>
      </trkpt>
      <trkpt lat="43.3168370" lon="-2.0173530">
        <ele>114.4</ele>
        <time>2022-11-27T08:48:33Z</time>
      </trkpt>
      <trkpt lat="43.3168330" lon="-2.0173940">
        <ele>114.6</ele>
        <time>2022-11-27T08:48:34Z</time>
      </trkpt>
      <trkpt lat="43.3168290" lon="-2.0174360">
        <ele>115.0</ele>
        <time>2022-11-27T08:48:35Z</time>
      </trkpt>
      <trkpt lat="43.3168230" lon="-2.0174760">
        <ele>115.2</ele>
        <time>2022-11-27T08:48:36Z</time>
      </trkpt>
      <trkpt lat="43.3168170" lon="-2.0175160">
        <ele>115.2</ele>
        <time>2022-11-27T08:48:37Z</time>
      </trkpt>
      <trkpt lat="43.3168110" lon="-2.0175560">
        <ele>115.4</ele>
        <time>2022-11-27T08:48:38Z</time>
      </trkpt>
      <trkpt lat="43.3168070" lon="-2.0175970">
        <ele>115.8</ele>
        <time>2022-11-27T08:48:39Z</time>
      </trkpt>
      <trkpt lat="43.3168030" lon="-2.0176390">
        <ele>116.0</ele>
        <time>2022-11-27T08:48:40Z</time>
      </trkpt>
      <trkpt lat="43.3167960" lon="-2.0176790">
        <ele>116.4</ele>
        <time>2022-11-27T08:48:41Z</time>
      </trkpt>
      <trkpt lat="43.3167890" lon="-2.0177190">
        <ele>116.6</ele>
        <time>2022-11-27T08:48:42Z</time>
      </trkpt>
      <trkpt lat="43.3167820" lon="-2.0177580">
        <ele>117.0</ele>
        <time>2022-11-27T08:48:43Z</time>
      </trkpt>
      <trkpt lat="43.3167760" lon="-2.0177960">
        <ele>117.2</ele>
        <time>2022-11-27T08:48:44Z</time>
      </trkpt>
      <trkpt lat="43.3167700" lon="-2.0178340">
        <ele>117.6</ele>
        <time>2022-11-27T08:48:45Z</time>
      </trkpt>
      <trkpt lat="43.3167620" lon="-2.0178710">
        <ele>118.0</ele>
        <time>2022-11-27T08:48:46Z</time>
      </trkpt>
      <trkpt lat="43.3167560" lon="-2.0179080">
        <ele>118.4</ele>
        <time>2022-11-27T08:48:47Z</time>
      </trkpt>
      <trkpt lat="43.3167510" lon="-2.0179450">
        <ele>118.6</ele>
        <time>2022-11-27T08:48:48Z</time>
      </trkpt>
      <trkpt lat="43.3167460" lon="-2.0179830">
        <ele>118.8</ele>
        <time>2022-11-27T08:48:49Z</time>
      </trkpt>
      <trkpt lat="43.3167420" lon="-2.0180220">
        <ele>119.2</ele>
        <time>2022-11-27T08:48:50Z</time>
      </trkpt>
      <trkpt lat="43.3167390" lon="-2.0180610">
        <ele>119.4</ele>
        <time>2022-11-27T08:48:51Z</time>
      </trkpt>
      <trkpt lat="43.3167350" lon="-2.0181010">
        <ele>119.6</ele>
        <time>2022-11-27T08:48:52Z</time>
      </trkpt>
      <trkpt lat="43.3167290" lon="-2.0181410">
        <ele>120.0</ele>
        <time>2022-11-27T08:48:53Z</time>
      </trkpt>
      <trkpt lat="43.3167210" lon="-2.0181790">
        <ele>120.2</ele>
        <time>2022-11-27T08:48:54Z</time>
      </trkpt>
      <trkpt lat="43.3167130" lon="-2.0182150">
        <ele>120.6</ele>
        <time>2022-11-27T08:48:55Z</time>
      </trkpt>
      <trkpt lat="43.3167070" lon="-2.0182510">
        <ele>120.8</ele>
        <time>2022-11-27T08:48:56Z</time>
      </trkpt>
      <trkpt lat="43.3167020" lon="-2.0182890">
        <ele>120.8</ele>
        <time>2022-11-27T08:48:57Z</time>
      </trkpt>
      <trkpt lat="43.3166990" lon="-2.0183280">
        <ele>121.2</ele>
        <time>2022-11-27T08:48:58Z</time>
      </trkpt>
      <trkpt lat="43.3167030" lon="-2.0183660">
        <ele>121.6</ele>
        <time>2022-11-27T08:48:59Z</time>
      </trkpt>
      <trkpt lat="43.3167150" lon="-2.0183980">
        <ele>121.8</ele>
        <time>2022-11-27T08:49:00Z</time>
      </trkpt>
      <trkpt lat="43.3167340" lon="-2.0184220">
        <ele>122.2</ele>
        <time>2022-11-27T08:49:01Z</time>
      </trkpt>
      <trkpt lat="43.3167590" lon="-2.0184370">
        <ele>122.4</ele>
        <time>2022-11-27T08:49:02Z</time>
      </trkpt>
      <trkpt lat="43.3167840" lon="-2.0184450">
        <ele>122.8</ele>
        <time>2022-11-27T08:49:03Z</time>
      </trkpt>
      <trkpt lat="43.3168120" lon="-2.0184430">
        <ele>123.0</ele>
        <time>2022-11-27T08:49:04Z</time>
      </trkpt>
      <trkpt lat="43.3168420" lon="-2.0184330">
        <ele>123.4</ele>
        <time>2022-11-27T08:49:05Z</time>
      </trkpt>
      <trkpt lat="43.3168730" lon="-2.0184180">
        <ele>123.8</ele>
        <time>2022-11-27T08:49:06Z</time>
      </trkpt>
      <trkpt lat="43.3169010" lon="-2.0183960">
        <ele>124.0</ele>
        <time>2022-11-27T08:49:07Z</time>
      </trkpt>
      <trkpt lat="43.3169260" lon="-2.0183690">
        <ele>124.4</ele>
        <time>2022-11-27T08:49:08Z</time>
      </trkpt>
      <trkpt lat="43.3169460" lon="-2.0183320">
        <ele>124.6</ele>
        <time>2022-11-27T08:49:09Z</time>
      </trkpt>
      <trkpt lat="43.3169640" lon="-2.0182910">
        <ele>125.0</ele>
        <time>2022-11-27T08:49:10Z</time>
      </trkpt>
      <trkpt lat="43.3169800" lon="-2.0182480">
        <ele>125.4</ele>
        <time>2022-11-27T08:49:11Z</time>
      </trkpt>
      <trkpt lat="43.3169950" lon="-2.0182040">
        <ele>125.6</ele>
        <time>2022-11-27T08:49:12Z</time>
      </trkpt>
      <trkpt lat="43.3170100" lon="-2.0181600">
        <ele>125.8</ele>
        <time>2022-11-27T08:49:13Z</time>
      </trkpt>
      <trkpt lat="43.3170260" lon="-2.0181190">
        <ele>126.0</ele>
        <time>2022-11-27T08:49:14Z</time>
      </trkpt>
      <trkpt lat="43.3170400" lon="-2.0180780">
        <ele>126.2</ele>
        <time>2022-11-27T08:49:15Z</time>
      </trkpt>
      <trkpt lat="43.3170540" lon="-2.0180370">
        <ele>126.4</ele>
        <time>2022-11-27T08:49:16Z</time>
      </trkpt>
      <trkpt lat="43.3170660" lon="-2.0179940">
        <ele>126.6</ele>
        <time>2022-11-27T08:49:17Z</time>
      </trkpt>
      <trkpt lat="43.3170770" lon="-2.0179530">
        <ele>126.6</ele>
        <time>2022-11-27T08:49:18Z</time>
      </trkpt>
      <trkpt lat="43.3170900" lon="-2.0179130">
        <ele>126.8</ele>
        <time>2022-11-27T08:49:19Z</time>
      </trkpt>
      <trkpt lat="43.3171040" lon="-2.0178750">
        <ele>127.2</ele>
        <time>2022-11-27T08:49:20Z</time>
      </trkpt>
      <trkpt lat="43.3171190" lon="-2.0178370">
        <ele>127.4</ele>
        <time>2022-11-27T08:49:21Z</time>
      </trkpt>
      <trkpt lat="43.3171370" lon="-2.0178000">
        <ele>127.6</ele>
        <time>2022-11-27T08:49:22Z</time>
      </trkpt>
      <trkpt lat="43.3171530" lon="-2.0177660">
        <ele>128.0</ele>
        <time>2022-11-27T08:49:23Z</time>
      </trkpt>
      <trkpt lat="43.3171710" lon="-2.0177320">
        <ele>128.2</ele>
        <time>2022-11-27T08:49:24Z</time>
      </trkpt>
      <trkpt lat="43.3171850" lon="-2.0176920">
        <ele>128.4</ele>
        <time>2022-11-27T08:49:25Z</time>
      </trkpt>
      <trkpt lat="43.3171970" lon="-2.0176490">
        <ele>128.6</ele>
        <time>2022-11-27T08:49:26Z</time>
      </trkpt>
      <trkpt lat="43.3172110" lon="-2.0176070">
        <ele>128.8</ele>
        <time>2022-11-27T08:49:27Z</time>
      </trkpt>
      <trkpt lat="43.3172240" lon="-2.0175620">
        <ele>129.0</ele>
        <time>2022-11-27T08:49:28Z</time>
      </trkpt>
      <trkpt lat="43.3172380" lon="-2.0175160">
        <ele>129.0</ele>
        <time>2022-11-27T08:49:29Z</time>
      </trkpt>
      <trkpt lat="43.3172510" lon="-2.0174700">
        <ele>129.2</ele>
        <time>2022-11-27T08:49:30Z</time>
      </trkpt>
      <trkpt lat="43.3172670" lon="-2.0174270">
        <ele>129.4</ele>
        <time>2022-11-27T08:49:31Z</time>
      </trkpt>
      <trkpt lat="43.3172810" lon="-2.0173820">
        <ele>129.6</ele>
        <time>2022-11-27T08:49:32Z</time>
      </trkpt>
      <trkpt lat="43.3172960" lon="-2.0173360">
        <ele>129.8</ele>
        <time>2022-11-27T08:49:33Z</time>
      </trkpt>
      <trkpt lat="43.3173090" lon="-2.0172840">
        <ele>130.0</ele>
        <time>2022-11-27T08:49:34Z</time>
      </trkpt>
      <trkpt lat="43.3173240" lon="-2.0172390">
        <ele>130.2</ele>
        <time>2022-11-27T08:49:35Z</time>
      </trkpt>
      <trkpt lat="43.3173400" lon="-2.0171960">
        <ele>130.6</ele>
        <time>2022-11-27T08:49:36Z</time>
      </trkpt>
      <trkpt lat="43.3173550" lon="-2.0171520">
        <ele>130.8</ele>
        <time>2022-11-27T08:49:37Z</time>
      </trkpt>
      <trkpt lat="43.3173680" lon="-2.0171070">
        <ele>131.2</ele>
        <time>2022-11-27T08:49:38Z</time>
      </trkpt>
      <trkpt lat="43.3173800" lon="-2.0170620">
        <ele>131.2</ele>
        <time>2022-11-27T08:49:39Z</time>
      </trkpt>
      <trkpt lat="43.3173930" lon="-2.0170180">
        <ele>131.4</ele>
        <time>2022-11-27T08:49:40Z</time>
      </trkpt>
      <trkpt lat="43.3174060" lon="-2.0169740">
        <ele>131.8</ele>
        <time>2022-11-27T08:49:41Z</time>
      </trkpt>
      <trkpt lat="43.3174210" lon="-2.0169310">
        <ele>132.0</ele>
        <time>2022-11-27T08:49:42Z</time>
      </trkpt>
      <trkpt lat="43.3174340" lon="-2.0168870">
        <ele>132.2</ele>
        <time>2022-11-27T08:49:43Z</time>
      </trkpt>
      <trkpt lat="43.3174480" lon="-2.0168430">
        <ele>132.6</ele>
        <time>2022-11-27T08:49:44Z</time>
      </trkpt>
      <trkpt lat="43.3174600" lon="-2.0167980">
        <ele>132.8</ele>
        <time>2022-11-27T08:49:45Z</time>
      </trkpt>
      <trkpt lat="43.3174730" lon="-2.0167540">
        <ele>133.0</ele>
        <time>2022-11-27T08:49:46Z</time>
      </trkpt>
      <trkpt lat="43.3174890" lon="-2.0167100">
        <ele>133.2</ele>
        <time>2022-11-27T08:49:47Z</time>
      </trkpt>
      <trkpt lat="43.3175060" lon="-2.0166660">
        <ele>133.4</ele>
        <time>2022-11-27T08:49:48Z</time>
      </trkpt>
      <trkpt lat="43.3175240" lon="-2.0166240">
        <ele>133.8</ele>
        <time>2022-11-27T08:49:49Z</time>
      </trkpt>
      <trkpt lat="43.3175430" lon="-2.0165820">
        <ele>134.0</ele>
        <time>2022-11-27T08:49:50Z</time>
      </trkpt>
      <trkpt lat="43.3175610" lon="-2.0165400">
        <ele>134.4</ele>
        <time>2022-11-27T08:49:51Z</time>
      </trkpt>
      <trkpt lat="43.3175810" lon="-2.0164990">
        <ele>134.6</ele>
        <time>2022-11-27T08:49:52Z</time>
      </trkpt>
      <trkpt lat="43.3176020" lon="-2.0164600">
        <ele>135.0</ele>
        <time>2022-11-27T08:49:53Z</time>
      </trkpt>
      <trkpt lat="43.3176240" lon="-2.0164230">
        <ele>135.4</ele>
        <time>2022-11-27T08:49:54Z</time>
      </trkpt>
      <trkpt lat="43.3176450" lon="-2.0163870">
        <ele>135.6</ele>
        <time>2022-11-27T08:49:55Z</time>
      </trkpt>
      <trkpt lat="43.3176580" lon="-2.0163480">
        <ele>135.8</ele>
        <time>2022-11-27T08:49:56Z</time>
      </trkpt>
      <trkpt lat="43.3176650" lon="-2.0163050">
        <ele>136.0</ele>
        <time>2022-11-27T08:49:57Z</time>
      </trkpt>
      <trkpt lat="43.3176670" lon="-2.0162550">
        <ele>136.2</ele>
        <time>2022-11-27T08:49:58Z</time>
      </trkpt>
      <trkpt lat="43.3176700" lon="-2.0162040">
        <ele>136.2</ele>
        <time>2022-11-27T08:49:59Z</time>
      </trkpt>
      <trkpt lat="43.3176760" lon="-2.0161540">
        <ele>136.6</ele>
        <time>2022-11-27T08:50:00Z</time>
      </trkpt>
      <trkpt lat="43.3176870" lon="-2.0161040">
        <ele>137.0</ele>
        <time>2022-11-27T08:50:01Z</time>
      </trkpt>
      <trkpt lat="43.3177000" lon="-2.0160540">
        <ele>137.4</ele>
        <time>2022-11-27T08:50:02Z</time>
      </trkpt>
      <trkpt lat="43.3177160" lon="-2.0160070">
        <ele>137.6</ele>
        <time>2022-11-27T08:50:03Z</time>
      </trkpt>
      <trkpt lat="43.3177340" lon="-2.0159610">
        <ele>138.0</ele>
        <time>2022-11-27T08:50:04Z</time>
      </trkpt>
      <trkpt lat="43.3177490" lon="-2.0159120">
        <ele>138.2</ele>
        <time>2022-11-27T08:50:05Z</time>
      </trkpt>
      <trkpt lat="43.3177660" lon="-2.0158640">
        <ele>138.4</ele>
        <time>2022-11-27T08:50:06Z</time>
      </trkpt>
      <trkpt lat="43.3177810" lon="-2.0158170">
        <ele>138.6</ele>
        <time>2022-11-27T08:50:07Z</time>
      </trkpt>
      <trkpt lat="43.3177980" lon="-2.0157700">
        <ele>139.0</ele>
        <time>2022-11-27T08:50:08Z</time>
      </trkpt>
      <trkpt lat="43.3178150" lon="-2.0157230">
        <ele>139.4</ele>
        <time>2022-11-27T08:50:09Z</time>
      </trkpt>
      <trkpt lat="43.3178310" lon="-2.0156750">
        <ele>139.6</ele>
        <time>2022-11-27T08:50:10Z</time>
      </trkpt>
      <trkpt lat="43.3178460" lon="-2.0156270">
        <ele>140.0</ele>
        <time>2022-11-27T08:50:11Z</time>
      </trkpt>
      <trkpt lat="43.3178590" lon="-2.0155770">
        <ele>140.6</ele>
        <time>2022-11-27T08:50:12Z</time>
      </trkpt>
      <trkpt lat="43.3178720" lon="-2.0155260">
        <ele>141.0</ele>
        <time>2022-11-27T08:50:13Z</time>
      </trkpt>
      <trkpt lat="43.3178840" lon="-2.0154750">
        <ele>141.4</ele>
        <time>2022-11-27T08:50:14Z</time>
      </trkpt>
      <trkpt lat="43.3178980" lon="-2.0154250">
        <ele>141.6</ele>
        <time>2022-11-27T08:50:15Z</time>
      </trkpt>
      <trkpt lat="43.3179120" lon="-2.0153750">
        <ele>141.8</ele>
        <time>2022-11-27T08:50:16Z</time>
      </trkpt>
      <trkpt lat="43.3179290" lon="-2.0153250">
        <ele>141.8</ele>
        <time>2022-11-27T08:50:17Z</time>
      </trkpt>
      <trkpt lat="43.3179450" lon="-2.0152770">
        <ele>142.0</ele>
        <time>2022-11-27T08:50:18Z</time>
      </trkpt>
      <trkpt lat="43.3179580" lon="-2.0152280">
        <ele>142.0</ele>
        <time>2022-11-27T08:50:19Z</time>
      </trkpt>
      <trkpt lat="43.3179710" lon="-2.0151780">
        <ele>142.4</ele>
        <time>2022-11-27T08:50:20Z</time>
      </trkpt>
      <trkpt lat="43.3179850" lon="-2.0151280">
        <ele>142.6</ele>
        <time>2022-11-27T08:50:21Z</time>
      </trkpt>
      <trkpt lat="43.3179990" lon="-2.0150790">
        <ele>142.8</ele>
        <time>2022-11-27T08:50:22Z</time>
      </trkpt>
      <trkpt lat="43.3180130" lon="-2.0150310">
        <ele>143.0</ele>
        <time>2022-11-27T08:50:23Z</time>
      </trkpt>
      <trkpt lat="43.3180230" lon="-2.0149850">
        <ele>143.2</ele>
        <time>2022-11-27T08:50:24Z</time>
      </trkpt>
      <trkpt lat="43.3180340" lon="-2.0149410">
        <ele>143.4</ele>
        <time>2022-11-27T08:50:25Z</time>
      </trkpt>
      <trkpt lat="43.3180470" lon="-2.0148960">
        <ele>143.6</ele>
        <time>2022-11-27T08:50:26Z</time>
      </trkpt>
      <trkpt lat="43.3180610" lon="-2.0148510">
        <ele>144.0</ele>
        <time>2022-11-27T08:50:27Z</time>
      </trkpt>
      <trkpt lat="43.3180730" lon="-2.0148060">
        <ele>144.2</ele>
        <time>2022-11-27T08:50:28Z</time>
      </trkpt>
      <trkpt lat="43.3180830" lon="-2.0147610">
        <ele>144.6</ele>
        <time>2022-11-27T08:50:29Z</time>
      </trkpt>
      <trkpt lat="43.3180910" lon="-2.0147160">
        <ele>144.8</ele>
        <time>2022-11-27T08:50:30Z</time>
      </trkpt>
      <trkpt lat="43.3180970" lon="-2.0146700">
        <ele>145.2</ele>
        <time>2022-11-27T08:50:31Z</time>
      </trkpt>
      <trkpt lat="43.3181020" lon="-2.0146250">
        <ele>145.4</ele>
        <time>2022-11-27T08:50:32Z</time>
      </trkpt>
      <trkpt lat="43.3181080" lon="-2.0145830">
        <ele>145.6</ele>
        <time>2022-11-27T08:50:33Z</time>
      </trkpt>
      <trkpt lat="43.3181160" lon="-2.0145430">
        <ele>146.0</ele>
        <time>2022-11-27T08:50:34Z</time>
      </trkpt>
      <trkpt lat="43.3181220" lon="-2.0145020">
        <ele>146.2</ele>
        <time>2022-11-27T08:50:35Z</time>
      </trkpt>
      <trkpt lat="43.3181280" lon="-2.0144610">
        <ele>146.4</ele>
        <time>2022-11-27T08:50:36Z</time>
      </trkpt>
      <trkpt lat="43.3181340" lon="-2.0144180">
        <ele>146.6</ele>
        <time>2022-11-27T08:50:37Z</time>
      </trkpt>
      <trkpt lat="43.3181420" lon="-2.0143740">
        <ele>146.8</ele>
        <time>2022-11-27T08:50:38Z</time>
      </trkpt>
      <trkpt lat="43.3181480" lon="-2.0143300">
        <ele>147.2</ele>
        <time>2022-11-27T08:50:39Z</time>
      </trkpt>
      <trkpt lat="43.3181520" lon="-2.0142870">
        <ele>147.2</ele>
        <time>2022-11-27T08:50:40Z</time>
      </trkpt>
      <trkpt lat="43.3181550" lon="-2.0142450">
        <ele>147.6</ele>
        <time>2022-11-27T08:50:41Z</time>
      </trkpt>
      <trkpt lat="43.3181560" lon="-2.0141990">
        <ele>148.0</ele>
        <time>2022-11-27T08:50:42Z</time>
      </trkpt>
      <trkpt lat="43.3181560" lon="-2.0141520">
        <ele>148.4</ele>
        <time>2022-11-27T08:50:43Z</time>
      </trkpt>
      <trkpt lat="43.3181570" lon="-2.0141070">
        <ele>148.8</ele>
        <time>2022-11-27T08:50:44Z</time>
      </trkpt>
      <trkpt lat="43.3181600" lon="-2.0140620">
        <ele>149.2</ele>
        <time>2022-11-27T08:50:45Z</time>
      </trkpt>
      <trkpt lat="43.3181610" lon="-2.0140190">
        <ele>149.4</ele>
        <time>2022-11-27T08:50:46Z</time>
      </trkpt>
      <trkpt lat="43.3181620" lon="-2.0139760">
        <ele>149.8</ele>
        <time>2022-11-27T08:50:47Z</time>
      </trkpt>
      <trkpt lat="43.3181610" lon="-2.0139330">
        <ele>150.0</ele>
        <time>2022-11-27T08:50:48Z</time>
      </trkpt>
      <trkpt lat="43.3181590" lon="-2.0138900">
        <ele>150.2</ele>
        <time>2022-11-27T08:50:49Z</time>
      </trkpt>
      <trkpt lat="43.3181560" lon="-2.0138450">
        <ele>150.6</ele>
        <time>2022-11-27T08:50:50Z</time>
      </trkpt>
      <trkpt lat="43.3181540" lon="-2.0137990">
        <ele>150.8</ele>
        <time>2022-11-27T08:50:51Z</time>
      </trkpt>
      <trkpt lat="43.3181530" lon="-2.0137540">
        <ele>151.2</ele>
        <time>2022-11-27T08:50:52Z</time>
      </trkpt>
      <trkpt lat="43.3181510" lon="-2.0137110">
        <ele>151.6</ele>
        <time>2022-11-27T08:50:53Z</time>
      </trkpt>
      <trkpt lat="43.3181530" lon="-2.0136680">
        <ele>152.0</ele>
        <time>2022-11-27T08:50:54Z</time>
      </trkpt>
      <trkpt lat="43.3181550" lon="-2.0136260">
        <ele>152.4</ele>
        <time>2022-11-27T08:50:55Z</time>
      </trkpt>
      <trkpt lat="43.3181620" lon="-2.0135840">
        <ele>152.8</ele>
        <time>2022-11-27T08:50:56Z</time>
      </trkpt>
      <trkpt lat="43.3181690" lon="-2.0135400">
        <ele>153.0</ele>
        <time>2022-11-27T08:50:57Z</time>
      </trkpt>
      <trkpt lat="43.3181720" lon="-2.0134970">
        <ele>153.4</ele>
        <time>2022-11-27T08:50:58Z</time>
      </trkpt>
      <trkpt lat="43.3181690" lon="-2.0134510">
        <ele>153.6</ele>
        <time>2022-11-27T08:50:59Z</time>
      </trkpt>
      <trkpt lat="43.3181670" lon="-2.0134030">
        <ele>153.8</ele>
        <time>2022-11-27T08:51:00Z</time>
      </trkpt>
      <trkpt lat="43.3181680" lon="-2.0133580">
        <ele>153.8</ele>
        <time>2022-11-27T08:51:01Z</time>
      </trkpt>
      <trkpt lat="43.3181690" lon="-2.0133130">
        <ele>154.0</ele>
        <time>2022-11-27T08:51:02Z</time>
      </trkpt>
      <trkpt lat="43.3181690" lon="-2.0132690">
        <ele>154.2</ele>
        <time>2022-11-27T08:51:03Z</time>
      </trkpt>
      <trkpt lat="43.3181710" lon="-2.0132240">
        <ele>154.4</ele>
        <time>2022-11-27T08:51:04Z</time>
      </trkpt>
      <trkpt lat="43.3181730" lon="-2.0131790">
        <ele>154.8</ele>
        <time>2022-11-27T08:51:05Z</time>
      </trkpt>
      <trkpt lat="43.3181720" lon="-2.0131330">
        <ele>155.0</ele>
        <time>2022-11-27T08:51:06Z</time>
      </trkpt>
      <trkpt lat="43.3181750" lon="-2.0130870">
        <ele>155.4</ele>
        <time>2022-11-27T08:51:07Z</time>
      </trkpt>
      <trkpt lat="43.3181800" lon="-2.0130400">
        <ele>155.8</ele>
        <time>2022-11-27T08:51:08Z</time>
      </trkpt>
      <trkpt lat="43.3181840" lon="-2.0129910">
        <ele>156.0</ele>
        <time>2022-11-27T08:51:09Z</time>
      </trkpt>
      <trkpt lat="43.3181900" lon="-2.0129420">
        <ele>156.4</ele>
        <time>2022-11-27T08:51:10Z</time>
      </trkpt>
      <trkpt lat="43.3181950" lon="-2.0128930">
        <ele>156.6</ele>
        <time>2022-11-27T08:51:11Z</time>
      </trkpt>
      <trkpt lat="43.3181970" lon="-2.0128440">
        <ele>156.8</ele>
        <time>2022-11-27T08:51:12Z</time>
      </trkpt>
      <trkpt lat="43.3181970" lon="-2.0127950">
        <ele>157.2</ele>
        <time>2022-11-27T08:51:13Z</time>
      </trkpt>
      <trkpt lat="43.3181950" lon="-2.0127450">
        <ele>157.4</ele>
        <time>2022-11-27T08:51:14Z</time>
      </trkpt>
      <trkpt lat="43.3181970" lon="-2.0126960">
        <ele>157.4</ele>
        <time>2022-11-27T08:51:15Z</time>
      </trkpt>
      <trkpt lat="43.3181980" lon="-2.0126450">
        <ele>157.6</ele>
        <time>2022-11-27T08:51:16Z</time>
      </trkpt>
      <trkpt lat="43.3181980" lon="-2.0125940">
        <ele>157.6</ele>
        <time>2022-11-27T08:51:17Z</time>
      </trkpt>
      <trkpt lat="43.3181990" lon="-2.0125440">
        <ele>158.0</ele>
        <time>2022-11-27T08:51:18Z</time>
      </trkpt>
      <trkpt lat="43.3181980" lon="-2.0124950">
        <ele>158.0</ele>
        <time>2022-11-27T08:51:19Z</time>
      </trkpt>
      <trkpt lat="43.3181990" lon="-2.0124470">
        <ele>158.2</ele>
        <time>2022-11-27T08:51:20Z</time>
      </trkpt>
      <trkpt lat="43.3182010" lon="-2.0123990">
        <ele>158.4</ele>
        <time>2022-11-27T08:51:21Z</time>
      </trkpt>
      <trkpt lat="43.3182040" lon="-2.0123520">
        <ele>158.6</ele>
        <time>2022-11-27T08:51:22Z</time>
      </trkpt>
      <trkpt lat="43.3182040" lon="-2.0123060">
        <ele>158.8</ele>
        <time>2022-11-27T08:51:23Z</time>
      </trkpt>
      <trkpt lat="43.3182030" lon="-2.0122600">
        <ele>159.0</ele>
        <time>2022-11-27T08:51:24Z</time>
      </trkpt>
      <trkpt lat="43.3182020" lon="-2.0122160">
        <ele>159.2</ele>
        <time>2022-11-27T08:51:25Z</time>
      </trkpt>
      <trkpt lat="43.3182060" lon="-2.0121730">
        <ele>159.2</ele>
        <time>2022-11-27T08:51:26Z</time>
      </trkpt>
      <trkpt lat="43.3182120" lon="-2.0121280">
        <ele>159.2</ele>
        <time>2022-11-27T08:51:27Z</time>
      </trkpt>
      <trkpt lat="43.3182200" lon="-2.0120830">
        <ele>159.4</ele>
        <time>2022-11-27T08:51:28Z</time>
      </trkpt>
      <trkpt lat="43.3182280" lon="-2.0120410">
        <ele>159.6</ele>
        <time>2022-11-27T08:51:29Z</time>
      </trkpt>
      <trkpt lat="43.3182400" lon="-2.0119990">
        <ele>159.8</ele>
        <time>2022-11-27T08:51:30Z</time>
      </trkpt>
      <trkpt lat="43.3182490" lon="-2.0119580">
        <ele>160.0</ele>
        <time>2022-11-27T08:51:31Z</time>
      </trkpt>
      <trkpt lat="43.3182630" lon="-2.0119170">
        <ele>160.2</ele>
        <time>2022-11-27T08:51:32Z</time>
      </trkpt>
      <trkpt lat="43.3182790" lon="-2.0118800">
        <ele>160.4</ele>
        <time>2022-11-27T08:51:33Z</time>
      </trkpt>
      <trkpt lat="43.3182960" lon="-2.0118470">
        <ele>160.6</ele>
        <time>2022-11-27T08:51:34Z</time>
      </trkpt>
      <trkpt lat="43.3183120" lon="-2.0118150">
        <ele>160.8</ele>
        <time>2022-11-27T08:51:35Z</time>
      </trkpt>
      <trkpt lat="43.3183290" lon="-2.0117860">
        <ele>161.0</ele>
        <time>2022-11-27T08:51:36Z</time>
      </trkpt>
      <trkpt lat="43.3183460" lon="-2.0117610">
        <ele>161.2</ele>
        <time>2022-11-27T08:51:37Z</time>
      </trkpt>
      <trkpt lat="43.3183630" lon="-2.0117410">
        <ele>161.2</ele>
        <time>2022-11-27T08:51:38Z</time>
      </trkpt>
      <trkpt lat="43.3183790" lon="-2.0117300">
        <ele>161.4</ele>
        <time>2022-11-27T08:51:39Z</time>
      </trkpt>
      <trkpt lat="43.3183860" lon="-2.0117290">
        <ele>161.4</ele>
        <time>2022-11-27T08:51:40Z</time>
      </trkpt>
      <trkpt lat="43.3183880" lon="-2.0117320">
        <ele>161.4</ele>
        <time>2022-11-27T08:51:41Z</time>
      </trkpt>
      <trkpt lat="43.3183770" lon="-2.0117750">
        <ele>162.2</ele>
        <time>2022-11-27T08:51:48Z</time>
      </trkpt>
      <trkpt lat="43.3183620" lon="-2.0118050">
        <ele>162.6</ele>
        <time>2022-11-27T08:51:49Z</time>
      </trkpt>
      <trkpt lat="43.3183450" lon="-2.0118440">
        <ele>162.8</ele>
        <time>2022-11-27T08:51:50Z</time>
      </trkpt>
      <trkpt lat="43.3183250" lon="-2.0118880">
        <ele>163.0</ele>
        <time>2022-11-27T08:51:51Z</time>
      </trkpt>
      <trkpt lat="43.3183050" lon="-2.0119370">
        <ele>163.2</ele>
        <time>2022-11-27T08:51:52Z</time>
      </trkpt>
      <trkpt lat="43.3182860" lon="-2.0119910">
        <ele>163.2</ele>
        <time>2022-11-27T08:51:53Z</time>
      </trkpt>
      <trkpt lat="43.3182660" lon="-2.0120510">
        <ele>163.2</ele>
        <time>2022-11-27T08:51:54Z</time>
      </trkpt>
      <trkpt lat="43.3182510" lon="-2.0121180">
        <ele>163.2</ele>
        <time>2022-11-27T08:51:55Z</time>
      </trkpt>
      <trkpt lat="43.3182420" lon="-2.0121910">
        <ele>163.2</ele>
        <time>2022-11-27T08:51:56Z</time>
      </trkpt>
      <trkpt lat="43.3182350" lon="-2.0122680">
        <ele>163.2</ele>
        <time>2022-11-27T08:51:57Z</time>
      </trkpt>
      <trkpt lat="43.3182300" lon="-2.0123490">
        <ele>163.2</ele>
        <time>2022-11-27T08:51:58Z</time>
      </trkpt>
      <trkpt lat="43.3182250" lon="-2.0124340">
        <ele>163.2</ele>
        <time>2022-11-27T08:51:59Z</time>
      </trkpt>
      <trkpt lat="43.3182220" lon="-2.0125230">
        <ele>163.2</ele>
        <time>2022-11-27T08:52:00Z</time>
      </trkpt>
      <trkpt lat="43.3182210" lon="-2.0126160">
        <ele>163.0</ele>
        <time>2022-11-27T08:52:01Z</time>
      </trkpt>
      <trkpt lat="43.3182160" lon="-2.0127130">
        <ele>162.8</ele>
        <time>2022-11-27T08:52:02Z</time>
      </trkpt>
      <trkpt lat="43.3182080" lon="-2.0128130">
        <ele>162.6</ele>
        <time>2022-11-27T08:52:03Z</time>
      </trkpt>
      <trkpt lat="43.3182010" lon="-2.0129170">
        <ele>162.4</ele>
        <time>2022-11-27T08:52:04Z</time>
      </trkpt>
      <trkpt lat="43.3181930" lon="-2.0130240">
        <ele>162.0</ele>
        <time>2022-11-27T08:52:05Z</time>
      </trkpt>
      <trkpt lat="43.3181850" lon="-2.0131350">
        <ele>161.8</ele>
        <time>2022-11-27T08:52:06Z</time>
      </trkpt>
      <trkpt lat="43.3181740" lon="-2.0132490">
        <ele>161.4</ele>
        <time>2022-11-27T08:52:07Z</time>
      </trkpt>
      <trkpt lat="43.3181660" lon="-2.0133710">
        <ele>161.0</ele>
        <time>2022-11-27T08:52:08Z</time>
      </trkpt>
      <trkpt lat="43.3181630" lon="-2.0134990">
        <ele>161.0</ele>
        <time>2022-11-27T08:52:09Z</time>
      </trkpt>
      <trkpt lat="43.3181610" lon="-2.0136340">
        <ele>160.6</ele>
        <time>2022-11-27T08:52:10Z</time>
      </trkpt>
      <trkpt lat="43.3181650" lon="-2.0137730">
        <ele>160.2</ele>
        <time>2022-11-27T08:52:11Z</time>
      </trkpt>
      <trkpt lat="43.3181700" lon="-2.0139100">
        <ele>159.8</ele>
        <time>2022-11-27T08:52:12Z</time>
      </trkpt>
      <trkpt lat="43.3181750" lon="-2.0140460">
        <ele>159.6</ele>
        <time>2022-11-27T08:52:13Z</time>
      </trkpt>
      <trkpt lat="43.3181720" lon="-2.0141780">
        <ele>159.0</ele>
        <time>2022-11-27T08:52:14Z</time>
      </trkpt>
      <trkpt lat="43.3181670" lon="-2.0143060">
        <ele>158.6</ele>
        <time>2022-11-27T08:52:15Z</time>
      </trkpt>
      <trkpt lat="43.3181550" lon="-2.0144320">
        <ele>158.2</ele>
        <time>2022-11-27T08:52:16Z</time>
      </trkpt>
      <trkpt lat="43.3181390" lon="-2.0145600">
        <ele>158.0</ele>
        <time>2022-11-27T08:52:17Z</time>
      </trkpt>
      <trkpt lat="43.3181190" lon="-2.0146860">
        <ele>157.6</ele>
        <time>2022-11-27T08:52:18Z</time>
      </trkpt>
      <trkpt lat="43.3180940" lon="-2.0148220">
        <ele>156.8</ele>
        <time>2022-11-27T08:52:19Z</time>
      </trkpt>
      <trkpt lat="43.3180630" lon="-2.0149600">
        <ele>155.8</ele>
        <time>2022-11-27T08:52:20Z</time>
      </trkpt>
      <trkpt lat="43.3180260" lon="-2.0150950">
        <ele>155.0</ele>
        <time>2022-11-27T08:52:21Z</time>
      </trkpt>
      <trkpt lat="43.3179880" lon="-2.0152230">
        <ele>153.6</ele>
        <time>2022-11-27T08:52:22Z</time>
      </trkpt>
      <trkpt lat="43.3179500" lon="-2.0153450">
        <ele>152.8</ele>
        <time>2022-11-27T08:52:23Z</time>
      </trkpt>
      <trkpt lat="43.3179130" lon="-2.0154610">
        <ele>151.6</ele>
        <time>2022-11-27T08:52:24Z</time>
      </trkpt>
      <trkpt lat="43.3178770" lon="-2.0155780">
        <ele>150.4</ele>
        <time>2022-11-27T08:52:25Z</time>
      </trkpt>
      <trkpt lat="43.3178420" lon="-2.0156930">
        <ele>149.4</ele>
        <time>2022-11-27T08:52:26Z</time>
      </trkpt>
      <trkpt lat="43.3178090" lon="-2.0158050">
        <ele>148.4</ele>
        <time>2022-11-27T08:52:27Z</time>
      </trkpt>
      <trkpt lat="43.3177780" lon="-2.0159080">
        <ele>147.4</ele>
        <time>2022-11-27T08:52:28Z</time>
      </trkpt>
      <trkpt lat="43.3177510" lon="-2.0160000">
        <ele>146.2</ele>
        <time>2022-11-27T08:52:29Z</time>
      </trkpt>
      <trkpt lat="43.3177300" lon="-2.0160820">
        <ele>145.4</ele>
        <time>2022-11-27T08:52:30Z</time>
      </trkpt>
      <trkpt lat="43.3177210" lon="-2.0161530">
        <ele>144.4</ele>
        <time>2022-11-27T08:52:31Z</time>
      </trkpt>
      <trkpt lat="43.3177280" lon="-2.0162140">
        <ele>143.8</ele>
        <time>2022-11-27T08:52:32Z</time>
      </trkpt>
      <trkpt lat="43.3177500" lon="-2.0162600">
        <ele>143.2</ele>
        <time>2022-11-27T08:52:33Z</time>
      </trkpt>
      <trkpt lat="43.3177830" lon="-2.0162840">
        <ele>142.2</ele>
        <time>2022-11-27T08:52:34Z</time>
      </trkpt>
      <trkpt lat="43.3178210" lon="-2.0162780">
        <ele>142.2</ele>
        <time>2022-11-27T08:52:35Z</time>
      </trkpt>
      <trkpt lat="43.3178590" lon="-2.0162650">
        <ele>141.6</ele>
        <time>2022-11-27T08:52:36Z</time>
      </trkpt>
      <trkpt lat="43.3179000" lon="-2.0162520">
        <ele>140.8</ele>
        <time>2022-11-27T08:52:37Z</time>
      </trkpt>
      <trkpt lat="43.3179430" lon="-2.0162450">
        <ele>140.6</ele>
        <time>2022-11-27T08:52:38Z</time>
      </trkpt>
      <trkpt lat="43.3179840" lon="-2.0162440">
        <ele>140.4</ele>
        <time>2022-11-27T08:52:39Z</time>
      </trkpt>
      <trkpt lat="43.3180260" lon="-2.0162530">
        <ele>140.2</ele>
        <time>2022-11-27T08:52:40Z</time>
      </trkpt>
      <trkpt lat="43.3180670" lon="-2.0162670">
        <ele>140.2</ele>
        <time>2022-11-27T08:52:41Z</time>
      </trkpt>
      <trkpt lat="43.3181070" lon="-2.0162840">
        <ele>140.2</ele>
        <time>2022-11-27T08:52:42Z</time>
      </trkpt>
      <trkpt lat="43.3181470" lon="-2.0163020">
        <ele>140.2</ele>
        <time>2022-11-27T08:52:43Z</time>
      </trkpt>
      <trkpt lat="43.3181840" lon="-2.0163240">
        <ele>140.2</ele>
        <time>2022-11-27T08:52:44Z</time>
      </trkpt>
      <trkpt lat="43.3182180" lon="-2.0163500">
        <ele>140.2</ele>
        <time>2022-11-27T08:52:45Z</time>
      </trkpt>
      <trkpt lat="43.3182510" lon="-2.0163800">
        <ele>140.2</ele>
        <time>2022-11-27T08:52:46Z</time>
      </trkpt>
      <trkpt lat="43.3182850" lon="-2.0164090">
        <ele>140.4</ele>
        <time>2022-11-27T08:52:47Z</time>
      </trkpt>
      <trkpt lat="43.3183190" lon="-2.0164400">
        <ele>140.6</ele>
        <time>2022-11-27T08:52:48Z</time>
      </trkpt>
      <trkpt lat="43.3183510" lon="-2.0164730">
        <ele>141.2</ele>
        <time>2022-11-27T08:52:49Z</time>
      </trkpt>
      <trkpt lat="43.3183820" lon="-2.0165070">
        <ele>141.8</ele>
        <time>2022-11-27T08:52:50Z</time>
      </trkpt>
      <trkpt lat="43.3184140" lon="-2.0165390">
        <ele>142.0</ele>
        <time>2022-11-27T08:52:51Z</time>
      </trkpt>
      <trkpt lat="43.3184490" lon="-2.0165700">
        <ele>142.4</ele>
        <time>2022-11-27T08:52:52Z</time>
      </trkpt>
      <trkpt lat="43.3184820" lon="-2.0166010">
        <ele>142.8</ele>
        <time>2022-11-27T08:52:53Z</time>
      </trkpt>
      <trkpt lat="43.3185150" lon="-2.0166330">
        <ele>143.0</ele>
        <time>2022-11-27T08:52:54Z</time>
      </trkpt>
      <trkpt lat="43.3185470" lon="-2.0166670">
        <ele>143.2</ele>
        <time>2022-11-27T08:52:55Z</time>
      </trkpt>
      <trkpt lat="43.3185810" lon="-2.0166980">
        <ele>143.4</ele>
        <time>2022-11-27T08:52:56Z</time>
      </trkpt>
      <trkpt lat="43.3186150" lon="-2.0167300">
        <ele>143.8</ele>
        <time>2022-11-27T08:52:57Z</time>
      </trkpt>
      <trkpt lat="43.3186480" lon="-2.0167630">
        <ele>144.2</ele>
        <time>2022-11-27T08:52:58Z</time>
      </trkpt>
      <trkpt lat="43.3186800" lon="-2.0167950">
        <ele>144.8</ele>
        <time>2022-11-27T08:52:59Z</time>
      </trkpt>
      <trkpt lat="43.3187100" lon="-2.0168270">
        <ele>144.8</ele>
        <time>2022-11-27T08:53:00Z</time>
      </trkpt>
      <trkpt lat="43.3187410" lon="-2.0168590">
        <ele>145.2</ele>
        <time>2022-11-27T08:53:01Z</time>
      </trkpt>
      <trkpt lat="43.3187720" lon="-2.0168920">
        <ele>145.8</ele>
        <time>2022-11-27T08:53:02Z</time>
      </trkpt>
      <trkpt lat="43.3188050" lon="-2.0169240">
        <ele>146.2</ele>
        <time>2022-11-27T08:53:03Z</time>
      </trkpt>
      <trkpt lat="43.3188390" lon="-2.0169550">
        <ele>146.6</ele>
        <time>2022-11-27T08:53:04Z</time>
      </trkpt>
      <trkpt lat="43.3188730" lon="-2.0169850">
        <ele>146.8</ele>
        <time>2022-11-27T08:53:05Z</time>
      </trkpt>
      <trkpt lat="43.3189080" lon="-2.0170150">
        <ele>147.0</ele>
        <time>2022-11-27T08:53:06Z</time>
      </trkpt>
      <trkpt lat="43.3189430" lon="-2.0170440">
        <ele>147.4</ele>
        <time>2022-11-27T08:53:07Z</time>
      </trkpt>
      <trkpt lat="43.3189760" lon="-2.0170740">
        <ele>147.6</ele>
        <time>2022-11-27T08:53:08Z</time>
      </trkpt>
      <trkpt lat="43.3190080" lon="-2.0171060">
        <ele>147.8</ele>
        <time>2022-11-27T08:53:09Z</time>
      </trkpt>
      <trkpt lat="43.3190400" lon="-2.0171380">
        <ele>148.2</ele>
        <time>2022-11-27T08:53:10Z</time>
      </trkpt>
      <trkpt lat="43.3190710" lon="-2.0171700">
        <ele>148.4</ele>
        <time>2022-11-27T08:53:11Z</time>
      </trkpt>
      <trkpt lat="43.3191020" lon="-2.0171990">
        <ele>149.0</ele>
        <time>2022-11-27T08:53:12Z</time>
      </trkpt>
      <trkpt lat="43.3191340" lon="-2.0172280">
        <ele>149.2</ele>
        <time>2022-11-27T08:53:13Z</time>
      </trkpt>
      <trkpt lat="43.3191630" lon="-2.0172590">
        <ele>149.4</ele>
        <time>2022-11-27T08:53:14Z</time>
      </trkpt>
      <trkpt lat="43.3191890" lon="-2.0172920">
        <ele>149.8</ele>
        <time>2022-11-27T08:53:15Z</time>
      </trkpt>
      <trkpt lat="43.3192110" lon="-2.0173280">
        <ele>150.2</ele>
        <time>2022-11-27T08:53:16Z</time>
      </trkpt>
      <trkpt lat="43.3192280" lon="-2.0173680">
        <ele>150.4</ele>
        <time>2022-11-27T08:53:17Z</time>
      </trkpt>
      <trkpt lat="43.3192390" lon="-2.0174120">
        <ele>150.6</ele>
        <time>2022-11-27T08:53:18Z</time>
      </trkpt>
      <trkpt lat="43.3192430" lon="-2.0174570">
        <ele>151.0</ele>
        <time>2022-11-27T08:53:19Z</time>
      </trkpt>
      <trkpt lat="43.3192400" lon="-2.0175020">
        <ele>151.4</ele>
        <time>2022-11-27T08:53:20Z</time>
      </trkpt>
      <trkpt lat="43.3192340" lon="-2.0175480">
        <ele>151.6</ele>
        <time>2022-11-27T08:53:21Z</time>
      </trkpt>
      <trkpt lat="43.3192240" lon="-2.0175920">
        <ele>152.0</ele>
        <time>2022-11-27T08:53:22Z</time>
      </trkpt>
      <trkpt lat="43.3192080" lon="-2.0176330">
        <ele>152.4</ele>
        <time>2022-11-27T08:53:23Z</time>
      </trkpt>
      <trkpt lat="43.3191880" lon="-2.0176700">
        <ele>152.8</ele>
        <time>2022-11-27T08:53:24Z</time>
      </trkpt>
      <trkpt lat="43.3191660" lon="-2.0177050">
        <ele>153.0</ele>
        <time>2022-11-27T08:53:25Z</time>
      </trkpt>
      <trkpt lat="43.3191420" lon="-2.0177370">
        <ele>153.4</ele>
        <time>2022-11-27T08:53:26Z</time>
      </trkpt>
      <trkpt lat="43.3191180" lon="-2.0177700">
        <ele>153.4</ele>
        <time>2022-11-27T08:53:27Z</time>
      </trkpt>
      <trkpt lat="43.3190930" lon="-2.0178000">
        <ele>153.6</ele>
        <time>2022-11-27T08:53:28Z</time>
      </trkpt>
      <trkpt lat="43.3190670" lon="-2.0178290">
        <ele>153.8</ele>
        <time>2022-11-27T08:53:29Z</time>
      </trkpt>
      <trkpt lat="43.3190410" lon="-2.0178590">
        <ele>154.2</ele>
        <time>2022-11-27T08:53:30Z</time>
      </trkpt>
      <trkpt lat="43.3190160" lon="-2.0178910">
        <ele>154.4</ele>
        <time>2022-11-27T08:53:31Z</time>
      </trkpt>
      <trkpt lat="43.3189900" lon="-2.0179230">
        <ele>154.6</ele>
        <time>2022-11-27T08:53:32Z</time>
      </trkpt>
      <trkpt lat="43.3189630" lon="-2.0179530">
        <ele>154.8</ele>
        <time>2022-11-27T08:53:33Z</time>
      </trkpt>
      <trkpt lat="43.3189360" lon="-2.0179850">
        <ele>155.2</ele>
        <time>2022-11-27T08:53:34Z</time>
      </trkpt>
      <trkpt lat="43.3189110" lon="-2.0180180">
        <ele>155.4</ele>
        <time>2022-11-27T08:53:35Z</time>
      </trkpt>
      <trkpt lat="43.3188850" lon="-2.0180530">
        <ele>156.0</ele>
        <time>2022-11-27T08:53:36Z</time>
      </trkpt>
      <trkpt lat="43.3188620" lon="-2.0180900">
        <ele>156.4</ele>
        <time>2022-11-27T08:53:37Z</time>
      </trkpt>
      <trkpt lat="43.3188390" lon="-2.0181260">
        <ele>156.6</ele>
        <time>2022-11-27T08:53:38Z</time>
      </trkpt>
      <trkpt lat="43.3188160" lon="-2.0181620">
        <ele>156.8</ele>
        <time>2022-11-27T08:53:39Z</time>
      </trkpt>
      <trkpt lat="43.3187930" lon="-2.0181990">
        <ele>157.0</ele>
        <time>2022-11-27T08:53:40Z</time>
      </trkpt>
      <trkpt lat="43.3187740" lon="-2.0182390">
        <ele>157.2</ele>
        <time>2022-11-27T08:53:41Z</time>
      </trkpt>
      <trkpt lat="43.3187550" lon="-2.0182800">
        <ele>157.4</ele>
        <time>2022-11-27T08:53:42Z</time>
      </trkpt>
      <trkpt lat="43.3187400" lon="-2.0183230">
        <ele>157.4</ele>
        <time>2022-11-27T08:53:43Z</time>
      </trkpt>
      <trkpt lat="43.3187280" lon="-2.0183670">
        <ele>157.6</ele>
        <time>2022-11-27T08:53:44Z</time>
      </trkpt>
      <trkpt lat="43.3187160" lon="-2.0184120">
        <ele>158.0</ele>
        <time>2022-11-27T08:53:45Z</time>
      </trkpt>
      <trkpt lat="43.3187040" lon="-2.0184580">
        <ele>158.2</ele>
        <time>2022-11-27T08:53:46Z</time>
      </trkpt>
      <trkpt lat="43.3186950" lon="-2.0185050">
        <ele>158.6</ele>
        <time>2022-11-27T08:53:47Z</time>
      </trkpt>
      <trkpt lat="43.3186890" lon="-2.0185520">
        <ele>159.0</ele>
        <time>2022-11-27T08:53:48Z</time>
      </trkpt>
      <trkpt lat="43.3186860" lon="-2.0186000">
        <ele>159.2</ele>
        <time>2022-11-27T08:53:49Z</time>
      </trkpt>
      <trkpt lat="43.3186860" lon="-2.0186480">
        <ele>159.6</ele>
        <time>2022-11-27T08:53:50Z</time>
      </trkpt>
      <trkpt lat="43.3186860" lon="-2.0186960">
        <ele>159.8</ele>
        <time>2022-11-27T08:53:51Z</time>
      </trkpt>
      <trkpt lat="43.3186870" lon="-2.0187460">
        <ele>160.0</ele>
        <time>2022-11-27T08:53:52Z</time>
      </trkpt>
      <trkpt lat="43.3186880" lon="-2.0187920">
        <ele>160.2</ele>
        <time>2022-11-27T08:53:53Z</time>
      </trkpt>
      <trkpt lat="43.3186890" lon="-2.0188380">
        <ele>160.4</ele>
        <time>2022-11-27T08:53:54Z</time>
      </trkpt>
      <trkpt lat="43.3186870" lon="-2.0188850">
        <ele>160.4</ele>
        <time>2022-11-27T08:53:55Z</time>
      </trkpt>
      <trkpt lat="43.3186870" lon="-2.0189320">
        <ele>160.6</ele>
        <time>2022-11-27T08:53:56Z</time>
      </trkpt>
      <trkpt lat="43.3186880" lon="-2.0189790">
        <ele>160.8</ele>
        <time>2022-11-27T08:53:57Z</time>
      </trkpt>
      <trkpt lat="43.3186860" lon="-2.0190270">
        <ele>161.0</ele>
        <time>2022-11-27T08:53:58Z</time>
      </trkpt>
      <trkpt lat="43.3186870" lon="-2.0190740">
        <ele>161.0</ele>
        <time>2022-11-27T08:53:59Z</time>
      </trkpt>
      <trkpt lat="43.3186860" lon="-2.0191210">
        <ele>161.2</ele>
        <time>2022-11-27T08:54:00Z</time>
      </trkpt>
      <trkpt lat="43.3186880" lon="-2.0191680">
        <ele>161.4</ele>
        <time>2022-11-27T08:54:01Z</time>
      </trkpt>
      <trkpt lat="43.3186900" lon="-2.0192140">
        <ele>161.4</ele>
        <time>2022-11-27T08:54:02Z</time>
      </trkpt>
      <trkpt lat="43.3186890" lon="-2.0192590">
        <ele>161.6</ele>
        <time>2022-11-27T08:54:03Z</time>
      </trkpt>
      <trkpt lat="43.3186860" lon="-2.0193050">
        <ele>161.8</ele>
        <time>2022-11-27T08:54:04Z</time>
      </trkpt>
      <trkpt lat="43.3186790" lon="-2.0193500">
        <ele>162.2</ele>
        <time>2022-11-27T08:54:05Z</time>
      </trkpt>
      <trkpt lat="43.3186730" lon="-2.0193940">
        <ele>162.4</ele>
        <time>2022-11-27T08:54:06Z</time>
      </trkpt>
      <trkpt lat="43.3186660" lon="-2.0194390">
        <ele>162.8</ele>
        <time>2022-11-27T08:54:07Z</time>
      </trkpt>
      <trkpt lat="43.3186620" lon="-2.0194830">
        <ele>163.2</ele>
        <time>2022-11-27T08:54:08Z</time>
      </trkpt>
      <trkpt lat="43.3186560" lon="-2.0195280">
        <ele>163.4</ele>
        <time>2022-11-27T08:54:09Z</time>
      </trkpt>
      <trkpt lat="43.3186460" lon="-2.0195710">
        <ele>164.0</ele>
        <time>2022-11-27T08:54:10Z</time>
      </trkpt>
      <trkpt lat="43.3186330" lon="-2.0196160">
        <ele>164.2</ele>
        <time>2022-11-27T08:54:11Z</time>
      </trkpt>
      <trkpt lat="43.3186200" lon="-2.0196590">
        <ele>164.6</ele>
        <time>2022-11-27T08:54:12Z</time>
      </trkpt>
      <trkpt lat="43.3186070" lon="-2.0197030">
        <ele>165.0</ele>
        <time>2022-11-27T08:54:13Z</time>
      </trkpt>
      <trkpt lat="43.3185910" lon="-2.0197450">
        <ele>165.4</ele>
        <time>2022-11-27T08:54:14Z</time>
      </trkpt>
      <trkpt lat="43.3185740" lon="-2.0197840">
        <ele>166.0</ele>
        <time>2022-11-27T08:54:15Z</time>
      </trkpt>
      <trkpt lat="43.3185550" lon="-2.0198230">
        <ele>166.4</ele>
        <time>2022-11-27T08:54:16Z</time>
      </trkpt>
      <trkpt lat="43.3185380" lon="-2.0198610">
        <ele>166.6</ele>
        <time>2022-11-27T08:54:17Z</time>
      </trkpt>
      <trkpt lat="43.3185200" lon="-2.0198980">
        <ele>166.6</ele>
        <time>2022-11-27T08:54:18Z</time>
      </trkpt>
      <trkpt lat="43.3185000" lon="-2.0199340">
        <ele>167.0</ele>
        <time>2022-11-27T08:54:19Z</time>
      </trkpt>
      <trkpt lat="43.3184790" lon="-2.0199680">
        <ele>167.2</ele>
        <time>2022-11-27T08:54:20Z</time>
      </trkpt>
      <trkpt lat="43.3184560" lon="-2.0200000">
        <ele>167.4</ele>
        <time>2022-11-27T08:54:21Z</time>
      </trkpt>
      <trkpt lat="43.3184320" lon="-2.0200310">
        <ele>167.8</ele>
        <time>2022-11-27T08:54:22Z</time>
      </trkpt>
      <trkpt lat="43.3184070" lon="-2.0200590">
        <ele>168.0</ele>
        <time>2022-11-27T08:54:23Z</time>
      </trkpt>
      <trkpt lat="43.3183820" lon="-2.0200880">
        <ele>168.2</ele>
        <time>2022-11-27T08:54:24Z</time>
      </trkpt>
      <trkpt lat="43.3183590" lon="-2.0201180">
        <ele>168.6</ele>
        <time>2022-11-27T08:54:25Z</time>
      </trkpt>
      <trkpt lat="43.3183340" lon="-2.0201460">
        <ele>169.0</ele>
        <time>2022-11-27T08:54:26Z</time>
      </trkpt>
      <trkpt lat="43.3183090" lon="-2.0201710">
        <ele>169.4</ele>
        <time>2022-11-27T08:54:27Z</time>
      </trkpt>
      <trkpt lat="43.3182840" lon="-2.0201940">
        <ele>169.8</ele>
        <time>2022-11-27T08:54:28Z</time>
      </trkpt>
      <trkpt lat="43.3182590" lon="-2.0202190">
        <ele>170.2</ele>
        <time>2022-11-27T08:54:29Z</time>
      </trkpt>
      <trkpt lat="43.3182340" lon="-2.0202440">
        <ele>170.4</ele>
        <time>2022-11-27T08:54:30Z</time>
      </trkpt>
      <trkpt lat="43.3182100" lon="-2.0202700">
        <ele>170.6</ele>
        <time>2022-11-27T08:54:31Z</time>
      </trkpt>
      <trkpt lat="43.3181850" lon="-2.0202950">
        <ele>170.6</ele>
        <time>2022-11-27T08:54:32Z</time>
      </trkpt>
      <trkpt lat="43.3181580" lon="-2.0203160">
        <ele>170.8</ele>
        <time>2022-11-27T08:54:33Z</time>
      </trkpt>
      <trkpt lat="43.3181320" lon="-2.0203370">
        <ele>171.0</ele>
        <time>2022-11-27T08:54:34Z</time>
      </trkpt>
      <trkpt lat="43.3181080" lon="-2.0203620">
        <ele>171.2</ele>
        <time>2022-11-27T08:54:35Z</time>
      </trkpt>
      <trkpt lat="43.3180850" lon="-2.0203890">
        <ele>171.4</ele>
        <time>2022-11-27T08:54:36Z</time>
      </trkpt>
      <trkpt lat="43.3180610" lon="-2.0204140">
        <ele>171.6</ele>
        <time>2022-11-27T08:54:37Z</time>
      </trkpt>
      <trkpt lat="43.3180360" lon="-2.0204380">
        <ele>171.8</ele>
        <time>2022-11-27T08:54:38Z</time>
      </trkpt>
      <trkpt lat="43.3180110" lon="-2.0204620">
        <ele>172.2</ele>
        <time>2022-11-27T08:54:39Z</time>
      </trkpt>
      <trkpt lat="43.3179870" lon="-2.0204840">
        <ele>172.4</ele>
        <time>2022-11-27T08:54:40Z</time>
      </trkpt>
      <trkpt lat="43.3179640" lon="-2.0205090">
        <ele>172.6</ele>
        <time>2022-11-27T08:54:41Z</time>
      </trkpt>
      <trkpt lat="43.3179400" lon="-2.0205330">
        <ele>172.8</ele>
        <time>2022-11-27T08:54:42Z</time>
      </trkpt>
      <trkpt lat="43.3179150" lon="-2.0205550">
        <ele>173.2</ele>
        <time>2022-11-27T08:54:43Z</time>
      </trkpt>
      <trkpt lat="43.3178920" lon="-2.0205790">
        <ele>173.6</ele>
        <time>2022-11-27T08:54:44Z</time>
      </trkpt>
      <trkpt lat="43.3178690" lon="-2.0206040">
        <ele>173.8</ele>
        <time>2022-11-27T08:54:45Z</time>
      </trkpt>
      <trkpt lat="43.3178470" lon="-2.0206290">
        <ele>173.8</ele>
        <time>2022-11-27T08:54:46Z</time>
      </trkpt>
      <trkpt lat="43.3178240" lon="-2.0206530">
        <ele>174.0</ele>
        <time>2022-11-27T08:54:47Z</time>
      </trkpt>
      <trkpt lat="43.3178010" lon="-2.0206750">
        <ele>174.0</ele>
        <time>2022-11-27T08:54:48Z</time>
      </trkpt>
      <trkpt lat="43.3177770" lon="-2.0206980">
        <ele>174.2</ele>
        <time>2022-11-27T08:54:49Z</time>
      </trkpt>
      <trkpt lat="43.3177550" lon="-2.0207200">
        <ele>174.4</ele>
        <time>2022-11-27T08:54:50Z</time>
      </trkpt>
      <trkpt lat="43.3177330" lon="-2.0207430">
        <ele>174.6</ele>
        <time>2022-11-27T08:54:51Z</time>
      </trkpt>
      <trkpt lat="43.3177110" lon="-2.0207680">
        <ele>174.8</ele>
        <time>2022-11-27T08:54:52Z</time>
      </trkpt>
      <trkpt lat="43.3176900" lon="-2.0207920">
        <ele>175.2</ele>
        <time>2022-11-27T08:54:53Z</time>
      </trkpt>
      <trkpt lat="43.3176670" lon="-2.0208140">
        <ele>175.4</ele>
        <time>2022-11-27T08:54:54Z</time>
      </trkpt>
      <trkpt lat="43.3176450" lon="-2.0208350">
        <ele>175.6</ele>
        <time>2022-11-27T08:54:55Z</time>
      </trkpt>
      <trkpt lat="43.3176210" lon="-2.0208570">
        <ele>176.0</ele>
        <time>2022-11-27T08:54:56Z</time>
      </trkpt>
      <trkpt lat="43.3175960" lon="-2.0208800">
        <ele>176.2</ele>
        <time>2022-11-27T08:54:57Z</time>
      </trkpt>
      <trkpt lat="43.3175690" lon="-2.0209000">
        <ele>176.4</ele>
        <time>2022-11-27T08:54:58Z</time>
      </trkpt>
      <trkpt lat="43.3175420" lon="-2.0209210">
        <ele>176.6</ele>
        <time>2022-11-27T08:54:59Z</time>
      </trkpt>
      <trkpt lat="43.3175160" lon="-2.0209440">
        <ele>176.8</ele>
        <time>2022-11-27T08:55:00Z</time>
      </trkpt>
      <trkpt lat="43.3174910" lon="-2.0209660">
        <ele>177.0</ele>
        <time>2022-11-27T08:55:01Z</time>
      </trkpt>
      <trkpt lat="43.3174670" lon="-2.0209880">
        <ele>177.2</ele>
        <time>2022-11-27T08:55:02Z</time>
      </trkpt>
      <trkpt lat="43.3174420" lon="-2.0210070">
        <ele>177.4</ele>
        <time>2022-11-27T08:55:03Z</time>
      </trkpt>
      <trkpt lat="43.3174160" lon="-2.0210240">
        <ele>177.8</ele>
        <time>2022-11-27T08:55:04Z</time>
      </trkpt>
      <trkpt lat="43.3173910" lon="-2.0210390">
        <ele>178.0</ele>
        <time>2022-11-27T08:55:05Z</time>
      </trkpt>
      <trkpt lat="43.3173640" lon="-2.0210520">
        <ele>178.4</ele>
        <time>2022-11-27T08:55:06Z</time>
      </trkpt>
      <trkpt lat="43.3173370" lon="-2.0210640">
        <ele>178.6</ele>
        <time>2022-11-27T08:55:07Z</time>
      </trkpt>
      <trkpt lat="43.3173100" lon="-2.0210750">
        <ele>179.0</ele>
        <time>2022-11-27T08:55:08Z</time>
      </trkpt>
      <trkpt lat="43.3172820" lon="-2.0210860">
        <ele>179.4</ele>
        <time>2022-11-27T08:55:09Z</time>
      </trkpt>
      <trkpt lat="43.3172550" lon="-2.0210980">
        <ele>179.6</ele>
        <time>2022-11-27T08:55:10Z</time>
      </trkpt>
      <trkpt lat="43.3172290" lon="-2.0211100">
        <ele>179.8</ele>
        <time>2022-11-27T08:55:11Z</time>
      </trkpt>
      <trkpt lat="43.3172020" lon="-2.0211210">
        <ele>180.0</ele>
        <time>2022-11-27T08:55:12Z</time>
      </trkpt>
      <trkpt lat="43.3171760" lon="-2.0211350">
        <ele>180.0</ele>
        <time>2022-11-27T08:55:13Z</time>
      </trkpt>
      <trkpt lat="43.3171490" lon="-2.0211500">
        <ele>180.2</ele>
        <time>2022-11-27T08:55:14Z</time>
      </trkpt>
      <trkpt lat="43.3171220" lon="-2.0211640">
        <ele>180.6</ele>
        <time>2022-11-27T08:55:15Z</time>
      </trkpt>
      <trkpt lat="43.3170940" lon="-2.0211780">
        <ele>180.8</ele>
        <time>2022-11-27T08:55:16Z</time>
      </trkpt>
      <trkpt lat="43.3170660" lon="-2.0211900">
        <ele>181.0</ele>
        <time>2022-11-27T08:55:17Z</time>
      </trkpt>
      <trkpt lat="43.3170390" lon="-2.0212030">
        <ele>181.2</ele>
        <time>2022-11-27T08:55:18Z</time>
      </trkpt>
      <trkpt lat="43.3170130" lon="-2.0212150">
        <ele>181.4</ele>
        <time>2022-11-27T08:55:19Z</time>
      </trkpt>
      <trkpt lat="43.3169840" lon="-2.0212290">
        <ele>181.6</ele>
        <time>2022-11-27T08:55:20Z</time>
      </trkpt>
      <trkpt lat="43.3169580" lon="-2.0212440">
        <ele>181.8</ele>
        <time>2022-11-27T08:55:21Z</time>
      </trkpt>
      <trkpt lat="43.3169320" lon="-2.0212580">
        <ele>182.2</ele>
        <time>2022-11-27T08:55:22Z</time>
      </trkpt>
      <trkpt lat="43.3169040" lon="-2.0212730">
        <ele>182.4</ele>
        <time>2022-11-27T08:55:23Z</time>
      </trkpt>
      <trkpt lat="43.3168740" lon="-2.0212870">
        <ele>182.4</ele>
        <time>2022-11-27T08:55:24Z</time>
      </trkpt>
      <trkpt lat="43.3168450" lon="-2.0213020">
        <ele>182.8</ele>
        <time>2022-11-27T08:55:25Z</time>
      </trkpt>
      <trkpt lat="43.3168180" lon="-2.0213190">
        <ele>183.0</ele>
        <time>2022-11-27T08:55:26Z</time>
      </trkpt>
      <trkpt lat="43.3167920" lon="-2.0213370">
        <ele>183.4</ele>
        <time>2022-11-27T08:55:27Z</time>
      </trkpt>
      <trkpt lat="43.3167670" lon="-2.0213550">
        <ele>183.6</ele>
        <time>2022-11-27T08:55:28Z</time>
      </trkpt>
      <trkpt lat="43.3167430" lon="-2.0213760">
        <ele>184.0</ele>
        <time>2022-11-27T08:55:29Z</time>
      </trkpt>
      <trkpt lat="43.3167180" lon="-2.0213970">
        <ele>184.4</ele>
        <time>2022-11-27T08:55:30Z</time>
      </trkpt>
      <trkpt lat="43.3166920" lon="-2.0214210">
        <ele>184.6</ele>
        <time>2022-11-27T08:55:31Z</time>
      </trkpt>
      <trkpt lat="43.3166680" lon="-2.0214500">
        <ele>184.8</ele>
        <time>2022-11-27T08:55:32Z</time>
      </trkpt>
      <trkpt lat="43.3166480" lon="-2.0214790">
        <ele>185.0</ele>
        <time>2022-11-27T08:55:33Z</time>
      </trkpt>
      <trkpt lat="43.3166280" lon="-2.0215060">
        <ele>185.2</ele>
        <time>2022-11-27T08:55:34Z</time>
      </trkpt>
      <trkpt lat="43.3166100" lon="-2.0215370">
        <ele>185.4</ele>
        <time>2022-11-27T08:55:35Z</time>
      </trkpt>
      <trkpt lat="43.3165930" lon="-2.0215710">
        <ele>185.6</ele>
        <time>2022-11-27T08:55:36Z</time>
      </trkpt>
      <trkpt lat="43.3165760" lon="-2.0216070">
        <ele>186.0</ele>
        <time>2022-11-27T08:55:37Z</time>
      </trkpt>
      <trkpt lat="43.3165610" lon="-2.0216440">
        <ele>186.2</ele>
        <time>2022-11-27T08:55:38Z</time>
      </trkpt>
      <trkpt lat="43.3165450" lon="-2.0216820">
        <ele>186.2</ele>
        <time>2022-11-27T08:55:39Z</time>
      </trkpt>
      <trkpt lat="43.3165300" lon="-2.0217200">
        <ele>186.8</ele>
        <time>2022-11-27T08:55:40Z</time>
      </trkpt>
      <trkpt lat="43.3165160" lon="-2.0217580">
        <ele>186.8</ele>
        <time>2022-11-27T08:55:41Z</time>
      </trkpt>
      <trkpt lat="43.3165000" lon="-2.0217960">
        <ele>187.2</ele>
        <time>2022-11-27T08:55:42Z</time>
      </trkpt>
      <trkpt lat="43.3164860" lon="-2.0218350">
        <ele>187.4</ele>
        <time>2022-11-27T08:55:43Z</time>
      </trkpt>
      <trkpt lat="43.3164730" lon="-2.0218730">
        <ele>187.8</ele>
        <time>2022-11-27T08:55:44Z</time>
      </trkpt>
      <trkpt lat="43.3164610" lon="-2.0219130">
        <ele>188.2</ele>
        <time>2022-11-27T08:55:45Z</time>
      </trkpt>
      <trkpt lat="43.3164500" lon="-2.0219550">
        <ele>188.4</ele>
        <time>2022-11-27T08:55:46Z</time>
      </trkpt>
      <trkpt lat="43.3164390" lon="-2.0219950">
        <ele>188.8</ele>
        <time>2022-11-27T08:55:47Z</time>
      </trkpt>
      <trkpt lat="43.3164290" lon="-2.0220350">
        <ele>189.0</ele>
        <time>2022-11-27T08:55:48Z</time>
      </trkpt>
      <trkpt lat="43.3164190" lon="-2.0220750">
        <ele>189.2</ele>
        <time>2022-11-27T08:55:49Z</time>
      </trkpt>
      <trkpt lat="43.3164090" lon="-2.0221160">
        <ele>189.6</ele>
        <time>2022-11-27T08:55:50Z</time>
      </trkpt>
      <trkpt lat="43.3164000" lon="-2.0221560">
        <ele>189.8</ele>
        <time>2022-11-27T08:55:51Z</time>
      </trkpt>
      <trkpt lat="43.3163900" lon="-2.0221970">
        <ele>190.0</ele>
        <time>2022-11-27T08:55:52Z</time>
      </trkpt>
      <trkpt lat="43.3163790" lon="-2.0222370">
        <ele>190.2</ele>
        <time>2022-11-27T08:55:53Z</time>
      </trkpt>
      <trkpt lat="43.3163690" lon="-2.0222780">
        <ele>190.4</ele>
        <time>2022-11-27T08:55:54Z</time>
      </trkpt>
      <trkpt lat="43.3163600" lon="-2.0223200">
        <ele>190.6</ele>
        <time>2022-11-27T08:55:55Z</time>
      </trkpt>
      <trkpt lat="43.3163500" lon="-2.0223610">
        <ele>190.8</ele>
        <time>2022-11-27T08:55:56Z</time>
      </trkpt>
      <trkpt lat="43.3163370" lon="-2.0224030">
        <ele>191.0</ele>
        <time>2022-11-27T08:55:57Z</time>
      </trkpt>
      <trkpt lat="43.3163250" lon="-2.0224450">
        <ele>191.2</ele>
        <time>2022-11-27T08:55:58Z</time>
      </trkpt>
      <trkpt lat="43.3163150" lon="-2.0224870">
        <ele>191.4</ele>
        <time>2022-11-27T08:55:59Z</time>
      </trkpt>
      <trkpt lat="43.3163030" lon="-2.0225290">
        <ele>191.6</ele>
        <time>2022-11-27T08:56:00Z</time>
      </trkpt>
      <trkpt lat="43.3162910" lon="-2.0225710">
        <ele>191.8</ele>
        <time>2022-11-27T08:56:01Z</time>
      </trkpt>
      <trkpt lat="43.3162760" lon="-2.0226110">
        <ele>192.2</ele>
        <time>2022-11-27T08:56:02Z</time>
      </trkpt>
      <trkpt lat="43.3162630" lon="-2.0226520">
        <ele>192.4</ele>
        <time>2022-11-27T08:56:03Z</time>
      </trkpt>
      <trkpt lat="43.3162500" lon="-2.0226930">
        <ele>192.6</ele>
        <time>2022-11-27T08:56:04Z</time>
      </trkpt>
      <trkpt lat="43.3162380" lon="-2.0227350">
        <ele>192.8</ele>
        <time>2022-11-27T08:56:05Z</time>
      </trkpt>
      <trkpt lat="43.3162260" lon="-2.0227780">
        <ele>193.0</ele>
        <time>2022-11-27T08:56:06Z</time>
      </trkpt>
      <trkpt lat="43.3162120" lon="-2.0228210">
        <ele>193.0</ele>
        <time>2022-11-27T08:56:07Z</time>
      </trkpt>
      <trkpt lat="43.3161990" lon="-2.0228620">
        <ele>193.4</ele>
        <time>2022-11-27T08:56:08Z</time>
      </trkpt>
      <trkpt lat="43.3161850" lon="-2.0229020">
        <ele>193.6</ele>
        <time>2022-11-27T08:56:09Z</time>
      </trkpt>
      <trkpt lat="43.3161710" lon="-2.0229400">
        <ele>193.8</ele>
        <time>2022-11-27T08:56:10Z</time>
      </trkpt>
      <trkpt lat="43.3161540" lon="-2.0229770">
        <ele>194.0</ele>
        <time>2022-11-27T08:56:11Z</time>
      </trkpt>
      <trkpt lat="43.3161370" lon="-2.0230150">
        <ele>194.2</ele>
        <time>2022-11-27T08:56:12Z</time>
      </trkpt>
      <trkpt lat="43.3161190" lon="-2.0230520">
        <ele>194.4</ele>
        <time>2022-11-27T08:56:13Z</time>
      </trkpt>
      <trkpt lat="43.3160990" lon="-2.0230850">
        <ele>194.6</ele>
        <time>2022-11-27T08:56:14Z</time>
      </trkpt>
      <trkpt lat="43.3160760" lon="-2.0231140">
        <ele>194.8</ele>
        <time>2022-11-27T08:56:15Z</time>
      </trkpt>
      <trkpt lat="43.3160510" lon="-2.0231380">
        <ele>194.8</ele>
        <time>2022-11-27T08:56:16Z</time>
      </trkpt>
      <trkpt lat="43.3160250" lon="-2.0231610">
        <ele>195.2</ele>
        <time>2022-11-27T08:56:17Z</time>
      </trkpt>
      <trkpt lat="43.3159990" lon="-2.0231830">
        <ele>195.6</ele>
        <time>2022-11-27T08:56:18Z</time>
      </trkpt>
      <trkpt lat="43.3159710" lon="-2.0232040">
        <ele>195.6</ele>
        <time>2022-11-27T08:56:19Z</time>
      </trkpt>
      <trkpt lat="43.3159430" lon="-2.0232230">
        <ele>195.8</ele>
        <time>2022-11-27T08:56:20Z</time>
      </trkpt>
      <trkpt lat="43.3159150" lon="-2.0232440">
        <ele>195.8</ele>
        <time>2022-11-27T08:56:21Z</time>
      </trkpt>
      <trkpt lat="43.3158860" lon="-2.0232650">
        <ele>196.2</ele>
        <time>2022-11-27T08:56:22Z</time>
      </trkpt>
      <trkpt lat="43.3158570" lon="-2.0232890">
        <ele>196.4</ele>
        <time>2022-11-27T08:56:23Z</time>
      </trkpt>
      <trkpt lat="43.3158290" lon="-2.0233160">
        <ele>196.6</ele>
        <time>2022-11-27T08:56:24Z</time>
      </trkpt>
      <trkpt lat="43.3158000" lon="-2.0233440">
        <ele>196.8</ele>
        <time>2022-11-27T08:56:25Z</time>
      </trkpt>
      <trkpt lat="43.3157710" lon="-2.0233740">
        <ele>197.0</ele>
        <time>2022-11-27T08:56:26Z</time>
      </trkpt>
      <trkpt lat="43.3157430" lon="-2.0234060">
        <ele>197.0</ele>
        <time>2022-11-27T08:56:27Z</time>
      </trkpt>
      <trkpt lat="43.3157150" lon="-2.0234400">
        <ele>197.2</ele>
        <time>2022-11-27T08:56:28Z</time>
      </trkpt>
      <trkpt lat="43.3156860" lon="-2.0234750">
        <ele>197.4</ele>
        <time>2022-11-27T08:56:29Z</time>
      </trkpt>
      <trkpt lat="43.3156580" lon="-2.0235100">
        <ele>197.6</ele>
        <time>2022-11-27T08:56:30Z</time>
      </trkpt>
      <trkpt lat="43.3156310" lon="-2.0235470">
        <ele>198.0</ele>
        <time>2022-11-27T08:56:31Z</time>
      </trkpt>
      <trkpt lat="43.3156060" lon="-2.0235870">
        <ele>198.4</ele>
        <time>2022-11-27T08:56:32Z</time>
      </trkpt>
      <trkpt lat="43.3155840" lon="-2.0236290">
        <ele>198.6</ele>
        <time>2022-11-27T08:56:33Z</time>
      </trkpt>
      <trkpt lat="43.3155640" lon="-2.0236730">
        <ele>198.8</ele>
        <time>2022-11-27T08:56:34Z</time>
      </trkpt>
      <trkpt lat="43.3155440" lon="-2.0237180">
        <ele>199.0</ele>
        <time>2022-11-27T08:56:35Z</time>
      </trkpt>
      <trkpt lat="43.3155250" lon="-2.0237630">
        <ele>199.6</ele>
        <time>2022-11-27T08:56:36Z</time>
      </trkpt>
      <trkpt lat="43.3155060" lon="-2.0238100">
        <ele>200.2</ele>
        <time>2022-11-27T08:56:37Z</time>
      </trkpt>
      <trkpt lat="43.3154900" lon="-2.0238600">
        <ele>200.2</ele>
        <time>2022-11-27T08:56:38Z</time>
      </trkpt>
      <trkpt lat="43.3154750" lon="-2.0239110">
        <ele>200.6</ele>
        <time>2022-11-27T08:56:39Z</time>
      </trkpt>
      <trkpt lat="43.3154640" lon="-2.0239630">
        <ele>201.0</ele>
        <time>2022-11-27T08:56:40Z</time>
      </trkpt>
      <trkpt lat="43.3154540" lon="-2.0240150">
        <ele>201.2</ele>
        <time>2022-11-27T08:56:41Z</time>
      </trkpt>
      <trkpt lat="43.3154430" lon="-2.0240670">
        <ele>201.4</ele>
        <time>2022-11-27T08:56:42Z</time>
      </trkpt>
      <trkpt lat="43.3154340" lon="-2.0241200">
        <ele>201.6</ele>
        <time>2022-11-27T08:56:43Z</time>
      </trkpt>
      <trkpt lat="43.3154250" lon="-2.0241710">
        <ele>201.6</ele>
        <time>2022-11-27T08:56:44Z</time>
      </trkpt>
      <trkpt lat="43.3154140" lon="-2.0242210">
        <ele>201.8</ele>
        <time>2022-11-27T08:56:45Z</time>
      </trkpt>
      <trkpt lat="43.3154050" lon="-2.0242720">
        <ele>201.8</ele>
        <time>2022-11-27T08:56:46Z</time>
      </trkpt>
      <trkpt lat="43.3153950" lon="-2.0243240">
        <ele>202.0</ele>
        <time>2022-11-27T08:56:47Z</time>
      </trkpt>
      <trkpt lat="43.3153820" lon="-2.0243740">
        <ele>202.2</ele>
        <time>2022-11-27T08:56:48Z</time>
      </trkpt>
      <trkpt lat="43.3153690" lon="-2.0244250">
        <ele>202.6</ele>
        <time>2022-11-27T08:56:49Z</time>
      </trkpt>
      <trkpt lat="43.3153570" lon="-2.0244760">
        <ele>202.8</ele>
        <time>2022-11-27T08:56:50Z</time>
      </trkpt>
      <trkpt lat="43.3153460" lon="-2.0245280">
        <ele>203.0</ele>
        <time>2022-11-27T08:56:51Z</time>
      </trkpt>
      <trkpt lat="43.3153350" lon="-2.0245800">
        <ele>203.2</ele>
        <time>2022-11-27T08:56:52Z</time>
      </trkpt>
      <trkpt lat="43.3153230" lon="-2.0246310">
        <ele>203.4</ele>
        <time>2022-11-27T08:56:53Z</time>
      </trkpt>
      <trkpt lat="43.3153120" lon="-2.0246830">
        <ele>203.8</ele>
        <time>2022-11-27T08:56:54Z</time>
      </trkpt>
      <trkpt lat="43.3152990" lon="-2.0247350">
        <ele>203.8</ele>
        <time>2022-11-27T08:56:55Z</time>
      </trkpt>
      <trkpt lat="43.3152870" lon="-2.0247890">
        <ele>204.0</ele>
        <time>2022-11-27T08:56:56Z</time>
      </trkpt>
      <trkpt lat="43.3152750" lon="-2.0248410">
        <ele>204.0</ele>
        <time>2022-11-27T08:56:57Z</time>
      </trkpt>
      <trkpt lat="43.3152650" lon="-2.0248940">
        <ele>204.2</ele>
        <time>2022-11-27T08:56:58Z</time>
      </trkpt>
      <trkpt lat="43.3152520" lon="-2.0249450">
        <ele>204.4</ele>
        <time>2022-11-27T08:56:59Z</time>
      </trkpt>
      <trkpt lat="43.3152400" lon="-2.0249970">
        <ele>204.6</ele>
        <time>2022-11-27T08:57:00Z</time>
      </trkpt>
      <trkpt lat="43.3152290" lon="-2.0250480">
        <ele>205.0</ele>
        <time>2022-11-27T08:57:01Z</time>
      </trkpt>
      <trkpt lat="43.3152180" lon="-2.0250980">
        <ele>205.2</ele>
        <time>2022-11-27T08:57:02Z</time>
      </trkpt>
      <trkpt lat="43.3152050" lon="-2.0251490">
        <ele>205.4</ele>
        <time>2022-11-27T08:57:03Z</time>
      </trkpt>
      <trkpt lat="43.3151920" lon="-2.0252020">
        <ele>205.6</ele>
        <time>2022-11-27T08:57:04Z</time>
      </trkpt>
      <trkpt lat="43.3151820" lon="-2.0252540">
        <ele>206.0</ele>
        <time>2022-11-27T08:57:05Z</time>
      </trkpt>
      <trkpt lat="43.3151710" lon="-2.0253050">
        <ele>206.2</ele>
        <time>2022-11-27T08:57:06Z</time>
      </trkpt>
      <trkpt lat="43.3151600" lon="-2.0253570">
        <ele>206.4</ele>
        <time>2022-11-27T08:57:07Z</time>
      </trkpt>
      <trkpt lat="43.3151500" lon="-2.0254100">
        <ele>206.6</ele>
        <time>2022-11-27T08:57:08Z</time>
      </trkpt>
      <trkpt lat="43.3151390" lon="-2.0254630">
        <ele>206.6</ele>
        <time>2022-11-27T08:57:09Z</time>
      </trkpt>
      <trkpt lat="43.3151270" lon="-2.0255160">
        <ele>206.8</ele>
        <time>2022-11-27T08:57:10Z</time>
      </trkpt>
      <trkpt lat="43.3151150" lon="-2.0255680">
        <ele>206.8</ele>
        <time>2022-11-27T08:57:11Z</time>
      </trkpt>
      <trkpt lat="43.3151040" lon="-2.0256210">
        <ele>207.0</ele>
        <time>2022-11-27T08:57:12Z</time>
      </trkpt>
      <trkpt lat="43.3150910" lon="-2.0256720">
        <ele>207.2</ele>
        <time>2022-11-27T08:57:13Z</time>
      </trkpt>
      <trkpt lat="43.3150790" lon="-2.0257240">
        <ele>207.2</ele>
        <time>2022-11-27T08:57:14Z</time>
      </trkpt>
      <trkpt lat="43.3150680" lon="-2.0257760">
        <ele>207.4</ele>
        <time>2022-11-27T08:57:15Z</time>
      </trkpt>
      <trkpt lat="43.3150560" lon="-2.0258270">
        <ele>207.6</ele>
        <time>2022-11-27T08:57:16Z</time>
      </trkpt>
      <trkpt lat="43.3150410" lon="-2.0258770">
        <ele>207.8</ele>
        <time>2022-11-27T08:57:17Z</time>
      </trkpt>
      <trkpt lat="43.3150250" lon="-2.0259270">
        <ele>207.8</ele>
        <time>2022-11-27T08:57:18Z</time>
      </trkpt>
      <trkpt lat="43.3150070" lon="-2.0259750">
        <ele>208.2</ele>
        <time>2022-11-27T08:57:19Z</time>
      </trkpt>
      <trkpt lat="43.3149870" lon="-2.0260220">
        <ele>208.2</ele>
        <time>2022-11-27T08:57:20Z</time>
      </trkpt>
      <trkpt lat="43.3149670" lon="-2.0260710">
        <ele>208.2</ele>
        <time>2022-11-27T08:57:21Z</time>
      </trkpt>
      <trkpt lat="43.3149470" lon="-2.0261200">
        <ele>208.4</ele>
        <time>2022-11-27T08:57:22Z</time>
      </trkpt>
      <trkpt lat="43.3149230" lon="-2.0261680">
        <ele>208.6</ele>
        <time>2022-11-27T08:57:23Z</time>
      </trkpt>
      <trkpt lat="43.3148980" lon="-2.0262150">
        <ele>208.8</ele>
        <time>2022-11-27T08:57:24Z</time>
      </trkpt>
      <trkpt lat="43.3148740" lon="-2.0262640">
        <ele>209.0</ele>
        <time>2022-11-27T08:57:25Z</time>
      </trkpt>
      <trkpt lat="43.3148480" lon="-2.0263120">
        <ele>209.2</ele>
        <time>2022-11-27T08:57:26Z</time>
      </trkpt>
      <trkpt lat="43.3148220" lon="-2.0263580">
        <ele>209.4</ele>
        <time>2022-11-27T08:57:27Z</time>
      </trkpt>
      <trkpt lat="43.3147970" lon="-2.0264070">
        <ele>209.4</ele>
        <time>2022-11-27T08:57:28Z</time>
      </trkpt>
      <trkpt lat="43.3147740" lon="-2.0264580">
        <ele>209.6</ele>
        <time>2022-11-27T08:57:29Z</time>
      </trkpt>
      <trkpt lat="43.3147500" lon="-2.0265100">
        <ele>209.6</ele>
        <time>2022-11-27T08:57:30Z</time>
      </trkpt>
      <trkpt lat="43.3147270" lon="-2.0265610">
        <ele>209.6</ele>
        <time>2022-11-27T08:57:31Z</time>
      </trkpt>
      <trkpt lat="43.3147020" lon="-2.0266140">
        <ele>209.8</ele>
        <time>2022-11-27T08:57:32Z</time>
      </trkpt>
      <trkpt lat="43.3146780" lon="-2.0266670">
        <ele>210.0</ele>
        <time>2022-11-27T08:57:33Z</time>
      </trkpt>
      <trkpt lat="43.3146550" lon="-2.0267190">
        <ele>210.0</ele>
        <time>2022-11-27T08:57:34Z</time>
      </trkpt>
      <trkpt lat="43.3146300" lon="-2.0267700">
        <ele>210.0</ele>
        <time>2022-11-27T08:57:35Z</time>
      </trkpt>
      <trkpt lat="43.3146040" lon="-2.0268200">
        <ele>210.2</ele>
        <time>2022-11-27T08:57:36Z</time>
      </trkpt>
      <trkpt lat="43.3145810" lon="-2.0268700">
        <ele>210.6</ele>
        <time>2022-11-27T08:57:37Z</time>
      </trkpt>
      <trkpt lat="43.3145560" lon="-2.0269190">
        <ele>210.8</ele>
        <time>2022-11-27T08:57:38Z</time>
      </trkpt>
      <trkpt lat="43.3145300" lon="-2.0269680">
        <ele>210.8</ele>
        <time>2022-11-27T08:57:39Z</time>
      </trkpt>
      <trkpt lat="43.3145060" lon="-2.0270170">
        <ele>211.0</ele>
        <time>2022-11-27T08:57:40Z</time>
      </trkpt>
      <trkpt lat="43.3144850" lon="-2.0270680">
        <ele>211.2</ele>
        <time>2022-11-27T08:57:41Z</time>
      </trkpt>
      <trkpt lat="43.3144630" lon="-2.0271180">
        <ele>211.6</ele>
        <time>2022-11-27T08:57:42Z</time>
      </trkpt>
      <trkpt lat="43.3144400" lon="-2.0271660">
        <ele>211.8</ele>
        <time>2022-11-27T08:57:43Z</time>
      </trkpt>
      <trkpt lat="43.3144160" lon="-2.0272150">
        <ele>212.2</ele>
        <time>2022-11-27T08:57:44Z</time>
      </trkpt>
      <trkpt lat="43.3143920" lon="-2.0272650">
        <ele>212.4</ele>
        <time>2022-11-27T08:57:45Z</time>
      </trkpt>
      <trkpt lat="43.3143670" lon="-2.0273150">
        <ele>212.6</ele>
        <time>2022-11-27T08:57:46Z</time>
      </trkpt>
      <trkpt lat="43.3143420" lon="-2.0273660">
        <ele>212.8</ele>
        <time>2022-11-27T08:57:47Z</time>
      </trkpt>
      <trkpt lat="43.3143160" lon="-2.0274170">
        <ele>213.0</ele>
        <time>2022-11-27T08:57:48Z</time>
      </trkpt>
      <trkpt lat="43.3142890" lon="-2.0274660">
        <ele>213.2</ele>
        <time>2022-11-27T08:57:49Z</time>
      </trkpt>
      <trkpt lat="43.3142650" lon="-2.0275160">
        <ele>213.4</ele>
        <time>2022-11-27T08:57:50Z</time>
      </trkpt>
      <trkpt lat="43.3142420" lon="-2.0275680">
        <ele>213.4</ele>
        <time>2022-11-27T08:57:51Z</time>
      </trkpt>
      <trkpt lat="43.3142180" lon="-2.0276200">
        <ele>213.6</ele>
        <time>2022-11-27T08:57:52Z</time>
      </trkpt>
      <trkpt lat="43.3141950" lon="-2.0276730">
        <ele>213.6</ele>
        <time>2022-11-27T08:57:53Z</time>
      </trkpt>
      <trkpt lat="43.3141710" lon="-2.0277250">
        <ele>213.8</ele>
        <time>2022-11-27T08:57:54Z</time>
      </trkpt>
      <trkpt lat="43.3141490" lon="-2.0277760">
        <ele>213.8</ele>
        <time>2022-11-27T08:57:55Z</time>
      </trkpt>
      <trkpt lat="43.3141260" lon="-2.0278260">
        <ele>213.8</ele>
        <time>2022-11-27T08:57:56Z</time>
      </trkpt>
      <trkpt lat="43.3141010" lon="-2.0278740">
        <ele>214.0</ele>
        <time>2022-11-27T08:57:57Z</time>
      </trkpt>
      <trkpt lat="43.3140750" lon="-2.0279220">
        <ele>214.0</ele>
        <time>2022-11-27T08:57:58Z</time>
      </trkpt>
      <trkpt lat="43.3140510" lon="-2.0279700">
        <ele>214.2</ele>
        <time>2022-11-27T08:57:59Z</time>
      </trkpt>
      <trkpt lat="43.3140310" lon="-2.0280210">
        <ele>214.4</ele>
        <time>2022-11-27T08:58:00Z</time>
      </trkpt>
      <trkpt lat="43.3140110" lon="-2.0280710">
        <ele>214.6</ele>
        <time>2022-11-27T08:58:01Z</time>
      </trkpt>
      <trkpt lat="43.3139870" lon="-2.0281190">
        <ele>214.8</ele>
        <time>2022-11-27T08:58:02Z</time>
      </trkpt>
      <trkpt lat="43.3139630" lon="-2.0281650">
        <ele>215.0</ele>
        <time>2022-11-27T08:58:03Z</time>
      </trkpt>
      <trkpt lat="43.3139370" lon="-2.0282100">
        <ele>215.2</ele>
        <time>2022-11-27T08:58:04Z</time>
      </trkpt>
      <trkpt lat="43.3139090" lon="-2.0282540">
        <ele>215.6</ele>
        <time>2022-11-27T08:58:05Z</time>
      </trkpt>
      <trkpt lat="43.3138830" lon="-2.0283000">
        <ele>215.8</ele>
        <time>2022-11-27T08:58:06Z</time>
      </trkpt>
      <trkpt lat="43.3138560" lon="-2.0283450">
        <ele>216.0</ele>
        <time>2022-11-27T08:58:07Z</time>
      </trkpt>
      <trkpt lat="43.3138280" lon="-2.0283890">
        <ele>216.0</ele>
        <time>2022-11-27T08:58:08Z</time>
      </trkpt>
      <trkpt lat="43.3138000" lon="-2.0284320">
        <ele>216.0</ele>
        <time>2022-11-27T08:58:09Z</time>
      </trkpt>
      <trkpt lat="43.3137710" lon="-2.0284720">
        <ele>216.0</ele>
        <time>2022-11-27T08:58:10Z</time>
      </trkpt>
      <trkpt lat="43.3137410" lon="-2.0285100">
        <ele>216.0</ele>
        <time>2022-11-27T08:58:11Z</time>
      </trkpt>
      <trkpt lat="43.3137100" lon="-2.0285470">
        <ele>216.2</ele>
        <time>2022-11-27T08:58:12Z</time>
      </trkpt>
      <trkpt lat="43.3136800" lon="-2.0285860">
        <ele>216.2</ele>
        <time>2022-11-27T08:58:13Z</time>
      </trkpt>
      <trkpt lat="43.3136510" lon="-2.0286230">
        <ele>216.2</ele>
        <time>2022-11-27T08:58:14Z</time>
      </trkpt>
      <trkpt lat="43.3136210" lon="-2.0286600">
        <ele>216.4</ele>
        <time>2022-11-27T08:58:15Z</time>
      </trkpt>
      <trkpt lat="43.3135920" lon="-2.0286960">
        <ele>216.6</ele>
        <time>2022-11-27T08:58:16Z</time>
      </trkpt>
      <trkpt lat="43.3135650" lon="-2.0287350">
        <ele>216.8</ele>
        <time>2022-11-27T08:58:17Z</time>
      </trkpt>
      <trkpt lat="43.3135370" lon="-2.0287720">
        <ele>217.0</ele>
        <time>2022-11-27T08:58:18Z</time>
      </trkpt>
      <trkpt lat="43.3135080" lon="-2.0288100">
        <ele>217.2</ele>
        <time>2022-11-27T08:58:19Z</time>
      </trkpt>
      <trkpt lat="43.3134790" lon="-2.0288480">
        <ele>217.2</ele>
        <time>2022-11-27T08:58:20Z</time>
      </trkpt>
      <trkpt lat="43.3134510" lon="-2.0288870">
        <ele>217.6</ele>
        <time>2022-11-27T08:58:21Z</time>
      </trkpt>
      <trkpt lat="43.3134220" lon="-2.0289240">
        <ele>217.8</ele>
        <time>2022-11-27T08:58:22Z</time>
      </trkpt>
      <trkpt lat="43.3133910" lon="-2.0289580">
        <ele>218.2</ele>
        <time>2022-11-27T08:58:23Z</time>
      </trkpt>
      <trkpt lat="43.3133600" lon="-2.0289910">
        <ele>218.4</ele>
        <time>2022-11-27T08:58:24Z</time>
      </trkpt>
      <trkpt lat="43.3133310" lon="-2.0290270">
        <ele>218.6</ele>
        <time>2022-11-27T08:58:25Z</time>
      </trkpt>
      <trkpt lat="43.3133010" lon="-2.0290630">
        <ele>218.6</ele>
        <time>2022-11-27T08:58:26Z</time>
      </trkpt>
      <trkpt lat="43.3132720" lon="-2.0291000">
        <ele>218.8</ele>
        <time>2022-11-27T08:58:27Z</time>
      </trkpt>
      <trkpt lat="43.3132430" lon="-2.0291370">
        <ele>219.0</ele>
        <time>2022-11-27T08:58:28Z</time>
      </trkpt>
      <trkpt lat="43.3132140" lon="-2.0291720">
        <ele>219.2</ele>
        <time>2022-11-27T08:58:29Z</time>
      </trkpt>
      <trkpt lat="43.3131840" lon="-2.0292080">
        <ele>219.2</ele>
        <time>2022-11-27T08:58:30Z</time>
      </trkpt>
      <trkpt lat="43.3131540" lon="-2.0292430">
        <ele>219.4</ele>
        <time>2022-11-27T08:58:31Z</time>
      </trkpt>
      <trkpt lat="43.3131250" lon="-2.0292780">
        <ele>219.6</ele>
        <time>2022-11-27T08:58:32Z</time>
      </trkpt>
      <trkpt lat="43.3130970" lon="-2.0293120">
        <ele>220.0</ele>
        <time>2022-11-27T08:58:33Z</time>
      </trkpt>
      <trkpt lat="43.3130680" lon="-2.0293470">
        <ele>220.2</ele>
        <time>2022-11-27T08:58:34Z</time>
      </trkpt>
      <trkpt lat="43.3130390" lon="-2.0293840">
        <ele>220.2</ele>
        <time>2022-11-27T08:58:35Z</time>
      </trkpt>
      <trkpt lat="43.3130100" lon="-2.0294210">
        <ele>220.4</ele>
        <time>2022-11-27T08:58:36Z</time>
      </trkpt>
      <trkpt lat="43.3129800" lon="-2.0294610">
        <ele>220.6</ele>
        <time>2022-11-27T08:58:37Z</time>
      </trkpt>
      <trkpt lat="43.3129510" lon="-2.0295010">
        <ele>220.6</ele>
        <time>2022-11-27T08:58:38Z</time>
      </trkpt>
      <trkpt lat="43.3129210" lon="-2.0295410">
        <ele>220.8</ele>
        <time>2022-11-27T08:58:39Z</time>
      </trkpt>
      <trkpt lat="43.3128920" lon="-2.0295820">
        <ele>221.0</ele>
        <time>2022-11-27T08:58:40Z</time>
      </trkpt>
      <trkpt lat="43.3128640" lon="-2.0296220">
        <ele>221.2</ele>
        <time>2022-11-27T08:58:41Z</time>
      </trkpt>
      <trkpt lat="43.3128350" lon="-2.0296630">
        <ele>221.4</ele>
        <time>2022-11-27T08:58:42Z</time>
      </trkpt>
      <trkpt lat="43.3128070" lon="-2.0297030">
        <ele>221.6</ele>
        <time>2022-11-27T08:58:43Z</time>
      </trkpt>
      <trkpt lat="43.3127820" lon="-2.0297420">
        <ele>222.0</ele>
        <time>2022-11-27T08:58:44Z</time>
      </trkpt>
      <trkpt lat="43.3127580" lon="-2.0297830">
        <ele>222.4</ele>
        <time>2022-11-27T08:58:45Z</time>
      </trkpt>
      <trkpt lat="43.3127340" lon="-2.0298240">
        <ele>222.6</ele>
        <time>2022-11-27T08:58:46Z</time>
      </trkpt>
      <trkpt lat="43.3127100" lon="-2.0298660">
        <ele>222.8</ele>
        <time>2022-11-27T08:58:47Z</time>
      </trkpt>
      <trkpt lat="43.3126860" lon="-2.0299070">
        <ele>223.0</ele>
        <time>2022-11-27T08:58:48Z</time>
      </trkpt>
      <trkpt lat="43.3126620" lon="-2.0299480">
        <ele>223.2</ele>
        <time>2022-11-27T08:58:49Z</time>
      </trkpt>
      <trkpt lat="43.3126390" lon="-2.0299930">
        <ele>223.2</ele>
        <time>2022-11-27T08:58:50Z</time>
      </trkpt>
      <trkpt lat="43.3126150" lon="-2.0300370">
        <ele>223.4</ele>
        <time>2022-11-27T08:58:51Z</time>
      </trkpt>
      <trkpt lat="43.3125900" lon="-2.0300800">
        <ele>223.4</ele>
        <time>2022-11-27T08:58:52Z</time>
      </trkpt>
      <trkpt lat="43.3125670" lon="-2.0301240">
        <ele>223.8</ele>
        <time>2022-11-27T08:58:53Z</time>
      </trkpt>
      <trkpt lat="43.3125440" lon="-2.0301690">
        <ele>223.8</ele>
        <time>2022-11-27T08:58:54Z</time>
      </trkpt>
      <trkpt lat="43.3125210" lon="-2.0302160">
        <ele>224.2</ele>
        <time>2022-11-27T08:58:55Z</time>
      </trkpt>
      <trkpt lat="43.3124990" lon="-2.0302620">
        <ele>224.6</ele>
        <time>2022-11-27T08:58:56Z</time>
      </trkpt>
      <trkpt lat="43.3124750" lon="-2.0303090">
        <ele>224.8</ele>
        <time>2022-11-27T08:58:57Z</time>
      </trkpt>
      <trkpt lat="43.3124520" lon="-2.0303560">
        <ele>225.0</ele>
        <time>2022-11-27T08:58:58Z</time>
      </trkpt>
      <trkpt lat="43.3124290" lon="-2.0304020">
        <ele>225.0</ele>
        <time>2022-11-27T08:58:59Z</time>
      </trkpt>
      <trkpt lat="43.3124060" lon="-2.0304480">
        <ele>225.2</ele>
        <time>2022-11-27T08:59:00Z</time>
      </trkpt>
      <trkpt lat="43.3123840" lon="-2.0304940">
        <ele>225.4</ele>
        <time>2022-11-27T08:59:01Z</time>
      </trkpt>
      <trkpt lat="43.3123600" lon="-2.0305400">
        <ele>225.8</ele>
        <time>2022-11-27T08:59:02Z</time>
      </trkpt>
      <trkpt lat="43.3123370" lon="-2.0305870">
        <ele>226.0</ele>
        <time>2022-11-27T08:59:03Z</time>
      </trkpt>
      <trkpt lat="43.3123130" lon="-2.0306350">
        <ele>226.2</ele>
        <time>2022-11-27T08:59:04Z</time>
      </trkpt>
      <trkpt lat="43.3122880" lon="-2.0306830">
        <ele>226.4</ele>
        <time>2022-11-27T08:59:05Z</time>
      </trkpt>
      <trkpt lat="43.3122650" lon="-2.0307300">
        <ele>226.4</ele>
        <time>2022-11-27T08:59:06Z</time>
      </trkpt>
      <trkpt lat="43.3122420" lon="-2.0307800">
        <ele>226.4</ele>
        <time>2022-11-27T08:59:07Z</time>
      </trkpt>
      <trkpt lat="43.3122210" lon="-2.0308300">
        <ele>226.4</ele>
        <time>2022-11-27T08:59:08Z</time>
      </trkpt>
      <trkpt lat="43.3121990" lon="-2.0308790">
        <ele>226.6</ele>
        <time>2022-11-27T08:59:09Z</time>
      </trkpt>
      <trkpt lat="43.3121750" lon="-2.0309280">
        <ele>226.6</ele>
        <time>2022-11-27T08:59:10Z</time>
      </trkpt>
      <trkpt lat="43.3121520" lon="-2.0309730">
        <ele>226.8</ele>
        <time>2022-11-27T08:59:11Z</time>
      </trkpt>
      <trkpt lat="43.3121290" lon="-2.0310200">
        <ele>227.0</ele>
        <time>2022-11-27T08:59:12Z</time>
      </trkpt>
      <trkpt lat="43.3121070" lon="-2.0310670">
        <ele>227.2</ele>
        <time>2022-11-27T08:59:13Z</time>
      </trkpt>
      <trkpt lat="43.3120850" lon="-2.0311140">
        <ele>227.4</ele>
        <time>2022-11-27T08:59:14Z</time>
      </trkpt>
      <trkpt lat="43.3120650" lon="-2.0311630">
        <ele>227.4</ele>
        <time>2022-11-27T08:59:15Z</time>
      </trkpt>
      <trkpt lat="43.3120450" lon="-2.0312120">
        <ele>227.6</ele>
        <time>2022-11-27T08:59:16Z</time>
      </trkpt>
      <trkpt lat="43.3120240" lon="-2.0312600">
        <ele>227.6</ele>
        <time>2022-11-27T08:59:17Z</time>
      </trkpt>
      <trkpt lat="43.3120020" lon="-2.0313080">
        <ele>227.8</ele>
        <time>2022-11-27T08:59:18Z</time>
      </trkpt>
      <trkpt lat="43.3119800" lon="-2.0313540">
        <ele>227.8</ele>
        <time>2022-11-27T08:59:19Z</time>
      </trkpt>
      <trkpt lat="43.3119560" lon="-2.0314000">
        <ele>228.0</ele>
        <time>2022-11-27T08:59:20Z</time>
      </trkpt>
      <trkpt lat="43.3119320" lon="-2.0314450">
        <ele>228.2</ele>
        <time>2022-11-27T08:59:21Z</time>
      </trkpt>
      <trkpt lat="43.3119100" lon="-2.0314900">
        <ele>228.4</ele>
        <time>2022-11-27T08:59:22Z</time>
      </trkpt>
      <trkpt lat="43.3118890" lon="-2.0315370">
        <ele>228.4</ele>
        <time>2022-11-27T08:59:23Z</time>
      </trkpt>
      <trkpt lat="43.3118670" lon="-2.0315850">
        <ele>228.8</ele>
        <time>2022-11-27T08:59:24Z</time>
      </trkpt>
      <trkpt lat="43.3118420" lon="-2.0316300">
        <ele>229.0</ele>
        <time>2022-11-27T08:59:25Z</time>
      </trkpt>
      <trkpt lat="43.3118180" lon="-2.0316740">
        <ele>229.2</ele>
        <time>2022-11-27T08:59:26Z</time>
      </trkpt>
      <trkpt lat="43.3117960" lon="-2.0317210">
        <ele>229.4</ele>
        <time>2022-11-27T08:59:27Z</time>
      </trkpt>
      <trkpt lat="43.3117730" lon="-2.0317660">
        <ele>229.6</ele>
        <time>2022-11-27T08:59:28Z</time>
      </trkpt>
      <trkpt lat="43.3117500" lon="-2.0318110">
        <ele>229.8</ele>
        <time>2022-11-27T08:59:29Z</time>
      </trkpt>
      <trkpt lat="43.3117270" lon="-2.0318580">
        <ele>229.8</ele>
        <time>2022-11-27T08:59:30Z</time>
      </trkpt>
      <trkpt lat="43.3117050" lon="-2.0319060">
        <ele>230.0</ele>
        <time>2022-11-27T08:59:31Z</time>
      </trkpt>
      <trkpt lat="43.3116820" lon="-2.0319530">
        <ele>230.6</ele>
        <time>2022-11-27T08:59:32Z</time>
      </trkpt>
      <trkpt lat="43.3116600" lon="-2.0320000">
        <ele>230.8</ele>
        <time>2022-11-27T08:59:33Z</time>
      </trkpt>
      <trkpt lat="43.3116360" lon="-2.0320480">
        <ele>231.0</ele>
        <time>2022-11-27T08:59:34Z</time>
      </trkpt>
      <trkpt lat="43.3116130" lon="-2.0320940">
        <ele>231.0</ele>
        <time>2022-11-27T08:59:35Z</time>
      </trkpt>
      <trkpt lat="43.3115900" lon="-2.0321420">
        <ele>231.2</ele>
        <time>2022-11-27T08:59:36Z</time>
      </trkpt>
      <trkpt lat="43.3115670" lon="-2.0321910">
        <ele>231.2</ele>
        <time>2022-11-27T08:59:37Z</time>
      </trkpt>
      <trkpt lat="43.3115440" lon="-2.0322380">
        <ele>231.4</ele>
        <time>2022-11-27T08:59:38Z</time>
      </trkpt>
      <trkpt lat="43.3115200" lon="-2.0322870">
        <ele>231.6</ele>
        <time>2022-11-27T08:59:39Z</time>
      </trkpt>
      <trkpt lat="43.3114950" lon="-2.0323350">
        <ele>231.6</ele>
        <time>2022-11-27T08:59:40Z</time>
      </trkpt>
      <trkpt lat="43.3114690" lon="-2.0323830">
        <ele>231.8</ele>
        <time>2022-11-27T08:59:41Z</time>
      </trkpt>
      <trkpt lat="43.3114410" lon="-2.0324280">
        <ele>231.8</ele>
        <time>2022-11-27T08:59:42Z</time>
      </trkpt>
      <trkpt lat="43.3114110" lon="-2.0324720">
        <ele>232.0</ele>
        <time>2022-11-27T08:59:43Z</time>
      </trkpt>
      <trkpt lat="43.3113790" lon="-2.0325120">
        <ele>232.0</ele>
        <time>2022-11-27T08:59:44Z</time>
      </trkpt>
      <trkpt lat="43.3113470" lon="-2.0325510">
        <ele>232.0</ele>
        <time>2022-11-27T08:59:45Z</time>
      </trkpt>
      <trkpt lat="43.3113140" lon="-2.0325890">
        <ele>232.2</ele>
        <time>2022-11-27T08:59:46Z</time>
      </trkpt>
      <trkpt lat="43.3112810" lon="-2.0326260">
        <ele>232.2</ele>
        <time>2022-11-27T08:59:47Z</time>
      </trkpt>
      <trkpt lat="43.3112460" lon="-2.0326620">
        <ele>232.2</ele>
        <time>2022-11-27T08:59:48Z</time>
      </trkpt>
      <trkpt lat="43.3112100" lon="-2.0326970">
        <ele>232.6</ele>
        <time>2022-11-27T08:59:49Z</time>
      </trkpt>
      <trkpt lat="43.3111720" lon="-2.0327310">
        <ele>232.8</ele>
        <time>2022-11-27T08:59:50Z</time>
      </trkpt>
      <trkpt lat="43.3111350" lon="-2.0327630">
        <ele>233.0</ele>
        <time>2022-11-27T08:59:51Z</time>
      </trkpt>
      <trkpt lat="43.3110980" lon="-2.0327940">
        <ele>233.2</ele>
        <time>2022-11-27T08:59:52Z</time>
      </trkpt>
      <trkpt lat="43.3110630" lon="-2.0328240">
        <ele>233.2</ele>
        <time>2022-11-27T08:59:53Z</time>
      </trkpt>
      <trkpt lat="43.3110280" lon="-2.0328550">
        <ele>233.2</ele>
        <time>2022-11-27T08:59:54Z</time>
      </trkpt>
      <trkpt lat="43.3109940" lon="-2.0328860">
        <ele>233.4</ele>
        <time>2022-11-27T08:59:55Z</time>
      </trkpt>
      <trkpt lat="43.3109590" lon="-2.0329160">
        <ele>233.4</ele>
        <time>2022-11-27T08:59:56Z</time>
      </trkpt>
      <trkpt lat="43.3109240" lon="-2.0329450">
        <ele>233.4</ele>
        <time>2022-11-27T08:59:57Z</time>
      </trkpt>
      <trkpt lat="43.3108880" lon="-2.0329740">
        <ele>233.6</ele>
        <time>2022-11-27T08:59:58Z</time>
      </trkpt>
      <trkpt lat="43.3108520" lon="-2.0330040">
        <ele>233.8</ele>
        <time>2022-11-27T08:59:59Z</time>
      </trkpt>
      <trkpt lat="43.3108150" lon="-2.0330340">
        <ele>233.8</ele>
        <time>2022-11-27T09:00:00Z</time>
      </trkpt>
      <trkpt lat="43.3107800" lon="-2.0330650">
        <ele>234.0</ele>
        <time>2022-11-27T09:00:01Z</time>
      </trkpt>
      <trkpt lat="43.3107470" lon="-2.0330960">
        <ele>234.0</ele>
        <time>2022-11-27T09:00:02Z</time>
      </trkpt>
      <trkpt lat="43.3107140" lon="-2.0331270">
        <ele>234.2</ele>
        <time>2022-11-27T09:00:03Z</time>
      </trkpt>
      <trkpt lat="43.3106820" lon="-2.0331600">
        <ele>234.4</ele>
        <time>2022-11-27T09:00:04Z</time>
      </trkpt>
      <trkpt lat="43.3106520" lon="-2.0331950">
        <ele>234.6</ele>
        <time>2022-11-27T09:00:05Z</time>
      </trkpt>
      <trkpt lat="43.3106230" lon="-2.0332330">
        <ele>234.6</ele>
        <time>2022-11-27T09:00:06Z</time>
      </trkpt>
      <trkpt lat="43.3105960" lon="-2.0332740">
        <ele>234.8</ele>
        <time>2022-11-27T09:00:07Z</time>
      </trkpt>
      <trkpt lat="43.3105720" lon="-2.0333190">
        <ele>235.4</ele>
        <time>2022-11-27T09:00:08Z</time>
      </trkpt>
      <trkpt lat="43.3105480" lon="-2.0333660">
        <ele>235.6</ele>
        <time>2022-11-27T09:00:09Z</time>
      </trkpt>
      <trkpt lat="43.3105240" lon="-2.0334110">
        <ele>235.8</ele>
        <time>2022-11-27T09:00:10Z</time>
      </trkpt>
      <trkpt lat="43.3104990" lon="-2.0334540">
        <ele>236.0</ele>
        <time>2022-11-27T09:00:11Z</time>
      </trkpt>
      <trkpt lat="43.3104740" lon="-2.0334960">
        <ele>236.0</ele>
        <time>2022-11-27T09:00:12Z</time>
      </trkpt>
      <trkpt lat="43.3104490" lon="-2.0335380">
        <ele>236.6</ele>
        <time>2022-11-27T09:00:13Z</time>
      </trkpt>
      <trkpt lat="43.3104260" lon="-2.0335820">
        <ele>237.0</ele>
        <time>2022-11-27T09:00:14Z</time>
      </trkpt>
      <trkpt lat="43.3104020" lon="-2.0336260">
        <ele>237.8</ele>
        <time>2022-11-27T09:00:15Z</time>
      </trkpt>
      <trkpt lat="43.3103770" lon="-2.0336700">
        <ele>238.4</ele>
        <time>2022-11-27T09:00:16Z</time>
      </trkpt>
      <trkpt lat="43.3103560" lon="-2.0337160">
        <ele>238.6</ele>
        <time>2022-11-27T09:00:17Z</time>
      </trkpt>
      <trkpt lat="43.3103390" lon="-2.0337630">
        <ele>238.8</ele>
        <time>2022-11-27T09:00:18Z</time>
      </trkpt>
      <trkpt lat="43.3103210" lon="-2.0338080">
        <ele>238.8</ele>
        <time>2022-11-27T09:00:19Z</time>
      </trkpt>
      <trkpt lat="43.3103020" lon="-2.0338530">
        <ele>239.0</ele>
        <time>2022-11-27T09:00:20Z</time>
      </trkpt>
      <trkpt lat="43.3102830" lon="-2.0338980">
        <ele>239.0</ele>
        <time>2022-11-27T09:00:21Z</time>
      </trkpt>
      <trkpt lat="43.3102650" lon="-2.0339440">
        <ele>239.0</ele>
        <time>2022-11-27T09:00:22Z</time>
      </trkpt>
      <trkpt lat="43.3102490" lon="-2.0339900">
        <ele>239.0</ele>
        <time>2022-11-27T09:00:23Z</time>
      </trkpt>
      <trkpt lat="43.3102330" lon="-2.0340370">
        <ele>239.2</ele>
        <time>2022-11-27T09:00:24Z</time>
      </trkpt>
      <trkpt lat="43.3102170" lon="-2.0340850">
        <ele>239.2</ele>
        <time>2022-11-27T09:00:25Z</time>
      </trkpt>
      <trkpt lat="43.3102020" lon="-2.0341360">
        <ele>239.4</ele>
        <time>2022-11-27T09:00:26Z</time>
      </trkpt>
      <trkpt lat="43.3101850" lon="-2.0341900">
        <ele>239.8</ele>
        <time>2022-11-27T09:00:27Z</time>
      </trkpt>
      <trkpt lat="43.3101670" lon="-2.0342450">
        <ele>240.4</ele>
        <time>2022-11-27T09:00:28Z</time>
      </trkpt>
      <trkpt lat="43.3101470" lon="-2.0343030">
        <ele>240.8</ele>
        <time>2022-11-27T09:00:29Z</time>
      </trkpt>
      <trkpt lat="43.3101280" lon="-2.0343650">
        <ele>241.2</ele>
        <time>2022-11-27T09:00:30Z</time>
      </trkpt>
      <trkpt lat="43.3101090" lon="-2.0344300">
        <ele>241.8</ele>
        <time>2022-11-27T09:00:31Z</time>
      </trkpt>
      <trkpt lat="43.3100910" lon="-2.0344940">
        <ele>242.2</ele>
        <time>2022-11-27T09:00:32Z</time>
      </trkpt>
      <trkpt lat="43.3100750" lon="-2.0345600">
        <ele>242.2</ele>
        <time>2022-11-27T09:00:33Z</time>
      </trkpt>
      <trkpt lat="43.3100570" lon="-2.0346260">
        <ele>242.4</ele>
        <time>2022-11-27T09:00:34Z</time>
      </trkpt>
      <trkpt lat="43.3100380" lon="-2.0346900">
        <ele>242.4</ele>
        <time>2022-11-27T09:00:35Z</time>
      </trkpt>
      <trkpt lat="43.3100170" lon="-2.0347520">
        <ele>242.4</ele>
        <time>2022-11-27T09:00:36Z</time>
      </trkpt>
      <trkpt lat="43.3099960" lon="-2.0348170">
        <ele>242.4</ele>
        <time>2022-11-27T09:00:37Z</time>
      </trkpt>
      <trkpt lat="43.3099730" lon="-2.0348850">
        <ele>242.4</ele>
        <time>2022-11-27T09:00:38Z</time>
      </trkpt>
      <trkpt lat="43.3099500" lon="-2.0349560">
        <ele>242.4</ele>
        <time>2022-11-27T09:00:39Z</time>
      </trkpt>
      <trkpt lat="43.3099270" lon="-2.0350310">
        <ele>242.4</ele>
        <time>2022-11-27T09:00:40Z</time>
      </trkpt>
      <trkpt lat="43.3099030" lon="-2.0351070">
        <ele>242.4</ele>
        <time>2022-11-27T09:00:41Z</time>
      </trkpt>
      <trkpt lat="43.3098780" lon="-2.0351850">
        <ele>242.4</ele>
        <time>2022-11-27T09:00:42Z</time>
      </trkpt>
      <trkpt lat="43.3098540" lon="-2.0352640">
        <ele>242.2</ele>
        <time>2022-11-27T09:00:43Z</time>
      </trkpt>
      <trkpt lat="43.3098270" lon="-2.0353430">
        <ele>242.0</ele>
        <time>2022-11-27T09:00:44Z</time>
      </trkpt>
      <trkpt lat="43.3098000" lon="-2.0354200">
        <ele>242.0</ele>
        <time>2022-11-27T09:00:45Z</time>
      </trkpt>
      <trkpt lat="43.3097710" lon="-2.0354950">
        <ele>241.8</ele>
        <time>2022-11-27T09:00:46Z</time>
      </trkpt>
      <trkpt lat="43.3097410" lon="-2.0355710">
        <ele>241.8</ele>
        <time>2022-11-27T09:00:47Z</time>
      </trkpt>
      <trkpt lat="43.3097120" lon="-2.0356470">
        <ele>241.4</ele>
        <time>2022-11-27T09:00:48Z</time>
      </trkpt>
      <trkpt lat="43.3096850" lon="-2.0357220">
        <ele>241.2</ele>
        <time>2022-11-27T09:00:49Z</time>
      </trkpt>
      <trkpt lat="43.3096580" lon="-2.0357970">
        <ele>241.0</ele>
        <time>2022-11-27T09:00:50Z</time>
      </trkpt>
      <trkpt lat="43.3096300" lon="-2.0358680">
        <ele>241.0</ele>
        <time>2022-11-27T09:00:51Z</time>
      </trkpt>
      <trkpt lat="43.3096020" lon="-2.0359400">
        <ele>241.0</ele>
        <time>2022-11-27T09:00:52Z</time>
      </trkpt>
      <trkpt lat="43.3095730" lon="-2.0360130">
        <ele>240.8</ele>
        <time>2022-11-27T09:00:53Z</time>
      </trkpt>
      <trkpt lat="43.3095430" lon="-2.0360850">
        <ele>240.8</ele>
        <time>2022-11-27T09:00:54Z</time>
      </trkpt>
      <trkpt lat="43.3095120" lon="-2.0361570">
        <ele>240.8</ele>
        <time>2022-11-27T09:00:55Z</time>
      </trkpt>
      <trkpt lat="43.3094840" lon="-2.0362310">
        <ele>240.6</ele>
        <time>2022-11-27T09:00:56Z</time>
      </trkpt>
      <trkpt lat="43.3094540" lon="-2.0363040">
        <ele>240.6</ele>
        <time>2022-11-27T09:00:57Z</time>
      </trkpt>
      <trkpt lat="43.3094240" lon="-2.0363740">
        <ele>240.6</ele>
        <time>2022-11-27T09:00:58Z</time>
      </trkpt>
      <trkpt lat="43.3093940" lon="-2.0364430">
        <ele>240.4</ele>
        <time>2022-11-27T09:00:59Z</time>
      </trkpt>
      <trkpt lat="43.3093660" lon="-2.0365110">
        <ele>240.6</ele>
        <time>2022-11-27T09:01:00Z</time>
      </trkpt>
      <trkpt lat="43.3093400" lon="-2.0365770">
        <ele>240.6</ele>
        <time>2022-11-27T09:01:01Z</time>
      </trkpt>
      <trkpt lat="43.3093180" lon="-2.0366410">
        <ele>240.6</ele>
        <time>2022-11-27T09:01:02Z</time>
      </trkpt>
      <trkpt lat="43.3092970" lon="-2.0366980">
        <ele>240.6</ele>
        <time>2022-11-27T09:01:03Z</time>
      </trkpt>
      <trkpt lat="43.3092730" lon="-2.0367470">
        <ele>240.6</ele>
        <time>2022-11-27T09:01:04Z</time>
      </trkpt>
      <trkpt lat="43.3092490" lon="-2.0367990">
        <ele>240.6</ele>
        <time>2022-11-27T09:01:05Z</time>
      </trkpt>
      <trkpt lat="43.3092270" lon="-2.0368520">
        <ele>240.8</ele>
        <time>2022-11-27T09:01:06Z</time>
      </trkpt>
      <trkpt lat="43.3092070" lon="-2.0369040">
        <ele>240.8</ele>
        <time>2022-11-27T09:01:07Z</time>
      </trkpt>
      <trkpt lat="43.3091870" lon="-2.0369530">
        <ele>240.8</ele>
        <time>2022-11-27T09:01:08Z</time>
      </trkpt>
      <trkpt lat="43.3091690" lon="-2.0370020">
        <ele>241.0</ele>
        <time>2022-11-27T09:01:09Z</time>
      </trkpt>
      <trkpt lat="43.3091550" lon="-2.0370500">
        <ele>241.0</ele>
        <time>2022-11-27T09:01:10Z</time>
      </trkpt>
      <trkpt lat="43.3091400" lon="-2.0370940">
        <ele>241.2</ele>
        <time>2022-11-27T09:01:11Z</time>
      </trkpt>
      <trkpt lat="43.3091200" lon="-2.0371340">
        <ele>241.4</ele>
        <time>2022-11-27T09:01:12Z</time>
      </trkpt>
      <trkpt lat="43.3090920" lon="-2.0371730">
        <ele>241.6</ele>
        <time>2022-11-27T09:01:13Z</time>
      </trkpt>
      <trkpt lat="43.3090620" lon="-2.0372120">
        <ele>241.8</ele>
        <time>2022-11-27T09:01:14Z</time>
      </trkpt>
      <trkpt lat="43.3090320" lon="-2.0372500">
        <ele>242.2</ele>
        <time>2022-11-27T09:01:15Z</time>
      </trkpt>
      <trkpt lat="43.3090030" lon="-2.0372870">
        <ele>242.6</ele>
        <time>2022-11-27T09:01:16Z</time>
      </trkpt>
      <trkpt lat="43.3089760" lon="-2.0373250">
        <ele>243.2</ele>
        <time>2022-11-27T09:01:17Z</time>
      </trkpt>
      <trkpt lat="43.3089520" lon="-2.0373650">
        <ele>243.6</ele>
        <time>2022-11-27T09:01:18Z</time>
      </trkpt>
      <trkpt lat="43.3089280" lon="-2.0374040">
        <ele>243.8</ele>
        <time>2022-11-27T09:01:19Z</time>
      </trkpt>
      <trkpt lat="43.3089040" lon="-2.0374410">
        <ele>244.2</ele>
        <time>2022-11-27T09:01:20Z</time>
      </trkpt>
      <trkpt lat="43.3088770" lon="-2.0374760">
        <ele>244.6</ele>
        <time>2022-11-27T09:01:21Z</time>
      </trkpt>
      <trkpt lat="43.3088480" lon="-2.0375080">
        <ele>245.2</ele>
        <time>2022-11-27T09:01:22Z</time>
      </trkpt>
      <trkpt lat="43.3088170" lon="-2.0375390">
        <ele>245.8</ele>
        <time>2022-11-27T09:01:23Z</time>
      </trkpt>
      <trkpt lat="43.3087860" lon="-2.0375710">
        <ele>246.6</ele>
        <time>2022-11-27T09:01:24Z</time>
      </trkpt>
      <trkpt lat="43.3087560" lon="-2.0376060">
        <ele>247.0</ele>
        <time>2022-11-27T09:01:25Z</time>
      </trkpt>
      <trkpt lat="43.3087270" lon="-2.0376370">
        <ele>247.4</ele>
        <time>2022-11-27T09:01:26Z</time>
      </trkpt>
      <trkpt lat="43.3087000" lon="-2.0376630">
        <ele>247.4</ele>
        <time>2022-11-27T09:01:27Z</time>
      </trkpt>
      <trkpt lat="43.3086760" lon="-2.0376930">
        <ele>247.8</ele>
        <time>2022-11-27T09:01:28Z</time>
      </trkpt>
      <trkpt lat="43.3086510" lon="-2.0377270">
        <ele>248.0</ele>
        <time>2022-11-27T09:01:29Z</time>
      </trkpt>
      <trkpt lat="43.3086290" lon="-2.0377600">
        <ele>248.0</ele>
        <time>2022-11-27T09:01:30Z</time>
      </trkpt>
      <trkpt lat="43.3086050" lon="-2.0377940">
        <ele>248.2</ele>
        <time>2022-11-27T09:01:31Z</time>
      </trkpt>
      <trkpt lat="43.3085840" lon="-2.0378260">
        <ele>248.8</ele>
        <time>2022-11-27T09:01:32Z</time>
      </trkpt>
      <trkpt lat="43.3085660" lon="-2.0378510">
        <ele>249.6</ele>
        <time>2022-11-27T09:01:33Z</time>
      </trkpt>
      <trkpt lat="43.3085440" lon="-2.0378750">
        <ele>249.8</ele>
        <time>2022-11-27T09:01:34Z</time>
      </trkpt>
      <trkpt lat="43.3085210" lon="-2.0378970">
        <ele>250.0</ele>
        <time>2022-11-27T09:01:35Z</time>
      </trkpt>
      <trkpt lat="43.3084970" lon="-2.0379190">
        <ele>250.2</ele>
        <time>2022-11-27T09:01:36Z</time>
      </trkpt>
      <trkpt lat="43.3084740" lon="-2.0379450">
        <ele>250.4</ele>
        <time>2022-11-27T09:01:37Z</time>
      </trkpt>
      <trkpt lat="43.3084540" lon="-2.0379750">
        <ele>250.8</ele>
        <time>2022-11-27T09:01:38Z</time>
      </trkpt>
      <trkpt lat="43.3084340" lon="-2.0380070">
        <ele>251.4</ele>
        <time>2022-11-27T09:01:39Z</time>
      </trkpt>
      <trkpt lat="43.3084130" lon="-2.0380380">
        <ele>251.8</ele>
        <time>2022-11-27T09:01:40Z</time>
      </trkpt>
      <trkpt lat="43.3083910" lon="-2.0380680">
        <ele>252.0</ele>
        <time>2022-11-27T09:01:41Z</time>
      </trkpt>
      <trkpt lat="43.3083700" lon="-2.0380990">
        <ele>252.4</ele>
        <time>2022-11-27T09:01:42Z</time>
      </trkpt>
      <trkpt lat="43.3083500" lon="-2.0381320">
        <ele>252.4</ele>
        <time>2022-11-27T09:01:43Z</time>
      </trkpt>
      <trkpt lat="43.3083280" lon="-2.0381620">
        <ele>252.4</ele>
        <time>2022-11-27T09:01:44Z</time>
      </trkpt>
      <trkpt lat="43.3083040" lon="-2.0381890">
        <ele>252.8</ele>
        <time>2022-11-27T09:01:45Z</time>
      </trkpt>
      <trkpt lat="43.3082790" lon="-2.0382150">
        <ele>253.0</ele>
        <time>2022-11-27T09:01:46Z</time>
      </trkpt>
      <trkpt lat="43.3082540" lon="-2.0382410">
        <ele>253.4</ele>
        <time>2022-11-27T09:01:47Z</time>
      </trkpt>
      <trkpt lat="43.3082330" lon="-2.0382710">
        <ele>253.6</ele>
        <time>2022-11-27T09:01:48Z</time>
      </trkpt>
      <trkpt lat="43.3082120" lon="-2.0383030">
        <ele>253.6</ele>
        <time>2022-11-27T09:01:49Z</time>
      </trkpt>
      <trkpt lat="43.3081900" lon="-2.0383340">
        <ele>253.8</ele>
        <time>2022-11-27T09:01:50Z</time>
      </trkpt>
      <trkpt lat="43.3081680" lon="-2.0383650">
        <ele>253.8</ele>
        <time>2022-11-27T09:01:51Z</time>
      </trkpt>
      <trkpt lat="43.3081460" lon="-2.0383940">
        <ele>254.0</ele>
        <time>2022-11-27T09:01:52Z</time>
      </trkpt>
      <trkpt lat="43.3081240" lon="-2.0384240">
        <ele>254.2</ele>
        <time>2022-11-27T09:01:53Z</time>
      </trkpt>
      <trkpt lat="43.3081000" lon="-2.0384530">
        <ele>254.2</ele>
        <time>2022-11-27T09:01:54Z</time>
      </trkpt>
      <trkpt lat="43.3080750" lon="-2.0384840">
        <ele>254.2</ele>
        <time>2022-11-27T09:01:55Z</time>
      </trkpt>
      <trkpt lat="43.3080510" lon="-2.0385140">
        <ele>254.4</ele>
        <time>2022-11-27T09:01:56Z</time>
      </trkpt>
      <trkpt lat="43.3080250" lon="-2.0385430">
        <ele>254.4</ele>
        <time>2022-11-27T09:01:57Z</time>
      </trkpt>
      <trkpt lat="43.3079990" lon="-2.0385690">
        <ele>254.6</ele>
        <time>2022-11-27T09:01:58Z</time>
      </trkpt>
      <trkpt lat="43.3079700" lon="-2.0385890">
        <ele>255.0</ele>
        <time>2022-11-27T09:01:59Z</time>
      </trkpt>
      <trkpt lat="43.3079400" lon="-2.0386120">
        <ele>255.2</ele>
        <time>2022-11-27T09:02:00Z</time>
      </trkpt>
      <trkpt lat="43.3079130" lon="-2.0386390">
        <ele>255.4</ele>
        <time>2022-11-27T09:02:01Z</time>
      </trkpt>
      <trkpt lat="43.3078880" lon="-2.0386670">
        <ele>255.6</ele>
        <time>2022-11-27T09:02:02Z</time>
      </trkpt>
      <trkpt lat="43.3078630" lon="-2.0386940">
        <ele>255.6</ele>
        <time>2022-11-27T09:02:03Z</time>
      </trkpt>
      <trkpt lat="43.3078360" lon="-2.0387200">
        <ele>256.0</ele>
        <time>2022-11-27T09:02:04Z</time>
      </trkpt>
      <trkpt lat="43.3078080" lon="-2.0387430">
        <ele>256.4</ele>
        <time>2022-11-27T09:02:05Z</time>
      </trkpt>
      <trkpt lat="43.3077790" lon="-2.0387630">
        <ele>256.6</ele>
        <time>2022-11-27T09:02:06Z</time>
      </trkpt>
      <trkpt lat="43.3077490" lon="-2.0387790">
        <ele>256.8</ele>
        <time>2022-11-27T09:02:07Z</time>
      </trkpt>
      <trkpt lat="43.3077180" lon="-2.0387940">
        <ele>257.0</ele>
        <time>2022-11-27T09:02:08Z</time>
      </trkpt>
      <trkpt lat="43.3076880" lon="-2.0388090">
        <ele>257.2</ele>
        <time>2022-11-27T09:02:09Z</time>
      </trkpt>
      <trkpt lat="43.3076580" lon="-2.0388240">
        <ele>257.4</ele>
        <time>2022-11-27T09:02:10Z</time>
      </trkpt>
      <trkpt lat="43.3076280" lon="-2.0388430">
        <ele>257.6</ele>
        <time>2022-11-27T09:02:11Z</time>
      </trkpt>
      <trkpt lat="43.3075990" lon="-2.0388630">
        <ele>257.8</ele>
        <time>2022-11-27T09:02:12Z</time>
      </trkpt>
      <trkpt lat="43.3075720" lon="-2.0388860">
        <ele>257.8</ele>
        <time>2022-11-27T09:02:13Z</time>
      </trkpt>
      <trkpt lat="43.3075450" lon="-2.0389100">
        <ele>258.0</ele>
        <time>2022-11-27T09:02:14Z</time>
      </trkpt>
      <trkpt lat="43.3075170" lon="-2.0389340">
        <ele>258.0</ele>
        <time>2022-11-27T09:02:15Z</time>
      </trkpt>
      <trkpt lat="43.3074860" lon="-2.0389550">
        <ele>258.2</ele>
        <time>2022-11-27T09:02:16Z</time>
      </trkpt>
      <trkpt lat="43.3074540" lon="-2.0389760">
        <ele>258.2</ele>
        <time>2022-11-27T09:02:17Z</time>
      </trkpt>
      <trkpt lat="43.3074190" lon="-2.0389960">
        <ele>258.2</ele>
        <time>2022-11-27T09:02:18Z</time>
      </trkpt>
      <trkpt lat="43.3073820" lon="-2.0390180">
        <ele>258.4</ele>
        <time>2022-11-27T09:02:19Z</time>
      </trkpt>
      <trkpt lat="43.3073440" lon="-2.0390420">
        <ele>258.4</ele>
        <time>2022-11-27T09:02:20Z</time>
      </trkpt>
      <trkpt lat="43.3073040" lon="-2.0390680">
        <ele>258.6</ele>
        <time>2022-11-27T09:02:21Z</time>
      </trkpt>
      <trkpt lat="43.3072630" lon="-2.0390960">
        <ele>258.6</ele>
        <time>2022-11-27T09:02:22Z</time>
      </trkpt>
      <trkpt lat="43.3072230" lon="-2.0391240">
        <ele>258.8</ele>
        <time>2022-11-27T09:02:23Z</time>
      </trkpt>
      <trkpt lat="43.3071820" lon="-2.0391530">
        <ele>258.8</ele>
        <time>2022-11-27T09:02:24Z</time>
      </trkpt>
      <trkpt lat="43.3071410" lon="-2.0391790">
        <ele>259.2</ele>
        <time>2022-11-27T09:02:25Z</time>
      </trkpt>
      <trkpt lat="43.3071000" lon="-2.0392070">
        <ele>259.8</ele>
        <time>2022-11-27T09:02:26Z</time>
      </trkpt>
      <trkpt lat="43.3070600" lon="-2.0392360">
        <ele>260.2</ele>
        <time>2022-11-27T09:02:27Z</time>
      </trkpt>
      <trkpt lat="43.3070200" lon="-2.0392660">
        <ele>260.4</ele>
        <time>2022-11-27T09:02:28Z</time>
      </trkpt>
      <trkpt lat="43.3069800" lon="-2.0392970">
        <ele>260.4</ele>
        <time>2022-11-27T09:02:29Z</time>
      </trkpt>
      <trkpt lat="43.3069410" lon="-2.0393290">
        <ele>260.6</ele>
        <time>2022-11-27T09:02:30Z</time>
      </trkpt>
      <trkpt lat="43.3069020" lon="-2.0393640">
        <ele>260.6</ele>
        <time>2022-11-27T09:02:31Z</time>
      </trkpt>
      <trkpt lat="43.3068640" lon="-2.0393990">
        <ele>260.8</ele>
        <time>2022-11-27T09:02:32Z</time>
      </trkpt>
      <trkpt lat="43.3068260" lon="-2.0394370">
        <ele>260.8</ele>
        <time>2022-11-27T09:02:33Z</time>
      </trkpt>
      <trkpt lat="43.3067910" lon="-2.0394790">
        <ele>260.8</ele>
        <time>2022-11-27T09:02:34Z</time>
      </trkpt>
      <trkpt lat="43.3067560" lon="-2.0395260">
        <ele>261.0</ele>
        <time>2022-11-27T09:02:35Z</time>
      </trkpt>
      <trkpt lat="43.3067250" lon="-2.0395770">
        <ele>261.0</ele>
        <time>2022-11-27T09:02:36Z</time>
      </trkpt>
      <trkpt lat="43.3066950" lon="-2.0396310">
        <ele>261.2</ele>
        <time>2022-11-27T09:02:37Z</time>
      </trkpt>
      <trkpt lat="43.3066660" lon="-2.0396880">
        <ele>261.4</ele>
        <time>2022-11-27T09:02:38Z</time>
      </trkpt>
      <trkpt lat="43.3066380" lon="-2.0397450">
        <ele>261.4</ele>
        <time>2022-11-27T09:02:39Z</time>
      </trkpt>
      <trkpt lat="43.3066080" lon="-2.0398020">
        <ele>261.6</ele>
        <time>2022-11-27T09:02:40Z</time>
      </trkpt>
      <trkpt lat="43.3065790" lon="-2.0398610">
        <ele>262.0</ele>
        <time>2022-11-27T09:02:41Z</time>
      </trkpt>
      <trkpt lat="43.3065510" lon="-2.0399230">
        <ele>262.2</ele>
        <time>2022-11-27T09:02:42Z</time>
      </trkpt>
      <trkpt lat="43.3065270" lon="-2.0399870">
        <ele>262.2</ele>
        <time>2022-11-27T09:02:43Z</time>
      </trkpt>
      <trkpt lat="43.3065050" lon="-2.0400530">
        <ele>262.2</ele>
        <time>2022-11-27T09:02:44Z</time>
      </trkpt>
      <trkpt lat="43.3064870" lon="-2.0401210">
        <ele>262.4</ele>
        <time>2022-11-27T09:02:45Z</time>
      </trkpt>
      <trkpt lat="43.3064720" lon="-2.0401910">
        <ele>262.6</ele>
        <time>2022-11-27T09:02:46Z</time>
      </trkpt>
      <trkpt lat="43.3064580" lon="-2.0402620">
        <ele>262.6</ele>
        <time>2022-11-27T09:02:47Z</time>
      </trkpt>
      <trkpt lat="43.3064430" lon="-2.0403350">
        <ele>262.8</ele>
        <time>2022-11-27T09:02:48Z</time>
      </trkpt>
      <trkpt lat="43.3064280" lon="-2.0404080">
        <ele>263.0</ele>
        <time>2022-11-27T09:02:49Z</time>
      </trkpt>
      <trkpt lat="43.3064150" lon="-2.0404830">
        <ele>263.0</ele>
        <time>2022-11-27T09:02:50Z</time>
      </trkpt>
      <trkpt lat="43.3064040" lon="-2.0405590">
        <ele>263.2</ele>
        <time>2022-11-27T09:02:51Z</time>
      </trkpt>
      <trkpt lat="43.3063910" lon="-2.0406350">
        <ele>263.2</ele>
        <time>2022-11-27T09:02:52Z</time>
      </trkpt>
      <trkpt lat="43.3063750" lon="-2.0407100">
        <ele>263.2</ele>
        <time>2022-11-27T09:02:53Z</time>
      </trkpt>
      <trkpt lat="43.3063570" lon="-2.0407810">
        <ele>263.2</ele>
        <time>2022-11-27T09:02:54Z</time>
      </trkpt>
      <trkpt lat="43.3063420" lon="-2.0408540">
        <ele>263.2</ele>
        <time>2022-11-27T09:02:55Z</time>
      </trkpt>
      <trkpt lat="43.3063310" lon="-2.0409280">
        <ele>263.2</ele>
        <time>2022-11-27T09:02:56Z</time>
      </trkpt>
      <trkpt lat="43.3063170" lon="-2.0410020">
        <ele>263.2</ele>
        <time>2022-11-27T09:02:57Z</time>
      </trkpt>
      <trkpt lat="43.3063000" lon="-2.0410780">
        <ele>263.2</ele>
        <time>2022-11-27T09:02:58Z</time>
      </trkpt>
      <trkpt lat="43.3062830" lon="-2.0411590">
        <ele>263.2</ele>
        <time>2022-11-27T09:02:59Z</time>
      </trkpt>
      <trkpt lat="43.3062670" lon="-2.0412430">
        <ele>263.2</ele>
        <time>2022-11-27T09:03:00Z</time>
      </trkpt>
      <trkpt lat="43.3062500" lon="-2.0413290">
        <ele>263.2</ele>
        <time>2022-11-27T09:03:01Z</time>
      </trkpt>
      <trkpt lat="43.3062330" lon="-2.0414160">
        <ele>263.4</ele>
        <time>2022-11-27T09:03:02Z</time>
      </trkpt>
      <trkpt lat="43.3062160" lon="-2.0415000">
        <ele>263.4</ele>
        <time>2022-11-27T09:03:03Z</time>
      </trkpt>
      <trkpt lat="43.3062000" lon="-2.0415840">
        <ele>263.6</ele>
        <time>2022-11-27T09:03:04Z</time>
      </trkpt>
      <trkpt lat="43.3061850" lon="-2.0416670">
        <ele>263.6</ele>
        <time>2022-11-27T09:03:05Z</time>
      </trkpt>
      <trkpt lat="43.3061680" lon="-2.0417460">
        <ele>263.8</ele>
        <time>2022-11-27T09:03:06Z</time>
      </trkpt>
      <trkpt lat="43.3061500" lon="-2.0418240">
        <ele>263.8</ele>
        <time>2022-11-27T09:03:07Z</time>
      </trkpt>
      <trkpt lat="43.3061360" lon="-2.0419020">
        <ele>263.8</ele>
        <time>2022-11-27T09:03:08Z</time>
      </trkpt>
      <trkpt lat="43.3061230" lon="-2.0419800">
        <ele>263.6</ele>
        <time>2022-11-27T09:03:09Z</time>
      </trkpt>
      <trkpt lat="43.3061090" lon="-2.0420560">
        <ele>263.2</ele>
        <time>2022-11-27T09:03:10Z</time>
      </trkpt>
      <trkpt lat="43.3060930" lon="-2.0421340">
        <ele>263.2</ele>
        <time>2022-11-27T09:03:11Z</time>
      </trkpt>
      <trkpt lat="43.3060740" lon="-2.0422130">
        <ele>263.0</ele>
        <time>2022-11-27T09:03:12Z</time>
      </trkpt>
      <trkpt lat="43.3060580" lon="-2.0422960">
        <ele>263.0</ele>
        <time>2022-11-27T09:03:13Z</time>
      </trkpt>
      <trkpt lat="43.3060430" lon="-2.0423830">
        <ele>263.0</ele>
        <time>2022-11-27T09:03:14Z</time>
      </trkpt>
      <trkpt lat="43.3060270" lon="-2.0424700">
        <ele>262.8</ele>
        <time>2022-11-27T09:03:15Z</time>
      </trkpt>
      <trkpt lat="43.3060090" lon="-2.0425580">
        <ele>262.8</ele>
        <time>2022-11-27T09:03:16Z</time>
      </trkpt>
      <trkpt lat="43.3059890" lon="-2.0426460">
        <ele>262.8</ele>
        <time>2022-11-27T09:03:17Z</time>
      </trkpt>
      <trkpt lat="43.3059690" lon="-2.0427340">
        <ele>262.6</ele>
        <time>2022-11-27T09:03:18Z</time>
      </trkpt>
      <trkpt lat="43.3059510" lon="-2.0428240">
        <ele>262.4</ele>
        <time>2022-11-27T09:03:19Z</time>
      </trkpt>
      <trkpt lat="43.3059350" lon="-2.0429150">
        <ele>262.2</ele>
        <time>2022-11-27T09:03:20Z</time>
      </trkpt>
      <trkpt lat="43.3059200" lon="-2.0430070">
        <ele>262.2</ele>
        <time>2022-11-27T09:03:21Z</time>
      </trkpt>
      <trkpt lat="43.3059040" lon="-2.0430980">
        <ele>262.2</ele>
        <time>2022-11-27T09:03:22Z</time>
      </trkpt>
      <trkpt lat="43.3058850" lon="-2.0431890">
        <ele>262.0</ele>
        <time>2022-11-27T09:03:23Z</time>
      </trkpt>
      <trkpt lat="43.3058670" lon="-2.0432800">
        <ele>262.0</ele>
        <time>2022-11-27T09:03:24Z</time>
      </trkpt>
      <trkpt lat="43.3058490" lon="-2.0433710">
        <ele>261.8</ele>
        <time>2022-11-27T09:03:25Z</time>
      </trkpt>
      <trkpt lat="43.3058300" lon="-2.0434620">
        <ele>261.8</ele>
        <time>2022-11-27T09:03:26Z</time>
      </trkpt>
      <trkpt lat="43.3058100" lon="-2.0435520">
        <ele>261.8</ele>
        <time>2022-11-27T09:03:27Z</time>
      </trkpt>
      <trkpt lat="43.3057880" lon="-2.0436420">
        <ele>261.8</ele>
        <time>2022-11-27T09:03:28Z</time>
      </trkpt>
      <trkpt lat="43.3057670" lon="-2.0437320">
        <ele>261.8</ele>
        <time>2022-11-27T09:03:29Z</time>
      </trkpt>
      <trkpt lat="43.3057480" lon="-2.0438220">
        <ele>261.8</ele>
        <time>2022-11-27T09:03:30Z</time>
      </trkpt>
      <trkpt lat="43.3057310" lon="-2.0439120">
        <ele>261.6</ele>
        <time>2022-11-27T09:03:31Z</time>
      </trkpt>
      <trkpt lat="43.3057170" lon="-2.0440010">
        <ele>261.6</ele>
        <time>2022-11-27T09:03:32Z</time>
      </trkpt>
      <trkpt lat="43.3056990" lon="-2.0440900">
        <ele>261.6</ele>
        <time>2022-11-27T09:03:33Z</time>
      </trkpt>
      <trkpt lat="43.3056820" lon="-2.0441800">
        <ele>261.4</ele>
        <time>2022-11-27T09:03:34Z</time>
      </trkpt>
      <trkpt lat="43.3056670" lon="-2.0442690">
        <ele>261.4</ele>
        <time>2022-11-27T09:03:35Z</time>
      </trkpt>
      <trkpt lat="43.3056550" lon="-2.0443580">
        <ele>261.2</ele>
        <time>2022-11-27T09:03:36Z</time>
      </trkpt>
      <trkpt lat="43.3056440" lon="-2.0444460">
        <ele>261.2</ele>
        <time>2022-11-27T09:03:37Z</time>
      </trkpt>
      <trkpt lat="43.3056300" lon="-2.0445330">
        <ele>261.2</ele>
        <time>2022-11-27T09:03:38Z</time>
      </trkpt>
      <trkpt lat="43.3056150" lon="-2.0446200">
        <ele>261.2</ele>
        <time>2022-11-27T09:03:39Z</time>
      </trkpt>
      <trkpt lat="43.3055990" lon="-2.0447060">
        <ele>261.2</ele>
        <time>2022-11-27T09:03:40Z</time>
      </trkpt>
      <trkpt lat="43.3055810" lon="-2.0447890">
        <ele>261.2</ele>
        <time>2022-11-27T09:03:41Z</time>
      </trkpt>
      <trkpt lat="43.3055620" lon="-2.0448700">
        <ele>261.2</ele>
        <time>2022-11-27T09:03:42Z</time>
      </trkpt>
      <trkpt lat="43.3055440" lon="-2.0449480">
        <ele>261.0</ele>
        <time>2022-11-27T09:03:43Z</time>
      </trkpt>
      <trkpt lat="43.3055270" lon="-2.0450270">
        <ele>260.8</ele>
        <time>2022-11-27T09:03:44Z</time>
      </trkpt>
      <trkpt lat="43.3055110" lon="-2.0451070">
        <ele>260.6</ele>
        <time>2022-11-27T09:03:45Z</time>
      </trkpt>
      <trkpt lat="43.3054930" lon="-2.0451860">
        <ele>260.4</ele>
        <time>2022-11-27T09:03:46Z</time>
      </trkpt>
      <trkpt lat="43.3054710" lon="-2.0452610">
        <ele>260.4</ele>
        <time>2022-11-27T09:03:47Z</time>
      </trkpt>
      <trkpt lat="43.3054430" lon="-2.0453350">
        <ele>260.2</ele>
        <time>2022-11-27T09:03:48Z</time>
      </trkpt>
      <trkpt lat="43.3054110" lon="-2.0454070">
        <ele>260.2</ele>
        <time>2022-11-27T09:03:49Z</time>
      </trkpt>
      <trkpt lat="43.3053720" lon="-2.0454730">
        <ele>260.0</ele>
        <time>2022-11-27T09:03:50Z</time>
      </trkpt>
      <trkpt lat="43.3053280" lon="-2.0455340">
        <ele>260.0</ele>
        <time>2022-11-27T09:03:51Z</time>
      </trkpt>
      <trkpt lat="43.3052810" lon="-2.0455900">
        <ele>259.8</ele>
        <time>2022-11-27T09:03:52Z</time>
      </trkpt>
      <trkpt lat="43.3052310" lon="-2.0456410">
        <ele>259.6</ele>
        <time>2022-11-27T09:03:53Z</time>
      </trkpt>
      <trkpt lat="43.3051780" lon="-2.0456860">
        <ele>259.2</ele>
        <time>2022-11-27T09:03:54Z</time>
      </trkpt>
      <trkpt lat="43.3051220" lon="-2.0457300">
        <ele>259.2</ele>
        <time>2022-11-27T09:03:55Z</time>
      </trkpt>
      <trkpt lat="43.3050690" lon="-2.0457780">
        <ele>259.0</ele>
        <time>2022-11-27T09:03:56Z</time>
      </trkpt>
      <trkpt lat="43.3050210" lon="-2.0458230">
        <ele>259.0</ele>
        <time>2022-11-27T09:03:57Z</time>
      </trkpt>
      <trkpt lat="43.3049770" lon="-2.0458640">
        <ele>258.8</ele>
        <time>2022-11-27T09:03:58Z</time>
      </trkpt>
      <trkpt lat="43.3049360" lon="-2.0459030">
        <ele>258.8</ele>
        <time>2022-11-27T09:03:59Z</time>
      </trkpt>
      <trkpt lat="43.3048990" lon="-2.0459460">
        <ele>258.8</ele>
        <time>2022-11-27T09:04:00Z</time>
      </trkpt>
      <trkpt lat="43.3048640" lon="-2.0459920">
        <ele>258.8</ele>
        <time>2022-11-27T09:04:01Z</time>
      </trkpt>
      <trkpt lat="43.3048310" lon="-2.0460410">
        <ele>258.8</ele>
        <time>2022-11-27T09:04:02Z</time>
      </trkpt>
      <trkpt lat="43.3048010" lon="-2.0460910">
        <ele>258.8</ele>
        <time>2022-11-27T09:04:03Z</time>
      </trkpt>
      <trkpt lat="43.3047710" lon="-2.0461420">
        <ele>258.8</ele>
        <time>2022-11-27T09:04:04Z</time>
      </trkpt>
      <trkpt lat="43.3047420" lon="-2.0461950">
        <ele>258.8</ele>
        <time>2022-11-27T09:04:05Z</time>
      </trkpt>
      <trkpt lat="43.3047120" lon="-2.0462480">
        <ele>258.8</ele>
        <time>2022-11-27T09:04:06Z</time>
      </trkpt>
      <trkpt lat="43.3046800" lon="-2.0463020">
        <ele>258.8</ele>
        <time>2022-11-27T09:04:07Z</time>
      </trkpt>
      <trkpt lat="43.3046470" lon="-2.0463570">
        <ele>258.8</ele>
        <time>2022-11-27T09:04:08Z</time>
      </trkpt>
      <trkpt lat="43.3046140" lon="-2.0464150">
        <ele>258.8</ele>
        <time>2022-11-27T09:04:09Z</time>
      </trkpt>
      <trkpt lat="43.3045820" lon="-2.0464750">
        <ele>259.0</ele>
        <time>2022-11-27T09:04:10Z</time>
      </trkpt>
      <trkpt lat="43.3045500" lon="-2.0465370">
        <ele>259.6</ele>
        <time>2022-11-27T09:04:11Z</time>
      </trkpt>
      <trkpt lat="43.3045160" lon="-2.0466010">
        <ele>259.8</ele>
        <time>2022-11-27T09:04:12Z</time>
      </trkpt>
      <trkpt lat="43.3044790" lon="-2.0466660">
        <ele>260.0</ele>
        <time>2022-11-27T09:04:13Z</time>
      </trkpt>
      <trkpt lat="43.3044440" lon="-2.0467330">
        <ele>260.2</ele>
        <time>2022-11-27T09:04:14Z</time>
      </trkpt>
      <trkpt lat="43.3044090" lon="-2.0468020">
        <ele>260.6</ele>
        <time>2022-11-27T09:04:15Z</time>
      </trkpt>
      <trkpt lat="43.3043740" lon="-2.0468690">
        <ele>261.0</ele>
        <time>2022-11-27T09:04:16Z</time>
      </trkpt>
      <trkpt lat="43.3043410" lon="-2.0469350">
        <ele>261.2</ele>
        <time>2022-11-27T09:04:17Z</time>
      </trkpt>
      <trkpt lat="43.3043070" lon="-2.0470030">
        <ele>261.4</ele>
        <time>2022-11-27T09:04:18Z</time>
      </trkpt>
      <trkpt lat="43.3042720" lon="-2.0470710">
        <ele>261.6</ele>
        <time>2022-11-27T09:04:19Z</time>
      </trkpt>
      <trkpt lat="43.3042370" lon="-2.0471380">
        <ele>261.8</ele>
        <time>2022-11-27T09:04:20Z</time>
      </trkpt>
      <trkpt lat="43.3042010" lon="-2.0472050">
        <ele>261.8</ele>
        <time>2022-11-27T09:04:21Z</time>
      </trkpt>
      <trkpt lat="43.3041670" lon="-2.0472720">
        <ele>262.2</ele>
        <time>2022-11-27T09:04:22Z</time>
      </trkpt>
      <trkpt lat="43.3041320" lon="-2.0473390">
        <ele>262.2</ele>
        <time>2022-11-27T09:04:23Z</time>
      </trkpt>
      <trkpt lat="43.3040970" lon="-2.0474050">
        <ele>262.2</ele>
        <time>2022-11-27T09:04:24Z</time>
      </trkpt>
      <trkpt lat="43.3040620" lon="-2.0474740">
        <ele>262.4</ele>
        <time>2022-11-27T09:04:25Z</time>
      </trkpt>
      <trkpt lat="43.3040270" lon="-2.0475480">
        <ele>262.6</ele>
        <time>2022-11-27T09:04:26Z</time>
      </trkpt>
      <trkpt lat="43.3039950" lon="-2.0476270">
        <ele>262.6</ele>
        <time>2022-11-27T09:04:27Z</time>
      </trkpt>
      <trkpt lat="43.3039640" lon="-2.0477120">
        <ele>262.6</ele>
        <time>2022-11-27T09:04:28Z</time>
      </trkpt>
      <trkpt lat="43.3039370" lon="-2.0478000">
        <ele>262.8</ele>
        <time>2022-11-27T09:04:29Z</time>
      </trkpt>
      <trkpt lat="43.3039110" lon="-2.0478900">
        <ele>263.0</ele>
        <time>2022-11-27T09:04:30Z</time>
      </trkpt>
      <trkpt lat="43.3038820" lon="-2.0479780">
        <ele>263.0</ele>
        <time>2022-11-27T09:04:31Z</time>
      </trkpt>
      <trkpt lat="43.3038560" lon="-2.0480650">
        <ele>263.4</ele>
        <time>2022-11-27T09:04:32Z</time>
      </trkpt>
      <trkpt lat="43.3038330" lon="-2.0481520">
        <ele>263.6</ele>
        <time>2022-11-27T09:04:33Z</time>
      </trkpt>
      <trkpt lat="43.3038060" lon="-2.0482340">
        <ele>263.8</ele>
        <time>2022-11-27T09:04:34Z</time>
      </trkpt>
      <trkpt lat="43.3037770" lon="-2.0483140">
        <ele>263.8</ele>
        <time>2022-11-27T09:04:35Z</time>
      </trkpt>
      <trkpt lat="43.3037470" lon="-2.0483940">
        <ele>263.8</ele>
        <time>2022-11-27T09:04:36Z</time>
      </trkpt>
      <trkpt lat="43.3037190" lon="-2.0484750">
        <ele>263.8</ele>
        <time>2022-11-27T09:04:37Z</time>
      </trkpt>
      <trkpt lat="43.3036910" lon="-2.0485560">
        <ele>263.8</ele>
        <time>2022-11-27T09:04:38Z</time>
      </trkpt>
      <trkpt lat="43.3036640" lon="-2.0486360">
        <ele>263.8</ele>
        <time>2022-11-27T09:04:39Z</time>
      </trkpt>
      <trkpt lat="43.3036330" lon="-2.0487120">
        <ele>263.8</ele>
        <time>2022-11-27T09:04:40Z</time>
      </trkpt>
      <trkpt lat="43.3036010" lon="-2.0487860">
        <ele>263.8</ele>
        <time>2022-11-27T09:04:41Z</time>
      </trkpt>
      <trkpt lat="43.3035690" lon="-2.0488590">
        <ele>263.8</ele>
        <time>2022-11-27T09:04:42Z</time>
      </trkpt>
      <trkpt lat="43.3035380" lon="-2.0489280">
        <ele>263.4</ele>
        <time>2022-11-27T09:04:43Z</time>
      </trkpt>
      <trkpt lat="43.3035050" lon="-2.0489910">
        <ele>263.4</ele>
        <time>2022-11-27T09:04:44Z</time>
      </trkpt>
      <trkpt lat="43.3034690" lon="-2.0490410">
        <ele>263.2</ele>
        <time>2022-11-27T09:04:45Z</time>
      </trkpt>
      <trkpt lat="43.3034320" lon="-2.0490850">
        <ele>263.2</ele>
        <time>2022-11-27T09:04:46Z</time>
      </trkpt>
      <trkpt lat="43.3033930" lon="-2.0491240">
        <ele>263.2</ele>
        <time>2022-11-27T09:04:47Z</time>
      </trkpt>
      <trkpt lat="43.3033490" lon="-2.0491540">
        <ele>263.0</ele>
        <time>2022-11-27T09:04:48Z</time>
      </trkpt>
      <trkpt lat="43.3033050" lon="-2.0491880">
        <ele>263.0</ele>
        <time>2022-11-27T09:04:49Z</time>
      </trkpt>
      <trkpt lat="43.3032610" lon="-2.0492280">
        <ele>263.0</ele>
        <time>2022-11-27T09:04:50Z</time>
      </trkpt>
      <trkpt lat="43.3032130" lon="-2.0492620">
        <ele>263.0</ele>
        <time>2022-11-27T09:04:51Z</time>
      </trkpt>
      <trkpt lat="43.3031660" lon="-2.0492990">
        <ele>263.0</ele>
        <time>2022-11-27T09:04:52Z</time>
      </trkpt>
      <trkpt lat="43.3031170" lon="-2.0493340">
        <ele>263.0</ele>
        <time>2022-11-27T09:04:53Z</time>
      </trkpt>
      <trkpt lat="43.3030670" lon="-2.0493690">
        <ele>263.4</ele>
        <time>2022-11-27T09:04:54Z</time>
      </trkpt>
      <trkpt lat="43.3030230" lon="-2.0494120">
        <ele>263.6</ele>
        <time>2022-11-27T09:04:55Z</time>
      </trkpt>
      <trkpt lat="43.3029820" lon="-2.0494560">
        <ele>264.0</ele>
        <time>2022-11-27T09:04:56Z</time>
      </trkpt>
      <trkpt lat="43.3029410" lon="-2.0495060">
        <ele>264.4</ele>
        <time>2022-11-27T09:04:57Z</time>
      </trkpt>
      <trkpt lat="43.3029090" lon="-2.0495640">
        <ele>264.8</ele>
        <time>2022-11-27T09:04:58Z</time>
      </trkpt>
      <trkpt lat="43.3028850" lon="-2.0496280">
        <ele>265.0</ele>
        <time>2022-11-27T09:04:59Z</time>
      </trkpt>
      <trkpt lat="43.3028710" lon="-2.0496930">
        <ele>265.2</ele>
        <time>2022-11-27T09:05:00Z</time>
      </trkpt>
      <trkpt lat="43.3028630" lon="-2.0497570">
        <ele>265.6</ele>
        <time>2022-11-27T09:05:01Z</time>
      </trkpt>
      <trkpt lat="43.3028580" lon="-2.0498200">
        <ele>266.0</ele>
        <time>2022-11-27T09:05:02Z</time>
      </trkpt>
      <trkpt lat="43.3028540" lon="-2.0498830">
        <ele>266.4</ele>
        <time>2022-11-27T09:05:03Z</time>
      </trkpt>
      <trkpt lat="43.3028500" lon="-2.0499460">
        <ele>266.4</ele>
        <time>2022-11-27T09:05:04Z</time>
      </trkpt>
      <trkpt lat="43.3028450" lon="-2.0500080">
        <ele>266.8</ele>
        <time>2022-11-27T09:05:05Z</time>
      </trkpt>
      <trkpt lat="43.3028400" lon="-2.0500690">
        <ele>267.4</ele>
        <time>2022-11-27T09:05:06Z</time>
      </trkpt>
      <trkpt lat="43.3028370" lon="-2.0501310">
        <ele>267.8</ele>
        <time>2022-11-27T09:05:07Z</time>
      </trkpt>
      <trkpt lat="43.3028320" lon="-2.0501910">
        <ele>268.4</ele>
        <time>2022-11-27T09:05:08Z</time>
      </trkpt>
      <trkpt lat="43.3028250" lon="-2.0502520">
        <ele>269.0</ele>
        <time>2022-11-27T09:05:09Z</time>
      </trkpt>
      <trkpt lat="43.3028210" lon="-2.0503150">
        <ele>269.6</ele>
        <time>2022-11-27T09:05:10Z</time>
      </trkpt>
      <trkpt lat="43.3028150" lon="-2.0503780">
        <ele>270.0</ele>
        <time>2022-11-27T09:05:11Z</time>
      </trkpt>
      <trkpt lat="43.3028080" lon="-2.0504460">
        <ele>270.6</ele>
        <time>2022-11-27T09:05:12Z</time>
      </trkpt>
      <trkpt lat="43.3028000" lon="-2.0505160">
        <ele>270.8</ele>
        <time>2022-11-27T09:05:13Z</time>
      </trkpt>
      <trkpt lat="43.3027880" lon="-2.0505880">
        <ele>271.2</ele>
        <time>2022-11-27T09:05:14Z</time>
      </trkpt>
      <trkpt lat="43.3027730" lon="-2.0506610">
        <ele>271.4</ele>
        <time>2022-11-27T09:05:15Z</time>
      </trkpt>
      <trkpt lat="43.3027560" lon="-2.0507330">
        <ele>271.4</ele>
        <time>2022-11-27T09:05:16Z</time>
      </trkpt>
      <trkpt lat="43.3027380" lon="-2.0508060">
        <ele>271.4</ele>
        <time>2022-11-27T09:05:17Z</time>
      </trkpt>
      <trkpt lat="43.3027170" lon="-2.0508770">
        <ele>271.4</ele>
        <time>2022-11-27T09:05:18Z</time>
      </trkpt>
      <trkpt lat="43.3026940" lon="-2.0509470">
        <ele>271.4</ele>
        <time>2022-11-27T09:05:19Z</time>
      </trkpt>
      <trkpt lat="43.3026690" lon="-2.0510150">
        <ele>271.4</ele>
        <time>2022-11-27T09:05:20Z</time>
      </trkpt>
      <trkpt lat="43.3026440" lon="-2.0510810">
        <ele>271.4</ele>
        <time>2022-11-27T09:05:21Z</time>
      </trkpt>
      <trkpt lat="43.3026160" lon="-2.0511450">
        <ele>271.4</ele>
        <time>2022-11-27T09:05:22Z</time>
      </trkpt>
      <trkpt lat="43.3025880" lon="-2.0512070">
        <ele>271.4</ele>
        <time>2022-11-27T09:05:23Z</time>
      </trkpt>
      <trkpt lat="43.3025610" lon="-2.0512700">
        <ele>271.4</ele>
        <time>2022-11-27T09:05:24Z</time>
      </trkpt>
      <trkpt lat="43.3025340" lon="-2.0513300">
        <ele>271.4</ele>
        <time>2022-11-27T09:05:25Z</time>
      </trkpt>
      <trkpt lat="43.3025050" lon="-2.0513870">
        <ele>271.4</ele>
        <time>2022-11-27T09:05:26Z</time>
      </trkpt>
      <trkpt lat="43.3024780" lon="-2.0514450">
        <ele>271.2</ele>
        <time>2022-11-27T09:05:27Z</time>
      </trkpt>
      <trkpt lat="43.3024500" lon="-2.0515030">
        <ele>271.0</ele>
        <time>2022-11-27T09:05:28Z</time>
      </trkpt>
      <trkpt lat="43.3024240" lon="-2.0515620">
        <ele>270.8</ele>
        <time>2022-11-27T09:05:29Z</time>
      </trkpt>
      <trkpt lat="43.3023980" lon="-2.0516200">
        <ele>270.8</ele>
        <time>2022-11-27T09:05:30Z</time>
      </trkpt>
      <trkpt lat="43.3023730" lon="-2.0516780">
        <ele>270.8</ele>
        <time>2022-11-27T09:05:31Z</time>
      </trkpt>
      <trkpt lat="43.3023490" lon="-2.0517380">
        <ele>270.8</ele>
        <time>2022-11-27T09:05:32Z</time>
      </trkpt>
      <trkpt lat="43.3023240" lon="-2.0517980">
        <ele>270.8</ele>
        <time>2022-11-27T09:05:33Z</time>
      </trkpt>
      <trkpt lat="43.3023000" lon="-2.0518590">
        <ele>270.8</ele>
        <time>2022-11-27T09:05:34Z</time>
      </trkpt>
      <trkpt lat="43.3022760" lon="-2.0519200">
        <ele>270.8</ele>
        <time>2022-11-27T09:05:35Z</time>
      </trkpt>
      <trkpt lat="43.3022550" lon="-2.0519840">
        <ele>270.8</ele>
        <time>2022-11-27T09:05:36Z</time>
      </trkpt>
      <trkpt lat="43.3022340" lon="-2.0520490">
        <ele>270.8</ele>
        <time>2022-11-27T09:05:37Z</time>
      </trkpt>
      <trkpt lat="43.3022100" lon="-2.0521120">
        <ele>270.8</ele>
        <time>2022-11-27T09:05:38Z</time>
      </trkpt>
      <trkpt lat="43.3021850" lon="-2.0521740">
        <ele>270.8</ele>
        <time>2022-11-27T09:05:39Z</time>
      </trkpt>
      <trkpt lat="43.3021600" lon="-2.0522350">
        <ele>271.0</ele>
        <time>2022-11-27T09:05:40Z</time>
      </trkpt>
      <trkpt lat="43.3021350" lon="-2.0522960">
        <ele>271.0</ele>
        <time>2022-11-27T09:05:41Z</time>
      </trkpt>
      <trkpt lat="43.3021100" lon="-2.0523560">
        <ele>271.2</ele>
        <time>2022-11-27T09:05:42Z</time>
      </trkpt>
      <trkpt lat="43.3020850" lon="-2.0524150">
        <ele>271.4</ele>
        <time>2022-11-27T09:05:43Z</time>
      </trkpt>
      <trkpt lat="43.3020590" lon="-2.0524770">
        <ele>271.6</ele>
        <time>2022-11-27T09:05:44Z</time>
      </trkpt>
      <trkpt lat="43.3020330" lon="-2.0525400">
        <ele>271.6</ele>
        <time>2022-11-27T09:05:45Z</time>
      </trkpt>
      <trkpt lat="43.3020080" lon="-2.0526070">
        <ele>272.0</ele>
        <time>2022-11-27T09:05:46Z</time>
      </trkpt>
      <trkpt lat="43.3019850" lon="-2.0526800">
        <ele>272.2</ele>
        <time>2022-11-27T09:05:47Z</time>
      </trkpt>
      <trkpt lat="43.3019620" lon="-2.0527540">
        <ele>272.6</ele>
        <time>2022-11-27T09:05:48Z</time>
      </trkpt>
      <trkpt lat="43.3019400" lon="-2.0528290">
        <ele>273.0</ele>
        <time>2022-11-27T09:05:49Z</time>
      </trkpt>
      <trkpt lat="43.3019190" lon="-2.0529040">
        <ele>273.6</ele>
        <time>2022-11-27T09:05:50Z</time>
      </trkpt>
      <trkpt lat="43.3018990" lon="-2.0529800">
        <ele>274.0</ele>
        <time>2022-11-27T09:05:51Z</time>
      </trkpt>
      <trkpt lat="43.3018790" lon="-2.0530540">
        <ele>274.2</ele>
        <time>2022-11-27T09:05:52Z</time>
      </trkpt>
      <trkpt lat="43.3018600" lon="-2.0531280">
        <ele>274.8</ele>
        <time>2022-11-27T09:05:53Z</time>
      </trkpt>
      <trkpt lat="43.3018420" lon="-2.0531990">
        <ele>275.6</ele>
        <time>2022-11-27T09:05:54Z</time>
      </trkpt>
      <trkpt lat="43.3018240" lon="-2.0532680">
        <ele>276.4</ele>
        <time>2022-11-27T09:05:55Z</time>
      </trkpt>
      <trkpt lat="43.3018090" lon="-2.0533350">
        <ele>277.0</ele>
        <time>2022-11-27T09:05:56Z</time>
      </trkpt>
      <trkpt lat="43.3017930" lon="-2.0534010">
        <ele>277.2</ele>
        <time>2022-11-27T09:05:57Z</time>
      </trkpt>
      <trkpt lat="43.3017760" lon="-2.0534650">
        <ele>277.4</ele>
        <time>2022-11-27T09:05:58Z</time>
      </trkpt>
      <trkpt lat="43.3017590" lon="-2.0535290">
        <ele>277.6</ele>
        <time>2022-11-27T09:05:59Z</time>
      </trkpt>
      <trkpt lat="43.3017410" lon="-2.0535930">
        <ele>277.8</ele>
        <time>2022-11-27T09:06:00Z</time>
      </trkpt>
      <trkpt lat="43.3017230" lon="-2.0536550">
        <ele>278.0</ele>
        <time>2022-11-27T09:06:01Z</time>
      </trkpt>
      <trkpt lat="43.3017060" lon="-2.0537170">
        <ele>278.0</ele>
        <time>2022-11-27T09:06:02Z</time>
      </trkpt>
      <trkpt lat="43.3016920" lon="-2.0537800">
        <ele>278.2</ele>
        <time>2022-11-27T09:06:03Z</time>
      </trkpt>
      <trkpt lat="43.3016820" lon="-2.0538430">
        <ele>278.2</ele>
        <time>2022-11-27T09:06:04Z</time>
      </trkpt>
      <trkpt lat="43.3016730" lon="-2.0539040">
        <ele>278.2</ele>
        <time>2022-11-27T09:06:05Z</time>
      </trkpt>
      <trkpt lat="43.3016640" lon="-2.0539630">
        <ele>278.2</ele>
        <time>2022-11-27T09:06:06Z</time>
      </trkpt>
      <trkpt lat="43.3016530" lon="-2.0540210">
        <ele>278.4</ele>
        <time>2022-11-27T09:06:07Z</time>
      </trkpt>
      <trkpt lat="43.3016400" lon="-2.0540770">
        <ele>278.8</ele>
        <time>2022-11-27T09:06:08Z</time>
      </trkpt>
      <trkpt lat="43.3016270" lon="-2.0541340">
        <ele>279.2</ele>
        <time>2022-11-27T09:06:09Z</time>
      </trkpt>
      <trkpt lat="43.3016130" lon="-2.0541920">
        <ele>279.4</ele>
        <time>2022-11-27T09:06:10Z</time>
      </trkpt>
      <trkpt lat="43.3016000" lon="-2.0542520">
        <ele>279.8</ele>
        <time>2022-11-27T09:06:11Z</time>
      </trkpt>
      <trkpt lat="43.3015870" lon="-2.0543130">
        <ele>280.0</ele>
        <time>2022-11-27T09:06:12Z</time>
      </trkpt>
      <trkpt lat="43.3015730" lon="-2.0543750">
        <ele>280.4</ele>
        <time>2022-11-27T09:06:13Z</time>
      </trkpt>
      <trkpt lat="43.3015570" lon="-2.0544360">
        <ele>280.8</ele>
        <time>2022-11-27T09:06:14Z</time>
      </trkpt>
      <trkpt lat="43.3015410" lon="-2.0544970">
        <ele>281.2</ele>
        <time>2022-11-27T09:06:15Z</time>
      </trkpt>
      <trkpt lat="43.3015260" lon="-2.0545580">
        <ele>281.6</ele>
        <time>2022-11-27T09:06:16Z</time>
      </trkpt>
      <trkpt lat="43.3015120" lon="-2.0546190">
        <ele>282.0</ele>
        <time>2022-11-27T09:06:17Z</time>
      </trkpt>
      <trkpt lat="43.3014960" lon="-2.0546770">
        <ele>282.6</ele>
        <time>2022-11-27T09:06:18Z</time>
      </trkpt>
      <trkpt lat="43.3014780" lon="-2.0547330">
        <ele>283.0</ele>
        <time>2022-11-27T09:06:19Z</time>
      </trkpt>
      <trkpt lat="43.3014580" lon="-2.0547880">
        <ele>283.6</ele>
        <time>2022-11-27T09:06:20Z</time>
      </trkpt>
      <trkpt lat="43.3014360" lon="-2.0548390">
        <ele>283.8</ele>
        <time>2022-11-27T09:06:21Z</time>
      </trkpt>
      <trkpt lat="43.3014110" lon="-2.0548850">
        <ele>284.2</ele>
        <time>2022-11-27T09:06:22Z</time>
      </trkpt>
      <trkpt lat="43.3013830" lon="-2.0549270">
        <ele>284.4</ele>
        <time>2022-11-27T09:06:23Z</time>
      </trkpt>
      <trkpt lat="43.3013510" lon="-2.0549680">
        <ele>284.4</ele>
        <time>2022-11-27T09:06:24Z</time>
      </trkpt>
      <trkpt lat="43.3013190" lon="-2.0550090">
        <ele>284.6</ele>
        <time>2022-11-27T09:06:25Z</time>
      </trkpt>
      <trkpt lat="43.3012850" lon="-2.0550500">
        <ele>284.8</ele>
        <time>2022-11-27T09:06:26Z</time>
      </trkpt>
      <trkpt lat="43.3012490" lon="-2.0550940">
        <ele>285.0</ele>
        <time>2022-11-27T09:06:27Z</time>
      </trkpt>
      <trkpt lat="43.3012160" lon="-2.0551420">
        <ele>285.2</ele>
        <time>2022-11-27T09:06:28Z</time>
      </trkpt>
      <trkpt lat="43.3011800" lon="-2.0551870">
        <ele>285.4</ele>
        <time>2022-11-27T09:06:29Z</time>
      </trkpt>
      <trkpt lat="43.3011390" lon="-2.0552270">
        <ele>285.6</ele>
        <time>2022-11-27T09:06:30Z</time>
      </trkpt>
      <trkpt lat="43.3010990" lon="-2.0552640">
        <ele>286.0</ele>
        <time>2022-11-27T09:06:31Z</time>
      </trkpt>
      <trkpt lat="43.3010580" lon="-2.0552980">
        <ele>286.2</ele>
        <time>2022-11-27T09:06:32Z</time>
      </trkpt>
      <trkpt lat="43.3010140" lon="-2.0553290">
        <ele>286.6</ele>
        <time>2022-11-27T09:06:33Z</time>
      </trkpt>
      <trkpt lat="43.3009710" lon="-2.0553580">
        <ele>286.8</ele>
        <time>2022-11-27T09:06:34Z</time>
      </trkpt>
      <trkpt lat="43.3009280" lon="-2.0553870">
        <ele>287.0</ele>
        <time>2022-11-27T09:06:35Z</time>
      </trkpt>
      <trkpt lat="43.3008860" lon="-2.0554140">
        <ele>287.2</ele>
        <time>2022-11-27T09:06:36Z</time>
      </trkpt>
      <trkpt lat="43.3008440" lon="-2.0554420">
        <ele>287.2</ele>
        <time>2022-11-27T09:06:37Z</time>
      </trkpt>
      <trkpt lat="43.3008030" lon="-2.0554700">
        <ele>287.4</ele>
        <time>2022-11-27T09:06:38Z</time>
      </trkpt>
      <trkpt lat="43.3007640" lon="-2.0554960">
        <ele>287.6</ele>
        <time>2022-11-27T09:06:39Z</time>
      </trkpt>
      <trkpt lat="43.3007250" lon="-2.0555240">
        <ele>287.8</ele>
        <time>2022-11-27T09:06:40Z</time>
      </trkpt>
      <trkpt lat="43.3006880" lon="-2.0555510">
        <ele>287.8</ele>
        <time>2022-11-27T09:06:41Z</time>
      </trkpt>
      <trkpt lat="43.3006530" lon="-2.0555740">
        <ele>288.2</ele>
        <time>2022-11-27T09:06:42Z</time>
      </trkpt>
      <trkpt lat="43.3006180" lon="-2.0555960">
        <ele>288.2</ele>
        <time>2022-11-27T09:06:43Z</time>
      </trkpt>
      <trkpt lat="43.3005830" lon="-2.0556190">
        <ele>288.6</ele>
        <time>2022-11-27T09:06:44Z</time>
      </trkpt>
      <trkpt lat="43.3005500" lon="-2.0556440">
        <ele>288.8</ele>
        <time>2022-11-27T09:06:45Z</time>
      </trkpt>
      <trkpt lat="43.3005170" lon="-2.0556710">
        <ele>289.0</ele>
        <time>2022-11-27T09:06:46Z</time>
      </trkpt>
      <trkpt lat="43.3004830" lon="-2.0556990">
        <ele>289.4</ele>
        <time>2022-11-27T09:06:47Z</time>
      </trkpt>
      <trkpt lat="43.3004510" lon="-2.0557260">
        <ele>289.8</ele>
        <time>2022-11-27T09:06:48Z</time>
      </trkpt>
      <trkpt lat="43.3004190" lon="-2.0557540">
        <ele>290.0</ele>
        <time>2022-11-27T09:06:49Z</time>
      </trkpt>
      <trkpt lat="43.3003880" lon="-2.0557830">
        <ele>290.2</ele>
        <time>2022-11-27T09:06:50Z</time>
      </trkpt>
      <trkpt lat="43.3003580" lon="-2.0558150">
        <ele>290.6</ele>
        <time>2022-11-27T09:06:51Z</time>
      </trkpt>
      <trkpt lat="43.3003300" lon="-2.0558480">
        <ele>290.8</ele>
        <time>2022-11-27T09:06:52Z</time>
      </trkpt>
      <trkpt lat="43.3003010" lon="-2.0558810">
        <ele>291.0</ele>
        <time>2022-11-27T09:06:53Z</time>
      </trkpt>
      <trkpt lat="43.3002730" lon="-2.0559160">
        <ele>291.4</ele>
        <time>2022-11-27T09:06:54Z</time>
      </trkpt>
      <trkpt lat="43.3002500" lon="-2.0559550">
        <ele>291.6</ele>
        <time>2022-11-27T09:06:55Z</time>
      </trkpt>
      <trkpt lat="43.3002270" lon="-2.0559980">
        <ele>292.0</ele>
        <time>2022-11-27T09:06:56Z</time>
      </trkpt>
      <trkpt lat="43.3002060" lon="-2.0560420">
        <ele>292.4</ele>
        <time>2022-11-27T09:06:57Z</time>
      </trkpt>
      <trkpt lat="43.3001870" lon="-2.0560870">
        <ele>292.6</ele>
        <time>2022-11-27T09:06:58Z</time>
      </trkpt>
      <trkpt lat="43.3001700" lon="-2.0561350">
        <ele>293.0</ele>
        <time>2022-11-27T09:06:59Z</time>
      </trkpt>
      <trkpt lat="43.3001540" lon="-2.0561860">
        <ele>293.2</ele>
        <time>2022-11-27T09:07:00Z</time>
      </trkpt>
      <trkpt lat="43.3001410" lon="-2.0562370">
        <ele>293.4</ele>
        <time>2022-11-27T09:07:01Z</time>
      </trkpt>
      <trkpt lat="43.3001290" lon="-2.0562870">
        <ele>293.6</ele>
        <time>2022-11-27T09:07:02Z</time>
      </trkpt>
      <trkpt lat="43.3001180" lon="-2.0563360">
        <ele>293.6</ele>
        <time>2022-11-27T09:07:03Z</time>
      </trkpt>
      <trkpt lat="43.3001080" lon="-2.0563850">
        <ele>293.6</ele>
        <time>2022-11-27T09:07:04Z</time>
      </trkpt>
      <trkpt lat="43.3000990" lon="-2.0564330">
        <ele>294.2</ele>
        <time>2022-11-27T09:07:05Z</time>
      </trkpt>
      <trkpt lat="43.3000940" lon="-2.0564810">
        <ele>295.0</ele>
        <time>2022-11-27T09:07:06Z</time>
      </trkpt>
      <trkpt lat="43.3000910" lon="-2.0565300">
        <ele>295.4</ele>
        <time>2022-11-27T09:07:07Z</time>
      </trkpt>
      <trkpt lat="43.3000880" lon="-2.0565790">
        <ele>295.8</ele>
        <time>2022-11-27T09:07:08Z</time>
      </trkpt>
      <trkpt lat="43.3000840" lon="-2.0566290">
        <ele>296.2</ele>
        <time>2022-11-27T09:07:09Z</time>
      </trkpt>
      <trkpt lat="43.3000820" lon="-2.0566810">
        <ele>297.0</ele>
        <time>2022-11-27T09:07:10Z</time>
      </trkpt>
      <trkpt lat="43.3000790" lon="-2.0567330">
        <ele>297.4</ele>
        <time>2022-11-27T09:07:11Z</time>
      </trkpt>
      <trkpt lat="43.3000770" lon="-2.0567860">
        <ele>298.0</ele>
        <time>2022-11-27T09:07:12Z</time>
      </trkpt>
      <trkpt lat="43.3000740" lon="-2.0568380">
        <ele>298.4</ele>
        <time>2022-11-27T09:07:13Z</time>
      </trkpt>
      <trkpt lat="43.3000700" lon="-2.0568900">
        <ele>298.8</ele>
        <time>2022-11-27T09:07:14Z</time>
      </trkpt>
      <trkpt lat="43.3000680" lon="-2.0569430">
        <ele>299.2</ele>
        <time>2022-11-27T09:07:15Z</time>
      </trkpt>
      <trkpt lat="43.3000670" lon="-2.0569960">
        <ele>299.8</ele>
        <time>2022-11-27T09:07:16Z</time>
      </trkpt>
      <trkpt lat="43.3000660" lon="-2.0570500">
        <ele>300.2</ele>
        <time>2022-11-27T09:07:17Z</time>
      </trkpt>
      <trkpt lat="43.3000640" lon="-2.0571050">
        <ele>300.4</ele>
        <time>2022-11-27T09:07:18Z</time>
      </trkpt>
      <trkpt lat="43.3000610" lon="-2.0571610">
        <ele>300.8</ele>
        <time>2022-11-27T09:07:19Z</time>
      </trkpt>
      <trkpt lat="43.3000610" lon="-2.0572170">
        <ele>301.0</ele>
        <time>2022-11-27T09:07:20Z</time>
      </trkpt>
      <trkpt lat="43.3000620" lon="-2.0572730">
        <ele>301.4</ele>
        <time>2022-11-27T09:07:21Z</time>
      </trkpt>
      <trkpt lat="43.3000620" lon="-2.0573270">
        <ele>301.8</ele>
        <time>2022-11-27T09:07:22Z</time>
      </trkpt>
      <trkpt lat="43.3000630" lon="-2.0573810">
        <ele>302.2</ele>
        <time>2022-11-27T09:07:23Z</time>
      </trkpt>
      <trkpt lat="43.3000630" lon="-2.0574360">
        <ele>302.6</ele>
        <time>2022-11-27T09:07:24Z</time>
      </trkpt>
      <trkpt lat="43.3000650" lon="-2.0574920">
        <ele>302.6</ele>
        <time>2022-11-27T09:07:25Z</time>
      </trkpt>
      <trkpt lat="43.3000650" lon="-2.0575470">
        <ele>302.8</ele>
        <time>2022-11-27T09:07:26Z</time>
      </trkpt>
      <trkpt lat="43.3000670" lon="-2.0576010">
        <ele>303.0</ele>
        <time>2022-11-27T09:07:27Z</time>
      </trkpt>
      <trkpt lat="43.3000700" lon="-2.0576540">
        <ele>303.4</ele>
        <time>2022-11-27T09:07:28Z</time>
      </trkpt>
      <trkpt lat="43.3000720" lon="-2.0577090">
        <ele>303.6</ele>
        <time>2022-11-27T09:07:29Z</time>
      </trkpt>
      <trkpt lat="43.3000740" lon="-2.0577650">
        <ele>304.0</ele>
        <time>2022-11-27T09:07:30Z</time>
      </trkpt>
      <trkpt lat="43.3000770" lon="-2.0578200">
        <ele>304.4</ele>
        <time>2022-11-27T09:07:31Z</time>
      </trkpt>
      <trkpt lat="43.3000810" lon="-2.0578740">
        <ele>304.6</ele>
        <time>2022-11-27T09:07:32Z</time>
      </trkpt>
      <trkpt lat="43.3000850" lon="-2.0579260">
        <ele>305.0</ele>
        <time>2022-11-27T09:07:33Z</time>
      </trkpt>
      <trkpt lat="43.3000880" lon="-2.0579790">
        <ele>305.2</ele>
        <time>2022-11-27T09:07:34Z</time>
      </trkpt>
      <trkpt lat="43.3000920" lon="-2.0580320">
        <ele>305.6</ele>
        <time>2022-11-27T09:07:35Z</time>
      </trkpt>
      <trkpt lat="43.3000970" lon="-2.0580840">
        <ele>305.8</ele>
        <time>2022-11-27T09:07:36Z</time>
      </trkpt>
      <trkpt lat="43.3001020" lon="-2.0581350">
        <ele>306.2</ele>
        <time>2022-11-27T09:07:37Z</time>
      </trkpt>
      <trkpt lat="43.3001110" lon="-2.0581850">
        <ele>306.6</ele>
        <time>2022-11-27T09:07:38Z</time>
      </trkpt>
      <trkpt lat="43.3001200" lon="-2.0582340">
        <ele>306.8</ele>
        <time>2022-11-27T09:07:39Z</time>
      </trkpt>
      <trkpt lat="43.3001270" lon="-2.0582840">
        <ele>307.2</ele>
        <time>2022-11-27T09:07:40Z</time>
      </trkpt>
      <trkpt lat="43.3001350" lon="-2.0583330">
        <ele>307.4</ele>
        <time>2022-11-27T09:07:41Z</time>
      </trkpt>
      <trkpt lat="43.3001430" lon="-2.0583800">
        <ele>307.8</ele>
        <time>2022-11-27T09:07:42Z</time>
      </trkpt>
      <trkpt lat="43.3001530" lon="-2.0584280">
        <ele>308.2</ele>
        <time>2022-11-27T09:07:43Z</time>
      </trkpt>
      <trkpt lat="43.3001620" lon="-2.0584750">
        <ele>308.4</ele>
        <time>2022-11-27T09:07:44Z</time>
      </trkpt>
      <trkpt lat="43.3001690" lon="-2.0585230">
        <ele>308.6</ele>
        <time>2022-11-27T09:07:45Z</time>
      </trkpt>
      <trkpt lat="43.3001720" lon="-2.0585710">
        <ele>308.6</ele>
        <time>2022-11-27T09:07:46Z</time>
      </trkpt>
      <trkpt lat="43.3001750" lon="-2.0586180">
        <ele>309.0</ele>
        <time>2022-11-27T09:07:47Z</time>
      </trkpt>
      <trkpt lat="43.3001770" lon="-2.0586650">
        <ele>309.4</ele>
        <time>2022-11-27T09:07:48Z</time>
      </trkpt>
      <trkpt lat="43.3001760" lon="-2.0587130">
        <ele>309.6</ele>
        <time>2022-11-27T09:07:49Z</time>
      </trkpt>
      <trkpt lat="43.3001720" lon="-2.0587610">
        <ele>310.0</ele>
        <time>2022-11-27T09:07:50Z</time>
      </trkpt>
      <trkpt lat="43.3001680" lon="-2.0588090">
        <ele>310.2</ele>
        <time>2022-11-27T09:07:51Z</time>
      </trkpt>
      <trkpt lat="43.3001620" lon="-2.0588570">
        <ele>310.4</ele>
        <time>2022-11-27T09:07:52Z</time>
      </trkpt>
      <trkpt lat="43.3001550" lon="-2.0589040">
        <ele>310.8</ele>
        <time>2022-11-27T09:07:53Z</time>
      </trkpt>
      <trkpt lat="43.3001490" lon="-2.0589500">
        <ele>311.2</ele>
        <time>2022-11-27T09:07:54Z</time>
      </trkpt>
      <trkpt lat="43.3001420" lon="-2.0589940">
        <ele>311.4</ele>
        <time>2022-11-27T09:07:55Z</time>
      </trkpt>
      <trkpt lat="43.3001340" lon="-2.0590370">
        <ele>311.6</ele>
        <time>2022-11-27T09:07:56Z</time>
      </trkpt>
      <trkpt lat="43.3001230" lon="-2.0590790">
        <ele>312.0</ele>
        <time>2022-11-27T09:07:57Z</time>
      </trkpt>
      <trkpt lat="43.3001120" lon="-2.0591220">
        <ele>312.2</ele>
        <time>2022-11-27T09:07:58Z</time>
      </trkpt>
      <trkpt lat="43.3000990" lon="-2.0591660">
        <ele>312.6</ele>
        <time>2022-11-27T09:07:59Z</time>
      </trkpt>
      <trkpt lat="43.3000850" lon="-2.0592100">
        <ele>312.8</ele>
        <time>2022-11-27T09:08:00Z</time>
      </trkpt>
      <trkpt lat="43.3000690" lon="-2.0592530">
        <ele>313.0</ele>
        <time>2022-11-27T09:08:01Z</time>
      </trkpt>
      <trkpt lat="43.3000530" lon="-2.0592950">
        <ele>313.2</ele>
        <time>2022-11-27T09:08:02Z</time>
      </trkpt>
      <trkpt lat="43.3000370" lon="-2.0593360">
        <ele>313.2</ele>
        <time>2022-11-27T09:08:03Z</time>
      </trkpt>
      <trkpt lat="43.3000210" lon="-2.0593760">
        <ele>313.4</ele>
        <time>2022-11-27T09:08:04Z</time>
      </trkpt>
      <trkpt lat="43.3000070" lon="-2.0594170">
        <ele>313.4</ele>
        <time>2022-11-27T09:08:05Z</time>
      </trkpt>
      <trkpt lat="43.2999940" lon="-2.0594590">
        <ele>313.6</ele>
        <time>2022-11-27T09:08:06Z</time>
      </trkpt>
      <trkpt lat="43.2999790" lon="-2.0595010">
        <ele>313.8</ele>
        <time>2022-11-27T09:08:07Z</time>
      </trkpt>
      <trkpt lat="43.2999620" lon="-2.0595440">
        <ele>314.0</ele>
        <time>2022-11-27T09:08:08Z</time>
      </trkpt>
      <trkpt lat="43.2999470" lon="-2.0595880">
        <ele>314.2</ele>
        <time>2022-11-27T09:08:09Z</time>
      </trkpt>
      <trkpt lat="43.2999320" lon="-2.0596310">
        <ele>314.6</ele>
        <time>2022-11-27T09:08:10Z</time>
      </trkpt>
      <trkpt lat="43.2999160" lon="-2.0596750">
        <ele>315.0</ele>
        <time>2022-11-27T09:08:11Z</time>
      </trkpt>
      <trkpt lat="43.2999010" lon="-2.0597190">
        <ele>315.2</ele>
        <time>2022-11-27T09:08:12Z</time>
      </trkpt>
      <trkpt lat="43.2998860" lon="-2.0597630">
        <ele>315.4</ele>
        <time>2022-11-27T09:08:13Z</time>
      </trkpt>
      <trkpt lat="43.2998730" lon="-2.0598080">
        <ele>315.8</ele>
        <time>2022-11-27T09:08:14Z</time>
      </trkpt>
      <trkpt lat="43.2998620" lon="-2.0598540">
        <ele>316.2</ele>
        <time>2022-11-27T09:08:15Z</time>
      </trkpt>
      <trkpt lat="43.2998530" lon="-2.0599020">
        <ele>316.4</ele>
        <time>2022-11-27T09:08:16Z</time>
      </trkpt>
      <trkpt lat="43.2998460" lon="-2.0599490">
        <ele>317.2</ele>
        <time>2022-11-27T09:08:17Z</time>
      </trkpt>
      <trkpt lat="43.2998410" lon="-2.0599980">
        <ele>317.8</ele>
        <time>2022-11-27T09:08:18Z</time>
      </trkpt>
      <trkpt lat="43.2998370" lon="-2.0600470">
        <ele>318.2</ele>
        <time>2022-11-27T09:08:19Z</time>
      </trkpt>
      <trkpt lat="43.2998330" lon="-2.0600930">
        <ele>318.6</ele>
        <time>2022-11-27T09:08:20Z</time>
      </trkpt>
      <trkpt lat="43.2998270" lon="-2.0601400">
        <ele>319.0</ele>
        <time>2022-11-27T09:08:21Z</time>
      </trkpt>
      <trkpt lat="43.2998240" lon="-2.0601870">
        <ele>319.4</ele>
        <time>2022-11-27T09:08:22Z</time>
      </trkpt>
      <trkpt lat="43.2998220" lon="-2.0602350">
        <ele>320.0</ele>
        <time>2022-11-27T09:08:23Z</time>
      </trkpt>
      <trkpt lat="43.2998210" lon="-2.0602840">
        <ele>320.4</ele>
        <time>2022-11-27T09:08:24Z</time>
      </trkpt>
      <trkpt lat="43.2998200" lon="-2.0603330">
        <ele>320.8</ele>
        <time>2022-11-27T09:08:25Z</time>
      </trkpt>
      <trkpt lat="43.2998200" lon="-2.0603830">
        <ele>320.8</ele>
        <time>2022-11-27T09:08:26Z</time>
      </trkpt>
      <trkpt lat="43.2998200" lon="-2.0604340">
        <ele>321.0</ele>
        <time>2022-11-27T09:08:27Z</time>
      </trkpt>
      <trkpt lat="43.2998170" lon="-2.0604860">
        <ele>321.2</ele>
        <time>2022-11-27T09:08:28Z</time>
      </trkpt>
      <trkpt lat="43.2998140" lon="-2.0605390">
        <ele>321.6</ele>
        <time>2022-11-27T09:08:29Z</time>
      </trkpt>
      <trkpt lat="43.2998130" lon="-2.0605920">
        <ele>321.8</ele>
        <time>2022-11-27T09:08:30Z</time>
      </trkpt>
      <trkpt lat="43.2998100" lon="-2.0606440">
        <ele>321.8</ele>
        <time>2022-11-27T09:08:31Z</time>
      </trkpt>
      <trkpt lat="43.2998070" lon="-2.0606970">
        <ele>322.0</ele>
        <time>2022-11-27T09:08:32Z</time>
      </trkpt>
      <trkpt lat="43.2998030" lon="-2.0607510">
        <ele>322.0</ele>
        <time>2022-11-27T09:08:33Z</time>
      </trkpt>
      <trkpt lat="43.2997990" lon="-2.0608060">
        <ele>322.4</ele>
        <time>2022-11-27T09:08:34Z</time>
      </trkpt>
      <trkpt lat="43.2997970" lon="-2.0608610">
        <ele>322.6</ele>
        <time>2022-11-27T09:08:35Z</time>
      </trkpt>
      <trkpt lat="43.2997950" lon="-2.0609190">
        <ele>322.8</ele>
        <time>2022-11-27T09:08:36Z</time>
      </trkpt>
      <trkpt lat="43.2997930" lon="-2.0609770">
        <ele>323.0</ele>
        <time>2022-11-27T09:08:37Z</time>
      </trkpt>
      <trkpt lat="43.2997910" lon="-2.0610370">
        <ele>323.4</ele>
        <time>2022-11-27T09:08:38Z</time>
      </trkpt>
      <trkpt lat="43.2997890" lon="-2.0610980">
        <ele>323.8</ele>
        <time>2022-11-27T09:08:39Z</time>
      </trkpt>
      <trkpt lat="43.2997840" lon="-2.0611590">
        <ele>324.2</ele>
        <time>2022-11-27T09:08:40Z</time>
      </trkpt>
      <trkpt lat="43.2997760" lon="-2.0612210">
        <ele>324.4</ele>
        <time>2022-11-27T09:08:41Z</time>
      </trkpt>
      <trkpt lat="43.2997670" lon="-2.0612840">
        <ele>324.8</ele>
        <time>2022-11-27T09:08:42Z</time>
      </trkpt>
      <trkpt lat="43.2997560" lon="-2.0613460">
        <ele>325.0</ele>
        <time>2022-11-27T09:08:43Z</time>
      </trkpt>
      <trkpt lat="43.2997430" lon="-2.0614080">
        <ele>325.4</ele>
        <time>2022-11-27T09:08:44Z</time>
      </trkpt>
      <trkpt lat="43.2997320" lon="-2.0614700">
        <ele>325.6</ele>
        <time>2022-11-27T09:08:45Z</time>
      </trkpt>
      <trkpt lat="43.2997190" lon="-2.0615290">
        <ele>325.6</ele>
        <time>2022-11-27T09:08:46Z</time>
      </trkpt>
      <trkpt lat="43.2997050" lon="-2.0615860">
        <ele>325.8</ele>
        <time>2022-11-27T09:08:47Z</time>
      </trkpt>
      <trkpt lat="43.2996930" lon="-2.0616400">
        <ele>325.8</ele>
        <time>2022-11-27T09:08:48Z</time>
      </trkpt>
      <trkpt lat="43.2996790" lon="-2.0616900">
        <ele>326.0</ele>
        <time>2022-11-27T09:08:49Z</time>
      </trkpt>
      <trkpt lat="43.2996660" lon="-2.0617380">
        <ele>326.0</ele>
        <time>2022-11-27T09:08:50Z</time>
      </trkpt>
      <trkpt lat="43.2996540" lon="-2.0617870">
        <ele>326.0</ele>
        <time>2022-11-27T09:08:51Z</time>
      </trkpt>
      <trkpt lat="43.2996410" lon="-2.0618350">
        <ele>326.2</ele>
        <time>2022-11-27T09:08:52Z</time>
      </trkpt>
      <trkpt lat="43.2996260" lon="-2.0618840">
        <ele>326.2</ele>
        <time>2022-11-27T09:08:53Z</time>
      </trkpt>
      <trkpt lat="43.2996110" lon="-2.0619330">
        <ele>326.2</ele>
        <time>2022-11-27T09:08:54Z</time>
      </trkpt>
      <trkpt lat="43.2995940" lon="-2.0619810">
        <ele>326.4</ele>
        <time>2022-11-27T09:08:55Z</time>
      </trkpt>
      <trkpt lat="43.2995770" lon="-2.0620280">
        <ele>326.8</ele>
        <time>2022-11-27T09:08:56Z</time>
      </trkpt>
      <trkpt lat="43.2995600" lon="-2.0620750">
        <ele>327.0</ele>
        <time>2022-11-27T09:08:57Z</time>
      </trkpt>
      <trkpt lat="43.2995430" lon="-2.0621240">
        <ele>327.2</ele>
        <time>2022-11-27T09:08:58Z</time>
      </trkpt>
      <trkpt lat="43.2995270" lon="-2.0621710">
        <ele>327.4</ele>
        <time>2022-11-27T09:08:59Z</time>
      </trkpt>
      <trkpt lat="43.2995110" lon="-2.0622170">
        <ele>328.0</ele>
        <time>2022-11-27T09:09:00Z</time>
      </trkpt>
      <trkpt lat="43.2994940" lon="-2.0622640">
        <ele>328.4</ele>
        <time>2022-11-27T09:09:01Z</time>
      </trkpt>
      <trkpt lat="43.2994770" lon="-2.0623090">
        <ele>328.6</ele>
        <time>2022-11-27T09:09:02Z</time>
      </trkpt>
      <trkpt lat="43.2994610" lon="-2.0623550">
        <ele>329.0</ele>
        <time>2022-11-27T09:09:03Z</time>
      </trkpt>
      <trkpt lat="43.2994470" lon="-2.0623980">
        <ele>329.4</ele>
        <time>2022-11-27T09:09:04Z</time>
      </trkpt>
      <trkpt lat="43.2994350" lon="-2.0624410">
        <ele>329.6</ele>
        <time>2022-11-27T09:09:05Z</time>
      </trkpt>
      <trkpt lat="43.2994220" lon="-2.0624820">
        <ele>330.0</ele>
        <time>2022-11-27T09:09:06Z</time>
      </trkpt>
      <trkpt lat="43.2994090" lon="-2.0625210">
        <ele>330.0</ele>
        <time>2022-11-27T09:09:07Z</time>
      </trkpt>
      <trkpt lat="43.2993940" lon="-2.0625570">
        <ele>330.4</ele>
        <time>2022-11-27T09:09:08Z</time>
      </trkpt>
      <trkpt lat="43.2993770" lon="-2.0625930">
        <ele>330.4</ele>
        <time>2022-11-27T09:09:09Z</time>
      </trkpt>
      <trkpt lat="43.2993610" lon="-2.0626320">
        <ele>330.6</ele>
        <time>2022-11-27T09:09:10Z</time>
      </trkpt>
      <trkpt lat="43.2993440" lon="-2.0626710">
        <ele>331.2</ele>
        <time>2022-11-27T09:09:11Z</time>
      </trkpt>
      <trkpt lat="43.2993270" lon="-2.0627110">
        <ele>331.6</ele>
        <time>2022-11-27T09:09:12Z</time>
      </trkpt>
      <trkpt lat="43.2993100" lon="-2.0627510">
        <ele>332.0</ele>
        <time>2022-11-27T09:09:13Z</time>
      </trkpt>
      <trkpt lat="43.2992920" lon="-2.0627890">
        <ele>332.6</ele>
        <time>2022-11-27T09:09:14Z</time>
      </trkpt>
      <trkpt lat="43.2992750" lon="-2.0628260">
        <ele>333.0</ele>
        <time>2022-11-27T09:09:15Z</time>
      </trkpt>
      <trkpt lat="43.2992590" lon="-2.0628640">
        <ele>333.4</ele>
        <time>2022-11-27T09:09:16Z</time>
      </trkpt>
      <trkpt lat="43.2992470" lon="-2.0629040">
        <ele>333.8</ele>
        <time>2022-11-27T09:09:17Z</time>
      </trkpt>
      <trkpt lat="43.2992360" lon="-2.0629460">
        <ele>334.2</ele>
        <time>2022-11-27T09:09:18Z</time>
      </trkpt>
      <trkpt lat="43.2992250" lon="-2.0629870">
        <ele>334.6</ele>
        <time>2022-11-27T09:09:19Z</time>
      </trkpt>
      <trkpt lat="43.2992150" lon="-2.0630280">
        <ele>335.0</ele>
        <time>2022-11-27T09:09:20Z</time>
      </trkpt>
      <trkpt lat="43.2992070" lon="-2.0630700">
        <ele>335.4</ele>
        <time>2022-11-27T09:09:21Z</time>
      </trkpt>
      <trkpt lat="43.2992000" lon="-2.0631150">
        <ele>335.6</ele>
        <time>2022-11-27T09:09:22Z</time>
      </trkpt>
      <trkpt lat="43.2991960" lon="-2.0631600">
        <ele>335.8</ele>
        <time>2022-11-27T09:09:23Z</time>
      </trkpt>
      <trkpt lat="43.2991940" lon="-2.0632030">
        <ele>336.2</ele>
        <time>2022-11-27T09:09:24Z</time>
      </trkpt>
      <trkpt lat="43.2991920" lon="-2.0632460">
        <ele>336.8</ele>
        <time>2022-11-27T09:09:25Z</time>
      </trkpt>
      <trkpt lat="43.2991910" lon="-2.0632890">
        <ele>336.8</ele>
        <time>2022-11-27T09:09:26Z</time>
      </trkpt>
      <trkpt lat="43.2991900" lon="-2.0633300">
        <ele>337.0</ele>
        <time>2022-11-27T09:09:27Z</time>
      </trkpt>
      <trkpt lat="43.2991910" lon="-2.0633710">
        <ele>337.6</ele>
        <time>2022-11-27T09:09:28Z</time>
      </trkpt>
      <trkpt lat="43.2991950" lon="-2.0634120">
        <ele>337.8</ele>
        <time>2022-11-27T09:09:29Z</time>
      </trkpt>
      <trkpt lat="43.2992000" lon="-2.0634520">
        <ele>338.0</ele>
        <time>2022-11-27T09:09:30Z</time>
      </trkpt>
      <trkpt lat="43.2992040" lon="-2.0634920">
        <ele>338.4</ele>
        <time>2022-11-27T09:09:31Z</time>
      </trkpt>
      <trkpt lat="43.2992120" lon="-2.0635300">
        <ele>338.8</ele>
        <time>2022-11-27T09:09:32Z</time>
      </trkpt>
      <trkpt lat="43.2992210" lon="-2.0635660">
        <ele>339.2</ele>
        <time>2022-11-27T09:09:33Z</time>
      </trkpt>
      <trkpt lat="43.2992300" lon="-2.0636000">
        <ele>339.6</ele>
        <time>2022-11-27T09:09:34Z</time>
      </trkpt>
      <trkpt lat="43.2992400" lon="-2.0636290">
        <ele>340.0</ele>
        <time>2022-11-27T09:09:35Z</time>
      </trkpt>
      <trkpt lat="43.2992480" lon="-2.0636580">
        <ele>340.4</ele>
        <time>2022-11-27T09:09:36Z</time>
      </trkpt>
      <trkpt lat="43.2992580" lon="-2.0636840">
        <ele>340.8</ele>
        <time>2022-11-27T09:09:37Z</time>
      </trkpt>
      <trkpt lat="43.2992680" lon="-2.0637130">
        <ele>341.0</ele>
        <time>2022-11-27T09:09:38Z</time>
      </trkpt>
      <trkpt lat="43.2992790" lon="-2.0637390">
        <ele>341.2</ele>
        <time>2022-11-27T09:09:39Z</time>
      </trkpt>
      <trkpt lat="43.2992930" lon="-2.0637630">
        <ele>341.6</ele>
        <time>2022-11-27T09:09:40Z</time>
      </trkpt>
      <trkpt lat="43.2993080" lon="-2.0637900">
        <ele>341.8</ele>
        <time>2022-11-27T09:09:41Z</time>
      </trkpt>
      <trkpt lat="43.2993230" lon="-2.0638200">
        <ele>342.2</ele>
        <time>2022-11-27T09:09:42Z</time>
      </trkpt>
      <trkpt lat="43.2993360" lon="-2.0638530">
        <ele>342.4</ele>
        <time>2022-11-27T09:09:43Z</time>
      </trkpt>
      <trkpt lat="43.2993490" lon="-2.0638930">
        <ele>342.6</ele>
        <time>2022-11-27T09:09:44Z</time>
      </trkpt>
      <trkpt lat="43.2993620" lon="-2.0639400">
        <ele>342.6</ele>
        <time>2022-11-27T09:09:45Z</time>
      </trkpt>
      <trkpt lat="43.2993770" lon="-2.0639870">
        <ele>342.6</ele>
        <time>2022-11-27T09:09:46Z</time>
      </trkpt>
      <trkpt lat="43.2993910" lon="-2.0640360">
        <ele>342.8</ele>
        <time>2022-11-27T09:09:47Z</time>
      </trkpt>
      <trkpt lat="43.2994060" lon="-2.0640860">
        <ele>342.8</ele>
        <time>2022-11-27T09:09:48Z</time>
      </trkpt>
      <trkpt lat="43.2994260" lon="-2.0641390">
        <ele>342.8</ele>
        <time>2022-11-27T09:09:49Z</time>
      </trkpt>
      <trkpt lat="43.2994470" lon="-2.0641910">
        <ele>342.8</ele>
        <time>2022-11-27T09:09:50Z</time>
      </trkpt>
      <trkpt lat="43.2994690" lon="-2.0642420">
        <ele>342.8</ele>
        <time>2022-11-27T09:09:51Z</time>
      </trkpt>
      <trkpt lat="43.2994890" lon="-2.0642970">
        <ele>342.8</ele>
        <time>2022-11-27T09:09:52Z</time>
      </trkpt>
      <trkpt lat="43.2995110" lon="-2.0643540">
        <ele>342.8</ele>
        <time>2022-11-27T09:09:53Z</time>
      </trkpt>
      <trkpt lat="43.2995330" lon="-2.0644140">
        <ele>342.8</ele>
        <time>2022-11-27T09:09:54Z</time>
      </trkpt>
      <trkpt lat="43.2995560" lon="-2.0644760">
        <ele>342.8</ele>
        <time>2022-11-27T09:09:55Z</time>
      </trkpt>
      <trkpt lat="43.2995750" lon="-2.0645400">
        <ele>342.6</ele>
        <time>2022-11-27T09:09:56Z</time>
      </trkpt>
      <trkpt lat="43.2995960" lon="-2.0646060">
        <ele>342.4</ele>
        <time>2022-11-27T09:09:57Z</time>
      </trkpt>
      <trkpt lat="43.2996190" lon="-2.0646730">
        <ele>342.4</ele>
        <time>2022-11-27T09:09:58Z</time>
      </trkpt>
      <trkpt lat="43.2996410" lon="-2.0647420">
        <ele>342.2</ele>
        <time>2022-11-27T09:09:59Z</time>
      </trkpt>
      <trkpt lat="43.2996630" lon="-2.0648120">
        <ele>342.0</ele>
        <time>2022-11-27T09:10:00Z</time>
      </trkpt>
      <trkpt lat="43.2996810" lon="-2.0648820">
        <ele>342.0</ele>
        <time>2022-11-27T09:10:01Z</time>
      </trkpt>
      <trkpt lat="43.2996930" lon="-2.0649530">
        <ele>341.8</ele>
        <time>2022-11-27T09:10:02Z</time>
      </trkpt>
      <trkpt lat="43.2997010" lon="-2.0650250">
        <ele>341.6</ele>
        <time>2022-11-27T09:10:03Z</time>
      </trkpt>
      <trkpt lat="43.2997000" lon="-2.0651050">
        <ele>341.6</ele>
        <time>2022-11-27T09:10:04Z</time>
      </trkpt>
      <trkpt lat="43.2996910" lon="-2.0651880">
        <ele>341.6</ele>
        <time>2022-11-27T09:10:05Z</time>
      </trkpt>
      <trkpt lat="43.2996730" lon="-2.0652730">
        <ele>341.4</ele>
        <time>2022-11-27T09:10:06Z</time>
      </trkpt>
      <trkpt lat="43.2996490" lon="-2.0653560">
        <ele>341.4</ele>
        <time>2022-11-27T09:10:07Z</time>
      </trkpt>
      <trkpt lat="43.2996200" lon="-2.0654420">
        <ele>341.4</ele>
        <time>2022-11-27T09:10:08Z</time>
      </trkpt>
      <trkpt lat="43.2995880" lon="-2.0655320">
        <ele>341.2</ele>
        <time>2022-11-27T09:10:09Z</time>
      </trkpt>
      <trkpt lat="43.2995570" lon="-2.0656270">
        <ele>341.0</ele>
        <time>2022-11-27T09:10:10Z</time>
      </trkpt>
      <trkpt lat="43.2995310" lon="-2.0657270">
        <ele>340.8</ele>
        <time>2022-11-27T09:10:11Z</time>
      </trkpt>
      <trkpt lat="43.2995150" lon="-2.0658310">
        <ele>340.6</ele>
        <time>2022-11-27T09:10:12Z</time>
      </trkpt>
      <trkpt lat="43.2995150" lon="-2.0659360">
        <ele>340.6</ele>
        <time>2022-11-27T09:10:13Z</time>
      </trkpt>
      <trkpt lat="43.2995320" lon="-2.0660330">
        <ele>340.4</ele>
        <time>2022-11-27T09:10:14Z</time>
      </trkpt>
      <trkpt lat="43.2995670" lon="-2.0661170">
        <ele>340.2</ele>
        <time>2022-11-27T09:10:15Z</time>
      </trkpt>
      <trkpt lat="43.2996150" lon="-2.0661840">
        <ele>340.2</ele>
        <time>2022-11-27T09:10:16Z</time>
      </trkpt>
      <trkpt lat="43.2996700" lon="-2.0662380">
        <ele>340.0</ele>
        <time>2022-11-27T09:10:17Z</time>
      </trkpt>
      <trkpt lat="43.2997280" lon="-2.0662810">
        <ele>339.8</ele>
        <time>2022-11-27T09:10:18Z</time>
      </trkpt>
      <trkpt lat="43.2997850" lon="-2.0663180">
        <ele>339.6</ele>
        <time>2022-11-27T09:10:19Z</time>
      </trkpt>
      <trkpt lat="43.2998420" lon="-2.0663580">
        <ele>339.2</ele>
        <time>2022-11-27T09:10:20Z</time>
      </trkpt>
      <trkpt lat="43.2998940" lon="-2.0664040">
        <ele>339.0</ele>
        <time>2022-11-27T09:10:21Z</time>
      </trkpt>
      <trkpt lat="43.2999430" lon="-2.0664560">
        <ele>339.0</ele>
        <time>2022-11-27T09:10:22Z</time>
      </trkpt>
      <trkpt lat="43.2999840" lon="-2.0665140">
        <ele>338.8</ele>
        <time>2022-11-27T09:10:23Z</time>
      </trkpt>
      <trkpt lat="43.3000150" lon="-2.0665790">
        <ele>338.8</ele>
        <time>2022-11-27T09:10:24Z</time>
      </trkpt>
      <trkpt lat="43.3000410" lon="-2.0666500">
        <ele>338.8</ele>
        <time>2022-11-27T09:10:25Z</time>
      </trkpt>
      <trkpt lat="43.3000620" lon="-2.0667250">
        <ele>338.8</ele>
        <time>2022-11-27T09:10:26Z</time>
      </trkpt>
      <trkpt lat="43.3000770" lon="-2.0668000">
        <ele>338.8</ele>
        <time>2022-11-27T09:10:27Z</time>
      </trkpt>
      <trkpt lat="43.3000870" lon="-2.0668730">
        <ele>338.8</ele>
        <time>2022-11-27T09:10:28Z</time>
      </trkpt>
      <trkpt lat="43.3000940" lon="-2.0669470">
        <ele>338.8</ele>
        <time>2022-11-27T09:10:29Z</time>
      </trkpt>
      <trkpt lat="43.3000950" lon="-2.0670200">
        <ele>338.8</ele>
        <time>2022-11-27T09:10:30Z</time>
      </trkpt>
      <trkpt lat="43.3000900" lon="-2.0670910">
        <ele>339.0</ele>
        <time>2022-11-27T09:10:31Z</time>
      </trkpt>
      <trkpt lat="43.3000800" lon="-2.0671610">
        <ele>339.2</ele>
        <time>2022-11-27T09:10:32Z</time>
      </trkpt>
      <trkpt lat="43.3000650" lon="-2.0672280">
        <ele>339.4</ele>
        <time>2022-11-27T09:10:33Z</time>
      </trkpt>
      <trkpt lat="43.3000480" lon="-2.0672950">
        <ele>340.0</ele>
        <time>2022-11-27T09:10:34Z</time>
      </trkpt>
      <trkpt lat="43.3000300" lon="-2.0673590">
        <ele>340.2</ele>
        <time>2022-11-27T09:10:35Z</time>
      </trkpt>
      <trkpt lat="43.3000100" lon="-2.0674240">
        <ele>340.4</ele>
        <time>2022-11-27T09:10:36Z</time>
      </trkpt>
      <trkpt lat="43.2999850" lon="-2.0674890">
        <ele>340.6</ele>
        <time>2022-11-27T09:10:37Z</time>
      </trkpt>
      <trkpt lat="43.2999540" lon="-2.0675570">
        <ele>341.0</ele>
        <time>2022-11-27T09:10:38Z</time>
      </trkpt>
      <trkpt lat="43.2999180" lon="-2.0676260">
        <ele>341.2</ele>
        <time>2022-11-27T09:10:39Z</time>
      </trkpt>
      <trkpt lat="43.2998810" lon="-2.0676950">
        <ele>341.4</ele>
        <time>2022-11-27T09:10:40Z</time>
      </trkpt>
      <trkpt lat="43.2998440" lon="-2.0677640">
        <ele>341.8</ele>
        <time>2022-11-27T09:10:41Z</time>
      </trkpt>
      <trkpt lat="43.2998050" lon="-2.0678270">
        <ele>342.0</ele>
        <time>2022-11-27T09:10:42Z</time>
      </trkpt>
      <trkpt lat="43.2997650" lon="-2.0678860">
        <ele>342.4</ele>
        <time>2022-11-27T09:10:43Z</time>
      </trkpt>
      <trkpt lat="43.2997250" lon="-2.0679410">
        <ele>342.8</ele>
        <time>2022-11-27T09:10:44Z</time>
      </trkpt>
      <trkpt lat="43.2996830" lon="-2.0679960">
        <ele>342.8</ele>
        <time>2022-11-27T09:10:45Z</time>
      </trkpt>
      <trkpt lat="43.2996380" lon="-2.0680570">
        <ele>343.2</ele>
        <time>2022-11-27T09:10:46Z</time>
      </trkpt>
      <trkpt lat="43.2995940" lon="-2.0681250">
        <ele>343.6</ele>
        <time>2022-11-27T09:10:47Z</time>
      </trkpt>
      <trkpt lat="43.2995520" lon="-2.0681950">
        <ele>344.2</ele>
        <time>2022-11-27T09:10:48Z</time>
      </trkpt>
      <trkpt lat="43.2995160" lon="-2.0682680">
        <ele>344.4</ele>
        <time>2022-11-27T09:10:49Z</time>
      </trkpt>
      <trkpt lat="43.2994840" lon="-2.0683420">
        <ele>345.0</ele>
        <time>2022-11-27T09:10:50Z</time>
      </trkpt>
      <trkpt lat="43.2994540" lon="-2.0684200">
        <ele>345.6</ele>
        <time>2022-11-27T09:10:51Z</time>
      </trkpt>
      <trkpt lat="43.2994280" lon="-2.0684990">
        <ele>346.6</ele>
        <time>2022-11-27T09:10:52Z</time>
      </trkpt>
      <trkpt lat="43.2994040" lon="-2.0685820">
        <ele>347.4</ele>
        <time>2022-11-27T09:10:53Z</time>
      </trkpt>
      <trkpt lat="43.2993840" lon="-2.0686650">
        <ele>348.0</ele>
        <time>2022-11-27T09:10:54Z</time>
      </trkpt>
      <trkpt lat="43.2993710" lon="-2.0687480">
        <ele>348.4</ele>
        <time>2022-11-27T09:10:55Z</time>
      </trkpt>
      <trkpt lat="43.2993640" lon="-2.0688340">
        <ele>348.8</ele>
        <time>2022-11-27T09:10:56Z</time>
      </trkpt>
      <trkpt lat="43.2993630" lon="-2.0689220">
        <ele>349.0</ele>
        <time>2022-11-27T09:10:57Z</time>
      </trkpt>
      <trkpt lat="43.2993630" lon="-2.0690080">
        <ele>349.2</ele>
        <time>2022-11-27T09:10:58Z</time>
      </trkpt>
      <trkpt lat="43.2993620" lon="-2.0690930">
        <ele>349.2</ele>
        <time>2022-11-27T09:10:59Z</time>
      </trkpt>
      <trkpt lat="43.2993610" lon="-2.0691770">
        <ele>349.4</ele>
        <time>2022-11-27T09:11:00Z</time>
      </trkpt>
      <trkpt lat="43.2993560" lon="-2.0692600">
        <ele>349.4</ele>
        <time>2022-11-27T09:11:01Z</time>
      </trkpt>
      <trkpt lat="43.2993460" lon="-2.0693450">
        <ele>349.6</ele>
        <time>2022-11-27T09:11:02Z</time>
      </trkpt>
      <trkpt lat="43.2993300" lon="-2.0694300">
        <ele>349.8</ele>
        <time>2022-11-27T09:11:03Z</time>
      </trkpt>
      <trkpt lat="43.2993100" lon="-2.0695130">
        <ele>349.8</ele>
        <time>2022-11-27T09:11:04Z</time>
      </trkpt>
      <trkpt lat="43.2992860" lon="-2.0695900">
        <ele>349.8</ele>
        <time>2022-11-27T09:11:05Z</time>
      </trkpt>
      <trkpt lat="43.2992590" lon="-2.0696650">
        <ele>350.0</ele>
        <time>2022-11-27T09:11:06Z</time>
      </trkpt>
      <trkpt lat="43.2992260" lon="-2.0697390">
        <ele>350.2</ele>
        <time>2022-11-27T09:11:07Z</time>
      </trkpt>
      <trkpt lat="43.2991910" lon="-2.0698080">
        <ele>350.4</ele>
        <time>2022-11-27T09:11:08Z</time>
      </trkpt>
      <trkpt lat="43.2991550" lon="-2.0698740">
        <ele>350.8</ele>
        <time>2022-11-27T09:11:09Z</time>
      </trkpt>
      <trkpt lat="43.2991200" lon="-2.0699360">
        <ele>350.8</ele>
        <time>2022-11-27T09:11:10Z</time>
      </trkpt>
      <trkpt lat="43.2990880" lon="-2.0699920">
        <ele>351.2</ele>
        <time>2022-11-27T09:11:11Z</time>
      </trkpt>
      <trkpt lat="43.2990560" lon="-2.0700440">
        <ele>351.4</ele>
        <time>2022-11-27T09:11:12Z</time>
      </trkpt>
      <trkpt lat="43.2990260" lon="-2.0700940">
        <ele>351.8</ele>
        <time>2022-11-27T09:11:13Z</time>
      </trkpt>
      <trkpt lat="43.2989990" lon="-2.0701420">
        <ele>351.8</ele>
        <time>2022-11-27T09:11:14Z</time>
      </trkpt>
      <trkpt lat="43.2989710" lon="-2.0701870">
        <ele>352.0</ele>
        <time>2022-11-27T09:11:15Z</time>
      </trkpt>
      <trkpt lat="43.2989420" lon="-2.0702290">
        <ele>352.4</ele>
        <time>2022-11-27T09:11:16Z</time>
      </trkpt>
      <trkpt lat="43.2989120" lon="-2.0702690">
        <ele>352.6</ele>
        <time>2022-11-27T09:11:17Z</time>
      </trkpt>
      <trkpt lat="43.2988820" lon="-2.0703030">
        <ele>352.8</ele>
        <time>2022-11-27T09:11:18Z</time>
      </trkpt>
      <trkpt lat="43.2988650" lon="-2.0703320">
        <ele>353.2</ele>
        <time>2022-11-27T09:11:19Z</time>
      </trkpt>
      <trkpt lat="43.2988550" lon="-2.0703600">
        <ele>353.6</ele>
        <time>2022-11-27T09:11:20Z</time>
      </trkpt>
      <trkpt lat="43.2988440" lon="-2.0703860">
        <ele>354.2</ele>
        <time>2022-11-27T09:11:21Z</time>
      </trkpt>
      <trkpt lat="43.2988330" lon="-2.0704010">
        <ele>354.4</ele>
        <time>2022-11-27T09:11:22Z</time>
      </trkpt>
      <trkpt lat="43.2988280" lon="-2.0704040">
        <ele>354.6</ele>
        <time>2022-11-27T09:11:23Z</time>
      </trkpt>
      <trkpt lat="43.2988280" lon="-2.0704050">
        <ele>354.6</ele>
        <time>2022-11-27T09:11:24Z</time>
      </trkpt>
      <trkpt lat="43.2987260" lon="-2.0703990">
        <ele>355.0</ele>
        <time>2022-11-27T09:13:19Z</time>
      </trkpt>
      <trkpt lat="43.2987030" lon="-2.0704080">
        <ele>355.0</ele>
        <time>2022-11-27T09:13:20Z</time>
      </trkpt>
      <trkpt lat="43.2986750" lon="-2.0704240">
        <ele>355.0</ele>
        <time>2022-11-27T09:13:21Z</time>
      </trkpt>
      <trkpt lat="43.2986410" lon="-2.0704440">
        <ele>354.8</ele>
        <time>2022-11-27T09:13:22Z</time>
      </trkpt>
      <trkpt lat="43.2986010" lon="-2.0704630">
        <ele>354.8</ele>
        <time>2022-11-27T09:13:23Z</time>
      </trkpt>
      <trkpt lat="43.2985550" lon="-2.0704860">
        <ele>354.8</ele>
        <time>2022-11-27T09:13:24Z</time>
      </trkpt>
      <trkpt lat="43.2985040" lon="-2.0705070">
        <ele>354.8</ele>
        <time>2022-11-27T09:13:25Z</time>
      </trkpt>
      <trkpt lat="43.2984500" lon="-2.0705260">
        <ele>354.6</ele>
        <time>2022-11-27T09:13:26Z</time>
      </trkpt>
      <trkpt lat="43.2983940" lon="-2.0705480">
        <ele>354.6</ele>
        <time>2022-11-27T09:13:27Z</time>
      </trkpt>
      <trkpt lat="43.2983370" lon="-2.0705730">
        <ele>354.6</ele>
        <time>2022-11-27T09:13:28Z</time>
      </trkpt>
      <trkpt lat="43.2982800" lon="-2.0706010">
        <ele>354.4</ele>
        <time>2022-11-27T09:13:29Z</time>
      </trkpt>
      <trkpt lat="43.2982220" lon="-2.0706320">
        <ele>354.4</ele>
        <time>2022-11-27T09:13:30Z</time>
      </trkpt>
      <trkpt lat="43.2981640" lon="-2.0706650">
        <ele>354.2</ele>
        <time>2022-11-27T09:13:31Z</time>
      </trkpt>
      <trkpt lat="43.2981090" lon="-2.0707040">
        <ele>354.0</ele>
        <time>2022-11-27T09:13:32Z</time>
      </trkpt>
      <trkpt lat="43.2980580" lon="-2.0707510">
        <ele>353.8</ele>
        <time>2022-11-27T09:13:33Z</time>
      </trkpt>
      <trkpt lat="43.2980100" lon="-2.0708070">
        <ele>353.6</ele>
        <time>2022-11-27T09:13:34Z</time>
      </trkpt>
      <trkpt lat="43.2979670" lon="-2.0708690">
        <ele>353.2</ele>
        <time>2022-11-27T09:13:35Z</time>
      </trkpt>
      <trkpt lat="43.2979250" lon="-2.0709340">
        <ele>353.0</ele>
        <time>2022-11-27T09:13:36Z</time>
      </trkpt>
      <trkpt lat="43.2978870" lon="-2.0710030">
        <ele>352.6</ele>
        <time>2022-11-27T09:13:37Z</time>
      </trkpt>
      <trkpt lat="43.2978560" lon="-2.0710780">
        <ele>352.4</ele>
        <time>2022-11-27T09:13:38Z</time>
      </trkpt>
      <trkpt lat="43.2978280" lon="-2.0711590">
        <ele>352.2</ele>
        <time>2022-11-27T09:13:39Z</time>
      </trkpt>
      <trkpt lat="43.2978040" lon="-2.0712460">
        <ele>352.2</ele>
        <time>2022-11-27T09:13:40Z</time>
      </trkpt>
      <trkpt lat="43.2977810" lon="-2.0713370">
        <ele>352.0</ele>
        <time>2022-11-27T09:13:41Z</time>
      </trkpt>
      <trkpt lat="43.2977620" lon="-2.0714300">
        <ele>352.0</ele>
        <time>2022-11-27T09:13:42Z</time>
      </trkpt>
      <trkpt lat="43.2977480" lon="-2.0715240">
        <ele>352.0</ele>
        <time>2022-11-27T09:13:43Z</time>
      </trkpt>
      <trkpt lat="43.2977410" lon="-2.0716180">
        <ele>351.8</ele>
        <time>2022-11-27T09:13:44Z</time>
      </trkpt>
      <trkpt lat="43.2977410" lon="-2.0717110">
        <ele>351.8</ele>
        <time>2022-11-27T09:13:45Z</time>
      </trkpt>
      <trkpt lat="43.2977500" lon="-2.0718030">
        <ele>351.8</ele>
        <time>2022-11-27T09:13:46Z</time>
      </trkpt>
      <trkpt lat="43.2977610" lon="-2.0718970">
        <ele>351.8</ele>
        <time>2022-11-27T09:13:47Z</time>
      </trkpt>
      <trkpt lat="43.2977690" lon="-2.0719920">
        <ele>351.8</ele>
        <time>2022-11-27T09:13:48Z</time>
      </trkpt>
      <trkpt lat="43.2977720" lon="-2.0720900">
        <ele>351.8</ele>
        <time>2022-11-27T09:13:49Z</time>
      </trkpt>
      <trkpt lat="43.2977670" lon="-2.0721920">
        <ele>351.8</ele>
        <time>2022-11-27T09:13:50Z</time>
      </trkpt>
      <trkpt lat="43.2977610" lon="-2.0722970">
        <ele>351.8</ele>
        <time>2022-11-27T09:13:51Z</time>
      </trkpt>
      <trkpt lat="43.2977500" lon="-2.0724020">
        <ele>351.8</ele>
        <time>2022-11-27T09:13:52Z</time>
      </trkpt>
      <trkpt lat="43.2977350" lon="-2.0725070">
        <ele>351.8</ele>
        <time>2022-11-27T09:13:53Z</time>
      </trkpt>
      <trkpt lat="43.2977150" lon="-2.0726100">
        <ele>351.8</ele>
        <time>2022-11-27T09:13:54Z</time>
      </trkpt>
      <trkpt lat="43.2976930" lon="-2.0727100">
        <ele>351.8</ele>
        <time>2022-11-27T09:13:55Z</time>
      </trkpt>
      <trkpt lat="43.2976710" lon="-2.0728060">
        <ele>351.8</ele>
        <time>2022-11-27T09:13:56Z</time>
      </trkpt>
      <trkpt lat="43.2976470" lon="-2.0729000">
        <ele>351.8</ele>
        <time>2022-11-27T09:13:57Z</time>
      </trkpt>
      <trkpt lat="43.2976250" lon="-2.0729930">
        <ele>351.8</ele>
        <time>2022-11-27T09:13:58Z</time>
      </trkpt>
      <trkpt lat="43.2976060" lon="-2.0730860">
        <ele>351.2</ele>
        <time>2022-11-27T09:13:59Z</time>
      </trkpt>
      <trkpt lat="43.2975880" lon="-2.0731800">
        <ele>350.2</ele>
        <time>2022-11-27T09:14:00Z</time>
      </trkpt>
      <trkpt lat="43.2975720" lon="-2.0732760">
        <ele>349.6</ele>
        <time>2022-11-27T09:14:01Z</time>
      </trkpt>
      <trkpt lat="43.2975560" lon="-2.0733740">
        <ele>349.0</ele>
        <time>2022-11-27T09:14:02Z</time>
      </trkpt>
      <trkpt lat="43.2975420" lon="-2.0734710">
        <ele>348.6</ele>
        <time>2022-11-27T09:14:03Z</time>
      </trkpt>
      <trkpt lat="43.2975280" lon="-2.0735680">
        <ele>348.4</ele>
        <time>2022-11-27T09:14:04Z</time>
      </trkpt>
      <trkpt lat="43.2975130" lon="-2.0736630">
        <ele>348.2</ele>
        <time>2022-11-27T09:14:05Z</time>
      </trkpt>
      <trkpt lat="43.2975030" lon="-2.0737570">
        <ele>348.0</ele>
        <time>2022-11-27T09:14:06Z</time>
      </trkpt>
      <trkpt lat="43.2975000" lon="-2.0738480">
        <ele>348.0</ele>
        <time>2022-11-27T09:14:07Z</time>
      </trkpt>
      <trkpt lat="43.2975050" lon="-2.0739350">
        <ele>348.0</ele>
        <time>2022-11-27T09:14:08Z</time>
      </trkpt>
      <trkpt lat="43.2975190" lon="-2.0740100">
        <ele>348.0</ele>
        <time>2022-11-27T09:14:09Z</time>
      </trkpt>
      <trkpt lat="43.2975420" lon="-2.0740800">
        <ele>348.0</ele>
        <time>2022-11-27T09:14:10Z</time>
      </trkpt>
      <trkpt lat="43.2975670" lon="-2.0741480">
        <ele>348.0</ele>
        <time>2022-11-27T09:14:11Z</time>
      </trkpt>
      <trkpt lat="43.2975920" lon="-2.0742100">
        <ele>348.0</ele>
        <time>2022-11-27T09:14:12Z</time>
      </trkpt>
      <trkpt lat="43.2976160" lon="-2.0742640">
        <ele>348.0</ele>
        <time>2022-11-27T09:14:13Z</time>
      </trkpt>
      <trkpt lat="43.2976390" lon="-2.0743130">
        <ele>348.0</ele>
        <time>2022-11-27T09:14:14Z</time>
      </trkpt>
      <trkpt lat="43.2976590" lon="-2.0743620">
        <ele>348.0</ele>
        <time>2022-11-27T09:14:15Z</time>
      </trkpt>
      <trkpt lat="43.2976780" lon="-2.0744110">
        <ele>348.0</ele>
        <time>2022-11-27T09:14:16Z</time>
      </trkpt>
      <trkpt lat="43.2976930" lon="-2.0744640">
        <ele>348.0</ele>
        <time>2022-11-27T09:14:17Z</time>
      </trkpt>
      <trkpt lat="43.2977020" lon="-2.0745200">
        <ele>348.2</ele>
        <time>2022-11-27T09:14:18Z</time>
      </trkpt>
      <trkpt lat="43.2977040" lon="-2.0745810">
        <ele>348.6</ele>
        <time>2022-11-27T09:14:19Z</time>
      </trkpt>
      <trkpt lat="43.2976990" lon="-2.0746440">
        <ele>349.0</ele>
        <time>2022-11-27T09:14:20Z</time>
      </trkpt>
      <trkpt lat="43.2976900" lon="-2.0747100">
        <ele>349.4</ele>
        <time>2022-11-27T09:14:21Z</time>
      </trkpt>
      <trkpt lat="43.2976800" lon="-2.0747770">
        <ele>350.0</ele>
        <time>2022-11-27T09:14:22Z</time>
      </trkpt>
      <trkpt lat="43.2976680" lon="-2.0748420">
        <ele>350.6</ele>
        <time>2022-11-27T09:14:23Z</time>
      </trkpt>
      <trkpt lat="43.2976520" lon="-2.0749060">
        <ele>351.0</ele>
        <time>2022-11-27T09:14:24Z</time>
      </trkpt>
      <trkpt lat="43.2976350" lon="-2.0749680">
        <ele>351.4</ele>
        <time>2022-11-27T09:14:25Z</time>
      </trkpt>
      <trkpt lat="43.2976170" lon="-2.0750290">
        <ele>351.8</ele>
        <time>2022-11-27T09:14:26Z</time>
      </trkpt>
      <trkpt lat="43.2975970" lon="-2.0750880">
        <ele>352.2</ele>
        <time>2022-11-27T09:14:27Z</time>
      </trkpt>
      <trkpt lat="43.2975740" lon="-2.0751460">
        <ele>352.2</ele>
        <time>2022-11-27T09:14:28Z</time>
      </trkpt>
      <trkpt lat="43.2975480" lon="-2.0752030">
        <ele>352.4</ele>
        <time>2022-11-27T09:14:29Z</time>
      </trkpt>
      <trkpt lat="43.2975190" lon="-2.0752580">
        <ele>352.4</ele>
        <time>2022-11-27T09:14:30Z</time>
      </trkpt>
      <trkpt lat="43.2974860" lon="-2.0753110">
        <ele>352.6</ele>
        <time>2022-11-27T09:14:31Z</time>
      </trkpt>
      <trkpt lat="43.2974510" lon="-2.0753600">
        <ele>352.6</ele>
        <time>2022-11-27T09:14:32Z</time>
      </trkpt>
      <trkpt lat="43.2974140" lon="-2.0754080">
        <ele>352.6</ele>
        <time>2022-11-27T09:14:33Z</time>
      </trkpt>
      <trkpt lat="43.2973760" lon="-2.0754530">
        <ele>352.6</ele>
        <time>2022-11-27T09:14:34Z</time>
      </trkpt>
      <trkpt lat="43.2973360" lon="-2.0754940">
        <ele>352.8</ele>
        <time>2022-11-27T09:14:35Z</time>
      </trkpt>
      <trkpt lat="43.2972970" lon="-2.0755340">
        <ele>352.8</ele>
        <time>2022-11-27T09:14:36Z</time>
      </trkpt>
      <trkpt lat="43.2972550" lon="-2.0755730">
        <ele>352.8</ele>
        <time>2022-11-27T09:14:37Z</time>
      </trkpt>
      <trkpt lat="43.2972120" lon="-2.0756120">
        <ele>352.8</ele>
        <time>2022-11-27T09:14:38Z</time>
      </trkpt>
      <trkpt lat="43.2971670" lon="-2.0756510">
        <ele>352.8</ele>
        <time>2022-11-27T09:14:39Z</time>
      </trkpt>
      <trkpt lat="43.2971210" lon="-2.0756890">
        <ele>352.8</ele>
        <time>2022-11-27T09:14:40Z</time>
      </trkpt>
      <trkpt lat="43.2970730" lon="-2.0757260">
        <ele>352.8</ele>
        <time>2022-11-27T09:14:41Z</time>
      </trkpt>
      <trkpt lat="43.2970240" lon="-2.0757630">
        <ele>352.8</ele>
        <time>2022-11-27T09:14:42Z</time>
      </trkpt>
      <trkpt lat="43.2969860" lon="-2.0757940">
        <ele>352.8</ele>
        <time>2022-11-27T09:14:43Z</time>
      </trkpt>
      <trkpt lat="43.2969490" lon="-2.0758250">
        <ele>352.8</ele>
        <time>2022-11-27T09:14:44Z</time>
      </trkpt>
      <trkpt lat="43.2968750" lon="-2.0758870">
        <ele>352.6</ele>
        <time>2022-11-27T09:14:45Z</time>
      </trkpt>
      <trkpt lat="43.2968240" lon="-2.0759340">
        <ele>352.2</ele>
        <time>2022-11-27T09:14:46Z</time>
      </trkpt>
      <trkpt lat="43.2967750" lon="-2.0759840">
        <ele>352.2</ele>
        <time>2022-11-27T09:14:47Z</time>
      </trkpt>
      <trkpt lat="43.2967270" lon="-2.0760350">
        <ele>352.2</ele>
        <time>2022-11-27T09:14:48Z</time>
      </trkpt>
      <trkpt lat="43.2966820" lon="-2.0760910">
        <ele>352.0</ele>
        <time>2022-11-27T09:14:49Z</time>
      </trkpt>
      <trkpt lat="43.2966380" lon="-2.0761490">
        <ele>352.0</ele>
        <time>2022-11-27T09:14:50Z</time>
      </trkpt>
      <trkpt lat="43.2965970" lon="-2.0762110">
        <ele>352.0</ele>
        <time>2022-11-27T09:14:51Z</time>
      </trkpt>
      <trkpt lat="43.2965570" lon="-2.0762760">
        <ele>352.0</ele>
        <time>2022-11-27T09:14:52Z</time>
      </trkpt>
      <trkpt lat="43.2965170" lon="-2.0763450">
        <ele>352.0</ele>
        <time>2022-11-27T09:14:53Z</time>
      </trkpt>
      <trkpt lat="43.2964750" lon="-2.0764140">
        <ele>352.0</ele>
        <time>2022-11-27T09:14:54Z</time>
      </trkpt>
      <trkpt lat="43.2964310" lon="-2.0764810">
        <ele>352.0</ele>
        <time>2022-11-27T09:14:55Z</time>
      </trkpt>
      <trkpt lat="43.2963870" lon="-2.0765450">
        <ele>352.0</ele>
        <time>2022-11-27T09:14:56Z</time>
      </trkpt>
      <trkpt lat="43.2963420" lon="-2.0766110">
        <ele>352.0</ele>
        <time>2022-11-27T09:14:57Z</time>
      </trkpt>
      <trkpt lat="43.2962960" lon="-2.0766780">
        <ele>352.0</ele>
        <time>2022-11-27T09:14:58Z</time>
      </trkpt>
      <trkpt lat="43.2962510" lon="-2.0767420">
        <ele>352.0</ele>
        <time>2022-11-27T09:14:59Z</time>
      </trkpt>
      <trkpt lat="43.2962030" lon="-2.0768010">
        <ele>352.0</ele>
        <time>2022-11-27T09:15:00Z</time>
      </trkpt>
      <trkpt lat="43.2961520" lon="-2.0768530">
        <ele>352.0</ele>
        <time>2022-11-27T09:15:01Z</time>
      </trkpt>
      <trkpt lat="43.2961000" lon="-2.0769020">
        <ele>352.0</ele>
        <time>2022-11-27T09:15:02Z</time>
      </trkpt>
      <trkpt lat="43.2960490" lon="-2.0769490">
        <ele>352.2</ele>
        <time>2022-11-27T09:15:03Z</time>
      </trkpt>
      <trkpt lat="43.2959990" lon="-2.0769960">
        <ele>352.2</ele>
        <time>2022-11-27T09:15:04Z</time>
      </trkpt>
      <trkpt lat="43.2959520" lon="-2.0770410">
        <ele>352.4</ele>
        <time>2022-11-27T09:15:05Z</time>
      </trkpt>
      <trkpt lat="43.2959070" lon="-2.0770870">
        <ele>352.4</ele>
        <time>2022-11-27T09:15:06Z</time>
      </trkpt>
      <trkpt lat="43.2958640" lon="-2.0771370">
        <ele>352.4</ele>
        <time>2022-11-27T09:15:07Z</time>
      </trkpt>
      <trkpt lat="43.2958230" lon="-2.0771940">
        <ele>352.6</ele>
        <time>2022-11-27T09:15:08Z</time>
      </trkpt>
      <trkpt lat="43.2957860" lon="-2.0772590">
        <ele>352.6</ele>
        <time>2022-11-27T09:15:09Z</time>
      </trkpt>
      <trkpt lat="43.2957570" lon="-2.0773290">
        <ele>352.8</ele>
        <time>2022-11-27T09:15:10Z</time>
      </trkpt>
      <trkpt lat="43.2957360" lon="-2.0774040">
        <ele>352.8</ele>
        <time>2022-11-27T09:15:11Z</time>
      </trkpt>
      <trkpt lat="43.2957190" lon="-2.0774810">
        <ele>353.2</ele>
        <time>2022-11-27T09:15:12Z</time>
      </trkpt>
      <trkpt lat="43.2957030" lon="-2.0775580">
        <ele>353.4</ele>
        <time>2022-11-27T09:15:13Z</time>
      </trkpt>
      <trkpt lat="43.2956840" lon="-2.0776340">
        <ele>353.6</ele>
        <time>2022-11-27T09:15:14Z</time>
      </trkpt>
      <trkpt lat="43.2956630" lon="-2.0777070">
        <ele>353.8</ele>
        <time>2022-11-27T09:15:15Z</time>
      </trkpt>
      <trkpt lat="43.2956410" lon="-2.0777800">
        <ele>354.2</ele>
        <time>2022-11-27T09:15:16Z</time>
      </trkpt>
      <trkpt lat="43.2956160" lon="-2.0778520">
        <ele>354.2</ele>
        <time>2022-11-27T09:15:17Z</time>
      </trkpt>
      <trkpt lat="43.2955900" lon="-2.0779250">
        <ele>354.4</ele>
        <time>2022-11-27T09:15:18Z</time>
      </trkpt>
      <trkpt lat="43.2955630" lon="-2.0779980">
        <ele>354.4</ele>
        <time>2022-11-27T09:15:19Z</time>
      </trkpt>
      <trkpt lat="43.2955340" lon="-2.0780710">
        <ele>354.6</ele>
        <time>2022-11-27T09:15:20Z</time>
      </trkpt>
      <trkpt lat="43.2955080" lon="-2.0781450">
        <ele>354.6</ele>
        <time>2022-11-27T09:15:21Z</time>
      </trkpt>
      <trkpt lat="43.2954850" lon="-2.0782210">
        <ele>354.8</ele>
        <time>2022-11-27T09:15:22Z</time>
      </trkpt>
      <trkpt lat="43.2954650" lon="-2.0782980">
        <ele>354.8</ele>
        <time>2022-11-27T09:15:23Z</time>
      </trkpt>
      <trkpt lat="43.2954480" lon="-2.0783750">
        <ele>355.0</ele>
        <time>2022-11-27T09:15:24Z</time>
      </trkpt>
      <trkpt lat="43.2954280" lon="-2.0784510">
        <ele>355.2</ele>
        <time>2022-11-27T09:15:25Z</time>
      </trkpt>
      <trkpt lat="43.2954060" lon="-2.0785260">
        <ele>355.2</ele>
        <time>2022-11-27T09:15:26Z</time>
      </trkpt>
      <trkpt lat="43.2953820" lon="-2.0785990">
        <ele>355.2</ele>
        <time>2022-11-27T09:15:27Z</time>
      </trkpt>
      <trkpt lat="43.2953570" lon="-2.0786730">
        <ele>355.4</ele>
        <time>2022-11-27T09:15:28Z</time>
      </trkpt>
      <trkpt lat="43.2953300" lon="-2.0787440">
        <ele>355.4</ele>
        <time>2022-11-27T09:15:29Z</time>
      </trkpt>
      <trkpt lat="43.2953040" lon="-2.0788140">
        <ele>355.4</ele>
        <time>2022-11-27T09:15:30Z</time>
      </trkpt>
      <trkpt lat="43.2952790" lon="-2.0788840">
        <ele>355.4</ele>
        <time>2022-11-27T09:15:31Z</time>
      </trkpt>
      <trkpt lat="43.2952600" lon="-2.0789580">
        <ele>355.4</ele>
        <time>2022-11-27T09:15:32Z</time>
      </trkpt>
      <trkpt lat="43.2952430" lon="-2.0790340">
        <ele>355.4</ele>
        <time>2022-11-27T09:15:33Z</time>
      </trkpt>
      <trkpt lat="43.2952310" lon="-2.0791120">
        <ele>355.4</ele>
        <time>2022-11-27T09:15:34Z</time>
      </trkpt>
      <trkpt lat="43.2952260" lon="-2.0791930">
        <ele>355.2</ele>
        <time>2022-11-27T09:15:35Z</time>
      </trkpt>
      <trkpt lat="43.2952280" lon="-2.0792750">
        <ele>355.2</ele>
        <time>2022-11-27T09:15:36Z</time>
      </trkpt>
      <trkpt lat="43.2952340" lon="-2.0793590">
        <ele>355.2</ele>
        <time>2022-11-27T09:15:37Z</time>
      </trkpt>
      <trkpt lat="43.2952420" lon="-2.0794470">
        <ele>355.0</ele>
        <time>2022-11-27T09:15:38Z</time>
      </trkpt>
      <trkpt lat="43.2952510" lon="-2.0795360">
        <ele>354.6</ele>
        <time>2022-11-27T09:15:39Z</time>
      </trkpt>
      <trkpt lat="43.2952600" lon="-2.0796240">
        <ele>354.4</ele>
        <time>2022-11-27T09:15:40Z</time>
      </trkpt>
      <trkpt lat="43.2952690" lon="-2.0797120">
        <ele>354.2</ele>
        <time>2022-11-27T09:15:41Z</time>
      </trkpt>
      <trkpt lat="43.2952760" lon="-2.0797990">
        <ele>354.2</ele>
        <time>2022-11-27T09:15:42Z</time>
      </trkpt>
      <trkpt lat="43.2952820" lon="-2.0798860">
        <ele>354.2</ele>
        <time>2022-11-27T09:15:43Z</time>
      </trkpt>
      <trkpt lat="43.2952860" lon="-2.0799710">
        <ele>354.0</ele>
        <time>2022-11-27T09:15:44Z</time>
      </trkpt>
      <trkpt lat="43.2952890" lon="-2.0800550">
        <ele>354.0</ele>
        <time>2022-11-27T09:15:45Z</time>
      </trkpt>
      <trkpt lat="43.2952910" lon="-2.0801370">
        <ele>353.8</ele>
        <time>2022-11-27T09:15:46Z</time>
      </trkpt>
      <trkpt lat="43.2952890" lon="-2.0802170">
        <ele>353.6</ele>
        <time>2022-11-27T09:15:47Z</time>
      </trkpt>
      <trkpt lat="43.2952840" lon="-2.0802960">
        <ele>353.2</ele>
        <time>2022-11-27T09:15:48Z</time>
      </trkpt>
      <trkpt lat="43.2952790" lon="-2.0803740">
        <ele>353.0</ele>
        <time>2022-11-27T09:15:49Z</time>
      </trkpt>
      <trkpt lat="43.2952730" lon="-2.0804490">
        <ele>353.0</ele>
        <time>2022-11-27T09:15:50Z</time>
      </trkpt>
      <trkpt lat="43.2952640" lon="-2.0805210">
        <ele>352.6</ele>
        <time>2022-11-27T09:15:51Z</time>
      </trkpt>
      <trkpt lat="43.2952540" lon="-2.0805930">
        <ele>352.6</ele>
        <time>2022-11-27T09:15:52Z</time>
      </trkpt>
      <trkpt lat="43.2952430" lon="-2.0806650">
        <ele>352.4</ele>
        <time>2022-11-27T09:15:53Z</time>
      </trkpt>
      <trkpt lat="43.2952290" lon="-2.0807370">
        <ele>352.4</ele>
        <time>2022-11-27T09:15:54Z</time>
      </trkpt>
      <trkpt lat="43.2952150" lon="-2.0808100">
        <ele>352.2</ele>
        <time>2022-11-27T09:15:55Z</time>
      </trkpt>
      <trkpt lat="43.2952000" lon="-2.0808870">
        <ele>352.2</ele>
        <time>2022-11-27T09:15:56Z</time>
      </trkpt>
      <trkpt lat="43.2951870" lon="-2.0809650">
        <ele>351.8</ele>
        <time>2022-11-27T09:15:57Z</time>
      </trkpt>
      <trkpt lat="43.2951740" lon="-2.0810460">
        <ele>351.6</ele>
        <time>2022-11-27T09:15:58Z</time>
      </trkpt>
      <trkpt lat="43.2951620" lon="-2.0811280">
        <ele>351.2</ele>
        <time>2022-11-27T09:15:59Z</time>
      </trkpt>
      <trkpt lat="43.2951500" lon="-2.0812110">
        <ele>351.0</ele>
        <time>2022-11-27T09:16:00Z</time>
      </trkpt>
      <trkpt lat="43.2951380" lon="-2.0812920">
        <ele>351.0</ele>
        <time>2022-11-27T09:16:01Z</time>
      </trkpt>
      <trkpt lat="43.2951260" lon="-2.0813740">
        <ele>351.0</ele>
        <time>2022-11-27T09:16:02Z</time>
      </trkpt>
      <trkpt lat="43.2951140" lon="-2.0814580">
        <ele>350.8</ele>
        <time>2022-11-27T09:16:03Z</time>
      </trkpt>
      <trkpt lat="43.2951020" lon="-2.0815420">
        <ele>350.8</ele>
        <time>2022-11-27T09:16:04Z</time>
      </trkpt>
      <trkpt lat="43.2950900" lon="-2.0816250">
        <ele>350.8</ele>
        <time>2022-11-27T09:16:05Z</time>
      </trkpt>
      <trkpt lat="43.2950810" lon="-2.0817080">
        <ele>350.8</ele>
        <time>2022-11-27T09:16:06Z</time>
      </trkpt>
      <trkpt lat="43.2950720" lon="-2.0817890">
        <ele>350.8</ele>
        <time>2022-11-27T09:16:07Z</time>
      </trkpt>
      <trkpt lat="43.2950630" lon="-2.0818690">
        <ele>350.8</ele>
        <time>2022-11-27T09:16:08Z</time>
      </trkpt>
      <trkpt lat="43.2950540" lon="-2.0819490">
        <ele>350.8</ele>
        <time>2022-11-27T09:16:09Z</time>
      </trkpt>
      <trkpt lat="43.2950480" lon="-2.0820280">
        <ele>350.8</ele>
        <time>2022-11-27T09:16:10Z</time>
      </trkpt>
      <trkpt lat="43.2950460" lon="-2.0821060">
        <ele>350.8</ele>
        <time>2022-11-27T09:16:11Z</time>
      </trkpt>
      <trkpt lat="43.2950450" lon="-2.0821840">
        <ele>351.0</ele>
        <time>2022-11-27T09:16:12Z</time>
      </trkpt>
      <trkpt lat="43.2950450" lon="-2.0822630">
        <ele>351.0</ele>
        <time>2022-11-27T09:16:13Z</time>
      </trkpt>
      <trkpt lat="43.2950450" lon="-2.0823410">
        <ele>351.0</ele>
        <time>2022-11-27T09:16:14Z</time>
      </trkpt>
      <trkpt lat="43.2950470" lon="-2.0824170">
        <ele>351.2</ele>
        <time>2022-11-27T09:16:15Z</time>
      </trkpt>
      <trkpt lat="43.2950500" lon="-2.0824910">
        <ele>351.2</ele>
        <time>2022-11-27T09:16:16Z</time>
      </trkpt>
      <trkpt lat="43.2950540" lon="-2.0825650">
        <ele>351.4</ele>
        <time>2022-11-27T09:16:17Z</time>
      </trkpt>
      <trkpt lat="43.2950570" lon="-2.0826390">
        <ele>351.6</ele>
        <time>2022-11-27T09:16:18Z</time>
      </trkpt>
      <trkpt lat="43.2950590" lon="-2.0827160">
        <ele>351.8</ele>
        <time>2022-11-27T09:16:19Z</time>
      </trkpt>
      <trkpt lat="43.2950590" lon="-2.0827950">
        <ele>351.8</ele>
        <time>2022-11-27T09:16:20Z</time>
      </trkpt>
      <trkpt lat="43.2950580" lon="-2.0828710">
        <ele>352.0</ele>
        <time>2022-11-27T09:16:21Z</time>
      </trkpt>
      <trkpt lat="43.2950590" lon="-2.0829480">
        <ele>352.0</ele>
        <time>2022-11-27T09:16:22Z</time>
      </trkpt>
      <trkpt lat="43.2950600" lon="-2.0830280">
        <ele>352.0</ele>
        <time>2022-11-27T09:16:23Z</time>
      </trkpt>
      <trkpt lat="43.2950590" lon="-2.0831110">
        <ele>352.2</ele>
        <time>2022-11-27T09:16:24Z</time>
      </trkpt>
      <trkpt lat="43.2950550" lon="-2.0831970">
        <ele>352.2</ele>
        <time>2022-11-27T09:16:25Z</time>
      </trkpt>
      <trkpt lat="43.2950510" lon="-2.0832840">
        <ele>352.2</ele>
        <time>2022-11-27T09:16:26Z</time>
      </trkpt>
      <trkpt lat="43.2950480" lon="-2.0833700">
        <ele>352.2</ele>
        <time>2022-11-27T09:16:27Z</time>
      </trkpt>
      <trkpt lat="43.2950460" lon="-2.0834610">
        <ele>352.4</ele>
        <time>2022-11-27T09:16:28Z</time>
      </trkpt>
      <trkpt lat="43.2950560" lon="-2.0835570">
        <ele>352.4</ele>
        <time>2022-11-27T09:16:29Z</time>
      </trkpt>
      <trkpt lat="43.2950700" lon="-2.0836500">
        <ele>352.4</ele>
        <time>2022-11-27T09:16:30Z</time>
      </trkpt>
      <trkpt lat="43.2950860" lon="-2.0837380">
        <ele>352.4</ele>
        <time>2022-11-27T09:16:31Z</time>
      </trkpt>
      <trkpt lat="43.2951020" lon="-2.0838260">
        <ele>352.4</ele>
        <time>2022-11-27T09:16:32Z</time>
      </trkpt>
      <trkpt lat="43.2951180" lon="-2.0839110">
        <ele>352.4</ele>
        <time>2022-11-27T09:16:33Z</time>
      </trkpt>
      <trkpt lat="43.2951340" lon="-2.0839930">
        <ele>352.4</ele>
        <time>2022-11-27T09:16:34Z</time>
      </trkpt>
      <trkpt lat="43.2951480" lon="-2.0840730">
        <ele>352.6</ele>
        <time>2022-11-27T09:16:35Z</time>
      </trkpt>
      <trkpt lat="43.2951620" lon="-2.0841530">
        <ele>352.6</ele>
        <time>2022-11-27T09:16:36Z</time>
      </trkpt>
      <trkpt lat="43.2951750" lon="-2.0842350">
        <ele>352.6</ele>
        <time>2022-11-27T09:16:37Z</time>
      </trkpt>
      <trkpt lat="43.2951870" lon="-2.0843210">
        <ele>352.6</ele>
        <time>2022-11-27T09:16:38Z</time>
      </trkpt>
      <trkpt lat="43.2951990" lon="-2.0844070">
        <ele>352.8</ele>
        <time>2022-11-27T09:16:39Z</time>
      </trkpt>
      <trkpt lat="43.2952090" lon="-2.0844940">
        <ele>353.0</ele>
        <time>2022-11-27T09:16:40Z</time>
      </trkpt>
      <trkpt lat="43.2952170" lon="-2.0845800">
        <ele>353.0</ele>
        <time>2022-11-27T09:16:41Z</time>
      </trkpt>
      <trkpt lat="43.2952220" lon="-2.0846660">
        <ele>353.2</ele>
        <time>2022-11-27T09:16:42Z</time>
      </trkpt>
      <trkpt lat="43.2952200" lon="-2.0847520">
        <ele>353.4</ele>
        <time>2022-11-27T09:16:43Z</time>
      </trkpt>
      <trkpt lat="43.2952150" lon="-2.0848290">
        <ele>353.4</ele>
        <time>2022-11-27T09:16:44Z</time>
      </trkpt>
      <trkpt lat="43.2952110" lon="-2.0848880">
        <ele>353.4</ele>
        <time>2022-11-27T09:16:45Z</time>
      </trkpt>
      <trkpt lat="43.2952050" lon="-2.0849270">
        <ele>353.4</ele>
        <time>2022-11-27T09:16:46Z</time>
      </trkpt>
      <trkpt lat="43.2951930" lon="-2.0849480">
        <ele>353.6</ele>
        <time>2022-11-27T09:16:47Z</time>
      </trkpt>
      <trkpt lat="43.2951790" lon="-2.0849510">
        <ele>353.6</ele>
        <time>2022-11-27T09:16:48Z</time>
      </trkpt>
      <trkpt lat="43.2951720" lon="-2.0849390">
        <ele>353.6</ele>
        <time>2022-11-27T09:16:49Z</time>
      </trkpt>
      <trkpt lat="43.2951720" lon="-2.0849190">
        <ele>353.8</ele>
        <time>2022-11-27T09:16:50Z</time>
      </trkpt>
      <trkpt lat="43.2951790" lon="-2.0848940">
        <ele>353.8</ele>
        <time>2022-11-27T09:16:51Z</time>
      </trkpt>
      <trkpt lat="43.2951870" lon="-2.0848580">
        <ele>353.8</ele>
        <time>2022-11-27T09:16:52Z</time>
      </trkpt>
      <trkpt lat="43.2951930" lon="-2.0848090">
        <ele>353.8</ele>
        <time>2022-11-27T09:16:53Z</time>
      </trkpt>
      <trkpt lat="43.2951960" lon="-2.0847490">
        <ele>353.8</ele>
        <time>2022-11-27T09:16:54Z</time>
      </trkpt>
      <trkpt lat="43.2951970" lon="-2.0846830">
        <ele>353.8</ele>
        <time>2022-11-27T09:16:55Z</time>
      </trkpt>
      <trkpt lat="43.2951960" lon="-2.0846090">
        <ele>353.8</ele>
        <time>2022-11-27T09:16:56Z</time>
      </trkpt>
      <trkpt lat="43.2951910" lon="-2.0845300">
        <ele>353.8</ele>
        <time>2022-11-27T09:16:57Z</time>
      </trkpt>
      <trkpt lat="43.2951830" lon="-2.0844480">
        <ele>353.8</ele>
        <time>2022-11-27T09:16:58Z</time>
      </trkpt>
      <trkpt lat="43.2951710" lon="-2.0843640">
        <ele>353.8</ele>
        <time>2022-11-27T09:16:59Z</time>
      </trkpt>
      <trkpt lat="43.2951570" lon="-2.0842800">
        <ele>353.8</ele>
        <time>2022-11-27T09:17:00Z</time>
      </trkpt>
      <trkpt lat="43.2951410" lon="-2.0841940">
        <ele>353.8</ele>
        <time>2022-11-27T09:17:01Z</time>
      </trkpt>
      <trkpt lat="43.2951240" lon="-2.0841090">
        <ele>353.8</ele>
        <time>2022-11-27T09:17:02Z</time>
      </trkpt>
      <trkpt lat="43.2951070" lon="-2.0840220">
        <ele>353.8</ele>
        <time>2022-11-27T09:17:03Z</time>
      </trkpt>
      <trkpt lat="43.2950910" lon="-2.0839320">
        <ele>353.8</ele>
        <time>2022-11-27T09:17:04Z</time>
      </trkpt>
      <trkpt lat="43.2950770" lon="-2.0838420">
        <ele>353.8</ele>
        <time>2022-11-27T09:17:05Z</time>
      </trkpt>
      <trkpt lat="43.2950630" lon="-2.0837510">
        <ele>353.8</ele>
        <time>2022-11-27T09:17:06Z</time>
      </trkpt>
      <trkpt lat="43.2950500" lon="-2.0836580">
        <ele>353.6</ele>
        <time>2022-11-27T09:17:07Z</time>
      </trkpt>
      <trkpt lat="43.2950390" lon="-2.0835670">
        <ele>353.4</ele>
        <time>2022-11-27T09:17:08Z</time>
      </trkpt>
      <trkpt lat="43.2950320" lon="-2.0834790">
        <ele>353.2</ele>
        <time>2022-11-27T09:17:09Z</time>
      </trkpt>
      <trkpt lat="43.2950270" lon="-2.0833940">
        <ele>353.2</ele>
        <time>2022-11-27T09:17:10Z</time>
      </trkpt>
      <trkpt lat="43.2950230" lon="-2.0833090">
        <ele>353.0</ele>
        <time>2022-11-27T09:17:11Z</time>
      </trkpt>
      <trkpt lat="43.2950210" lon="-2.0832220">
        <ele>353.0</ele>
        <time>2022-11-27T09:17:12Z</time>
      </trkpt>
      <trkpt lat="43.2950240" lon="-2.0831350">
        <ele>353.0</ele>
        <time>2022-11-27T09:17:13Z</time>
      </trkpt>
      <trkpt lat="43.2950280" lon="-2.0830460">
        <ele>352.8</ele>
        <time>2022-11-27T09:17:14Z</time>
      </trkpt>
      <trkpt lat="43.2950330" lon="-2.0829610">
        <ele>352.8</ele>
        <time>2022-11-27T09:17:15Z</time>
      </trkpt>
      <trkpt lat="43.2950380" lon="-2.0828760">
        <ele>352.8</ele>
        <time>2022-11-27T09:17:16Z</time>
      </trkpt>
      <trkpt lat="43.2950420" lon="-2.0827890">
        <ele>352.8</ele>
        <time>2022-11-27T09:17:17Z</time>
      </trkpt>
      <trkpt lat="43.2950430" lon="-2.0826950">
        <ele>352.6</ele>
        <time>2022-11-27T09:17:18Z</time>
      </trkpt>
      <trkpt lat="43.2950430" lon="-2.0826000">
        <ele>352.6</ele>
        <time>2022-11-27T09:17:19Z</time>
      </trkpt>
      <trkpt lat="43.2950450" lon="-2.0825060">
        <ele>352.6</ele>
        <time>2022-11-27T09:17:20Z</time>
      </trkpt>
      <trkpt lat="43.2950470" lon="-2.0824120">
        <ele>352.4</ele>
        <time>2022-11-27T09:17:21Z</time>
      </trkpt>
      <trkpt lat="43.2950460" lon="-2.0823170">
        <ele>352.4</ele>
        <time>2022-11-27T09:17:22Z</time>
      </trkpt>
      <trkpt lat="43.2950450" lon="-2.0822210">
        <ele>352.4</ele>
        <time>2022-11-27T09:17:23Z</time>
      </trkpt>
      <trkpt lat="43.2950470" lon="-2.0821280">
        <ele>352.2</ele>
        <time>2022-11-27T09:17:24Z</time>
      </trkpt>
      <trkpt lat="43.2950520" lon="-2.0820350">
        <ele>352.2</ele>
        <time>2022-11-27T09:17:25Z</time>
      </trkpt>
      <trkpt lat="43.2950620" lon="-2.0819420">
        <ele>352.0</ele>
        <time>2022-11-27T09:17:26Z</time>
      </trkpt>
      <trkpt lat="43.2950730" lon="-2.0818490">
        <ele>352.0</ele>
        <time>2022-11-27T09:17:27Z</time>
      </trkpt>
      <trkpt lat="43.2950820" lon="-2.0817550">
        <ele>351.8</ele>
        <time>2022-11-27T09:17:28Z</time>
      </trkpt>
      <trkpt lat="43.2950920" lon="-2.0816630">
        <ele>351.8</ele>
        <time>2022-11-27T09:17:29Z</time>
      </trkpt>
      <trkpt lat="43.2951040" lon="-2.0815690">
        <ele>351.6</ele>
        <time>2022-11-27T09:17:30Z</time>
      </trkpt>
      <trkpt lat="43.2951160" lon="-2.0814710">
        <ele>351.6</ele>
        <time>2022-11-27T09:17:31Z</time>
      </trkpt>
      <trkpt lat="43.2951250" lon="-2.0813710">
        <ele>351.4</ele>
        <time>2022-11-27T09:17:32Z</time>
      </trkpt>
      <trkpt lat="43.2951360" lon="-2.0812700">
        <ele>351.4</ele>
        <time>2022-11-27T09:17:33Z</time>
      </trkpt>
      <trkpt lat="43.2951480" lon="-2.0811690">
        <ele>351.4</ele>
        <time>2022-11-27T09:17:34Z</time>
      </trkpt>
      <trkpt lat="43.2951620" lon="-2.0810680">
        <ele>351.2</ele>
        <time>2022-11-27T09:17:35Z</time>
      </trkpt>
      <trkpt lat="43.2951770" lon="-2.0809700">
        <ele>350.8</ele>
        <time>2022-11-27T09:17:36Z</time>
      </trkpt>
      <trkpt lat="43.2951930" lon="-2.0808740">
        <ele>350.6</ele>
        <time>2022-11-27T09:17:37Z</time>
      </trkpt>
      <trkpt lat="43.2952100" lon="-2.0807780">
        <ele>350.4</ele>
        <time>2022-11-27T09:17:38Z</time>
      </trkpt>
      <trkpt lat="43.2952270" lon="-2.0806810">
        <ele>350.4</ele>
        <time>2022-11-27T09:17:39Z</time>
      </trkpt>
      <trkpt lat="43.2952430" lon="-2.0805820">
        <ele>350.2</ele>
        <time>2022-11-27T09:17:40Z</time>
      </trkpt>
      <trkpt lat="43.2952570" lon="-2.0804810">
        <ele>350.2</ele>
        <time>2022-11-27T09:17:41Z</time>
      </trkpt>
      <trkpt lat="43.2952660" lon="-2.0803780">
        <ele>350.2</ele>
        <time>2022-11-27T09:17:42Z</time>
      </trkpt>
      <trkpt lat="43.2952720" lon="-2.0802740">
        <ele>350.2</ele>
        <time>2022-11-27T09:17:43Z</time>
      </trkpt>
      <trkpt lat="43.2952750" lon="-2.0801700">
        <ele>350.2</ele>
        <time>2022-11-27T09:17:44Z</time>
      </trkpt>
      <trkpt lat="43.2952750" lon="-2.0800660">
        <ele>350.2</ele>
        <time>2022-11-27T09:17:45Z</time>
      </trkpt>
      <trkpt lat="43.2952720" lon="-2.0799600">
        <ele>350.2</ele>
        <time>2022-11-27T09:17:46Z</time>
      </trkpt>
      <trkpt lat="43.2952670" lon="-2.0798570">
        <ele>350.2</ele>
        <time>2022-11-27T09:17:47Z</time>
      </trkpt>
      <trkpt lat="43.2952600" lon="-2.0797580">
        <ele>350.2</ele>
        <time>2022-11-27T09:17:48Z</time>
      </trkpt>
      <trkpt lat="43.2952490" lon="-2.0796610">
        <ele>350.4</ele>
        <time>2022-11-27T09:17:49Z</time>
      </trkpt>
      <trkpt lat="43.2952390" lon="-2.0795660">
        <ele>350.8</ele>
        <time>2022-11-27T09:17:50Z</time>
      </trkpt>
      <trkpt lat="43.2952300" lon="-2.0794740">
        <ele>351.0</ele>
        <time>2022-11-27T09:17:51Z</time>
      </trkpt>
      <trkpt lat="43.2952220" lon="-2.0793830">
        <ele>351.0</ele>
        <time>2022-11-27T09:17:52Z</time>
      </trkpt>
      <trkpt lat="43.2952170" lon="-2.0792930">
        <ele>351.2</ele>
        <time>2022-11-27T09:17:53Z</time>
      </trkpt>
      <trkpt lat="43.2952150" lon="-2.0792050">
        <ele>351.2</ele>
        <time>2022-11-27T09:17:54Z</time>
      </trkpt>
      <trkpt lat="43.2952170" lon="-2.0791180">
        <ele>351.4</ele>
        <time>2022-11-27T09:17:55Z</time>
      </trkpt>
      <trkpt lat="43.2952280" lon="-2.0790320">
        <ele>351.4</ele>
        <time>2022-11-27T09:17:56Z</time>
      </trkpt>
      <trkpt lat="43.2952470" lon="-2.0789470">
        <ele>351.4</ele>
        <time>2022-11-27T09:17:57Z</time>
      </trkpt>
      <trkpt lat="43.2952730" lon="-2.0788640">
        <ele>351.4</ele>
        <time>2022-11-27T09:17:58Z</time>
      </trkpt>
      <trkpt lat="43.2953020" lon="-2.0787820">
        <ele>351.6</ele>
        <time>2022-11-27T09:17:59Z</time>
      </trkpt>
      <trkpt lat="43.2953320" lon="-2.0786980">
        <ele>351.6</ele>
        <time>2022-11-27T09:18:00Z</time>
      </trkpt>
      <trkpt lat="43.2953620" lon="-2.0786130">
        <ele>351.8</ele>
        <time>2022-11-27T09:18:01Z</time>
      </trkpt>
      <trkpt lat="43.2953880" lon="-2.0785270">
        <ele>352.0</ele>
        <time>2022-11-27T09:18:02Z</time>
      </trkpt>
      <trkpt lat="43.2954130" lon="-2.0784400">
        <ele>352.2</ele>
        <time>2022-11-27T09:18:03Z</time>
      </trkpt>
      <trkpt lat="43.2954360" lon="-2.0783500">
        <ele>352.4</ele>
        <time>2022-11-27T09:18:04Z</time>
      </trkpt>
      <trkpt lat="43.2954580" lon="-2.0782580">
        <ele>352.4</ele>
        <time>2022-11-27T09:18:05Z</time>
      </trkpt>
      <trkpt lat="43.2954820" lon="-2.0781660">
        <ele>352.8</ele>
        <time>2022-11-27T09:18:06Z</time>
      </trkpt>
      <trkpt lat="43.2955080" lon="-2.0780770">
        <ele>353.4</ele>
        <time>2022-11-27T09:18:07Z</time>
      </trkpt>
      <trkpt lat="43.2955380" lon="-2.0779920">
        <ele>353.8</ele>
        <time>2022-11-27T09:18:08Z</time>
      </trkpt>
      <trkpt lat="43.2955670" lon="-2.0779090">
        <ele>354.2</ele>
        <time>2022-11-27T09:18:09Z</time>
      </trkpt>
      <trkpt lat="43.2955970" lon="-2.0778280">
        <ele>354.6</ele>
        <time>2022-11-27T09:18:10Z</time>
      </trkpt>
      <trkpt lat="43.2956260" lon="-2.0777490">
        <ele>354.8</ele>
        <time>2022-11-27T09:18:11Z</time>
      </trkpt>
      <trkpt lat="43.2956540" lon="-2.0776710">
        <ele>354.8</ele>
        <time>2022-11-27T09:18:12Z</time>
      </trkpt>
      <trkpt lat="43.2956780" lon="-2.0775880">
        <ele>354.8</ele>
        <time>2022-11-27T09:18:13Z</time>
      </trkpt>
      <trkpt lat="43.2957020" lon="-2.0774990">
        <ele>354.8</ele>
        <time>2022-11-27T09:18:14Z</time>
      </trkpt>
      <trkpt lat="43.2957290" lon="-2.0774100">
        <ele>355.0</ele>
        <time>2022-11-27T09:18:15Z</time>
      </trkpt>
      <trkpt lat="43.2957630" lon="-2.0773220">
        <ele>355.0</ele>
        <time>2022-11-27T09:18:16Z</time>
      </trkpt>
      <trkpt lat="43.2958050" lon="-2.0772360">
        <ele>355.0</ele>
        <time>2022-11-27T09:18:17Z</time>
      </trkpt>
      <trkpt lat="43.2958540" lon="-2.0771560">
        <ele>355.0</ele>
        <time>2022-11-27T09:18:18Z</time>
      </trkpt>
      <trkpt lat="43.2959080" lon="-2.0770830">
        <ele>355.0</ele>
        <time>2022-11-27T09:18:19Z</time>
      </trkpt>
      <trkpt lat="43.2959660" lon="-2.0770170">
        <ele>355.0</ele>
        <time>2022-11-27T09:18:20Z</time>
      </trkpt>
      <trkpt lat="43.2960260" lon="-2.0769550">
        <ele>355.0</ele>
        <time>2022-11-27T09:18:21Z</time>
      </trkpt>
      <trkpt lat="43.2960850" lon="-2.0768940">
        <ele>355.0</ele>
        <time>2022-11-27T09:18:22Z</time>
      </trkpt>
      <trkpt lat="43.2961440" lon="-2.0768320">
        <ele>354.8</ele>
        <time>2022-11-27T09:18:23Z</time>
      </trkpt>
      <trkpt lat="43.2962020" lon="-2.0767710">
        <ele>354.8</ele>
        <time>2022-11-27T09:18:24Z</time>
      </trkpt>
      <trkpt lat="43.2962580" lon="-2.0767060">
        <ele>354.6</ele>
        <time>2022-11-27T09:18:25Z</time>
      </trkpt>
      <trkpt lat="43.2963110" lon="-2.0766360">
        <ele>354.6</ele>
        <time>2022-11-27T09:18:26Z</time>
      </trkpt>
      <trkpt lat="43.2963620" lon="-2.0765620">
        <ele>354.6</ele>
        <time>2022-11-27T09:18:27Z</time>
      </trkpt>
      <trkpt lat="43.2964090" lon="-2.0764870">
        <ele>354.4</ele>
        <time>2022-11-27T09:18:28Z</time>
      </trkpt>
      <trkpt lat="43.2964530" lon="-2.0764140">
        <ele>354.0</ele>
        <time>2022-11-27T09:18:29Z</time>
      </trkpt>
      <trkpt lat="43.2964960" lon="-2.0763450">
        <ele>353.8</ele>
        <time>2022-11-27T09:18:30Z</time>
      </trkpt>
      <trkpt lat="43.2965390" lon="-2.0762760">
        <ele>353.8</ele>
        <time>2022-11-27T09:18:31Z</time>
      </trkpt>
      <trkpt lat="43.2965810" lon="-2.0762070">
        <ele>353.8</ele>
        <time>2022-11-27T09:18:32Z</time>
      </trkpt>
      <trkpt lat="43.2966250" lon="-2.0761400">
        <ele>353.6</ele>
        <time>2022-11-27T09:18:33Z</time>
      </trkpt>
      <trkpt lat="43.2966720" lon="-2.0760740">
        <ele>353.6</ele>
        <time>2022-11-27T09:18:34Z</time>
      </trkpt>
      <trkpt lat="43.2967240" lon="-2.0760130">
        <ele>353.6</ele>
        <time>2022-11-27T09:18:35Z</time>
      </trkpt>
      <trkpt lat="43.2967780" lon="-2.0759540">
        <ele>353.4</ele>
        <time>2022-11-27T09:18:36Z</time>
      </trkpt>
      <trkpt lat="43.2968340" lon="-2.0758980">
        <ele>353.4</ele>
        <time>2022-11-27T09:18:37Z</time>
      </trkpt>
      <trkpt lat="43.2968900" lon="-2.0758430">
        <ele>353.2</ele>
        <time>2022-11-27T09:18:38Z</time>
      </trkpt>
      <trkpt lat="43.2969470" lon="-2.0757900">
        <ele>353.0</ele>
        <time>2022-11-27T09:18:39Z</time>
      </trkpt>
      <trkpt lat="43.2970060" lon="-2.0757390">
        <ele>352.8</ele>
        <time>2022-11-27T09:18:40Z</time>
      </trkpt>
      <trkpt lat="43.2970650" lon="-2.0756900">
        <ele>352.8</ele>
        <time>2022-11-27T09:18:41Z</time>
      </trkpt>
      <trkpt lat="43.2971240" lon="-2.0756410">
        <ele>352.6</ele>
        <time>2022-11-27T09:18:42Z</time>
      </trkpt>
      <trkpt lat="43.2971820" lon="-2.0755940">
        <ele>352.6</ele>
        <time>2022-11-27T09:18:43Z</time>
      </trkpt>
      <trkpt lat="43.2972390" lon="-2.0755460">
        <ele>352.6</ele>
        <time>2022-11-27T09:18:44Z</time>
      </trkpt>
      <trkpt lat="43.2972930" lon="-2.0754940">
        <ele>352.6</ele>
        <time>2022-11-27T09:18:45Z</time>
      </trkpt>
      <trkpt lat="43.2973450" lon="-2.0754410">
        <ele>352.6</ele>
        <time>2022-11-27T09:18:46Z</time>
      </trkpt>
      <trkpt lat="43.2973960" lon="-2.0753860">
        <ele>352.4</ele>
        <time>2022-11-27T09:18:47Z</time>
      </trkpt>
      <trkpt lat="43.2974440" lon="-2.0753250">
        <ele>352.4</ele>
        <time>2022-11-27T09:18:48Z</time>
      </trkpt>
      <trkpt lat="43.2974880" lon="-2.0752610">
        <ele>352.4</ele>
        <time>2022-11-27T09:18:49Z</time>
      </trkpt>
      <trkpt lat="43.2975270" lon="-2.0751920">
        <ele>352.4</ele>
        <time>2022-11-27T09:18:50Z</time>
      </trkpt>
      <trkpt lat="43.2975620" lon="-2.0751180">
        <ele>352.4</ele>
        <time>2022-11-27T09:18:51Z</time>
      </trkpt>
      <trkpt lat="43.2975930" lon="-2.0750390">
        <ele>352.4</ele>
        <time>2022-11-27T09:18:52Z</time>
      </trkpt>
      <trkpt lat="43.2976220" lon="-2.0749540">
        <ele>352.4</ele>
        <time>2022-11-27T09:18:53Z</time>
      </trkpt>
      <trkpt lat="43.2976460" lon="-2.0748640">
        <ele>352.2</ele>
        <time>2022-11-27T09:18:54Z</time>
      </trkpt>
      <trkpt lat="43.2976650" lon="-2.0747660">
        <ele>352.2</ele>
        <time>2022-11-27T09:18:55Z</time>
      </trkpt>
      <trkpt lat="43.2976800" lon="-2.0746640">
        <ele>352.2</ele>
        <time>2022-11-27T09:18:56Z</time>
      </trkpt>
      <trkpt lat="43.2976850" lon="-2.0745620">
        <ele>352.2</ele>
        <time>2022-11-27T09:18:57Z</time>
      </trkpt>
      <trkpt lat="43.2976770" lon="-2.0744620">
        <ele>352.2</ele>
        <time>2022-11-27T09:18:58Z</time>
      </trkpt>
      <trkpt lat="43.2976530" lon="-2.0743660">
        <ele>352.2</ele>
        <time>2022-11-27T09:18:59Z</time>
      </trkpt>
      <trkpt lat="43.2976180" lon="-2.0742740">
        <ele>352.2</ele>
        <time>2022-11-27T09:19:00Z</time>
      </trkpt>
      <trkpt lat="43.2975790" lon="-2.0741820">
        <ele>352.2</ele>
        <time>2022-11-27T09:19:01Z</time>
      </trkpt>
      <trkpt lat="43.2975440" lon="-2.0740830">
        <ele>352.2</ele>
        <time>2022-11-27T09:19:02Z</time>
      </trkpt>
      <trkpt lat="43.2975180" lon="-2.0739760">
        <ele>352.2</ele>
        <time>2022-11-27T09:19:03Z</time>
      </trkpt>
      <trkpt lat="43.2975030" lon="-2.0738580">
        <ele>352.2</ele>
        <time>2022-11-27T09:19:04Z</time>
      </trkpt>
      <trkpt lat="43.2975030" lon="-2.0737340">
        <ele>352.0</ele>
        <time>2022-11-27T09:19:05Z</time>
      </trkpt>
      <trkpt lat="43.2975120" lon="-2.0736080">
        <ele>351.6</ele>
        <time>2022-11-27T09:19:06Z</time>
      </trkpt>
      <trkpt lat="43.2975270" lon="-2.0734820">
        <ele>351.2</ele>
        <time>2022-11-27T09:19:07Z</time>
      </trkpt>
      <trkpt lat="43.2975430" lon="-2.0733580">
        <ele>350.6</ele>
        <time>2022-11-27T09:19:08Z</time>
      </trkpt>
      <trkpt lat="43.2975600" lon="-2.0732350">
        <ele>350.4</ele>
        <time>2022-11-27T09:19:09Z</time>
      </trkpt>
      <trkpt lat="43.2975810" lon="-2.0731150">
        <ele>350.2</ele>
        <time>2022-11-27T09:19:10Z</time>
      </trkpt>
      <trkpt lat="43.2976040" lon="-2.0729970">
        <ele>349.8</ele>
        <time>2022-11-27T09:19:11Z</time>
      </trkpt>
      <trkpt lat="43.2976320" lon="-2.0728820">
        <ele>349.2</ele>
        <time>2022-11-27T09:19:12Z</time>
      </trkpt>
      <trkpt lat="43.2976610" lon="-2.0727710">
        <ele>348.8</ele>
        <time>2022-11-27T09:19:13Z</time>
      </trkpt>
      <trkpt lat="43.2976890" lon="-2.0726630">
        <ele>348.2</ele>
        <time>2022-11-27T09:19:14Z</time>
      </trkpt>
      <trkpt lat="43.2977140" lon="-2.0725560">
        <ele>347.8</ele>
        <time>2022-11-27T09:19:15Z</time>
      </trkpt>
      <trkpt lat="43.2977350" lon="-2.0724460">
        <ele>347.8</ele>
        <time>2022-11-27T09:19:16Z</time>
      </trkpt>
      <trkpt lat="43.2977510" lon="-2.0723340">
        <ele>347.4</ele>
        <time>2022-11-27T09:19:17Z</time>
      </trkpt>
      <trkpt lat="43.2977610" lon="-2.0722210">
        <ele>347.2</ele>
        <time>2022-11-27T09:19:18Z</time>
      </trkpt>
      <trkpt lat="43.2977640" lon="-2.0721130">
        <ele>347.2</ele>
        <time>2022-11-27T09:19:19Z</time>
      </trkpt>
      <trkpt lat="43.2977610" lon="-2.0720080">
        <ele>347.2</ele>
        <time>2022-11-27T09:19:20Z</time>
      </trkpt>
      <trkpt lat="43.2977550" lon="-2.0719080">
        <ele>347.2</ele>
        <time>2022-11-27T09:19:21Z</time>
      </trkpt>
      <trkpt lat="43.2977480" lon="-2.0718110">
        <ele>347.2</ele>
        <time>2022-11-27T09:19:22Z</time>
      </trkpt>
      <trkpt lat="43.2977430" lon="-2.0717150">
        <ele>347.2</ele>
        <time>2022-11-27T09:19:23Z</time>
      </trkpt>
      <trkpt lat="43.2977420" lon="-2.0716180">
        <ele>347.2</ele>
        <time>2022-11-27T09:19:24Z</time>
      </trkpt>
      <trkpt lat="43.2977460" lon="-2.0715190">
        <ele>347.2</ele>
        <time>2022-11-27T09:19:25Z</time>
      </trkpt>
      <trkpt lat="43.2977580" lon="-2.0714190">
        <ele>347.2</ele>
        <time>2022-11-27T09:19:26Z</time>
      </trkpt>
      <trkpt lat="43.2977770" lon="-2.0713210">
        <ele>347.2</ele>
        <time>2022-11-27T09:19:27Z</time>
      </trkpt>
      <trkpt lat="43.2978030" lon="-2.0712230">
        <ele>347.4</ele>
        <time>2022-11-27T09:19:28Z</time>
      </trkpt>
      <trkpt lat="43.2978330" lon="-2.0711270">
        <ele>347.4</ele>
        <time>2022-11-27T09:19:29Z</time>
      </trkpt>
      <trkpt lat="43.2978670" lon="-2.0710360">
        <ele>347.6</ele>
        <time>2022-11-27T09:19:30Z</time>
      </trkpt>
      <trkpt lat="43.2979080" lon="-2.0709510">
        <ele>348.0</ele>
        <time>2022-11-27T09:19:31Z</time>
      </trkpt>
      <trkpt lat="43.2979550" lon="-2.0708730">
        <ele>348.4</ele>
        <time>2022-11-27T09:19:32Z</time>
      </trkpt>
      <trkpt lat="43.2980060" lon="-2.0708030">
        <ele>348.6</ele>
        <time>2022-11-27T09:19:33Z</time>
      </trkpt>
      <trkpt lat="43.2980620" lon="-2.0707410">
        <ele>348.8</ele>
        <time>2022-11-27T09:19:34Z</time>
      </trkpt>
      <trkpt lat="43.2981210" lon="-2.0706890">
        <ele>348.8</ele>
        <time>2022-11-27T09:19:35Z</time>
      </trkpt>
      <trkpt lat="43.2981850" lon="-2.0706460">
        <ele>348.8</ele>
        <time>2022-11-27T09:19:36Z</time>
      </trkpt>
      <trkpt lat="43.2982510" lon="-2.0706090">
        <ele>349.0</ele>
        <time>2022-11-27T09:19:37Z</time>
      </trkpt>
      <trkpt lat="43.2983170" lon="-2.0705730">
        <ele>349.0</ele>
        <time>2022-11-27T09:19:38Z</time>
      </trkpt>
      <trkpt lat="43.2983830" lon="-2.0705410">
        <ele>349.0</ele>
        <time>2022-11-27T09:19:39Z</time>
      </trkpt>
      <trkpt lat="43.2984480" lon="-2.0705110">
        <ele>349.0</ele>
        <time>2022-11-27T09:19:40Z</time>
      </trkpt>
      <trkpt lat="43.2985120" lon="-2.0704840">
        <ele>349.0</ele>
        <time>2022-11-27T09:19:41Z</time>
      </trkpt>
      <trkpt lat="43.2985750" lon="-2.0704560">
        <ele>349.2</ele>
        <time>2022-11-27T09:19:42Z</time>
      </trkpt>
      <trkpt lat="43.2986350" lon="-2.0704290">
        <ele>349.2</ele>
        <time>2022-11-27T09:19:43Z</time>
      </trkpt>
      <trkpt lat="43.2986940" lon="-2.0704010">
        <ele>349.2</ele>
        <time>2022-11-27T09:19:44Z</time>
      </trkpt>
      <trkpt lat="43.2987510" lon="-2.0703690">
        <ele>349.4</ele>
        <time>2022-11-27T09:19:45Z</time>
      </trkpt>
      <trkpt lat="43.2988060" lon="-2.0703320">
        <ele>349.4</ele>
        <time>2022-11-27T09:19:46Z</time>
      </trkpt>
      <trkpt lat="43.2988550" lon="-2.0702870">
        <ele>349.4</ele>
        <time>2022-11-27T09:19:47Z</time>
      </trkpt>
      <trkpt lat="43.2988990" lon="-2.0702360">
        <ele>349.6</ele>
        <time>2022-11-27T09:19:48Z</time>
      </trkpt>
      <trkpt lat="43.2989390" lon="-2.0701820">
        <ele>349.6</ele>
        <time>2022-11-27T09:19:49Z</time>
      </trkpt>
      <trkpt lat="43.2989760" lon="-2.0701260">
        <ele>349.6</ele>
        <time>2022-11-27T09:19:50Z</time>
      </trkpt>
      <trkpt lat="43.2990140" lon="-2.0700680">
        <ele>349.8</ele>
        <time>2022-11-27T09:19:51Z</time>
      </trkpt>
      <trkpt lat="43.2990520" lon="-2.0700070">
        <ele>350.0</ele>
        <time>2022-11-27T09:19:52Z</time>
      </trkpt>
      <trkpt lat="43.2990900" lon="-2.0699440">
        <ele>350.2</ele>
        <time>2022-11-27T09:19:53Z</time>
      </trkpt>
      <trkpt lat="43.2991300" lon="-2.0698770">
        <ele>350.4</ele>
        <time>2022-11-27T09:19:54Z</time>
      </trkpt>
      <trkpt lat="43.2991740" lon="-2.0698080">
        <ele>350.8</ele>
        <time>2022-11-27T09:19:55Z</time>
      </trkpt>
      <trkpt lat="43.2992140" lon="-2.0697350">
        <ele>350.8</ele>
        <time>2022-11-27T09:19:56Z</time>
      </trkpt>
      <trkpt lat="43.2992510" lon="-2.0696560">
        <ele>350.8</ele>
        <time>2022-11-27T09:19:57Z</time>
      </trkpt>
      <trkpt lat="43.2992810" lon="-2.0695720">
        <ele>350.8</ele>
        <time>2022-11-27T09:19:58Z</time>
      </trkpt>
      <trkpt lat="43.2993050" lon="-2.0694840">
        <ele>350.8</ele>
        <time>2022-11-27T09:19:59Z</time>
      </trkpt>
      <trkpt lat="43.2993230" lon="-2.0693900">
        <ele>351.0</ele>
        <time>2022-11-27T09:20:00Z</time>
      </trkpt>
      <trkpt lat="43.2993370" lon="-2.0692920">
        <ele>351.0</ele>
        <time>2022-11-27T09:20:01Z</time>
      </trkpt>
      <trkpt lat="43.2993460" lon="-2.0691910">
        <ele>351.0</ele>
        <time>2022-11-27T09:20:02Z</time>
      </trkpt>
      <trkpt lat="43.2993510" lon="-2.0690860">
        <ele>351.0</ele>
        <time>2022-11-27T09:20:03Z</time>
      </trkpt>
      <trkpt lat="43.2993540" lon="-2.0689800">
        <ele>351.0</ele>
        <time>2022-11-27T09:20:04Z</time>
      </trkpt>
      <trkpt lat="43.2993560" lon="-2.0688700">
        <ele>351.0</ele>
        <time>2022-11-27T09:20:05Z</time>
      </trkpt>
      <trkpt lat="43.2993660" lon="-2.0687590">
        <ele>350.8</ele>
        <time>2022-11-27T09:20:06Z</time>
      </trkpt>
      <trkpt lat="43.2993860" lon="-2.0686490">
        <ele>350.4</ele>
        <time>2022-11-27T09:20:07Z</time>
      </trkpt>
      <trkpt lat="43.2994170" lon="-2.0685420">
        <ele>350.2</ele>
        <time>2022-11-27T09:20:08Z</time>
      </trkpt>
      <trkpt lat="43.2994520" lon="-2.0684390">
        <ele>350.0</ele>
        <time>2022-11-27T09:20:09Z</time>
      </trkpt>
      <trkpt lat="43.2994900" lon="-2.0683410">
        <ele>349.8</ele>
        <time>2022-11-27T09:20:10Z</time>
      </trkpt>
      <trkpt lat="43.2995320" lon="-2.0682500">
        <ele>349.4</ele>
        <time>2022-11-27T09:20:11Z</time>
      </trkpt>
      <trkpt lat="43.2995770" lon="-2.0681610">
        <ele>348.8</ele>
        <time>2022-11-27T09:20:12Z</time>
      </trkpt>
      <trkpt lat="43.2996240" lon="-2.0680750">
        <ele>348.2</ele>
        <time>2022-11-27T09:20:13Z</time>
      </trkpt>
      <trkpt lat="43.2996720" lon="-2.0679910">
        <ele>348.0</ele>
        <time>2022-11-27T09:20:14Z</time>
      </trkpt>
      <trkpt lat="43.2997230" lon="-2.0679100">
        <ele>348.0</ele>
        <time>2022-11-27T09:20:15Z</time>
      </trkpt>
      <trkpt lat="43.2997740" lon="-2.0678290">
        <ele>347.8</ele>
        <time>2022-11-27T09:20:16Z</time>
      </trkpt>
      <trkpt lat="43.2998240" lon="-2.0677460">
        <ele>347.6</ele>
        <time>2022-11-27T09:20:17Z</time>
      </trkpt>
      <trkpt lat="43.2998730" lon="-2.0676580">
        <ele>347.2</ele>
        <time>2022-11-27T09:20:18Z</time>
      </trkpt>
      <trkpt lat="43.2999190" lon="-2.0675710">
        <ele>346.6</ele>
        <time>2022-11-27T09:20:19Z</time>
      </trkpt>
      <trkpt lat="43.2999600" lon="-2.0674870">
        <ele>346.2</ele>
        <time>2022-11-27T09:20:20Z</time>
      </trkpt>
      <trkpt lat="43.2999970" lon="-2.0674060">
        <ele>345.8</ele>
        <time>2022-11-27T09:20:21Z</time>
      </trkpt>
      <trkpt lat="43.3000280" lon="-2.0673290">
        <ele>345.6</ele>
        <time>2022-11-27T09:20:22Z</time>
      </trkpt>
      <trkpt lat="43.3000510" lon="-2.0672490">
        <ele>345.4</ele>
        <time>2022-11-27T09:20:23Z</time>
      </trkpt>
      <trkpt lat="43.3000690" lon="-2.0671620">
        <ele>345.4</ele>
        <time>2022-11-27T09:20:24Z</time>
      </trkpt>
      <trkpt lat="43.3000830" lon="-2.0670690">
        <ele>345.2</ele>
        <time>2022-11-27T09:20:25Z</time>
      </trkpt>
      <trkpt lat="43.3000890" lon="-2.0669700">
        <ele>345.0</ele>
        <time>2022-11-27T09:20:26Z</time>
      </trkpt>
      <trkpt lat="43.3000820" lon="-2.0668680">
        <ele>344.6</ele>
        <time>2022-11-27T09:20:27Z</time>
      </trkpt>
      <trkpt lat="43.3000650" lon="-2.0667640">
        <ele>343.8</ele>
        <time>2022-11-27T09:20:28Z</time>
      </trkpt>
      <trkpt lat="43.3000440" lon="-2.0666640">
        <ele>343.4</ele>
        <time>2022-11-27T09:20:29Z</time>
      </trkpt>
      <trkpt lat="43.3000160" lon="-2.0665780">
        <ele>343.0</ele>
        <time>2022-11-27T09:20:30Z</time>
      </trkpt>
      <trkpt lat="43.2999790" lon="-2.0665100">
        <ele>342.4</ele>
        <time>2022-11-27T09:20:31Z</time>
      </trkpt>
      <trkpt lat="43.2999380" lon="-2.0664500">
        <ele>341.8</ele>
        <time>2022-11-27T09:20:32Z</time>
      </trkpt>
      <trkpt lat="43.2998920" lon="-2.0663990">
        <ele>341.0</ele>
        <time>2022-11-27T09:20:33Z</time>
      </trkpt>
      <trkpt lat="43.2998390" lon="-2.0663580">
        <ele>340.4</ele>
        <time>2022-11-27T09:20:34Z</time>
      </trkpt>
      <trkpt lat="43.2997830" lon="-2.0663230">
        <ele>340.4</ele>
        <time>2022-11-27T09:20:35Z</time>
      </trkpt>
      <trkpt lat="43.2997260" lon="-2.0662850">
        <ele>339.8</ele>
        <time>2022-11-27T09:20:36Z</time>
      </trkpt>
      <trkpt lat="43.2996670" lon="-2.0662420">
        <ele>339.4</ele>
        <time>2022-11-27T09:20:37Z</time>
      </trkpt>
      <trkpt lat="43.2996110" lon="-2.0661860">
        <ele>339.0</ele>
        <time>2022-11-27T09:20:38Z</time>
      </trkpt>
      <trkpt lat="43.2995590" lon="-2.0661090">
        <ele>338.8</ele>
        <time>2022-11-27T09:20:39Z</time>
      </trkpt>
      <trkpt lat="43.2995150" lon="-2.0660210">
        <ele>338.8</ele>
        <time>2022-11-27T09:20:40Z</time>
      </trkpt>
      <trkpt lat="43.2994960" lon="-2.0659250">
        <ele>338.4</ele>
        <time>2022-11-27T09:20:41Z</time>
      </trkpt>
      <trkpt lat="43.2994980" lon="-2.0658280">
        <ele>338.0</ele>
        <time>2022-11-27T09:20:42Z</time>
      </trkpt>
      <trkpt lat="43.2995090" lon="-2.0657340">
        <ele>337.8</ele>
        <time>2022-11-27T09:20:43Z</time>
      </trkpt>
      <trkpt lat="43.2995280" lon="-2.0656430">
        <ele>337.4</ele>
        <time>2022-11-27T09:20:44Z</time>
      </trkpt>
      <trkpt lat="43.2995530" lon="-2.0655560">
        <ele>337.2</ele>
        <time>2022-11-27T09:20:45Z</time>
      </trkpt>
      <trkpt lat="43.2995830" lon="-2.0654770">
        <ele>337.0</ele>
        <time>2022-11-27T09:20:46Z</time>
      </trkpt>
      <trkpt lat="43.2996140" lon="-2.0654060">
        <ele>337.0</ele>
        <time>2022-11-27T09:20:47Z</time>
      </trkpt>
      <trkpt lat="43.2996440" lon="-2.0653380">
        <ele>336.8</ele>
        <time>2022-11-27T09:20:48Z</time>
      </trkpt>
      <trkpt lat="43.2996710" lon="-2.0652690">
        <ele>336.8</ele>
        <time>2022-11-27T09:20:49Z</time>
      </trkpt>
      <trkpt lat="43.2996910" lon="-2.0651950">
        <ele>336.8</ele>
        <time>2022-11-27T09:20:50Z</time>
      </trkpt>
      <trkpt lat="43.2997000" lon="-2.0651200">
        <ele>336.6</ele>
        <time>2022-11-27T09:20:51Z</time>
      </trkpt>
      <trkpt lat="43.2996990" lon="-2.0650470">
        <ele>336.6</ele>
        <time>2022-11-27T09:20:52Z</time>
      </trkpt>
      <trkpt lat="43.2996880" lon="-2.0649750">
        <ele>336.6</ele>
        <time>2022-11-27T09:20:53Z</time>
      </trkpt>
      <trkpt lat="43.2996720" lon="-2.0649020">
        <ele>336.6</ele>
        <time>2022-11-27T09:20:54Z</time>
      </trkpt>
      <trkpt lat="43.2996520" lon="-2.0648300">
        <ele>336.6</ele>
        <time>2022-11-27T09:20:55Z</time>
      </trkpt>
      <trkpt lat="43.2996300" lon="-2.0647570">
        <ele>336.6</ele>
        <time>2022-11-27T09:20:56Z</time>
      </trkpt>
      <trkpt lat="43.2996080" lon="-2.0646810">
        <ele>336.6</ele>
        <time>2022-11-27T09:20:57Z</time>
      </trkpt>
      <trkpt lat="43.2995840" lon="-2.0646050">
        <ele>336.6</ele>
        <time>2022-11-27T09:20:58Z</time>
      </trkpt>
      <trkpt lat="43.2995590" lon="-2.0645290">
        <ele>336.8</ele>
        <time>2022-11-27T09:20:59Z</time>
      </trkpt>
      <trkpt lat="43.2995350" lon="-2.0644540">
        <ele>337.2</ele>
        <time>2022-11-27T09:21:00Z</time>
      </trkpt>
      <trkpt lat="43.2995100" lon="-2.0643790">
        <ele>337.4</ele>
        <time>2022-11-27T09:21:01Z</time>
      </trkpt>
      <trkpt lat="43.2994860" lon="-2.0643070">
        <ele>337.6</ele>
        <time>2022-11-27T09:21:02Z</time>
      </trkpt>
      <trkpt lat="43.2994630" lon="-2.0642360">
        <ele>337.8</ele>
        <time>2022-11-27T09:21:03Z</time>
      </trkpt>
      <trkpt lat="43.2994360" lon="-2.0641700">
        <ele>338.0</ele>
        <time>2022-11-27T09:21:04Z</time>
      </trkpt>
      <trkpt lat="43.2994110" lon="-2.0641100">
        <ele>338.2</ele>
        <time>2022-11-27T09:21:05Z</time>
      </trkpt>
      <trkpt lat="43.2993870" lon="-2.0640520">
        <ele>338.2</ele>
        <time>2022-11-27T09:21:06Z</time>
      </trkpt>
      <trkpt lat="43.2993640" lon="-2.0640000">
        <ele>338.2</ele>
        <time>2022-11-27T09:21:07Z</time>
      </trkpt>
      <trkpt lat="43.2993430" lon="-2.0639520">
        <ele>338.4</ele>
        <time>2022-11-27T09:21:08Z</time>
      </trkpt>
      <trkpt lat="43.2993290" lon="-2.0639030">
        <ele>338.4</ele>
        <time>2022-11-27T09:21:09Z</time>
      </trkpt>
      <trkpt lat="43.2993260" lon="-2.0638560">
        <ele>338.4</ele>
        <time>2022-11-27T09:21:10Z</time>
      </trkpt>
      <trkpt lat="43.2993250" lon="-2.0638170">
        <ele>338.4</ele>
        <time>2022-11-27T09:21:11Z</time>
      </trkpt>
      <trkpt lat="43.2993220" lon="-2.0637900">
        <ele>338.6</ele>
        <time>2022-11-27T09:21:12Z</time>
      </trkpt>
      <trkpt lat="43.2993180" lon="-2.0637770">
        <ele>338.6</ele>
        <time>2022-11-27T09:21:13Z</time>
      </trkpt>
      <trkpt lat="43.2993170" lon="-2.0637770">
        <ele>338.6</ele>
        <time>2022-11-27T09:21:14Z</time>
      </trkpt>
      <trkpt lat="43.2992420" lon="-2.0637010">
        <ele>338.6</ele>
        <time>2022-11-27T09:28:32Z</time>
      </trkpt>
      <trkpt lat="43.2992150" lon="-2.0636330">
        <ele>338.6</ele>
        <time>2022-11-27T09:28:34Z</time>
      </trkpt>
      <trkpt lat="43.2991840" lon="-2.0635100">
        <ele>338.8</ele>
        <time>2022-11-27T09:28:37Z</time>
      </trkpt>
      <trkpt lat="43.2991770" lon="-2.0634600">
        <ele>338.8</ele>
        <time>2022-11-27T09:28:38Z</time>
      </trkpt>
      <trkpt lat="43.2991740" lon="-2.0634040">
        <ele>338.8</ele>
        <time>2022-11-27T09:28:39Z</time>
      </trkpt>
      <trkpt lat="43.2991750" lon="-2.0633420">
        <ele>338.8</ele>
        <time>2022-11-27T09:28:40Z</time>
      </trkpt>
      <trkpt lat="43.2991780" lon="-2.0632770">
        <ele>338.8</ele>
        <time>2022-11-27T09:28:41Z</time>
      </trkpt>
      <trkpt lat="43.2991810" lon="-2.0632090">
        <ele>338.8</ele>
        <time>2022-11-27T09:28:42Z</time>
      </trkpt>
      <trkpt lat="43.2991860" lon="-2.0631400">
        <ele>338.8</ele>
        <time>2022-11-27T09:28:43Z</time>
      </trkpt>
      <trkpt lat="43.2991950" lon="-2.0630710">
        <ele>338.8</ele>
        <time>2022-11-27T09:28:44Z</time>
      </trkpt>
      <trkpt lat="43.2992100" lon="-2.0630000">
        <ele>338.8</ele>
        <time>2022-11-27T09:28:45Z</time>
      </trkpt>
      <trkpt lat="43.2992300" lon="-2.0629300">
        <ele>338.6</ele>
        <time>2022-11-27T09:28:46Z</time>
      </trkpt>
      <trkpt lat="43.2992500" lon="-2.0628610">
        <ele>338.6</ele>
        <time>2022-11-27T09:28:47Z</time>
      </trkpt>
      <trkpt lat="43.2992750" lon="-2.0627940">
        <ele>338.4</ele>
        <time>2022-11-27T09:28:48Z</time>
      </trkpt>
      <trkpt lat="43.2993030" lon="-2.0627260">
        <ele>338.2</ele>
        <time>2022-11-27T09:28:49Z</time>
      </trkpt>
      <trkpt lat="43.2993330" lon="-2.0626540">
        <ele>337.8</ele>
        <time>2022-11-27T09:28:50Z</time>
      </trkpt>
      <trkpt lat="43.2993640" lon="-2.0625820">
        <ele>337.4</ele>
        <time>2022-11-27T09:28:51Z</time>
      </trkpt>
      <trkpt lat="43.2993930" lon="-2.0625030">
        <ele>337.0</ele>
        <time>2022-11-27T09:28:52Z</time>
      </trkpt>
      <trkpt lat="43.2994230" lon="-2.0624200">
        <ele>336.4</ele>
        <time>2022-11-27T09:28:53Z</time>
      </trkpt>
      <trkpt lat="43.2994550" lon="-2.0623330">
        <ele>336.0</ele>
        <time>2022-11-27T09:28:54Z</time>
      </trkpt>
      <trkpt lat="43.2994870" lon="-2.0622420">
        <ele>335.6</ele>
        <time>2022-11-27T09:28:55Z</time>
      </trkpt>
      <trkpt lat="43.2995190" lon="-2.0621510">
        <ele>335.4</ele>
        <time>2022-11-27T09:28:56Z</time>
      </trkpt>
      <trkpt lat="43.2995530" lon="-2.0620610">
        <ele>335.0</ele>
        <time>2022-11-27T09:28:57Z</time>
      </trkpt>
      <trkpt lat="43.2995830" lon="-2.0619720">
        <ele>334.4</ele>
        <time>2022-11-27T09:28:58Z</time>
      </trkpt>
      <trkpt lat="43.2996090" lon="-2.0618870">
        <ele>333.8</ele>
        <time>2022-11-27T09:28:59Z</time>
      </trkpt>
      <trkpt lat="43.2996340" lon="-2.0618070">
        <ele>333.2</ele>
        <time>2022-11-27T09:29:00Z</time>
      </trkpt>
      <trkpt lat="43.2996560" lon="-2.0617290">
        <ele>332.6</ele>
        <time>2022-11-27T09:29:01Z</time>
      </trkpt>
      <trkpt lat="43.2996780" lon="-2.0616510">
        <ele>332.0</ele>
        <time>2022-11-27T09:29:02Z</time>
      </trkpt>
      <trkpt lat="43.2996980" lon="-2.0615730">
        <ele>331.2</ele>
        <time>2022-11-27T09:29:03Z</time>
      </trkpt>
      <trkpt lat="43.2997180" lon="-2.0614930">
        <ele>330.6</ele>
        <time>2022-11-27T09:29:04Z</time>
      </trkpt>
      <trkpt lat="43.2997340" lon="-2.0614110">
        <ele>329.8</ele>
        <time>2022-11-27T09:29:05Z</time>
      </trkpt>
      <trkpt lat="43.2997470" lon="-2.0613280">
        <ele>329.8</ele>
        <time>2022-11-27T09:29:06Z</time>
      </trkpt>
      <trkpt lat="43.2997570" lon="-2.0612450">
        <ele>328.8</ele>
        <time>2022-11-27T09:29:07Z</time>
      </trkpt>
      <trkpt lat="43.2997670" lon="-2.0611650">
        <ele>328.2</ele>
        <time>2022-11-27T09:29:08Z</time>
      </trkpt>
      <trkpt lat="43.2997760" lon="-2.0610870">
        <ele>327.8</ele>
        <time>2022-11-27T09:29:09Z</time>
      </trkpt>
      <trkpt lat="43.2997790" lon="-2.0610110">
        <ele>327.2</ele>
        <time>2022-11-27T09:29:10Z</time>
      </trkpt>
      <trkpt lat="43.2997820" lon="-2.0609390">
        <ele>326.6</ele>
        <time>2022-11-27T09:29:11Z</time>
      </trkpt>
      <trkpt lat="43.2997850" lon="-2.0608680">
        <ele>326.0</ele>
        <time>2022-11-27T09:29:12Z</time>
      </trkpt>
      <trkpt lat="43.2997890" lon="-2.0607970">
        <ele>325.6</ele>
        <time>2022-11-27T09:29:13Z</time>
      </trkpt>
      <trkpt lat="43.2997910" lon="-2.0607260">
        <ele>325.4</ele>
        <time>2022-11-27T09:29:14Z</time>
      </trkpt>
      <trkpt lat="43.2997920" lon="-2.0606550">
        <ele>324.6</ele>
        <time>2022-11-27T09:29:15Z</time>
      </trkpt>
      <trkpt lat="43.2997950" lon="-2.0605820">
        <ele>323.8</ele>
        <time>2022-11-27T09:29:16Z</time>
      </trkpt>
      <trkpt lat="43.2997980" lon="-2.0605060">
        <ele>323.4</ele>
        <time>2022-11-27T09:29:17Z</time>
      </trkpt>
      <trkpt lat="43.2998010" lon="-2.0604260">
        <ele>322.8</ele>
        <time>2022-11-27T09:29:18Z</time>
      </trkpt>
      <trkpt lat="43.2998040" lon="-2.0603430">
        <ele>322.4</ele>
        <time>2022-11-27T09:29:19Z</time>
      </trkpt>
      <trkpt lat="43.2998070" lon="-2.0602570">
        <ele>322.2</ele>
        <time>2022-11-27T09:29:20Z</time>
      </trkpt>
      <trkpt lat="43.2998090" lon="-2.0601670">
        <ele>322.0</ele>
        <time>2022-11-27T09:29:21Z</time>
      </trkpt>
      <trkpt lat="43.2998160" lon="-2.0600780">
        <ele>321.8</ele>
        <time>2022-11-27T09:29:22Z</time>
      </trkpt>
      <trkpt lat="43.2998270" lon="-2.0599900">
        <ele>321.8</ele>
        <time>2022-11-27T09:29:23Z</time>
      </trkpt>
      <trkpt lat="43.2998410" lon="-2.0599030">
        <ele>321.8</ele>
        <time>2022-11-27T09:29:24Z</time>
      </trkpt>
      <trkpt lat="43.2998630" lon="-2.0598130">
        <ele>321.6</ele>
        <time>2022-11-27T09:29:25Z</time>
      </trkpt>
      <trkpt lat="43.2998930" lon="-2.0597230">
        <ele>321.4</ele>
        <time>2022-11-27T09:29:26Z</time>
      </trkpt>
      <trkpt lat="43.2999260" lon="-2.0596290">
        <ele>321.4</ele>
        <time>2022-11-27T09:29:27Z</time>
      </trkpt>
      <trkpt lat="43.2999580" lon="-2.0595350">
        <ele>321.0</ele>
        <time>2022-11-27T09:29:28Z</time>
      </trkpt>
      <trkpt lat="43.2999890" lon="-2.0594460">
        <ele>320.8</ele>
        <time>2022-11-27T09:29:29Z</time>
      </trkpt>
      <trkpt lat="43.3000200" lon="-2.0593580">
        <ele>320.4</ele>
        <time>2022-11-27T09:29:30Z</time>
      </trkpt>
      <trkpt lat="43.3000500" lon="-2.0592680">
        <ele>319.8</ele>
        <time>2022-11-27T09:29:31Z</time>
      </trkpt>
      <trkpt lat="43.3000820" lon="-2.0591790">
        <ele>319.6</ele>
        <time>2022-11-27T09:29:32Z</time>
      </trkpt>
      <trkpt lat="43.3001080" lon="-2.0590870">
        <ele>319.0</ele>
        <time>2022-11-27T09:29:33Z</time>
      </trkpt>
      <trkpt lat="43.3001260" lon="-2.0589890">
        <ele>318.8</ele>
        <time>2022-11-27T09:29:34Z</time>
      </trkpt>
      <trkpt lat="43.3001400" lon="-2.0588860">
        <ele>318.4</ele>
        <time>2022-11-27T09:29:35Z</time>
      </trkpt>
      <trkpt lat="43.3001470" lon="-2.0587800">
        <ele>318.2</ele>
        <time>2022-11-27T09:29:36Z</time>
      </trkpt>
      <trkpt lat="43.3001470" lon="-2.0586730">
        <ele>317.8</ele>
        <time>2022-11-27T09:29:37Z</time>
      </trkpt>
      <trkpt lat="43.3001420" lon="-2.0585640">
        <ele>317.2</ele>
        <time>2022-11-27T09:29:38Z</time>
      </trkpt>
      <trkpt lat="43.3001330" lon="-2.0584560">
        <ele>316.2</ele>
        <time>2022-11-27T09:29:39Z</time>
      </trkpt>
      <trkpt lat="43.3001190" lon="-2.0583510">
        <ele>315.2</ele>
        <time>2022-11-27T09:29:40Z</time>
      </trkpt>
      <trkpt lat="43.3001020" lon="-2.0582490">
        <ele>314.4</ele>
        <time>2022-11-27T09:29:41Z</time>
      </trkpt>
      <trkpt lat="43.3000880" lon="-2.0581470">
        <ele>313.4</ele>
        <time>2022-11-27T09:29:42Z</time>
      </trkpt>
      <trkpt lat="43.3000750" lon="-2.0580460">
        <ele>312.8</ele>
        <time>2022-11-27T09:29:43Z</time>
      </trkpt>
      <trkpt lat="43.3000640" lon="-2.0579430">
        <ele>312.0</ele>
        <time>2022-11-27T09:29:44Z</time>
      </trkpt>
      <trkpt lat="43.3000550" lon="-2.0578380">
        <ele>311.2</ele>
        <time>2022-11-27T09:29:45Z</time>
      </trkpt>
      <trkpt lat="43.3000490" lon="-2.0577300">
        <ele>310.4</ele>
        <time>2022-11-27T09:29:46Z</time>
      </trkpt>
      <trkpt lat="43.3000470" lon="-2.0576170">
        <ele>309.2</ele>
        <time>2022-11-27T09:29:47Z</time>
      </trkpt>
      <trkpt lat="43.3000460" lon="-2.0575070">
        <ele>309.2</ele>
        <time>2022-11-27T09:29:48Z</time>
      </trkpt>
      <trkpt lat="43.3000440" lon="-2.0573980">
        <ele>308.6</ele>
        <time>2022-11-27T09:29:49Z</time>
      </trkpt>
      <trkpt lat="43.3000450" lon="-2.0572890">
        <ele>308.0</ele>
        <time>2022-11-27T09:29:50Z</time>
      </trkpt>
      <trkpt lat="43.3000470" lon="-2.0571780">
        <ele>307.4</ele>
        <time>2022-11-27T09:29:51Z</time>
      </trkpt>
      <trkpt lat="43.3000510" lon="-2.0570680">
        <ele>306.8</ele>
        <time>2022-11-27T09:29:52Z</time>
      </trkpt>
      <trkpt lat="43.3000530" lon="-2.0569610">
        <ele>306.2</ele>
        <time>2022-11-27T09:29:53Z</time>
      </trkpt>
      <trkpt lat="43.3000530" lon="-2.0568560">
        <ele>305.8</ele>
        <time>2022-11-27T09:29:54Z</time>
      </trkpt>
      <trkpt lat="43.3000570" lon="-2.0567510">
        <ele>304.8</ele>
        <time>2022-11-27T09:29:55Z</time>
      </trkpt>
      <trkpt lat="43.3000620" lon="-2.0566480">
        <ele>304.2</ele>
        <time>2022-11-27T09:29:56Z</time>
      </trkpt>
      <trkpt lat="43.3000680" lon="-2.0565450">
        <ele>303.4</ele>
        <time>2022-11-27T09:29:57Z</time>
      </trkpt>
      <trkpt lat="43.3000780" lon="-2.0564410">
        <ele>303.0</ele>
        <time>2022-11-27T09:29:58Z</time>
      </trkpt>
      <trkpt lat="43.3000950" lon="-2.0563370">
        <ele>302.2</ele>
        <time>2022-11-27T09:29:59Z</time>
      </trkpt>
      <trkpt lat="43.3001190" lon="-2.0562350">
        <ele>301.2</ele>
        <time>2022-11-27T09:30:00Z</time>
      </trkpt>
      <trkpt lat="43.3001540" lon="-2.0561380">
        <ele>300.4</ele>
        <time>2022-11-27T09:30:01Z</time>
      </trkpt>
      <trkpt lat="43.3001960" lon="-2.0560430">
        <ele>299.6</ele>
        <time>2022-11-27T09:30:02Z</time>
      </trkpt>
      <trkpt lat="43.3002440" lon="-2.0559530">
        <ele>299.2</ele>
        <time>2022-11-27T09:30:03Z</time>
      </trkpt>
      <trkpt lat="43.3002970" lon="-2.0558700">
        <ele>298.2</ele>
        <time>2022-11-27T09:30:04Z</time>
      </trkpt>
      <trkpt lat="43.3003570" lon="-2.0557960">
        <ele>297.6</ele>
        <time>2022-11-27T09:30:05Z</time>
      </trkpt>
      <trkpt lat="43.3004230" lon="-2.0557320">
        <ele>296.8</ele>
        <time>2022-11-27T09:30:06Z</time>
      </trkpt>
      <trkpt lat="43.3004960" lon="-2.0556750">
        <ele>296.4</ele>
        <time>2022-11-27T09:30:07Z</time>
      </trkpt>
      <trkpt lat="43.3005730" lon="-2.0556210">
        <ele>296.0</ele>
        <time>2022-11-27T09:30:08Z</time>
      </trkpt>
      <trkpt lat="43.3006520" lon="-2.0555670">
        <ele>296.0</ele>
        <time>2022-11-27T09:30:09Z</time>
      </trkpt>
      <trkpt lat="43.3007290" lon="-2.0555130">
        <ele>295.2</ele>
        <time>2022-11-27T09:30:10Z</time>
      </trkpt>
      <trkpt lat="43.3008040" lon="-2.0554560">
        <ele>294.6</ele>
        <time>2022-11-27T09:30:11Z</time>
      </trkpt>
      <trkpt lat="43.3008770" lon="-2.0554020">
        <ele>293.8</ele>
        <time>2022-11-27T09:30:12Z</time>
      </trkpt>
      <trkpt lat="43.3009500" lon="-2.0553510">
        <ele>293.0</ele>
        <time>2022-11-27T09:30:13Z</time>
      </trkpt>
      <trkpt lat="43.3010210" lon="-2.0553030">
        <ele>292.4</ele>
        <time>2022-11-27T09:30:14Z</time>
      </trkpt>
      <trkpt lat="43.3010890" lon="-2.0552510">
        <ele>291.8</ele>
        <time>2022-11-27T09:30:15Z</time>
      </trkpt>
      <trkpt lat="43.3011510" lon="-2.0551900">
        <ele>291.2</ele>
        <time>2022-11-27T09:30:16Z</time>
      </trkpt>
      <trkpt lat="43.3012100" lon="-2.0551210">
        <ele>290.6</ele>
        <time>2022-11-27T09:30:17Z</time>
      </trkpt>
      <trkpt lat="43.3012660" lon="-2.0550490">
        <ele>290.4</ele>
        <time>2022-11-27T09:30:18Z</time>
      </trkpt>
      <trkpt lat="43.3013180" lon="-2.0549770">
        <ele>289.6</ele>
        <time>2022-11-27T09:30:19Z</time>
      </trkpt>
      <trkpt lat="43.3013660" lon="-2.0549020">
        <ele>289.2</ele>
        <time>2022-11-27T09:30:20Z</time>
      </trkpt>
      <trkpt lat="43.3014120" lon="-2.0548200">
        <ele>288.2</ele>
        <time>2022-11-27T09:30:21Z</time>
      </trkpt>
      <trkpt lat="43.3014540" lon="-2.0547260">
        <ele>287.4</ele>
        <time>2022-11-27T09:30:22Z</time>
      </trkpt>
      <trkpt lat="43.3014890" lon="-2.0546190">
        <ele>286.8</ele>
        <time>2022-11-27T09:30:23Z</time>
      </trkpt>
      <trkpt lat="43.3015200" lon="-2.0545030">
        <ele>286.2</ele>
        <time>2022-11-27T09:30:24Z</time>
      </trkpt>
      <trkpt lat="43.3015500" lon="-2.0543820">
        <ele>285.2</ele>
        <time>2022-11-27T09:30:25Z</time>
      </trkpt>
      <trkpt lat="43.3015790" lon="-2.0542580">
        <ele>284.4</ele>
        <time>2022-11-27T09:30:26Z</time>
      </trkpt>
      <trkpt lat="43.3016100" lon="-2.0541350">
        <ele>283.8</ele>
        <time>2022-11-27T09:30:27Z</time>
      </trkpt>
      <trkpt lat="43.3016420" lon="-2.0540100">
        <ele>283.4</ele>
        <time>2022-11-27T09:30:28Z</time>
      </trkpt>
      <trkpt lat="43.3016750" lon="-2.0538820">
        <ele>283.4</ele>
        <time>2022-11-27T09:30:29Z</time>
      </trkpt>
      <trkpt lat="43.3017060" lon="-2.0537520">
        <ele>283.2</ele>
        <time>2022-11-27T09:30:30Z</time>
      </trkpt>
      <trkpt lat="43.3017360" lon="-2.0536200">
        <ele>282.8</ele>
        <time>2022-11-27T09:30:31Z</time>
      </trkpt>
      <trkpt lat="43.3017660" lon="-2.0534890">
        <ele>282.4</ele>
        <time>2022-11-27T09:30:32Z</time>
      </trkpt>
      <trkpt lat="43.3017940" lon="-2.0533580">
        <ele>281.6</ele>
        <time>2022-11-27T09:30:33Z</time>
      </trkpt>
      <trkpt lat="43.3018220" lon="-2.0532280">
        <ele>281.2</ele>
        <time>2022-11-27T09:30:34Z</time>
      </trkpt>
      <trkpt lat="43.3018510" lon="-2.0530990">
        <ele>280.4</ele>
        <time>2022-11-27T09:30:35Z</time>
      </trkpt>
      <trkpt lat="43.3018820" lon="-2.0529730">
        <ele>279.8</ele>
        <time>2022-11-27T09:30:36Z</time>
      </trkpt>
      <trkpt lat="43.3019150" lon="-2.0528530">
        <ele>279.0</ele>
        <time>2022-11-27T09:30:37Z</time>
      </trkpt>
      <trkpt lat="43.3019470" lon="-2.0527420">
        <ele>278.4</ele>
        <time>2022-11-27T09:30:38Z</time>
      </trkpt>
      <trkpt lat="43.3019820" lon="-2.0526370">
        <ele>278.0</ele>
        <time>2022-11-27T09:30:39Z</time>
      </trkpt>
      <trkpt lat="43.3020170" lon="-2.0525410">
        <ele>277.4</ele>
        <time>2022-11-27T09:30:40Z</time>
      </trkpt>
      <trkpt lat="43.3020530" lon="-2.0524520">
        <ele>276.6</ele>
        <time>2022-11-27T09:30:41Z</time>
      </trkpt>
      <trkpt lat="43.3020860" lon="-2.0523710">
        <ele>276.0</ele>
        <time>2022-11-27T09:30:42Z</time>
      </trkpt>
      <trkpt lat="43.3021160" lon="-2.0522940">
        <ele>275.2</ele>
        <time>2022-11-27T09:30:43Z</time>
      </trkpt>
      <trkpt lat="43.3021480" lon="-2.0522160">
        <ele>274.6</ele>
        <time>2022-11-27T09:30:44Z</time>
      </trkpt>
      <trkpt lat="43.3021800" lon="-2.0521350">
        <ele>274.2</ele>
        <time>2022-11-27T09:30:45Z</time>
      </trkpt>
      <trkpt lat="43.3022100" lon="-2.0520490">
        <ele>273.4</ele>
        <time>2022-11-27T09:30:46Z</time>
      </trkpt>
      <trkpt lat="43.3022410" lon="-2.0519590">
        <ele>272.8</ele>
        <time>2022-11-27T09:30:47Z</time>
      </trkpt>
      <trkpt lat="43.3022750" lon="-2.0518660">
        <ele>272.2</ele>
        <time>2022-11-27T09:30:48Z</time>
      </trkpt>
      <trkpt lat="43.3023110" lon="-2.0517720">
        <ele>271.8</ele>
        <time>2022-11-27T09:30:49Z</time>
      </trkpt>
      <trkpt lat="43.3023490" lon="-2.0516800">
        <ele>271.8</ele>
        <time>2022-11-27T09:30:50Z</time>
      </trkpt>
      <trkpt lat="43.3023900" lon="-2.0515870">
        <ele>271.6</ele>
        <time>2022-11-27T09:30:51Z</time>
      </trkpt>
      <trkpt lat="43.3024330" lon="-2.0514910">
        <ele>271.4</ele>
        <time>2022-11-27T09:30:52Z</time>
      </trkpt>
      <trkpt lat="43.3024770" lon="-2.0513910">
        <ele>271.0</ele>
        <time>2022-11-27T09:30:53Z</time>
      </trkpt>
      <trkpt lat="43.3025240" lon="-2.0512920">
        <ele>270.6</ele>
        <time>2022-11-27T09:30:54Z</time>
      </trkpt>
      <trkpt lat="43.3025710" lon="-2.0511910">
        <ele>270.0</ele>
        <time>2022-11-27T09:30:55Z</time>
      </trkpt>
      <trkpt lat="43.3026170" lon="-2.0510880">
        <ele>269.4</ele>
        <time>2022-11-27T09:30:56Z</time>
      </trkpt>
      <trkpt lat="43.3026600" lon="-2.0509810">
        <ele>268.8</ele>
        <time>2022-11-27T09:30:57Z</time>
      </trkpt>
      <trkpt lat="43.3026970" lon="-2.0508720">
        <ele>268.6</ele>
        <time>2022-11-27T09:30:58Z</time>
      </trkpt>
      <trkpt lat="43.3027280" lon="-2.0507620">
        <ele>268.2</ele>
        <time>2022-11-27T09:30:59Z</time>
      </trkpt>
      <trkpt lat="43.3027540" lon="-2.0506520">
        <ele>268.2</ele>
        <time>2022-11-27T09:31:00Z</time>
      </trkpt>
      <trkpt lat="43.3027750" lon="-2.0505450">
        <ele>268.0</ele>
        <time>2022-11-27T09:31:01Z</time>
      </trkpt>
      <trkpt lat="43.3027910" lon="-2.0504400">
        <ele>267.6</ele>
        <time>2022-11-27T09:31:02Z</time>
      </trkpt>
      <trkpt lat="43.3028040" lon="-2.0503380">
        <ele>267.2</ele>
        <time>2022-11-27T09:31:03Z</time>
      </trkpt>
      <trkpt lat="43.3028130" lon="-2.0502380">
        <ele>266.8</ele>
        <time>2022-11-27T09:31:04Z</time>
      </trkpt>
      <trkpt lat="43.3028190" lon="-2.0501380">
        <ele>266.4</ele>
        <time>2022-11-27T09:31:05Z</time>
      </trkpt>
      <trkpt lat="43.3028250" lon="-2.0500340">
        <ele>266.2</ele>
        <time>2022-11-27T09:31:06Z</time>
      </trkpt>
      <trkpt lat="43.3028320" lon="-2.0499300">
        <ele>266.2</ele>
        <time>2022-11-27T09:31:07Z</time>
      </trkpt>
      <trkpt lat="43.3028380" lon="-2.0498270">
        <ele>266.0</ele>
        <time>2022-11-27T09:31:08Z</time>
      </trkpt>
      <trkpt lat="43.3028480" lon="-2.0497280">
        <ele>266.0</ele>
        <time>2022-11-27T09:31:09Z</time>
      </trkpt>
      <trkpt lat="43.3028690" lon="-2.0496340">
        <ele>266.0</ele>
        <time>2022-11-27T09:31:10Z</time>
      </trkpt>
      <trkpt lat="43.3029030" lon="-2.0495490">
        <ele>266.0</ele>
        <time>2022-11-27T09:31:11Z</time>
      </trkpt>
      <trkpt lat="43.3029500" lon="-2.0494750">
        <ele>265.8</ele>
        <time>2022-11-27T09:31:12Z</time>
      </trkpt>
      <trkpt lat="43.3030080" lon="-2.0494090">
        <ele>265.8</ele>
        <time>2022-11-27T09:31:13Z</time>
      </trkpt>
      <trkpt lat="43.3030740" lon="-2.0493490">
        <ele>265.8</ele>
        <time>2022-11-27T09:31:14Z</time>
      </trkpt>
      <trkpt lat="43.3031400" lon="-2.0492930">
        <ele>265.8</ele>
        <time>2022-11-27T09:31:15Z</time>
      </trkpt>
      <trkpt lat="43.3032030" lon="-2.0492440">
        <ele>265.8</ele>
        <time>2022-11-27T09:31:16Z</time>
      </trkpt>
      <trkpt lat="43.3032600" lon="-2.0492040">
        <ele>265.6</ele>
        <time>2022-11-27T09:31:17Z</time>
      </trkpt>
      <trkpt lat="43.3033070" lon="-2.0491690">
        <ele>265.6</ele>
        <time>2022-11-27T09:31:18Z</time>
      </trkpt>
      <trkpt lat="43.3033410" lon="-2.0491360">
        <ele>265.6</ele>
        <time>2022-11-27T09:31:19Z</time>
      </trkpt>
      <trkpt lat="43.3033640" lon="-2.0491050">
        <ele>265.4</ele>
        <time>2022-11-27T09:31:20Z</time>
      </trkpt>
      <trkpt lat="43.3033830" lon="-2.0490850">
        <ele>265.0</ele>
        <time>2022-11-27T09:31:21Z</time>
      </trkpt>
      <trkpt lat="43.3034200" lon="-2.0490560">
        <ele>264.4</ele>
        <time>2022-11-27T09:31:22Z</time>
      </trkpt>
      <trkpt lat="43.3034430" lon="-2.0490340">
        <ele>264.0</ele>
        <time>2022-11-27T09:31:23Z</time>
      </trkpt>
      <trkpt lat="43.3034660" lon="-2.0490120">
        <ele>263.4</ele>
        <time>2022-11-27T09:31:24Z</time>
      </trkpt>
      <trkpt lat="43.3034890" lon="-2.0489900">
        <ele>260.0</ele>
        <time>2022-11-27T09:33:19Z</time>
      </trkpt>
      <trkpt lat="43.3035120" lon="-2.0489680">
        <ele>260.0</ele>
        <time>2022-11-27T09:33:20Z</time>
      </trkpt>
      <trkpt lat="43.3035700" lon="-2.0488440">
        <ele>259.8</ele>
        <time>2022-11-27T09:33:22Z</time>
      </trkpt>
      <trkpt lat="43.3036250" lon="-2.0486880">
        <ele>259.8</ele>
        <time>2022-11-27T09:33:24Z</time>
      </trkpt>
      <trkpt lat="43.3037460" lon="-2.0483240">
        <ele>259.6</ele>
        <time>2022-11-27T09:33:28Z</time>
      </trkpt>
      <trkpt lat="43.3037770" lon="-2.0482270">
        <ele>259.4</ele>
        <time>2022-11-27T09:33:29Z</time>
      </trkpt>
      <trkpt lat="43.3038070" lon="-2.0481280">
        <ele>258.8</ele>
        <time>2022-11-27T09:33:30Z</time>
      </trkpt>
      <trkpt lat="43.3038360" lon="-2.0480290">
        <ele>258.4</ele>
        <time>2022-11-27T09:33:31Z</time>
      </trkpt>
      <trkpt lat="43.3038650" lon="-2.0479300">
        <ele>258.0</ele>
        <time>2022-11-27T09:33:32Z</time>
      </trkpt>
      <trkpt lat="43.3038960" lon="-2.0478320">
        <ele>257.6</ele>
        <time>2022-11-27T09:33:33Z</time>
      </trkpt>
      <trkpt lat="43.3039290" lon="-2.0477380">
        <ele>257.2</ele>
        <time>2022-11-27T09:33:34Z</time>
      </trkpt>
      <trkpt lat="43.3039640" lon="-2.0476500">
        <ele>257.2</ele>
        <time>2022-11-27T09:33:35Z</time>
      </trkpt>
      <trkpt lat="43.3040000" lon="-2.0475660">
        <ele>256.8</ele>
        <time>2022-11-27T09:33:36Z</time>
      </trkpt>
      <trkpt lat="43.3040400" lon="-2.0474870">
        <ele>256.6</ele>
        <time>2022-11-27T09:33:37Z</time>
      </trkpt>
      <trkpt lat="43.3040800" lon="-2.0474110">
        <ele>256.6</ele>
        <time>2022-11-27T09:33:38Z</time>
      </trkpt>
      <trkpt lat="43.3041210" lon="-2.0473340">
        <ele>256.4</ele>
        <time>2022-11-27T09:33:39Z</time>
      </trkpt>
      <trkpt lat="43.3041630" lon="-2.0472560">
        <ele>256.4</ele>
        <time>2022-11-27T09:33:40Z</time>
      </trkpt>
      <trkpt lat="43.3042040" lon="-2.0471740">
        <ele>256.4</ele>
        <time>2022-11-27T09:33:41Z</time>
      </trkpt>
      <trkpt lat="43.3042470" lon="-2.0470930">
        <ele>256.4</ele>
        <time>2022-11-27T09:33:42Z</time>
      </trkpt>
      <trkpt lat="43.3042930" lon="-2.0470120">
        <ele>256.4</ele>
        <time>2022-11-27T09:33:43Z</time>
      </trkpt>
      <trkpt lat="43.3043380" lon="-2.0469310">
        <ele>256.4</ele>
        <time>2022-11-27T09:33:44Z</time>
      </trkpt>
      <trkpt lat="43.3043820" lon="-2.0468510">
        <ele>256.4</ele>
        <time>2022-11-27T09:33:45Z</time>
      </trkpt>
      <trkpt lat="43.3044260" lon="-2.0467710">
        <ele>256.4</ele>
        <time>2022-11-27T09:33:46Z</time>
      </trkpt>
      <trkpt lat="43.3044700" lon="-2.0466930">
        <ele>256.4</ele>
        <time>2022-11-27T09:33:47Z</time>
      </trkpt>
      <trkpt lat="43.3045120" lon="-2.0466150">
        <ele>256.4</ele>
        <time>2022-11-27T09:33:48Z</time>
      </trkpt>
      <trkpt lat="43.3045560" lon="-2.0465370">
        <ele>256.4</ele>
        <time>2022-11-27T09:33:49Z</time>
      </trkpt>
      <trkpt lat="43.3046010" lon="-2.0464580">
        <ele>256.4</ele>
        <time>2022-11-27T09:33:50Z</time>
      </trkpt>
      <trkpt lat="43.3046450" lon="-2.0463750">
        <ele>256.4</ele>
        <time>2022-11-27T09:33:51Z</time>
      </trkpt>
      <trkpt lat="43.3046870" lon="-2.0462880">
        <ele>256.4</ele>
        <time>2022-11-27T09:33:52Z</time>
      </trkpt>
      <trkpt lat="43.3047320" lon="-2.0462020">
        <ele>256.4</ele>
        <time>2022-11-27T09:33:53Z</time>
      </trkpt>
      <trkpt lat="43.3047830" lon="-2.0461210">
        <ele>256.4</ele>
        <time>2022-11-27T09:33:54Z</time>
      </trkpt>
      <trkpt lat="43.3048360" lon="-2.0460420">
        <ele>256.4</ele>
        <time>2022-11-27T09:33:55Z</time>
      </trkpt>
      <trkpt lat="43.3048930" lon="-2.0459650">
        <ele>256.2</ele>
        <time>2022-11-27T09:33:56Z</time>
      </trkpt>
      <trkpt lat="43.3049530" lon="-2.0458910">
        <ele>256.2</ele>
        <time>2022-11-27T09:33:57Z</time>
      </trkpt>
      <trkpt lat="43.3050200" lon="-2.0458230">
        <ele>256.2</ele>
        <time>2022-11-27T09:33:58Z</time>
      </trkpt>
      <trkpt lat="43.3050900" lon="-2.0457630">
        <ele>256.0</ele>
        <time>2022-11-27T09:33:59Z</time>
      </trkpt>
      <trkpt lat="43.3051550" lon="-2.0457090">
        <ele>256.0</ele>
        <time>2022-11-27T09:34:00Z</time>
      </trkpt>
      <trkpt lat="43.3052130" lon="-2.0456550">
        <ele>255.8</ele>
        <time>2022-11-27T09:34:01Z</time>
      </trkpt>
      <trkpt lat="43.3052690" lon="-2.0455960">
        <ele>255.6</ele>
        <time>2022-11-27T09:34:02Z</time>
      </trkpt>
      <trkpt lat="43.3053220" lon="-2.0455300">
        <ele>255.4</ele>
        <time>2022-11-27T09:34:03Z</time>
      </trkpt>
      <trkpt lat="43.3053690" lon="-2.0454600">
        <ele>255.2</ele>
        <time>2022-11-27T09:34:04Z</time>
      </trkpt>
      <trkpt lat="43.3054120" lon="-2.0453810">
        <ele>254.8</ele>
        <time>2022-11-27T09:34:05Z</time>
      </trkpt>
      <trkpt lat="43.3054470" lon="-2.0452930">
        <ele>254.6</ele>
        <time>2022-11-27T09:34:06Z</time>
      </trkpt>
      <trkpt lat="43.3054740" lon="-2.0451990">
        <ele>254.0</ele>
        <time>2022-11-27T09:34:07Z</time>
      </trkpt>
      <trkpt lat="43.3054950" lon="-2.0451020">
        <ele>253.8</ele>
        <time>2022-11-27T09:34:08Z</time>
      </trkpt>
      <trkpt lat="43.3055140" lon="-2.0450050">
        <ele>253.2</ele>
        <time>2022-11-27T09:34:09Z</time>
      </trkpt>
      <trkpt lat="43.3055330" lon="-2.0449070">
        <ele>252.8</ele>
        <time>2022-11-27T09:34:10Z</time>
      </trkpt>
      <trkpt lat="43.3055510" lon="-2.0448090">
        <ele>252.4</ele>
        <time>2022-11-27T09:34:11Z</time>
      </trkpt>
      <trkpt lat="43.3055690" lon="-2.0447120">
        <ele>252.2</ele>
        <time>2022-11-27T09:34:12Z</time>
      </trkpt>
      <trkpt lat="43.3055870" lon="-2.0446170">
        <ele>252.2</ele>
        <time>2022-11-27T09:34:13Z</time>
      </trkpt>
      <trkpt lat="43.3056050" lon="-2.0445230">
        <ele>252.0</ele>
        <time>2022-11-27T09:34:14Z</time>
      </trkpt>
      <trkpt lat="43.3056250" lon="-2.0444300">
        <ele>252.0</ele>
        <time>2022-11-27T09:34:15Z</time>
      </trkpt>
      <trkpt lat="43.3056420" lon="-2.0443360">
        <ele>252.0</ele>
        <time>2022-11-27T09:34:16Z</time>
      </trkpt>
      <trkpt lat="43.3056560" lon="-2.0442390">
        <ele>252.0</ele>
        <time>2022-11-27T09:34:17Z</time>
      </trkpt>
      <trkpt lat="43.3056720" lon="-2.0441430">
        <ele>252.0</ele>
        <time>2022-11-27T09:34:18Z</time>
      </trkpt>
      <trkpt lat="43.3056910" lon="-2.0440480">
        <ele>252.0</ele>
        <time>2022-11-27T09:34:19Z</time>
      </trkpt>
      <trkpt lat="43.3057120" lon="-2.0439550">
        <ele>252.0</ele>
        <time>2022-11-27T09:34:20Z</time>
      </trkpt>
      <trkpt lat="43.3057320" lon="-2.0438620">
        <ele>252.0</ele>
        <time>2022-11-27T09:34:21Z</time>
      </trkpt>
      <trkpt lat="43.3057520" lon="-2.0437690">
        <ele>252.0</ele>
        <time>2022-11-27T09:34:22Z</time>
      </trkpt>
      <trkpt lat="43.3057710" lon="-2.0436740">
        <ele>252.0</ele>
        <time>2022-11-27T09:34:23Z</time>
      </trkpt>
      <trkpt lat="43.3057900" lon="-2.0435790">
        <ele>252.0</ele>
        <time>2022-11-27T09:34:24Z</time>
      </trkpt>
      <trkpt lat="43.3058060" lon="-2.0434830">
        <ele>252.0</ele>
        <time>2022-11-27T09:34:25Z</time>
      </trkpt>
      <trkpt lat="43.3058230" lon="-2.0433860">
        <ele>252.4</ele>
        <time>2022-11-27T09:34:26Z</time>
      </trkpt>
      <trkpt lat="43.3058410" lon="-2.0432890">
        <ele>252.8</ele>
        <time>2022-11-27T09:34:27Z</time>
      </trkpt>
      <trkpt lat="43.3058600" lon="-2.0431930">
        <ele>252.8</ele>
        <time>2022-11-27T09:34:28Z</time>
      </trkpt>
      <trkpt lat="43.3058790" lon="-2.0430970">
        <ele>253.0</ele>
        <time>2022-11-27T09:34:29Z</time>
      </trkpt>
      <trkpt lat="43.3058990" lon="-2.0430020">
        <ele>253.0</ele>
        <time>2022-11-27T09:34:30Z</time>
      </trkpt>
      <trkpt lat="43.3059190" lon="-2.0429080">
        <ele>253.2</ele>
        <time>2022-11-27T09:34:31Z</time>
      </trkpt>
      <trkpt lat="43.3059390" lon="-2.0428150">
        <ele>253.2</ele>
        <time>2022-11-27T09:34:32Z</time>
      </trkpt>
      <trkpt lat="43.3059560" lon="-2.0427210">
        <ele>253.2</ele>
        <time>2022-11-27T09:34:33Z</time>
      </trkpt>
      <trkpt lat="43.3059730" lon="-2.0426280">
        <ele>253.2</ele>
        <time>2022-11-27T09:34:34Z</time>
      </trkpt>
      <trkpt lat="43.3059910" lon="-2.0425360">
        <ele>253.2</ele>
        <time>2022-11-27T09:34:35Z</time>
      </trkpt>
      <trkpt lat="43.3060090" lon="-2.0424450">
        <ele>253.4</ele>
        <time>2022-11-27T09:34:36Z</time>
      </trkpt>
      <trkpt lat="43.3060270" lon="-2.0423530">
        <ele>253.4</ele>
        <time>2022-11-27T09:34:37Z</time>
      </trkpt>
      <trkpt lat="43.3060410" lon="-2.0422590">
        <ele>253.4</ele>
        <time>2022-11-27T09:34:38Z</time>
      </trkpt>
      <trkpt lat="43.3060560" lon="-2.0421650">
        <ele>253.4</ele>
        <time>2022-11-27T09:34:39Z</time>
      </trkpt>
      <trkpt lat="43.3060730" lon="-2.0420730">
        <ele>253.6</ele>
        <time>2022-11-27T09:34:40Z</time>
      </trkpt>
      <trkpt lat="43.3060900" lon="-2.0419810">
        <ele>253.6</ele>
        <time>2022-11-27T09:34:41Z</time>
      </trkpt>
      <trkpt lat="43.3061070" lon="-2.0418900">
        <ele>254.0</ele>
        <time>2022-11-27T09:34:42Z</time>
      </trkpt>
      <trkpt lat="43.3061250" lon="-2.0417990">
        <ele>254.2</ele>
        <time>2022-11-27T09:34:43Z</time>
      </trkpt>
      <trkpt lat="43.3061440" lon="-2.0417090">
        <ele>254.6</ele>
        <time>2022-11-27T09:34:44Z</time>
      </trkpt>
      <trkpt lat="43.3061630" lon="-2.0416200">
        <ele>254.6</ele>
        <time>2022-11-27T09:34:45Z</time>
      </trkpt>
      <trkpt lat="43.3061820" lon="-2.0415330">
        <ele>254.8</ele>
        <time>2022-11-27T09:34:46Z</time>
      </trkpt>
      <trkpt lat="43.3061980" lon="-2.0414450">
        <ele>255.0</ele>
        <time>2022-11-27T09:34:47Z</time>
      </trkpt>
      <trkpt lat="43.3062140" lon="-2.0413580">
        <ele>255.0</ele>
        <time>2022-11-27T09:34:48Z</time>
      </trkpt>
      <trkpt lat="43.3062310" lon="-2.0412750">
        <ele>255.2</ele>
        <time>2022-11-27T09:34:49Z</time>
      </trkpt>
      <trkpt lat="43.3062480" lon="-2.0411940">
        <ele>255.2</ele>
        <time>2022-11-27T09:34:50Z</time>
      </trkpt>
      <trkpt lat="43.3062640" lon="-2.0411150">
        <ele>255.2</ele>
        <time>2022-11-27T09:34:51Z</time>
      </trkpt>
      <trkpt lat="43.3062800" lon="-2.0410370">
        <ele>255.2</ele>
        <time>2022-11-27T09:34:52Z</time>
      </trkpt>
      <trkpt lat="43.3062950" lon="-2.0409600">
        <ele>255.2</ele>
        <time>2022-11-27T09:34:53Z</time>
      </trkpt>
      <trkpt lat="43.3063100" lon="-2.0408820">
        <ele>255.2</ele>
        <time>2022-11-27T09:34:54Z</time>
      </trkpt>
      <trkpt lat="43.3063260" lon="-2.0408020">
        <ele>255.2</ele>
        <time>2022-11-27T09:34:55Z</time>
      </trkpt>
      <trkpt lat="43.3063420" lon="-2.0407190">
        <ele>255.2</ele>
        <time>2022-11-27T09:34:56Z</time>
      </trkpt>
      <trkpt lat="43.3063550" lon="-2.0406350">
        <ele>255.4</ele>
        <time>2022-11-27T09:34:57Z</time>
      </trkpt>
      <trkpt lat="43.3063680" lon="-2.0405490">
        <ele>255.4</ele>
        <time>2022-11-27T09:34:58Z</time>
      </trkpt>
      <trkpt lat="43.3063830" lon="-2.0404610">
        <ele>255.4</ele>
        <time>2022-11-27T09:34:59Z</time>
      </trkpt>
      <trkpt lat="43.3063990" lon="-2.0403730">
        <ele>255.4</ele>
        <time>2022-11-27T09:35:00Z</time>
      </trkpt>
      <trkpt lat="43.3064190" lon="-2.0402860">
        <ele>255.4</ele>
        <time>2022-11-27T09:35:01Z</time>
      </trkpt>
      <trkpt lat="43.3064400" lon="-2.0401990">
        <ele>255.4</ele>
        <time>2022-11-27T09:35:02Z</time>
      </trkpt>
      <trkpt lat="43.3064620" lon="-2.0401140">
        <ele>255.4</ele>
        <time>2022-11-27T09:35:03Z</time>
      </trkpt>
      <trkpt lat="43.3064870" lon="-2.0400300">
        <ele>255.4</ele>
        <time>2022-11-27T09:35:04Z</time>
      </trkpt>
      <trkpt lat="43.3065160" lon="-2.0399490">
        <ele>255.6</ele>
        <time>2022-11-27T09:35:05Z</time>
      </trkpt>
      <trkpt lat="43.3065480" lon="-2.0398700">
        <ele>255.6</ele>
        <time>2022-11-27T09:35:06Z</time>
      </trkpt>
      <trkpt lat="43.3065820" lon="-2.0397930">
        <ele>255.6</ele>
        <time>2022-11-27T09:35:07Z</time>
      </trkpt>
      <trkpt lat="43.3066170" lon="-2.0397170">
        <ele>255.6</ele>
        <time>2022-11-27T09:35:08Z</time>
      </trkpt>
      <trkpt lat="43.3066550" lon="-2.0396440">
        <ele>255.6</ele>
        <time>2022-11-27T09:35:09Z</time>
      </trkpt>
      <trkpt lat="43.3066960" lon="-2.0395760">
        <ele>255.6</ele>
        <time>2022-11-27T09:35:10Z</time>
      </trkpt>
      <trkpt lat="43.3067400" lon="-2.0395130">
        <ele>255.6</ele>
        <time>2022-11-27T09:35:11Z</time>
      </trkpt>
      <trkpt lat="43.3067880" lon="-2.0394540">
        <ele>255.6</ele>
        <time>2022-11-27T09:35:12Z</time>
      </trkpt>
      <trkpt lat="43.3068380" lon="-2.0394000">
        <ele>255.6</ele>
        <time>2022-11-27T09:35:13Z</time>
      </trkpt>
      <trkpt lat="43.3068900" lon="-2.0393510">
        <ele>255.6</ele>
        <time>2022-11-27T09:35:14Z</time>
      </trkpt>
      <trkpt lat="43.3069450" lon="-2.0393030">
        <ele>255.6</ele>
        <time>2022-11-27T09:35:15Z</time>
      </trkpt>
      <trkpt lat="43.3070040" lon="-2.0392550">
        <ele>255.4</ele>
        <time>2022-11-27T09:35:16Z</time>
      </trkpt>
      <trkpt lat="43.3070660" lon="-2.0392060">
        <ele>255.4</ele>
        <time>2022-11-27T09:35:17Z</time>
      </trkpt>
      <trkpt lat="43.3071300" lon="-2.0391590">
        <ele>255.4</ele>
        <time>2022-11-27T09:35:18Z</time>
      </trkpt>
      <trkpt lat="43.3071930" lon="-2.0391130">
        <ele>255.2</ele>
        <time>2022-11-27T09:35:19Z</time>
      </trkpt>
      <trkpt lat="43.3072550" lon="-2.0390650">
        <ele>255.0</ele>
        <time>2022-11-27T09:35:20Z</time>
      </trkpt>
      <trkpt lat="43.3073170" lon="-2.0390190">
        <ele>255.0</ele>
        <time>2022-11-27T09:35:21Z</time>
      </trkpt>
      <trkpt lat="43.3073800" lon="-2.0389740">
        <ele>254.6</ele>
        <time>2022-11-27T09:35:22Z</time>
      </trkpt>
      <trkpt lat="43.3074420" lon="-2.0389300">
        <ele>254.6</ele>
        <time>2022-11-27T09:35:23Z</time>
      </trkpt>
      <trkpt lat="43.3075050" lon="-2.0388870">
        <ele>254.4</ele>
        <time>2022-11-27T09:35:24Z</time>
      </trkpt>
      <trkpt lat="43.3075700" lon="-2.0388390">
        <ele>254.2</ele>
        <time>2022-11-27T09:35:25Z</time>
      </trkpt>
      <trkpt lat="43.3076370" lon="-2.0387860">
        <ele>254.2</ele>
        <time>2022-11-27T09:35:26Z</time>
      </trkpt>
      <trkpt lat="43.3077060" lon="-2.0387290">
        <ele>254.2</ele>
        <time>2022-11-27T09:35:27Z</time>
      </trkpt>
      <trkpt lat="43.3077770" lon="-2.0386670">
        <ele>254.0</ele>
        <time>2022-11-27T09:35:28Z</time>
      </trkpt>
      <trkpt lat="43.3078510" lon="-2.0386020">
        <ele>253.8</ele>
        <time>2022-11-27T09:35:29Z</time>
      </trkpt>
      <trkpt lat="43.3079250" lon="-2.0385320">
        <ele>253.8</ele>
        <time>2022-11-27T09:35:30Z</time>
      </trkpt>
      <trkpt lat="43.3080000" lon="-2.0384570">
        <ele>253.8</ele>
        <time>2022-11-27T09:35:31Z</time>
      </trkpt>
      <trkpt lat="43.3080740" lon="-2.0383800">
        <ele>253.6</ele>
        <time>2022-11-27T09:35:32Z</time>
      </trkpt>
      <trkpt lat="43.3081470" lon="-2.0382950">
        <ele>253.6</ele>
        <time>2022-11-27T09:35:33Z</time>
      </trkpt>
      <trkpt lat="43.3082210" lon="-2.0382060">
        <ele>253.0</ele>
        <time>2022-11-27T09:35:34Z</time>
      </trkpt>
      <trkpt lat="43.3082950" lon="-2.0381170">
        <ele>252.6</ele>
        <time>2022-11-27T09:35:35Z</time>
      </trkpt>
      <trkpt lat="43.3083690" lon="-2.0380250">
        <ele>252.4</ele>
        <time>2022-11-27T09:35:36Z</time>
      </trkpt>
      <trkpt lat="43.3084410" lon="-2.0379320">
        <ele>251.8</ele>
        <time>2022-11-27T09:35:37Z</time>
      </trkpt>
      <trkpt lat="43.3085120" lon="-2.0378400">
        <ele>251.2</ele>
        <time>2022-11-27T09:35:38Z</time>
      </trkpt>
      <trkpt lat="43.3085820" lon="-2.0377500">
        <ele>250.6</ele>
        <time>2022-11-27T09:35:39Z</time>
      </trkpt>
      <trkpt lat="43.3086510" lon="-2.0376620">
        <ele>250.6</ele>
        <time>2022-11-27T09:35:40Z</time>
      </trkpt>
      <trkpt lat="43.3087180" lon="-2.0375710">
        <ele>249.8</ele>
        <time>2022-11-27T09:35:41Z</time>
      </trkpt>
      <trkpt lat="43.3087830" lon="-2.0374810">
        <ele>249.0</ele>
        <time>2022-11-27T09:35:42Z</time>
      </trkpt>
      <trkpt lat="43.3088480" lon="-2.0373910">
        <ele>248.4</ele>
        <time>2022-11-27T09:35:43Z</time>
      </trkpt>
      <trkpt lat="43.3089130" lon="-2.0372980">
        <ele>247.8</ele>
        <time>2022-11-27T09:35:44Z</time>
      </trkpt>
      <trkpt lat="43.3089780" lon="-2.0371980">
        <ele>247.2</ele>
        <time>2022-11-27T09:35:45Z</time>
      </trkpt>
      <trkpt lat="43.3090420" lon="-2.0370900">
        <ele>246.8</ele>
        <time>2022-11-27T09:35:46Z</time>
      </trkpt>
      <trkpt lat="43.3091020" lon="-2.0369720">
        <ele>246.6</ele>
        <time>2022-11-27T09:35:47Z</time>
      </trkpt>
      <trkpt lat="43.3091600" lon="-2.0368460">
        <ele>246.2</ele>
        <time>2022-11-27T09:35:48Z</time>
      </trkpt>
      <trkpt lat="43.3092160" lon="-2.0367130">
        <ele>246.0</ele>
        <time>2022-11-27T09:35:49Z</time>
      </trkpt>
      <trkpt lat="43.3092720" lon="-2.0365760">
        <ele>245.2</ele>
        <time>2022-11-27T09:35:50Z</time>
      </trkpt>
      <trkpt lat="43.3093270" lon="-2.0364350">
        <ele>244.2</ele>
        <time>2022-11-27T09:35:51Z</time>
      </trkpt>
      <trkpt lat="43.3093830" lon="-2.0362930">
        <ele>243.0</ele>
        <time>2022-11-27T09:35:52Z</time>
      </trkpt>
      <trkpt lat="43.3094390" lon="-2.0361530">
        <ele>242.0</ele>
        <time>2022-11-27T09:35:53Z</time>
      </trkpt>
      <trkpt lat="43.3094950" lon="-2.0360140">
        <ele>241.0</ele>
        <time>2022-11-27T09:35:54Z</time>
      </trkpt>
      <trkpt lat="43.3095490" lon="-2.0358790">
        <ele>239.8</ele>
        <time>2022-11-27T09:35:55Z</time>
      </trkpt>
      <trkpt lat="43.3096020" lon="-2.0357480">
        <ele>238.6</ele>
        <time>2022-11-27T09:35:56Z</time>
      </trkpt>
      <trkpt lat="43.3096540" lon="-2.0356210">
        <ele>237.6</ele>
        <time>2022-11-27T09:35:57Z</time>
      </trkpt>
      <trkpt lat="43.3097030" lon="-2.0354930">
        <ele>236.8</ele>
        <time>2022-11-27T09:35:58Z</time>
      </trkpt>
      <trkpt lat="43.3097490" lon="-2.0353640">
        <ele>236.0</ele>
        <time>2022-11-27T09:35:59Z</time>
      </trkpt>
      <trkpt lat="43.3097910" lon="-2.0352350">
        <ele>236.0</ele>
        <time>2022-11-27T09:36:00Z</time>
      </trkpt>
      <trkpt lat="43.3098310" lon="-2.0351090">
        <ele>235.0</ele>
        <time>2022-11-27T09:36:01Z</time>
      </trkpt>
      <trkpt lat="43.3098690" lon="-2.0349840">
        <ele>234.0</ele>
        <time>2022-11-27T09:36:02Z</time>
      </trkpt>
      <trkpt lat="43.3099080" lon="-2.0348620">
        <ele>232.6</ele>
        <time>2022-11-27T09:36:03Z</time>
      </trkpt>
      <trkpt lat="43.3099460" lon="-2.0347420">
        <ele>232.0</ele>
        <time>2022-11-27T09:36:04Z</time>
      </trkpt>
      <trkpt lat="43.3099830" lon="-2.0346250">
        <ele>231.6</ele>
        <time>2022-11-27T09:36:05Z</time>
      </trkpt>
      <trkpt lat="43.3100170" lon="-2.0345100">
        <ele>231.4</ele>
        <time>2022-11-27T09:36:06Z</time>
      </trkpt>
      <trkpt lat="43.3100500" lon="-2.0343980">
        <ele>231.4</ele>
        <time>2022-11-27T09:36:07Z</time>
      </trkpt>
      <trkpt lat="43.3100850" lon="-2.0342890">
        <ele>231.2</ele>
        <time>2022-11-27T09:36:08Z</time>
      </trkpt>
      <trkpt lat="43.3101210" lon="-2.0341850">
        <ele>231.2</ele>
        <time>2022-11-27T09:36:09Z</time>
      </trkpt>
      <trkpt lat="43.3101580" lon="-2.0340840">
        <ele>231.2</ele>
        <time>2022-11-27T09:36:10Z</time>
      </trkpt>
      <trkpt lat="43.3101980" lon="-2.0339870">
        <ele>231.2</ele>
        <time>2022-11-27T09:36:11Z</time>
      </trkpt>
      <trkpt lat="43.3102390" lon="-2.0338920">
        <ele>231.2</ele>
        <time>2022-11-27T09:36:12Z</time>
      </trkpt>
      <trkpt lat="43.3102830" lon="-2.0337960">
        <ele>231.6</ele>
        <time>2022-11-27T09:36:13Z</time>
      </trkpt>
      <trkpt lat="43.3103300" lon="-2.0337000">
        <ele>231.8</ele>
        <time>2022-11-27T09:36:14Z</time>
      </trkpt>
      <trkpt lat="43.3103810" lon="-2.0336030">
        <ele>231.8</ele>
        <time>2022-11-27T09:36:15Z</time>
      </trkpt>
      <trkpt lat="43.3104360" lon="-2.0335050">
        <ele>231.8</ele>
        <time>2022-11-27T09:36:16Z</time>
      </trkpt>
      <trkpt lat="43.3104950" lon="-2.0334100">
        <ele>232.0</ele>
        <time>2022-11-27T09:36:17Z</time>
      </trkpt>
      <trkpt lat="43.3105570" lon="-2.0333120">
        <ele>232.0</ele>
        <time>2022-11-27T09:36:18Z</time>
      </trkpt>
      <trkpt lat="43.3106220" lon="-2.0332140">
        <ele>232.0</ele>
        <time>2022-11-27T09:36:19Z</time>
      </trkpt>
      <trkpt lat="43.3106940" lon="-2.0331220">
        <ele>232.0</ele>
        <time>2022-11-27T09:36:20Z</time>
      </trkpt>
      <trkpt lat="43.3107730" lon="-2.0330360">
        <ele>232.0</ele>
        <time>2022-11-27T09:36:21Z</time>
      </trkpt>
      <trkpt lat="43.3108580" lon="-2.0329540">
        <ele>232.0</ele>
        <time>2022-11-27T09:36:22Z</time>
      </trkpt>
      <trkpt lat="43.3109460" lon="-2.0328740">
        <ele>232.0</ele>
        <time>2022-11-27T09:36:23Z</time>
      </trkpt>
      <trkpt lat="43.3110340" lon="-2.0327940">
        <ele>232.0</ele>
        <time>2022-11-27T09:36:24Z</time>
      </trkpt>
      <trkpt lat="43.3111190" lon="-2.0327160">
        <ele>231.6</ele>
        <time>2022-11-27T09:36:25Z</time>
      </trkpt>
      <trkpt lat="43.3112000" lon="-2.0326400">
        <ele>231.4</ele>
        <time>2022-11-27T09:36:26Z</time>
      </trkpt>
      <trkpt lat="43.3112770" lon="-2.0325610">
        <ele>231.2</ele>
        <time>2022-11-27T09:36:27Z</time>
      </trkpt>
      <trkpt lat="43.3113480" lon="-2.0324740">
        <ele>230.6</ele>
        <time>2022-11-27T09:36:28Z</time>
      </trkpt>
      <trkpt lat="43.3114140" lon="-2.0323820">
        <ele>230.4</ele>
        <time>2022-11-27T09:36:29Z</time>
      </trkpt>
      <trkpt lat="43.3114790" lon="-2.0322890">
        <ele>229.8</ele>
        <time>2022-11-27T09:36:30Z</time>
      </trkpt>
      <trkpt lat="43.3115390" lon="-2.0321880">
        <ele>229.0</ele>
        <time>2022-11-27T09:36:31Z</time>
      </trkpt>
      <trkpt lat="43.3115970" lon="-2.0320800">
        <ele>228.4</ele>
        <time>2022-11-27T09:36:32Z</time>
      </trkpt>
      <trkpt lat="43.3116540" lon="-2.0319710">
        <ele>227.8</ele>
        <time>2022-11-27T09:36:33Z</time>
      </trkpt>
      <trkpt lat="43.3117120" lon="-2.0318590">
        <ele>226.8</ele>
        <time>2022-11-27T09:36:34Z</time>
      </trkpt>
      <trkpt lat="43.3117690" lon="-2.0317450">
        <ele>226.4</ele>
        <time>2022-11-27T09:36:35Z</time>
      </trkpt>
      <trkpt lat="43.3118260" lon="-2.0316280">
        <ele>225.8</ele>
        <time>2022-11-27T09:36:36Z</time>
      </trkpt>
      <trkpt lat="43.3118820" lon="-2.0315110">
        <ele>225.4</ele>
        <time>2022-11-27T09:36:37Z</time>
      </trkpt>
      <trkpt lat="43.3119380" lon="-2.0313920">
        <ele>224.8</ele>
        <time>2022-11-27T09:36:38Z</time>
      </trkpt>
      <trkpt lat="43.3119940" lon="-2.0312720">
        <ele>224.6</ele>
        <time>2022-11-27T09:36:39Z</time>
      </trkpt>
      <trkpt lat="43.3120530" lon="-2.0311530">
        <ele>224.2</ele>
        <time>2022-11-27T09:36:40Z</time>
      </trkpt>
      <trkpt lat="43.3121130" lon="-2.0310330">
        <ele>224.0</ele>
        <time>2022-11-27T09:36:41Z</time>
      </trkpt>
      <trkpt lat="43.3121720" lon="-2.0309100">
        <ele>223.8</ele>
        <time>2022-11-27T09:36:42Z</time>
      </trkpt>
      <trkpt lat="43.3122300" lon="-2.0307850">
        <ele>223.6</ele>
        <time>2022-11-27T09:36:43Z</time>
      </trkpt>
      <trkpt lat="43.3122880" lon="-2.0306600">
        <ele>223.6</ele>
        <time>2022-11-27T09:36:44Z</time>
      </trkpt>
      <trkpt lat="43.3123480" lon="-2.0305350">
        <ele>223.4</ele>
        <time>2022-11-27T09:36:45Z</time>
      </trkpt>
      <trkpt lat="43.3124100" lon="-2.0304110">
        <ele>223.4</ele>
        <time>2022-11-27T09:36:46Z</time>
      </trkpt>
      <trkpt lat="43.3124710" lon="-2.0302880">
        <ele>223.0</ele>
        <time>2022-11-27T09:36:47Z</time>
      </trkpt>
      <trkpt lat="43.3125320" lon="-2.0301630">
        <ele>222.4</ele>
        <time>2022-11-27T09:36:48Z</time>
      </trkpt>
      <trkpt lat="43.3125930" lon="-2.0300380">
        <ele>221.8</ele>
        <time>2022-11-27T09:36:49Z</time>
      </trkpt>
      <trkpt lat="43.3126570" lon="-2.0299170">
        <ele>221.4</ele>
        <time>2022-11-27T09:36:50Z</time>
      </trkpt>
      <trkpt lat="43.3127220" lon="-2.0297990">
        <ele>220.6</ele>
        <time>2022-11-27T09:36:51Z</time>
      </trkpt>
      <trkpt lat="43.3127920" lon="-2.0296870">
        <ele>220.2</ele>
        <time>2022-11-27T09:36:52Z</time>
      </trkpt>
      <trkpt lat="43.3128670" lon="-2.0295810">
        <ele>219.8</ele>
        <time>2022-11-27T09:36:53Z</time>
      </trkpt>
      <trkpt lat="43.3129460" lon="-2.0294750">
        <ele>219.4</ele>
        <time>2022-11-27T09:36:54Z</time>
      </trkpt>
      <trkpt lat="43.3130250" lon="-2.0293690">
        <ele>218.8</ele>
        <time>2022-11-27T09:36:55Z</time>
      </trkpt>
      <trkpt lat="43.3131070" lon="-2.0292670">
        <ele>218.6</ele>
        <time>2022-11-27T09:36:56Z</time>
      </trkpt>
      <trkpt lat="43.3131890" lon="-2.0291690">
        <ele>218.2</ele>
        <time>2022-11-27T09:36:57Z</time>
      </trkpt>
      <trkpt lat="43.3132720" lon="-2.0290730">
        <ele>217.8</ele>
        <time>2022-11-27T09:36:58Z</time>
      </trkpt>
      <trkpt lat="43.3133550" lon="-2.0289780">
        <ele>217.4</ele>
        <time>2022-11-27T09:36:59Z</time>
      </trkpt>
      <trkpt lat="43.3134380" lon="-2.0288810">
        <ele>217.2</ele>
        <time>2022-11-27T09:37:00Z</time>
      </trkpt>
      <trkpt lat="43.3135190" lon="-2.0287830">
        <ele>216.6</ele>
        <time>2022-11-27T09:37:01Z</time>
      </trkpt>
      <trkpt lat="43.3135990" lon="-2.0286840">
        <ele>216.2</ele>
        <time>2022-11-27T09:37:02Z</time>
      </trkpt>
      <trkpt lat="43.3136770" lon="-2.0285840">
        <ele>215.8</ele>
        <time>2022-11-27T09:37:03Z</time>
      </trkpt>
      <trkpt lat="43.3137530" lon="-2.0284810">
        <ele>215.0</ele>
        <time>2022-11-27T09:37:04Z</time>
      </trkpt>
      <trkpt lat="43.3138250" lon="-2.0283700">
        <ele>214.2</ele>
        <time>2022-11-27T09:37:05Z</time>
      </trkpt>
      <trkpt lat="43.3138920" lon="-2.0282510">
        <ele>213.6</ele>
        <time>2022-11-27T09:37:06Z</time>
      </trkpt>
      <trkpt lat="43.3139540" lon="-2.0281260">
        <ele>213.6</ele>
        <time>2022-11-27T09:37:07Z</time>
      </trkpt>
      <trkpt lat="43.3140150" lon="-2.0279990">
        <ele>212.8</ele>
        <time>2022-11-27T09:37:08Z</time>
      </trkpt>
      <trkpt lat="43.3140740" lon="-2.0278730">
        <ele>212.4</ele>
        <time>2022-11-27T09:37:09Z</time>
      </trkpt>
      <trkpt lat="43.3141340" lon="-2.0277500">
        <ele>211.8</ele>
        <time>2022-11-27T09:37:10Z</time>
      </trkpt>
      <trkpt lat="43.3141950" lon="-2.0276280">
        <ele>211.2</ele>
        <time>2022-11-27T09:37:11Z</time>
      </trkpt>
      <trkpt lat="43.3142560" lon="-2.0275060">
        <ele>210.6</ele>
        <time>2022-11-27T09:37:12Z</time>
      </trkpt>
      <trkpt lat="43.3143160" lon="-2.0273860">
        <ele>210.0</ele>
        <time>2022-11-27T09:37:13Z</time>
      </trkpt>
      <trkpt lat="43.3143770" lon="-2.0272670">
        <ele>209.6</ele>
        <time>2022-11-27T09:37:14Z</time>
      </trkpt>
      <trkpt lat="43.3144360" lon="-2.0271480">
        <ele>209.2</ele>
        <time>2022-11-27T09:37:15Z</time>
      </trkpt>
      <trkpt lat="43.3144950" lon="-2.0270280">
        <ele>208.8</ele>
        <time>2022-11-27T09:37:16Z</time>
      </trkpt>
      <trkpt lat="43.3145540" lon="-2.0269100">
        <ele>208.4</ele>
        <time>2022-11-27T09:37:17Z</time>
      </trkpt>
      <trkpt lat="43.3146120" lon="-2.0267890">
        <ele>207.6</ele>
        <time>2022-11-27T09:37:18Z</time>
      </trkpt>
      <trkpt lat="43.3146670" lon="-2.0266660">
        <ele>206.8</ele>
        <time>2022-11-27T09:37:19Z</time>
      </trkpt>
      <trkpt lat="43.3147230" lon="-2.0265430">
        <ele>206.0</ele>
        <time>2022-11-27T09:37:20Z</time>
      </trkpt>
      <trkpt lat="43.3147820" lon="-2.0264230">
        <ele>205.6</ele>
        <time>2022-11-27T09:37:21Z</time>
      </trkpt>
      <trkpt lat="43.3148410" lon="-2.0263030">
        <ele>205.4</ele>
        <time>2022-11-27T09:37:22Z</time>
      </trkpt>
      <trkpt lat="43.3148980" lon="-2.0261820">
        <ele>205.0</ele>
        <time>2022-11-27T09:37:23Z</time>
      </trkpt>
      <trkpt lat="43.3149530" lon="-2.0260610">
        <ele>204.6</ele>
        <time>2022-11-27T09:37:24Z</time>
      </trkpt>
      <trkpt lat="43.3150010" lon="-2.0259360">
        <ele>204.4</ele>
        <time>2022-11-27T09:37:25Z</time>
      </trkpt>
      <trkpt lat="43.3150420" lon="-2.0258060">
        <ele>204.4</ele>
        <time>2022-11-27T09:37:26Z</time>
      </trkpt>
      <trkpt lat="43.3150790" lon="-2.0256710">
        <ele>204.0</ele>
        <time>2022-11-27T09:37:27Z</time>
      </trkpt>
      <trkpt lat="43.3151110" lon="-2.0255320">
        <ele>203.6</ele>
        <time>2022-11-27T09:37:28Z</time>
      </trkpt>
      <trkpt lat="43.3151410" lon="-2.0253900">
        <ele>203.2</ele>
        <time>2022-11-27T09:37:29Z</time>
      </trkpt>
      <trkpt lat="43.3151720" lon="-2.0252490">
        <ele>203.0</ele>
        <time>2022-11-27T09:37:30Z</time>
      </trkpt>
      <trkpt lat="43.3152020" lon="-2.0251080">
        <ele>202.6</ele>
        <time>2022-11-27T09:37:31Z</time>
      </trkpt>
      <trkpt lat="43.3152320" lon="-2.0249680">
        <ele>202.4</ele>
        <time>2022-11-27T09:37:32Z</time>
      </trkpt>
      <trkpt lat="43.3152640" lon="-2.0248290">
        <ele>202.0</ele>
        <time>2022-11-27T09:37:33Z</time>
      </trkpt>
      <trkpt lat="43.3152940" lon="-2.0246900">
        <ele>201.6</ele>
        <time>2022-11-27T09:37:34Z</time>
      </trkpt>
      <trkpt lat="43.3153220" lon="-2.0245520">
        <ele>201.2</ele>
        <time>2022-11-27T09:37:35Z</time>
      </trkpt>
      <trkpt lat="43.3153520" lon="-2.0244160">
        <ele>201.0</ele>
        <time>2022-11-27T09:37:36Z</time>
      </trkpt>
      <trkpt lat="43.3153840" lon="-2.0242790">
        <ele>200.8</ele>
        <time>2022-11-27T09:37:37Z</time>
      </trkpt>
      <trkpt lat="43.3154150" lon="-2.0241400">
        <ele>200.4</ele>
        <time>2022-11-27T09:37:38Z</time>
      </trkpt>
      <trkpt lat="43.3154460" lon="-2.0240050">
        <ele>199.8</ele>
        <time>2022-11-27T09:37:39Z</time>
      </trkpt>
      <trkpt lat="43.3154790" lon="-2.0238770">
        <ele>199.2</ele>
        <time>2022-11-27T09:37:40Z</time>
      </trkpt>
      <trkpt lat="43.3155150" lon="-2.0237560">
        <ele>198.6</ele>
        <time>2022-11-27T09:37:41Z</time>
      </trkpt>
      <trkpt lat="43.3155610" lon="-2.0236420">
        <ele>199.6</ele>
        <time>2022-11-27T09:37:42Z</time>
      </trkpt>
      <trkpt lat="43.3156150" lon="-2.0235360">
        <ele>199.6</ele>
        <time>2022-11-27T09:37:43Z</time>
      </trkpt>
      <trkpt lat="43.3156780" lon="-2.0234410">
        <ele>199.6</ele>
        <time>2022-11-27T09:37:44Z</time>
      </trkpt>
      <trkpt lat="43.3157500" lon="-2.0233580">
        <ele>199.6</ele>
        <time>2022-11-27T09:37:45Z</time>
      </trkpt>
      <trkpt lat="43.3158300" lon="-2.0232870">
        <ele>199.6</ele>
        <time>2022-11-27T09:37:46Z</time>
      </trkpt>
      <trkpt lat="43.3159120" lon="-2.0232190">
        <ele>199.6</ele>
        <time>2022-11-27T09:37:47Z</time>
      </trkpt>
      <trkpt lat="43.3159910" lon="-2.0231490">
        <ele>199.6</ele>
        <time>2022-11-27T09:37:48Z</time>
      </trkpt>
      <trkpt lat="43.3160610" lon="-2.0230730">
        <ele>199.6</ele>
        <time>2022-11-27T09:37:49Z</time>
      </trkpt>
      <trkpt lat="43.3161200" lon="-2.0229850">
        <ele>199.6</ele>
        <time>2022-11-27T09:37:50Z</time>
      </trkpt>
      <trkpt lat="43.3161680" lon="-2.0228800">
        <ele>199.6</ele>
        <time>2022-11-27T09:37:51Z</time>
      </trkpt>
      <trkpt lat="43.3162040" lon="-2.0227620">
        <ele>199.2</ele>
        <time>2022-11-27T09:37:52Z</time>
      </trkpt>
      <trkpt lat="43.3162390" lon="-2.0226370">
        <ele>199.0</ele>
        <time>2022-11-27T09:37:53Z</time>
      </trkpt>
      <trkpt lat="43.3162760" lon="-2.0225100">
        <ele>198.8</ele>
        <time>2022-11-27T09:37:54Z</time>
      </trkpt>
      <trkpt lat="43.3163120" lon="-2.0223800">
        <ele>198.4</ele>
        <time>2022-11-27T09:37:55Z</time>
      </trkpt>
      <trkpt lat="43.3163470" lon="-2.0222430">
        <ele>198.0</ele>
        <time>2022-11-27T09:37:56Z</time>
      </trkpt>
      <trkpt lat="43.3163820" lon="-2.0221060">
        <ele>197.4</ele>
        <time>2022-11-27T09:37:57Z</time>
      </trkpt>
      <trkpt lat="43.3164180" lon="-2.0219730">
        <ele>196.8</ele>
        <time>2022-11-27T09:37:58Z</time>
      </trkpt>
      <trkpt lat="43.3164560" lon="-2.0218450">
        <ele>196.2</ele>
        <time>2022-11-27T09:37:59Z</time>
      </trkpt>
      <trkpt lat="43.3165030" lon="-2.0217230">
        <ele>195.6</ele>
        <time>2022-11-27T09:38:00Z</time>
      </trkpt>
      <trkpt lat="43.3165590" lon="-2.0216080">
        <ele>195.0</ele>
        <time>2022-11-27T09:38:01Z</time>
      </trkpt>
      <trkpt lat="43.3166220" lon="-2.0215010">
        <ele>194.6</ele>
        <time>2022-11-27T09:38:02Z</time>
      </trkpt>
      <trkpt lat="43.3166920" lon="-2.0214060">
        <ele>194.0</ele>
        <time>2022-11-27T09:38:03Z</time>
      </trkpt>
      <trkpt lat="43.3167730" lon="-2.0213260">
        <ele>193.2</ele>
        <time>2022-11-27T09:38:04Z</time>
      </trkpt>
      <trkpt lat="43.3168640" lon="-2.0212630">
        <ele>193.2</ele>
        <time>2022-11-27T09:38:05Z</time>
      </trkpt>
      <trkpt lat="43.3169590" lon="-2.0212100">
        <ele>192.4</ele>
        <time>2022-11-27T09:38:06Z</time>
      </trkpt>
      <trkpt lat="43.3170590" lon="-2.0211620">
        <ele>191.6</ele>
        <time>2022-11-27T09:38:07Z</time>
      </trkpt>
      <trkpt lat="43.3171580" lon="-2.0211160">
        <ele>190.6</ele>
        <time>2022-11-27T09:38:08Z</time>
      </trkpt>
      <trkpt lat="43.3172550" lon="-2.0210710">
        <ele>189.8</ele>
        <time>2022-11-27T09:38:09Z</time>
      </trkpt>
      <trkpt lat="43.3173500" lon="-2.0210200">
        <ele>189.0</ele>
        <time>2022-11-27T09:38:10Z</time>
      </trkpt>
      <trkpt lat="43.3174440" lon="-2.0209540">
        <ele>188.2</ele>
        <time>2022-11-27T09:38:11Z</time>
      </trkpt>
      <trkpt lat="43.3175360" lon="-2.0208770">
        <ele>187.4</ele>
        <time>2022-11-27T09:38:12Z</time>
      </trkpt>
      <trkpt lat="43.3176270" lon="-2.0207940">
        <ele>186.6</ele>
        <time>2022-11-27T09:38:13Z</time>
      </trkpt>
      <trkpt lat="43.3177170" lon="-2.0207090">
        <ele>185.8</ele>
        <time>2022-11-27T09:38:14Z</time>
      </trkpt>
      <trkpt lat="43.3178030" lon="-2.0206260">
        <ele>185.0</ele>
        <time>2022-11-27T09:38:15Z</time>
      </trkpt>
      <trkpt lat="43.3178880" lon="-2.0205420">
        <ele>184.2</ele>
        <time>2022-11-27T09:38:16Z</time>
      </trkpt>
      <trkpt lat="43.3179720" lon="-2.0204560">
        <ele>183.2</ele>
        <time>2022-11-27T09:38:17Z</time>
      </trkpt>
      <trkpt lat="43.3180540" lon="-2.0203720">
        <ele>182.6</ele>
        <time>2022-11-27T09:38:18Z</time>
      </trkpt>
      <trkpt lat="43.3181330" lon="-2.0202920">
        <ele>181.8</ele>
        <time>2022-11-27T09:38:19Z</time>
      </trkpt>
      <trkpt lat="43.3182100" lon="-2.0202130">
        <ele>180.8</ele>
        <time>2022-11-27T09:38:20Z</time>
      </trkpt>
      <trkpt lat="43.3182850" lon="-2.0201360">
        <ele>179.8</ele>
        <time>2022-11-27T09:38:21Z</time>
      </trkpt>
      <trkpt lat="43.3183570" lon="-2.0200620">
        <ele>178.6</ele>
        <time>2022-11-27T09:38:22Z</time>
      </trkpt>
      <trkpt lat="43.3184270" lon="-2.0199810">
        <ele>177.8</ele>
        <time>2022-11-27T09:38:23Z</time>
      </trkpt>
      <trkpt lat="43.3184940" lon="-2.0198910">
        <ele>176.6</ele>
        <time>2022-11-27T09:38:24Z</time>
      </trkpt>
      <trkpt lat="43.3185510" lon="-2.0197890">
        <ele>176.6</ele>
        <time>2022-11-27T09:38:25Z</time>
      </trkpt>
      <trkpt lat="43.3185980" lon="-2.0196780">
        <ele>175.4</ele>
        <time>2022-11-27T09:38:26Z</time>
      </trkpt>
      <trkpt lat="43.3186320" lon="-2.0195610">
        <ele>174.8</ele>
        <time>2022-11-27T09:38:27Z</time>
      </trkpt>
      <trkpt lat="43.3186550" lon="-2.0194370">
        <ele>174.0</ele>
        <time>2022-11-27T09:38:28Z</time>
      </trkpt>
      <trkpt lat="43.3186680" lon="-2.0193070">
        <ele>173.2</ele>
        <time>2022-11-27T09:38:29Z</time>
      </trkpt>
      <trkpt lat="43.3186710" lon="-2.0191720">
        <ele>172.4</ele>
        <time>2022-11-27T09:38:30Z</time>
      </trkpt>
      <trkpt lat="43.3186660" lon="-2.0190330">
        <ele>171.8</ele>
        <time>2022-11-27T09:38:31Z</time>
      </trkpt>
      <trkpt lat="43.3186650" lon="-2.0188940">
        <ele>171.0</ele>
        <time>2022-11-27T09:38:32Z</time>
      </trkpt>
      <trkpt lat="43.3186650" lon="-2.0187580">
        <ele>170.0</ele>
        <time>2022-11-27T09:38:33Z</time>
      </trkpt>
      <trkpt lat="43.3186700" lon="-2.0186230">
        <ele>169.2</ele>
        <time>2022-11-27T09:38:34Z</time>
      </trkpt>
      <trkpt lat="43.3186890" lon="-2.0184930">
        <ele>168.2</ele>
        <time>2022-11-27T09:38:35Z</time>
      </trkpt>
      <trkpt lat="43.3187210" lon="-2.0183690">
        <ele>167.2</ele>
        <time>2022-11-27T09:38:36Z</time>
      </trkpt>
      <trkpt lat="43.3187630" lon="-2.0182540">
        <ele>166.0</ele>
        <time>2022-11-27T09:38:37Z</time>
      </trkpt>
      <trkpt lat="43.3188170" lon="-2.0181450">
        <ele>165.2</ele>
        <time>2022-11-27T09:38:38Z</time>
      </trkpt>
      <trkpt lat="43.3188790" lon="-2.0180440">
        <ele>164.4</ele>
        <time>2022-11-27T09:38:39Z</time>
      </trkpt>
      <trkpt lat="43.3189460" lon="-2.0179540">
        <ele>163.4</ele>
        <time>2022-11-27T09:38:40Z</time>
      </trkpt>
      <trkpt lat="43.3190120" lon="-2.0178690">
        <ele>162.4</ele>
        <time>2022-11-27T09:38:41Z</time>
      </trkpt>
      <trkpt lat="43.3190730" lon="-2.0177910">
        <ele>161.4</ele>
        <time>2022-11-27T09:38:42Z</time>
      </trkpt>
      <trkpt lat="43.3191280" lon="-2.0177170">
        <ele>160.6</ele>
        <time>2022-11-27T09:38:43Z</time>
      </trkpt>
      <trkpt lat="43.3191720" lon="-2.0176390">
        <ele>159.8</ele>
        <time>2022-11-27T09:38:44Z</time>
      </trkpt>
      <trkpt lat="43.3192020" lon="-2.0175560">
        <ele>158.8</ele>
        <time>2022-11-27T09:38:45Z</time>
      </trkpt>
      <trkpt lat="43.3192210" lon="-2.0174720">
        <ele>158.8</ele>
        <time>2022-11-27T09:38:46Z</time>
      </trkpt>
      <trkpt lat="43.3192210" lon="-2.0173890">
        <ele>158.2</ele>
        <time>2022-11-27T09:38:47Z</time>
      </trkpt>
      <trkpt lat="43.3191890" lon="-2.0173110">
        <ele>157.4</ele>
        <time>2022-11-27T09:38:48Z</time>
      </trkpt>
      <trkpt lat="43.3191290" lon="-2.0172440">
        <ele>156.6</ele>
        <time>2022-11-27T09:38:49Z</time>
      </trkpt>
      <trkpt lat="43.3190620" lon="-2.0171790">
        <ele>156.0</ele>
        <time>2022-11-27T09:38:50Z</time>
      </trkpt>
      <trkpt lat="43.3189920" lon="-2.0171140">
        <ele>155.4</ele>
        <time>2022-11-27T09:38:51Z</time>
      </trkpt>
      <trkpt lat="43.3189160" lon="-2.0170480">
        <ele>154.8</ele>
        <time>2022-11-27T09:38:52Z</time>
      </trkpt>
      <trkpt lat="43.3188400" lon="-2.0169800">
        <ele>154.2</ele>
        <time>2022-11-27T09:38:53Z</time>
      </trkpt>
      <trkpt lat="43.3187630" lon="-2.0169120">
        <ele>153.8</ele>
        <time>2022-11-27T09:38:54Z</time>
      </trkpt>
      <trkpt lat="43.3186850" lon="-2.0168420">
        <ele>153.4</ele>
        <time>2022-11-27T09:38:55Z</time>
      </trkpt>
      <trkpt lat="43.3186060" lon="-2.0167680">
        <ele>152.8</ele>
        <time>2022-11-27T09:38:56Z</time>
      </trkpt>
      <trkpt lat="43.3185260" lon="-2.0166910">
        <ele>152.2</ele>
        <time>2022-11-27T09:38:57Z</time>
      </trkpt>
      <trkpt lat="43.3184480" lon="-2.0166140">
        <ele>151.4</ele>
        <time>2022-11-27T09:38:58Z</time>
      </trkpt>
      <trkpt lat="43.3183710" lon="-2.0165400">
        <ele>150.8</ele>
        <time>2022-11-27T09:38:59Z</time>
      </trkpt>
      <trkpt lat="43.3183000" lon="-2.0164730">
        <ele>150.2</ele>
        <time>2022-11-27T09:39:00Z</time>
      </trkpt>
      <trkpt lat="43.3182320" lon="-2.0164140">
        <ele>149.2</ele>
        <time>2022-11-27T09:39:01Z</time>
      </trkpt>
      <trkpt lat="43.3181660" lon="-2.0163620">
        <ele>148.4</ele>
        <time>2022-11-27T09:39:02Z</time>
      </trkpt>
      <trkpt lat="43.3180960" lon="-2.0163230">
        <ele>147.2</ele>
        <time>2022-11-27T09:39:03Z</time>
      </trkpt>
      <trkpt lat="43.3180230" lon="-2.0163030">
        <ele>146.2</ele>
        <time>2022-11-27T09:39:04Z</time>
      </trkpt>
      <trkpt lat="43.3179470" lon="-2.0163010">
        <ele>146.2</ele>
        <time>2022-11-27T09:39:05Z</time>
      </trkpt>
      <trkpt lat="43.3178720" lon="-2.0163120">
        <ele>145.2</ele>
        <time>2022-11-27T09:39:06Z</time>
      </trkpt>
      <trkpt lat="43.3178020" lon="-2.0163410">
        <ele>144.6</ele>
        <time>2022-11-27T09:39:07Z</time>
      </trkpt>
      <trkpt lat="43.3177340" lon="-2.0163890">
        <ele>143.8</ele>
        <time>2022-11-27T09:39:08Z</time>
      </trkpt>
      <trkpt lat="43.3176730" lon="-2.0164510">
        <ele>143.0</ele>
        <time>2022-11-27T09:39:09Z</time>
      </trkpt>
      <trkpt lat="43.3176190" lon="-2.0165290">
        <ele>142.4</ele>
        <time>2022-11-27T09:39:10Z</time>
      </trkpt>
      <trkpt lat="43.3175750" lon="-2.0166190">
        <ele>141.8</ele>
        <time>2022-11-27T09:39:11Z</time>
      </trkpt>
      <trkpt lat="43.3175360" lon="-2.0167160">
        <ele>141.0</ele>
        <time>2022-11-27T09:39:12Z</time>
      </trkpt>
      <trkpt lat="43.3174980" lon="-2.0168180">
        <ele>140.2</ele>
        <time>2022-11-27T09:39:13Z</time>
      </trkpt>
      <trkpt lat="43.3174600" lon="-2.0169250">
        <ele>138.8</ele>
        <time>2022-11-27T09:39:14Z</time>
      </trkpt>
      <trkpt lat="43.3174260" lon="-2.0170360">
        <ele>137.8</ele>
        <time>2022-11-27T09:39:15Z</time>
      </trkpt>
      <trkpt lat="43.3173890" lon="-2.0171480">
        <ele>136.6</ele>
        <time>2022-11-27T09:39:16Z</time>
      </trkpt>
      <trkpt lat="43.3173480" lon="-2.0172620">
        <ele>136.0</ele>
        <time>2022-11-27T09:39:17Z</time>
      </trkpt>
      <trkpt lat="43.3173070" lon="-2.0173820">
        <ele>135.6</ele>
        <time>2022-11-27T09:39:18Z</time>
      </trkpt>
      <trkpt lat="43.3172660" lon="-2.0175050">
        <ele>135.0</ele>
        <time>2022-11-27T09:39:19Z</time>
      </trkpt>
      <trkpt lat="43.3172240" lon="-2.0176320">
        <ele>134.6</ele>
        <time>2022-11-27T09:39:20Z</time>
      </trkpt>
      <trkpt lat="43.3171850" lon="-2.0177630">
        <ele>133.6</ele>
        <time>2022-11-27T09:39:21Z</time>
      </trkpt>
      <trkpt lat="43.3171450" lon="-2.0178920">
        <ele>133.0</ele>
        <time>2022-11-27T09:39:22Z</time>
      </trkpt>
      <trkpt lat="43.3171030" lon="-2.0180220">
        <ele>132.2</ele>
        <time>2022-11-27T09:39:23Z</time>
      </trkpt>
      <trkpt lat="43.3170640" lon="-2.0181470">
        <ele>131.2</ele>
        <time>2022-11-27T09:39:24Z</time>
      </trkpt>
      <trkpt lat="43.3170300" lon="-2.0182630">
        <ele>131.2</ele>
        <time>2022-11-27T09:39:25Z</time>
      </trkpt>
      <trkpt lat="43.3169970" lon="-2.0183650">
        <ele>130.4</ele>
        <time>2022-11-27T09:39:26Z</time>
      </trkpt>
      <trkpt lat="43.3169530" lon="-2.0184490">
        <ele>130.0</ele>
        <time>2022-11-27T09:39:27Z</time>
      </trkpt>
      <trkpt lat="43.3169040" lon="-2.0185200">
        <ele>129.8</ele>
        <time>2022-11-27T09:39:28Z</time>
      </trkpt>
      <trkpt lat="43.3168430" lon="-2.0185640">
        <ele>129.6</ele>
        <time>2022-11-27T09:39:29Z</time>
      </trkpt>
      <trkpt lat="43.3167810" lon="-2.0185700">
        <ele>129.6</ele>
        <time>2022-11-27T09:39:30Z</time>
      </trkpt>
      <trkpt lat="43.3167260" lon="-2.0185180">
        <ele>128.8</ele>
        <time>2022-11-27T09:39:31Z</time>
      </trkpt>
      <trkpt lat="43.3166750" lon="-2.0184510">
        <ele>128.4</ele>
        <time>2022-11-27T09:39:32Z</time>
      </trkpt>
      <trkpt lat="43.3166610" lon="-2.0183600">
        <ele>127.8</ele>
        <time>2022-11-27T09:39:33Z</time>
      </trkpt>
      <trkpt lat="43.3166700" lon="-2.0182460">
        <ele>127.2</ele>
        <time>2022-11-27T09:39:34Z</time>
      </trkpt>
      <trkpt lat="43.3166950" lon="-2.0181240">
        <ele>126.6</ele>
        <time>2022-11-27T09:39:35Z</time>
      </trkpt>
      <trkpt lat="43.3167160" lon="-2.0179990">
        <ele>126.2</ele>
        <time>2022-11-27T09:39:36Z</time>
      </trkpt>
      <trkpt lat="43.3167380" lon="-2.0178690">
        <ele>125.6</ele>
        <time>2022-11-27T09:39:37Z</time>
      </trkpt>
      <trkpt lat="43.3167580" lon="-2.0177320">
        <ele>125.0</ele>
        <time>2022-11-27T09:39:38Z</time>
      </trkpt>
      <trkpt lat="43.3167790" lon="-2.0175930">
        <ele>124.2</ele>
        <time>2022-11-27T09:39:39Z</time>
      </trkpt>
      <trkpt lat="43.3168000" lon="-2.0174540">
        <ele>123.8</ele>
        <time>2022-11-27T09:39:40Z</time>
      </trkpt>
      <trkpt lat="43.3168200" lon="-2.0173170">
        <ele>123.2</ele>
        <time>2022-11-27T09:39:41Z</time>
      </trkpt>
      <trkpt lat="43.3168400" lon="-2.0171820">
        <ele>122.6</ele>
        <time>2022-11-27T09:39:42Z</time>
      </trkpt>
      <trkpt lat="43.3168600" lon="-2.0170510">
        <ele>121.8</ele>
        <time>2022-11-27T09:39:43Z</time>
      </trkpt>
      <trkpt lat="43.3168810" lon="-2.0169230">
        <ele>121.8</ele>
        <time>2022-11-27T09:39:44Z</time>
      </trkpt>
      <trkpt lat="43.3169000" lon="-2.0167940">
        <ele>121.2</ele>
        <time>2022-11-27T09:39:45Z</time>
      </trkpt>
      <trkpt lat="43.3169180" lon="-2.0166620">
        <ele>120.2</ele>
        <time>2022-11-27T09:39:46Z</time>
      </trkpt>
      <trkpt lat="43.3169330" lon="-2.0165280">
        <ele>119.2</ele>
        <time>2022-11-27T09:39:47Z</time>
      </trkpt>
      <trkpt lat="43.3169400" lon="-2.0163870">
        <ele>118.0</ele>
        <time>2022-11-27T09:39:48Z</time>
      </trkpt>
      <trkpt lat="43.3169380" lon="-2.0162450">
        <ele>116.8</ele>
        <time>2022-11-27T09:39:49Z</time>
      </trkpt>
      <trkpt lat="43.3169290" lon="-2.0161050">
        <ele>115.8</ele>
        <time>2022-11-27T09:39:50Z</time>
      </trkpt>
      <trkpt lat="43.3169170" lon="-2.0159700">
        <ele>114.8</ele>
        <time>2022-11-27T09:39:51Z</time>
      </trkpt>
      <trkpt lat="43.3169030" lon="-2.0158400">
        <ele>113.4</ele>
        <time>2022-11-27T09:39:52Z</time>
      </trkpt>
      <trkpt lat="43.3168900" lon="-2.0157120">
        <ele>112.0</ele>
        <time>2022-11-27T09:39:53Z</time>
      </trkpt>
      <trkpt lat="43.3168760" lon="-2.0155830">
        <ele>111.0</ele>
        <time>2022-11-27T09:39:54Z</time>
      </trkpt>
      <trkpt lat="43.3168620" lon="-2.0154540">
        <ele>110.2</ele>
        <time>2022-11-27T09:39:55Z</time>
      </trkpt>
      <trkpt lat="43.3168440" lon="-2.0153220">
        <ele>109.4</ele>
        <time>2022-11-27T09:39:56Z</time>
      </trkpt>
      <trkpt lat="43.3168200" lon="-2.0151870">
        <ele>108.6</ele>
        <time>2022-11-27T09:39:57Z</time>
      </trkpt>
      <trkpt lat="43.3167880" lon="-2.0150500">
        <ele>107.8</ele>
        <time>2022-11-27T09:39:58Z</time>
      </trkpt>
      <trkpt lat="43.3167500" lon="-2.0149150">
        <ele>106.6</ele>
        <time>2022-11-27T09:39:59Z</time>
      </trkpt>
      <trkpt lat="43.3167090" lon="-2.0147830">
        <ele>105.4</ele>
        <time>2022-11-27T09:40:00Z</time>
      </trkpt>
      <trkpt lat="43.3166620" lon="-2.0146560">
        <ele>104.2</ele>
        <time>2022-11-27T09:40:01Z</time>
      </trkpt>
      <trkpt lat="43.3166080" lon="-2.0145350">
        <ele>103.2</ele>
        <time>2022-11-27T09:40:02Z</time>
      </trkpt>
      <trkpt lat="43.3165470" lon="-2.0144250">
        <ele>102.2</ele>
        <time>2022-11-27T09:40:03Z</time>
      </trkpt>
      <trkpt lat="43.3164750" lon="-2.0143210">
        <ele>102.2</ele>
        <time>2022-11-27T09:40:04Z</time>
      </trkpt>
      <trkpt lat="43.3163980" lon="-2.0142230">
        <ele>101.0</ele>
        <time>2022-11-27T09:40:05Z</time>
      </trkpt>
      <trkpt lat="43.3163220" lon="-2.0141280">
        <ele>100.4</ele>
        <time>2022-11-27T09:40:06Z</time>
      </trkpt>
      <trkpt lat="43.3162470" lon="-2.0140330">
        <ele>100.0</ele>
        <time>2022-11-27T09:40:07Z</time>
      </trkpt>
      <trkpt lat="43.3161750" lon="-2.0139410">
        <ele>99.6</ele>
        <time>2022-11-27T09:40:08Z</time>
      </trkpt>
      <trkpt lat="43.3161030" lon="-2.0138500">
        <ele>99.0</ele>
        <time>2022-11-27T09:40:09Z</time>
      </trkpt>
      <trkpt lat="43.3160310" lon="-2.0137580">
        <ele>98.0</ele>
        <time>2022-11-27T09:40:10Z</time>
      </trkpt>
      <trkpt lat="43.3159580" lon="-2.0136670">
        <ele>97.0</ele>
        <time>2022-11-27T09:40:11Z</time>
      </trkpt>
      <trkpt lat="43.3158890" lon="-2.0135780">
        <ele>96.0</ele>
        <time>2022-11-27T09:40:12Z</time>
      </trkpt>
      <trkpt lat="43.3158230" lon="-2.0134870">
        <ele>95.0</ele>
        <time>2022-11-27T09:40:13Z</time>
      </trkpt>
      <trkpt lat="43.3157550" lon="-2.0133940">
        <ele>94.4</ele>
        <time>2022-11-27T09:40:14Z</time>
      </trkpt>
      <trkpt lat="43.3156810" lon="-2.0132990">
        <ele>93.4</ele>
        <time>2022-11-27T09:40:15Z</time>
      </trkpt>
      <trkpt lat="43.3156050" lon="-2.0132070">
        <ele>92.2</ele>
        <time>2022-11-27T09:40:16Z</time>
      </trkpt>
      <trkpt lat="43.3155280" lon="-2.0131170">
        <ele>91.2</ele>
        <time>2022-11-27T09:40:17Z</time>
      </trkpt>
      <trkpt lat="43.3154490" lon="-2.0130270">
        <ele>90.2</ele>
        <time>2022-11-27T09:40:18Z</time>
      </trkpt>
      <trkpt lat="43.3153610" lon="-2.0129470">
        <ele>89.2</ele>
        <time>2022-11-27T09:40:19Z</time>
      </trkpt>
      <trkpt lat="43.3152660" lon="-2.0128790">
        <ele>87.8</ele>
        <time>2022-11-27T09:40:20Z</time>
      </trkpt>
      <trkpt lat="43.3151660" lon="-2.0128110">
        <ele>85.8</ele>
        <time>2022-11-27T09:40:21Z</time>
      </trkpt>
      <trkpt lat="43.3150640" lon="-2.0127450">
        <ele>84.2</ele>
        <time>2022-11-27T09:40:22Z</time>
      </trkpt>
      <trkpt lat="43.3149670" lon="-2.0126790">
        <ele>83.2</ele>
        <time>2022-11-27T09:40:23Z</time>
      </trkpt>
      <trkpt lat="43.3148730" lon="-2.0126160">
        <ele>82.6</ele>
        <time>2022-11-27T09:40:24Z</time>
      </trkpt>
      <trkpt lat="43.3147800" lon="-2.0125570">
        <ele>82.6</ele>
        <time>2022-11-27T09:40:25Z</time>
      </trkpt>
      <trkpt lat="43.3146860" lon="-2.0125000">
        <ele>82.4</ele>
        <time>2022-11-27T09:40:26Z</time>
      </trkpt>
      <trkpt lat="43.3145900" lon="-2.0124440">
        <ele>82.0</ele>
        <time>2022-11-27T09:40:27Z</time>
      </trkpt>
      <trkpt lat="43.3143980" lon="-2.0123220">
        <ele>80.6</ele>
        <time>2022-11-27T09:40:29Z</time>
      </trkpt>
      <trkpt lat="43.3142180" lon="-2.0122010">
        <ele>78.2</ele>
        <time>2022-11-27T09:40:31Z</time>
      </trkpt>
      <trkpt lat="43.3141270" lon="-2.0121470">
        <ele>76.8</ele>
        <time>2022-11-27T09:40:32Z</time>
      </trkpt>
      <trkpt lat="43.3140350" lon="-2.0120920">
        <ele>75.2</ele>
        <time>2022-11-27T09:40:33Z</time>
      </trkpt>
      <trkpt lat="43.3139430" lon="-2.0120330">
        <ele>73.8</ele>
        <time>2022-11-27T09:40:34Z</time>
      </trkpt>
      <trkpt lat="43.3138550" lon="-2.0119720">
        <ele>72.4</ele>
        <time>2022-11-27T09:40:35Z</time>
      </trkpt>
      <trkpt lat="43.3137730" lon="-2.0119070">
        <ele>71.2</ele>
        <time>2022-11-27T09:40:36Z</time>
      </trkpt>
      <trkpt lat="43.3136980" lon="-2.0118360">
        <ele>70.2</ele>
        <time>2022-11-27T09:40:37Z</time>
      </trkpt>
      <trkpt lat="43.3136270" lon="-2.0117630">
        <ele>69.2</ele>
        <time>2022-11-27T09:40:38Z</time>
      </trkpt>
      <trkpt lat="43.3135580" lon="-2.0116880">
        <ele>68.0</ele>
        <time>2022-11-27T09:40:39Z</time>
      </trkpt>
      <trkpt lat="43.3134920" lon="-2.0116090">
        <ele>67.0</ele>
        <time>2022-11-27T09:40:40Z</time>
      </trkpt>
      <trkpt lat="43.3134290" lon="-2.0115240">
        <ele>66.0</ele>
        <time>2022-11-27T09:40:41Z</time>
      </trkpt>
      <trkpt lat="43.3133700" lon="-2.0114320">
        <ele>65.0</ele>
        <time>2022-11-27T09:40:42Z</time>
      </trkpt>
      <trkpt lat="43.3133180" lon="-2.0113410">
        <ele>64.4</ele>
        <time>2022-11-27T09:40:43Z</time>
      </trkpt>
      <trkpt lat="43.3132750" lon="-2.0112500">
        <ele>63.8</ele>
        <time>2022-11-27T09:40:44Z</time>
      </trkpt>
      <trkpt lat="43.3132420" lon="-2.0111580">
        <ele>63.8</ele>
        <time>2022-11-27T09:40:45Z</time>
      </trkpt>
      <trkpt lat="43.3132220" lon="-2.0110650">
        <ele>62.6</ele>
        <time>2022-11-27T09:40:46Z</time>
      </trkpt>
      <trkpt lat="43.3132180" lon="-2.0109680">
        <ele>61.4</ele>
        <time>2022-11-27T09:40:47Z</time>
      </trkpt>
      <trkpt lat="43.3132350" lon="-2.0108680">
        <ele>60.4</ele>
        <time>2022-11-27T09:40:48Z</time>
      </trkpt>
      <trkpt lat="43.3132730" lon="-2.0107720">
        <ele>59.4</ele>
        <time>2022-11-27T09:40:49Z</time>
      </trkpt>
      <trkpt lat="43.3133240" lon="-2.0106780">
        <ele>58.6</ele>
        <time>2022-11-27T09:40:50Z</time>
      </trkpt>
      <trkpt lat="43.3133860" lon="-2.0105880">
        <ele>58.0</ele>
        <time>2022-11-27T09:40:51Z</time>
      </trkpt>
      <trkpt lat="43.3134570" lon="-2.0105000">
        <ele>57.6</ele>
        <time>2022-11-27T09:40:52Z</time>
      </trkpt>
      <trkpt lat="43.3135290" lon="-2.0104050">
        <ele>57.2</ele>
        <time>2022-11-27T09:40:53Z</time>
      </trkpt>
      <trkpt lat="43.3136000" lon="-2.0103010">
        <ele>57.0</ele>
        <time>2022-11-27T09:40:54Z</time>
      </trkpt>
      <trkpt lat="43.3136730" lon="-2.0101940">
        <ele>56.4</ele>
        <time>2022-11-27T09:40:55Z</time>
      </trkpt>
      <trkpt lat="43.3137460" lon="-2.0100950">
        <ele>56.2</ele>
        <time>2022-11-27T09:40:56Z</time>
      </trkpt>
      <trkpt lat="43.3138180" lon="-2.0100040">
        <ele>56.0</ele>
        <time>2022-11-27T09:40:57Z</time>
      </trkpt>
      <trkpt lat="43.3138890" lon="-2.0099160">
        <ele>55.2</ele>
        <time>2022-11-27T09:40:58Z</time>
      </trkpt>
      <trkpt lat="43.3139580" lon="-2.0098300">
        <ele>54.4</ele>
        <time>2022-11-27T09:40:59Z</time>
      </trkpt>
      <trkpt lat="43.3140220" lon="-2.0097400">
        <ele>53.6</ele>
        <time>2022-11-27T09:41:00Z</time>
      </trkpt>
      <trkpt lat="43.3140750" lon="-2.0096420">
        <ele>52.8</ele>
        <time>2022-11-27T09:41:01Z</time>
      </trkpt>
      <trkpt lat="43.3141140" lon="-2.0095330">
        <ele>52.0</ele>
        <time>2022-11-27T09:41:02Z</time>
      </trkpt>
      <trkpt lat="43.3141340" lon="-2.0094120">
        <ele>51.0</ele>
        <time>2022-11-27T09:41:03Z</time>
      </trkpt>
      <trkpt lat="43.3141460" lon="-2.0092860">
        <ele>50.2</ele>
        <time>2022-11-27T09:41:04Z</time>
      </trkpt>
      <trkpt lat="43.3141540" lon="-2.0091540">
        <ele>49.4</ele>
        <time>2022-11-27T09:41:05Z</time>
      </trkpt>
      <trkpt lat="43.3141610" lon="-2.0090210">
        <ele>49.4</ele>
        <time>2022-11-27T09:41:06Z</time>
      </trkpt>
      <trkpt lat="43.3141700" lon="-2.0088900">
        <ele>48.2</ele>
        <time>2022-11-27T09:41:07Z</time>
      </trkpt>
      <trkpt lat="43.3141770" lon="-2.0087620">
        <ele>47.2</ele>
        <time>2022-11-27T09:41:08Z</time>
      </trkpt>
      <trkpt lat="43.3141850" lon="-2.0086370">
        <ele>46.2</ele>
        <time>2022-11-27T09:41:09Z</time>
      </trkpt>
      <trkpt lat="43.3141940" lon="-2.0085150">
        <ele>45.2</ele>
        <time>2022-11-27T09:41:10Z</time>
      </trkpt>
      <trkpt lat="43.3142030" lon="-2.0083980">
        <ele>44.2</ele>
        <time>2022-11-27T09:41:11Z</time>
      </trkpt>
      <trkpt lat="43.3142110" lon="-2.0082870">
        <ele>43.2</ele>
        <time>2022-11-27T09:41:12Z</time>
      </trkpt>
      <trkpt lat="43.3142260" lon="-2.0081830">
        <ele>42.4</ele>
        <time>2022-11-27T09:41:13Z</time>
      </trkpt>
      <trkpt lat="43.3142550" lon="-2.0080840">
        <ele>41.8</ele>
        <time>2022-11-27T09:41:14Z</time>
      </trkpt>
      <trkpt lat="43.3143030" lon="-2.0079920">
        <ele>41.0</ele>
        <time>2022-11-27T09:41:15Z</time>
      </trkpt>
      <trkpt lat="43.3143650" lon="-2.0079060">
        <ele>40.2</ele>
        <time>2022-11-27T09:41:16Z</time>
      </trkpt>
      <trkpt lat="43.3144420" lon="-2.0078310">
        <ele>39.6</ele>
        <time>2022-11-27T09:41:17Z</time>
      </trkpt>
      <trkpt lat="43.3145240" lon="-2.0077590">
        <ele>38.8</ele>
        <time>2022-11-27T09:41:18Z</time>
      </trkpt>
      <trkpt lat="43.3146090" lon="-2.0076870">
        <ele>38.2</ele>
        <time>2022-11-27T09:41:19Z</time>
      </trkpt>
      <trkpt lat="43.3146930" lon="-2.0076150">
        <ele>37.4</ele>
        <time>2022-11-27T09:41:20Z</time>
      </trkpt>
      <trkpt lat="43.3147760" lon="-2.0075380">
        <ele>36.6</ele>
        <time>2022-11-27T09:41:21Z</time>
      </trkpt>
      <trkpt lat="43.3148510" lon="-2.0074540">
        <ele>35.8</ele>
        <time>2022-11-27T09:41:22Z</time>
      </trkpt>
      <trkpt lat="43.3149160" lon="-2.0073660">
        <ele>35.0</ele>
        <time>2022-11-27T09:41:23Z</time>
      </trkpt>
      <trkpt lat="43.3149730" lon="-2.0072820">
        <ele>34.6</ele>
        <time>2022-11-27T09:41:24Z</time>
      </trkpt>
      <trkpt lat="43.3150250" lon="-2.0072040">
        <ele>34.2</ele>
        <time>2022-11-27T09:41:25Z</time>
      </trkpt>
      <trkpt lat="43.3150690" lon="-2.0071250">
        <ele>34.2</ele>
        <time>2022-11-27T09:41:26Z</time>
      </trkpt>
      <trkpt lat="43.3151000" lon="-2.0070390">
        <ele>33.4</ele>
        <time>2022-11-27T09:41:27Z</time>
      </trkpt>
      <trkpt lat="43.3151150" lon="-2.0069480">
        <ele>32.6</ele>
        <time>2022-11-27T09:41:28Z</time>
      </trkpt>
      <trkpt lat="43.3151090" lon="-2.0068510">
        <ele>31.6</ele>
        <time>2022-11-27T09:41:29Z</time>
      </trkpt>
      <trkpt lat="43.3150860" lon="-2.0067540">
        <ele>30.6</ele>
        <time>2022-11-27T09:41:30Z</time>
      </trkpt>
      <trkpt lat="43.3150580" lon="-2.0066530">
        <ele>29.6</ele>
        <time>2022-11-27T09:41:31Z</time>
      </trkpt>
      <trkpt lat="43.3150290" lon="-2.0065490">
        <ele>28.6</ele>
        <time>2022-11-27T09:41:32Z</time>
      </trkpt>
      <trkpt lat="43.3149970" lon="-2.0064390">
        <ele>27.4</ele>
        <time>2022-11-27T09:41:33Z</time>
      </trkpt>
      <trkpt lat="43.3149650" lon="-2.0063250">
        <ele>26.6</ele>
        <time>2022-11-27T09:41:34Z</time>
      </trkpt>
      <trkpt lat="43.3149290" lon="-2.0062080">
        <ele>25.8</ele>
        <time>2022-11-27T09:41:35Z</time>
      </trkpt>
      <trkpt lat="43.3148920" lon="-2.0060890">
        <ele>25.2</ele>
        <time>2022-11-27T09:41:36Z</time>
      </trkpt>
      <trkpt lat="43.3148580" lon="-2.0059680">
        <ele>24.6</ele>
        <time>2022-11-27T09:41:37Z</time>
      </trkpt>
      <trkpt lat="43.3148200" lon="-2.0058540">
        <ele>24.0</ele>
        <time>2022-11-27T09:41:38Z</time>
      </trkpt>
      <trkpt lat="43.3147830" lon="-2.0057370">
        <ele>23.4</ele>
        <time>2022-11-27T09:41:39Z</time>
      </trkpt>
      <trkpt lat="43.3147470" lon="-2.0056200">
        <ele>22.8</ele>
        <time>2022-11-27T09:41:40Z</time>
      </trkpt>
      <trkpt lat="43.3147120" lon="-2.0055070">
        <ele>22.2</ele>
        <time>2022-11-27T09:41:41Z</time>
      </trkpt>
      <trkpt lat="43.3146790" lon="-2.0053960">
        <ele>21.8</ele>
        <time>2022-11-27T09:41:42Z</time>
      </trkpt>
      <trkpt lat="43.3146480" lon="-2.0052870">
        <ele>21.0</ele>
        <time>2022-11-27T09:41:43Z</time>
      </trkpt>
      <trkpt lat="43.3146150" lon="-2.0051820">
        <ele>20.2</ele>
        <time>2022-11-27T09:41:44Z</time>
      </trkpt>
      <trkpt lat="43.3145820" lon="-2.0050810">
        <ele>19.2</ele>
        <time>2022-11-27T09:41:45Z</time>
      </trkpt>
      <trkpt lat="43.3145520" lon="-2.0049860">
        <ele>18.2</ele>
        <time>2022-11-27T09:41:46Z</time>
      </trkpt>
      <trkpt lat="43.3145280" lon="-2.0049070">
        <ele>18.2</ele>
        <time>2022-11-27T09:41:47Z</time>
      </trkpt>
      <trkpt lat="43.3145090" lon="-2.0048450">
        <ele>17.6</ele>
        <time>2022-11-27T09:41:48Z</time>
      </trkpt>
      <trkpt lat="43.3144940" lon="-2.0048010">
        <ele>17.2</ele>
        <time>2022-11-27T09:41:49Z</time>
      </trkpt>
      <trkpt lat="43.3144840" lon="-2.0047720">
        <ele>16.8</ele>
        <time>2022-11-27T09:41:50Z</time>
      </trkpt>
      <trkpt lat="43.3144810" lon="-2.0047600">
        <ele>16.8</ele>
        <time>2022-11-27T09:41:51Z</time>
      </trkpt>
      <trkpt lat="43.3144810" lon="-2.0047590">
        <ele>16.6</ele>
        <time>2022-11-27T09:41:52Z</time>
      </trkpt>
      <trkpt lat="43.3144580" lon="-2.0046900">
        <ele>16.8</ele>
        <time>2022-11-27T09:42:03Z</time>
      </trkpt>
      <trkpt lat="43.3144470" lon="-2.0046540">
        <ele>16.8</ele>
        <time>2022-11-27T09:42:04Z</time>
      </trkpt>
      <trkpt lat="43.3144360" lon="-2.0046130">
        <ele>16.8</ele>
        <time>2022-11-27T09:42:05Z</time>
      </trkpt>
      <trkpt lat="43.3144250" lon="-2.0045660">
        <ele>16.8</ele>
        <time>2022-11-27T09:42:06Z</time>
      </trkpt>
      <trkpt lat="43.3144050" lon="-2.0045270">
        <ele>16.8</ele>
        <time>2022-11-27T09:42:07Z</time>
      </trkpt>
      <trkpt lat="43.3143740" lon="-2.0045050">
        <ele>16.8</ele>
        <time>2022-11-27T09:42:08Z</time>
      </trkpt>
      <trkpt lat="43.3143360" lon="-2.0044950">
        <ele>16.8</ele>
        <time>2022-11-27T09:42:09Z</time>
      </trkpt>
      <trkpt lat="43.3142960" lon="-2.0044940">
        <ele>16.8</ele>
        <time>2022-11-27T09:42:10Z</time>
      </trkpt>
      <trkpt lat="43.3142570" lon="-2.0045040">
        <ele>16.8</ele>
        <time>2022-11-27T09:42:11Z</time>
      </trkpt>
      <trkpt lat="43.3142240" lon="-2.0045330">
        <ele>16.8</ele>
        <time>2022-11-27T09:42:12Z</time>
      </trkpt>
      <trkpt lat="43.3141980" lon="-2.0045790">
        <ele>16.8</ele>
        <time>2022-11-27T09:42:13Z</time>
      </trkpt>
      <trkpt lat="43.3141720" lon="-2.0046310">
        <ele>16.8</ele>
        <time>2022-11-27T09:42:14Z</time>
      </trkpt>
      <trkpt lat="43.3141430" lon="-2.0046870">
        <ele>16.6</ele>
        <time>2022-11-27T09:42:15Z</time>
      </trkpt>
      <trkpt lat="43.3141110" lon="-2.0047450">
        <ele>16.4</ele>
        <time>2022-11-27T09:42:16Z</time>
      </trkpt>
      <trkpt lat="43.3140750" lon="-2.0048050">
        <ele>16.4</ele>
        <time>2022-11-27T09:42:17Z</time>
      </trkpt>
      <trkpt lat="43.3140390" lon="-2.0048670">
        <ele>16.4</ele>
        <time>2022-11-27T09:42:18Z</time>
      </trkpt>
      <trkpt lat="43.3140030" lon="-2.0049320">
        <ele>16.4</ele>
        <time>2022-11-27T09:42:19Z</time>
      </trkpt>
      <trkpt lat="43.3139670" lon="-2.0049990">
        <ele>16.2</ele>
        <time>2022-11-27T09:42:20Z</time>
      </trkpt>
      <trkpt lat="43.3139310" lon="-2.0050670">
        <ele>16.2</ele>
        <time>2022-11-27T09:42:21Z</time>
      </trkpt>
      <trkpt lat="43.3138970" lon="-2.0051350">
        <ele>16.2</ele>
        <time>2022-11-27T09:42:22Z</time>
      </trkpt>
      <trkpt lat="43.3138610" lon="-2.0052040">
        <ele>16.2</ele>
        <time>2022-11-27T09:42:23Z</time>
      </trkpt>
      <trkpt lat="43.3138240" lon="-2.0052730">
        <ele>16.2</ele>
        <time>2022-11-27T09:42:24Z</time>
      </trkpt>
      <trkpt lat="43.3137900" lon="-2.0053420">
        <ele>16.2</ele>
        <time>2022-11-27T09:42:25Z</time>
      </trkpt>
      <trkpt lat="43.3137560" lon="-2.0054090">
        <ele>16.2</ele>
        <time>2022-11-27T09:42:26Z</time>
      </trkpt>
      <trkpt lat="43.3137220" lon="-2.0054720">
        <ele>16.2</ele>
        <time>2022-11-27T09:42:27Z</time>
      </trkpt>
      <trkpt lat="43.3136920" lon="-2.0055350">
        <ele>16.2</ele>
        <time>2022-11-27T09:42:28Z</time>
      </trkpt>
      <trkpt lat="43.3136560" lon="-2.0055860">
        <ele>16.2</ele>
        <time>2022-11-27T09:42:29Z</time>
      </trkpt>
      <trkpt lat="43.3136200" lon="-2.0056270">
        <ele>16.2</ele>
        <time>2022-11-27T09:42:30Z</time>
      </trkpt>
      <trkpt lat="43.3135980" lon="-2.0056690">
        <ele>16.2</ele>
        <time>2022-11-27T09:42:31Z</time>
      </trkpt>
      <trkpt lat="43.3135760" lon="-2.0057010">
        <ele>16.2</ele>
        <time>2022-11-27T09:42:32Z</time>
      </trkpt>
      <trkpt lat="43.3135630" lon="-2.0057400">
        <ele>16.2</ele>
        <time>2022-11-27T09:42:33Z</time>
      </trkpt>
      <trkpt lat="43.3135580" lon="-2.0057920">
        <ele>16.2</ele>
        <time>2022-11-27T09:42:34Z</time>
      </trkpt>
      <trkpt lat="43.3135470" lon="-2.0058540">
        <ele>16.2</ele>
        <time>2022-11-27T09:42:35Z</time>
      </trkpt>
      <trkpt lat="43.3135300" lon="-2.0059190">
        <ele>16.2</ele>
        <time>2022-11-27T09:42:36Z</time>
      </trkpt>
      <trkpt lat="43.3135070" lon="-2.0059870">
        <ele>16.0</ele>
        <time>2022-11-27T09:42:37Z</time>
      </trkpt>
      <trkpt lat="43.3134820" lon="-2.0060510">
        <ele>16.0</ele>
        <time>2022-11-27T09:42:38Z</time>
      </trkpt>
      <trkpt lat="43.3134530" lon="-2.0061140">
        <ele>16.0</ele>
        <time>2022-11-27T09:42:39Z</time>
      </trkpt>
      <trkpt lat="43.3134220" lon="-2.0061770">
        <ele>16.0</ele>
        <time>2022-11-27T09:42:40Z</time>
      </trkpt>
      <trkpt lat="43.3133920" lon="-2.0062410">
        <ele>16.0</ele>
        <time>2022-11-27T09:42:41Z</time>
      </trkpt>
      <trkpt lat="43.3133620" lon="-2.0063060">
        <ele>16.0</ele>
        <time>2022-11-27T09:42:42Z</time>
      </trkpt>
      <trkpt lat="43.3133310" lon="-2.0063710">
        <ele>16.0</ele>
        <time>2022-11-27T09:42:43Z</time>
      </trkpt>
      <trkpt lat="43.3132990" lon="-2.0064350">
        <ele>15.8</ele>
        <time>2022-11-27T09:42:44Z</time>
      </trkpt>
      <trkpt lat="43.3132690" lon="-2.0064970">
        <ele>15.8</ele>
        <time>2022-11-27T09:42:45Z</time>
      </trkpt>
      <trkpt lat="43.3132370" lon="-2.0065470">
        <ele>15.8</ele>
        <time>2022-11-27T09:42:46Z</time>
      </trkpt>
      <trkpt lat="43.3131970" lon="-2.0065770">
        <ele>15.8</ele>
        <time>2022-11-27T09:42:47Z</time>
      </trkpt>
      <trkpt lat="43.3131540" lon="-2.0065800">
        <ele>15.8</ele>
        <time>2022-11-27T09:42:48Z</time>
      </trkpt>
      <trkpt lat="43.3131110" lon="-2.0065650">
        <ele>15.8</ele>
        <time>2022-11-27T09:42:49Z</time>
      </trkpt>
      <trkpt lat="43.3130730" lon="-2.0065400">
        <ele>15.8</ele>
        <time>2022-11-27T09:42:50Z</time>
      </trkpt>
      <trkpt lat="43.3130390" lon="-2.0065090">
        <ele>15.8</ele>
        <time>2022-11-27T09:42:51Z</time>
      </trkpt>
      <trkpt lat="43.3130050" lon="-2.0064790">
        <ele>15.8</ele>
        <time>2022-11-27T09:42:52Z</time>
      </trkpt>
      <trkpt lat="43.3129720" lon="-2.0064480">
        <ele>15.8</ele>
        <time>2022-11-27T09:42:53Z</time>
      </trkpt>
      <trkpt lat="43.3129430" lon="-2.0064190">
        <ele>15.8</ele>
        <time>2022-11-27T09:42:54Z</time>
      </trkpt>
      <trkpt lat="43.3129190" lon="-2.0063950">
        <ele>15.8</ele>
        <time>2022-11-27T09:42:55Z</time>
      </trkpt>
      <trkpt lat="43.3128980" lon="-2.0063760">
        <ele>15.6</ele>
        <time>2022-11-27T09:42:56Z</time>
      </trkpt>
      <trkpt lat="43.3128760" lon="-2.0063650">
        <ele>15.6</ele>
        <time>2022-11-27T09:42:57Z</time>
      </trkpt>
      <trkpt lat="43.3128560" lon="-2.0063750">
        <ele>15.6</ele>
        <time>2022-11-27T09:42:58Z</time>
      </trkpt>
      <trkpt lat="43.3128350" lon="-2.0064050">
        <ele>15.6</ele>
        <time>2022-11-27T09:42:59Z</time>
      </trkpt>
      <trkpt lat="43.3128110" lon="-2.0064520">
        <ele>15.6</ele>
        <time>2022-11-27T09:43:00Z</time>
      </trkpt>
      <trkpt lat="43.3127860" lon="-2.0065070">
        <ele>15.6</ele>
        <time>2022-11-27T09:43:01Z</time>
      </trkpt>
      <trkpt lat="43.3127580" lon="-2.0065660">
        <ele>15.6</ele>
        <time>2022-11-27T09:43:02Z</time>
      </trkpt>
      <trkpt lat="43.3127250" lon="-2.0066290">
        <ele>15.6</ele>
        <time>2022-11-27T09:43:03Z</time>
      </trkpt>
      <trkpt lat="43.3126920" lon="-2.0066950">
        <ele>15.4</ele>
        <time>2022-11-27T09:43:04Z</time>
      </trkpt>
      <trkpt lat="43.3126570" lon="-2.0067600">
        <ele>15.4</ele>
        <time>2022-11-27T09:43:05Z</time>
      </trkpt>
      <trkpt lat="43.3126220" lon="-2.0068260">
        <ele>15.4</ele>
        <time>2022-11-27T09:43:06Z</time>
      </trkpt>
      <trkpt lat="43.3125870" lon="-2.0068930">
        <ele>15.4</ele>
        <time>2022-11-27T09:43:07Z</time>
      </trkpt>
      <trkpt lat="43.3125560" lon="-2.0069610">
        <ele>15.4</ele>
        <time>2022-11-27T09:43:08Z</time>
      </trkpt>
      <trkpt lat="43.3125230" lon="-2.0070290">
        <ele>15.2</ele>
        <time>2022-11-27T09:43:09Z</time>
      </trkpt>
      <trkpt lat="43.3124910" lon="-2.0070960">
        <ele>15.2</ele>
        <time>2022-11-27T09:43:10Z</time>
      </trkpt>
      <trkpt lat="43.3124580" lon="-2.0071600">
        <ele>14.8</ele>
        <time>2022-11-27T09:43:11Z</time>
      </trkpt>
      <trkpt lat="43.3124250" lon="-2.0072280">
        <ele>14.8</ele>
        <time>2022-11-27T09:43:12Z</time>
      </trkpt>
      <trkpt lat="43.3123910" lon="-2.0072950">
        <ele>14.6</ele>
        <time>2022-11-27T09:43:13Z</time>
      </trkpt>
      <trkpt lat="43.3123570" lon="-2.0073630">
        <ele>14.4</ele>
        <time>2022-11-27T09:43:14Z</time>
      </trkpt>
      <trkpt lat="43.3123210" lon="-2.0074340">
        <ele>14.4</ele>
        <time>2022-11-27T09:43:15Z</time>
      </trkpt>
      <trkpt lat="43.3122870" lon="-2.0075020">
        <ele>14.2</ele>
        <time>2022-11-27T09:43:16Z</time>
      </trkpt>
      <trkpt lat="43.3122510" lon="-2.0075680">
        <ele>14.2</ele>
        <time>2022-11-27T09:43:17Z</time>
      </trkpt>
      <trkpt lat="43.3122160" lon="-2.0076330">
        <ele>14.2</ele>
        <time>2022-11-27T09:43:18Z</time>
      </trkpt>
      <trkpt lat="43.3121820" lon="-2.0077000">
        <ele>14.0</ele>
        <time>2022-11-27T09:43:19Z</time>
      </trkpt>
      <trkpt lat="43.3121500" lon="-2.0077660">
        <ele>14.0</ele>
        <time>2022-11-27T09:43:20Z</time>
      </trkpt>
      <trkpt lat="43.3121160" lon="-2.0078320">
        <ele>14.0</ele>
        <time>2022-11-27T09:43:21Z</time>
      </trkpt>
      <trkpt lat="43.3120830" lon="-2.0078970">
        <ele>13.8</ele>
        <time>2022-11-27T09:43:22Z</time>
      </trkpt>
      <trkpt lat="43.3120500" lon="-2.0079620">
        <ele>13.8</ele>
        <time>2022-11-27T09:43:23Z</time>
      </trkpt>
      <trkpt lat="43.3120180" lon="-2.0080270">
        <ele>13.8</ele>
        <time>2022-11-27T09:43:24Z</time>
      </trkpt>
      <trkpt lat="43.3119870" lon="-2.0080950">
        <ele>13.8</ele>
        <time>2022-11-27T09:43:25Z</time>
      </trkpt>
      <trkpt lat="43.3119570" lon="-2.0081620">
        <ele>13.8</ele>
        <time>2022-11-27T09:43:26Z</time>
      </trkpt>
      <trkpt lat="43.3119230" lon="-2.0082280">
        <ele>13.8</ele>
        <time>2022-11-27T09:43:27Z</time>
      </trkpt>
      <trkpt lat="43.3118900" lon="-2.0082960">
        <ele>13.8</ele>
        <time>2022-11-27T09:43:28Z</time>
      </trkpt>
      <trkpt lat="43.3118570" lon="-2.0083610">
        <ele>13.8</ele>
        <time>2022-11-27T09:43:29Z</time>
      </trkpt>
      <trkpt lat="43.3118250" lon="-2.0084290">
        <ele>13.8</ele>
        <time>2022-11-27T09:43:30Z</time>
      </trkpt>
      <trkpt lat="43.3117910" lon="-2.0084950">
        <ele>13.8</ele>
        <time>2022-11-27T09:43:31Z</time>
      </trkpt>
      <trkpt lat="43.3117560" lon="-2.0085570">
        <ele>13.8</ele>
        <time>2022-11-27T09:43:32Z</time>
      </trkpt>
      <trkpt lat="43.3117250" lon="-2.0086180">
        <ele>13.8</ele>
        <time>2022-11-27T09:43:33Z</time>
      </trkpt>
      <trkpt lat="43.3116950" lon="-2.0086800">
        <ele>13.8</ele>
        <time>2022-11-27T09:43:34Z</time>
      </trkpt>
      <trkpt lat="43.3116610" lon="-2.0087450">
        <ele>13.8</ele>
        <time>2022-11-27T09:43:35Z</time>
      </trkpt>
      <trkpt lat="43.3116250" lon="-2.0088120">
        <ele>14.0</ele>
        <time>2022-11-27T09:43:36Z</time>
      </trkpt>
      <trkpt lat="43.3115920" lon="-2.0088810">
        <ele>14.0</ele>
        <time>2022-11-27T09:43:37Z</time>
      </trkpt>
      <trkpt lat="43.3115600" lon="-2.0089500">
        <ele>14.0</ele>
        <time>2022-11-27T09:43:38Z</time>
      </trkpt>
      <trkpt lat="43.3115260" lon="-2.0090150">
        <ele>14.0</ele>
        <time>2022-11-27T09:43:39Z</time>
      </trkpt>
      <trkpt lat="43.3114920" lon="-2.0090790">
        <ele>14.0</ele>
        <time>2022-11-27T09:43:40Z</time>
      </trkpt>
      <trkpt lat="43.3114580" lon="-2.0091450">
        <ele>14.2</ele>
        <time>2022-11-27T09:43:41Z</time>
      </trkpt>
      <trkpt lat="43.3114250" lon="-2.0092120">
        <ele>14.2</ele>
        <time>2022-11-27T09:43:42Z</time>
      </trkpt>
      <trkpt lat="43.3113880" lon="-2.0092800">
        <ele>14.2</ele>
        <time>2022-11-27T09:43:43Z</time>
      </trkpt>
      <trkpt lat="43.3113500" lon="-2.0093450">
        <ele>14.2</ele>
        <time>2022-11-27T09:43:44Z</time>
      </trkpt>
      <trkpt lat="43.3113140" lon="-2.0094120">
        <ele>14.2</ele>
        <time>2022-11-27T09:43:45Z</time>
      </trkpt>
      <trkpt lat="43.3112800" lon="-2.0094800">
        <ele>14.2</ele>
        <time>2022-11-27T09:43:46Z</time>
      </trkpt>
      <trkpt lat="43.3112470" lon="-2.0095490">
        <ele>14.2</ele>
        <time>2022-11-27T09:43:47Z</time>
      </trkpt>
      <trkpt lat="43.3112150" lon="-2.0096150">
        <ele>14.2</ele>
        <time>2022-11-27T09:43:48Z</time>
      </trkpt>
      <trkpt lat="43.3111830" lon="-2.0096820">
        <ele>14.2</ele>
        <time>2022-11-27T09:43:49Z</time>
      </trkpt>
      <trkpt lat="43.3111520" lon="-2.0097490">
        <ele>14.2</ele>
        <time>2022-11-27T09:43:50Z</time>
      </trkpt>
      <trkpt lat="43.3111210" lon="-2.0098160">
        <ele>14.2</ele>
        <time>2022-11-27T09:43:51Z</time>
      </trkpt>
      <trkpt lat="43.3110890" lon="-2.0098850">
        <ele>14.2</ele>
        <time>2022-11-27T09:43:52Z</time>
      </trkpt>
      <trkpt lat="43.3110560" lon="-2.0099540">
        <ele>14.2</ele>
        <time>2022-11-27T09:43:53Z</time>
      </trkpt>
      <trkpt lat="43.3110210" lon="-2.0100210">
        <ele>14.2</ele>
        <time>2022-11-27T09:43:54Z</time>
      </trkpt>
      <trkpt lat="43.3109820" lon="-2.0100820">
        <ele>14.2</ele>
        <time>2022-11-27T09:43:55Z</time>
      </trkpt>
      <trkpt lat="43.3109370" lon="-2.0101320">
        <ele>14.2</ele>
        <time>2022-11-27T09:43:56Z</time>
      </trkpt>
      <trkpt lat="43.3108850" lon="-2.0101650">
        <ele>14.2</ele>
        <time>2022-11-27T09:43:57Z</time>
      </trkpt>
      <trkpt lat="43.3108300" lon="-2.0101790">
        <ele>14.2</ele>
        <time>2022-11-27T09:43:58Z</time>
      </trkpt>
      <trkpt lat="43.3107750" lon="-2.0101840">
        <ele>14.2</ele>
        <time>2022-11-27T09:43:59Z</time>
      </trkpt>
      <trkpt lat="43.3107220" lon="-2.0101970">
        <ele>14.4</ele>
        <time>2022-11-27T09:44:00Z</time>
      </trkpt>
      <trkpt lat="43.3106690" lon="-2.0102230">
        <ele>14.4</ele>
        <time>2022-11-27T09:44:01Z</time>
      </trkpt>
      <trkpt lat="43.3106160" lon="-2.0102580">
        <ele>14.4</ele>
        <time>2022-11-27T09:44:02Z</time>
      </trkpt>
      <trkpt lat="43.3105640" lon="-2.0102960">
        <ele>14.4</ele>
        <time>2022-11-27T09:44:03Z</time>
      </trkpt>
      <trkpt lat="43.3105120" lon="-2.0103340">
        <ele>14.4</ele>
        <time>2022-11-27T09:44:04Z</time>
      </trkpt>
      <trkpt lat="43.3104610" lon="-2.0103710">
        <ele>14.4</ele>
        <time>2022-11-27T09:44:05Z</time>
      </trkpt>
      <trkpt lat="43.3104110" lon="-2.0104090">
        <ele>14.4</ele>
        <time>2022-11-27T09:44:06Z</time>
      </trkpt>
      <trkpt lat="43.3103590" lon="-2.0104420">
        <ele>14.4</ele>
        <time>2022-11-27T09:44:07Z</time>
      </trkpt>
      <trkpt lat="43.3103060" lon="-2.0104690">
        <ele>14.4</ele>
        <time>2022-11-27T09:44:08Z</time>
      </trkpt>
      <trkpt lat="43.3102520" lon="-2.0104920">
        <ele>14.4</ele>
        <time>2022-11-27T09:44:09Z</time>
      </trkpt>
      <trkpt lat="43.3101980" lon="-2.0105090">
        <ele>14.4</ele>
        <time>2022-11-27T09:44:10Z</time>
      </trkpt>
      <trkpt lat="43.3101430" lon="-2.0105270">
        <ele>14.4</ele>
        <time>2022-11-27T09:44:11Z</time>
      </trkpt>
      <trkpt lat="43.3100880" lon="-2.0105420">
        <ele>14.4</ele>
        <time>2022-11-27T09:44:12Z</time>
      </trkpt>
      <trkpt lat="43.3100320" lon="-2.0105560">
        <ele>14.4</ele>
        <time>2022-11-27T09:44:13Z</time>
      </trkpt>
      <trkpt lat="43.3099770" lon="-2.0105690">
        <ele>14.4</ele>
        <time>2022-11-27T09:44:14Z</time>
      </trkpt>
      <trkpt lat="43.3099180" lon="-2.0105790">
        <ele>14.4</ele>
        <time>2022-11-27T09:44:15Z</time>
      </trkpt>
      <trkpt lat="43.3098590" lon="-2.0105890">
        <ele>14.4</ele>
        <time>2022-11-27T09:44:16Z</time>
      </trkpt>
      <trkpt lat="43.3097990" lon="-2.0106000">
        <ele>14.4</ele>
        <time>2022-11-27T09:44:17Z</time>
      </trkpt>
      <trkpt lat="43.3097390" lon="-2.0106090">
        <ele>14.4</ele>
        <time>2022-11-27T09:44:18Z</time>
      </trkpt>
      <trkpt lat="43.3096780" lon="-2.0106160">
        <ele>14.2</ele>
        <time>2022-11-27T09:44:19Z</time>
      </trkpt>
      <trkpt lat="43.3096180" lon="-2.0106220">
        <ele>14.2</ele>
        <time>2022-11-27T09:44:20Z</time>
      </trkpt>
      <trkpt lat="43.3095590" lon="-2.0106290">
        <ele>14.2</ele>
        <time>2022-11-27T09:44:21Z</time>
      </trkpt>
      <trkpt lat="43.3095010" lon="-2.0106340">
        <ele>14.2</ele>
        <time>2022-11-27T09:44:22Z</time>
      </trkpt>
      <trkpt lat="43.3094420" lon="-2.0106370">
        <ele>14.2</ele>
        <time>2022-11-27T09:44:23Z</time>
      </trkpt>
      <trkpt lat="43.3093810" lon="-2.0106400">
        <ele>14.2</ele>
        <time>2022-11-27T09:44:24Z</time>
      </trkpt>
      <trkpt lat="43.3093210" lon="-2.0106410">
        <ele>14.2</ele>
        <time>2022-11-27T09:44:25Z</time>
      </trkpt>
      <trkpt lat="43.3092640" lon="-2.0106390">
        <ele>14.2</ele>
        <time>2022-11-27T09:44:26Z</time>
      </trkpt>
      <trkpt lat="43.3092120" lon="-2.0106330">
        <ele>14.2</ele>
        <time>2022-11-27T09:44:27Z</time>
      </trkpt>
      <trkpt lat="43.3091700" lon="-2.0106220">
        <ele>14.2</ele>
        <time>2022-11-27T09:44:28Z</time>
      </trkpt>
      <trkpt lat="43.3091360" lon="-2.0106080">
        <ele>14.0</ele>
        <time>2022-11-27T09:44:29Z</time>
      </trkpt>
      <trkpt lat="43.3091090" lon="-2.0105930">
        <ele>14.0</ele>
        <time>2022-11-27T09:44:30Z</time>
      </trkpt>
      <trkpt lat="43.3090870" lon="-2.0105780">
        <ele>14.0</ele>
        <time>2022-11-27T09:44:31Z</time>
      </trkpt>
      <trkpt lat="43.3090650" lon="-2.0105650">
        <ele>13.8</ele>
        <time>2022-11-27T09:44:32Z</time>
      </trkpt>
      <trkpt lat="43.3090450" lon="-2.0105580">
        <ele>13.8</ele>
        <time>2022-11-27T09:44:33Z</time>
      </trkpt>
      <trkpt lat="43.3090250" lon="-2.0105440">
        <ele>13.8</ele>
        <time>2022-11-27T09:44:34Z</time>
      </trkpt>
      <trkpt lat="43.3090110" lon="-2.0105120">
        <ele>13.8</ele>
        <time>2022-11-27T09:44:35Z</time>
      </trkpt>
      <trkpt lat="43.3090020" lon="-2.0104740">
        <ele>13.8</ele>
        <time>2022-11-27T09:44:36Z</time>
      </trkpt>
      <trkpt lat="43.3089940" lon="-2.0104360">
        <ele>13.8</ele>
        <time>2022-11-27T09:44:37Z</time>
      </trkpt>
      <trkpt lat="43.3089900" lon="-2.0104010">
        <ele>13.8</ele>
        <time>2022-11-27T09:44:38Z</time>
      </trkpt>
      <trkpt lat="43.3089880" lon="-2.0103700">
        <ele>13.8</ele>
        <time>2022-11-27T09:44:39Z</time>
      </trkpt>
      <trkpt lat="43.3089900" lon="-2.0103470">
        <ele>13.8</ele>
        <time>2022-11-27T09:44:40Z</time>
      </trkpt>
      <trkpt lat="43.3089960" lon="-2.0103330">
        <ele>13.8</ele>
        <time>2022-11-27T09:44:41Z</time>
      </trkpt>
      <trkpt lat="43.3089990" lon="-2.0103310">
        <ele>13.8</ele>
        <time>2022-11-27T09:44:42Z</time>
      </trkpt>
      <trkpt lat="43.3089750" lon="-2.0103920">
        <ele>14.8</ele>
        <time>2022-11-27T09:44:49Z</time>
      </trkpt>
      <trkpt lat="43.3089790" lon="-2.0104210">
        <ele>14.8</ele>
        <time>2022-11-27T09:44:50Z</time>
      </trkpt>
      <trkpt lat="43.3089850" lon="-2.0104580">
        <ele>14.8</ele>
        <time>2022-11-27T09:44:51Z</time>
      </trkpt>
      <trkpt lat="43.3089940" lon="-2.0104970">
        <ele>14.8</ele>
        <time>2022-11-27T09:44:52Z</time>
      </trkpt>
      <trkpt lat="43.3090010" lon="-2.0105420">
        <ele>14.8</ele>
        <time>2022-11-27T09:44:53Z</time>
      </trkpt>
      <trkpt lat="43.3089980" lon="-2.0105900">
        <ele>14.8</ele>
        <time>2022-11-27T09:44:54Z</time>
      </trkpt>
      <trkpt lat="43.3089830" lon="-2.0106320">
        <ele>14.8</ele>
        <time>2022-11-27T09:44:55Z</time>
      </trkpt>
      <trkpt lat="43.3089690" lon="-2.0106720">
        <ele>14.8</ele>
        <time>2022-11-27T09:44:56Z</time>
      </trkpt>
      <trkpt lat="43.3089500" lon="-2.0107050">
        <ele>14.8</ele>
        <time>2022-11-27T09:44:57Z</time>
      </trkpt>
      <trkpt lat="43.3089250" lon="-2.0107210">
        <ele>14.8</ele>
        <time>2022-11-27T09:44:58Z</time>
      </trkpt>
      <trkpt lat="43.3088990" lon="-2.0107180">
        <ele>14.8</ele>
        <time>2022-11-27T09:44:59Z</time>
      </trkpt>
      <trkpt lat="43.3088700" lon="-2.0106970">
        <ele>14.6</ele>
        <time>2022-11-27T09:45:00Z</time>
      </trkpt>
      <trkpt lat="43.3088430" lon="-2.0106630">
        <ele>14.6</ele>
        <time>2022-11-27T09:45:01Z</time>
      </trkpt>
      <trkpt lat="43.3088160" lon="-2.0106230">
        <ele>14.4</ele>
        <time>2022-11-27T09:45:02Z</time>
      </trkpt>
      <trkpt lat="43.3087870" lon="-2.0105860">
        <ele>14.2</ele>
        <time>2022-11-27T09:45:03Z</time>
      </trkpt>
      <trkpt lat="43.3087510" lon="-2.0105580">
        <ele>14.0</ele>
        <time>2022-11-27T09:45:04Z</time>
      </trkpt>
      <trkpt lat="43.3087110" lon="-2.0105470">
        <ele>14.0</ele>
        <time>2022-11-27T09:45:05Z</time>
      </trkpt>
      <trkpt lat="43.3086710" lon="-2.0105500">
        <ele>14.0</ele>
        <time>2022-11-27T09:45:06Z</time>
      </trkpt>
      <trkpt lat="43.3086330" lon="-2.0105680">
        <ele>14.0</ele>
        <time>2022-11-27T09:45:07Z</time>
      </trkpt>
      <trkpt lat="43.3085980" lon="-2.0105960">
        <ele>14.0</ele>
        <time>2022-11-27T09:45:08Z</time>
      </trkpt>
      <trkpt lat="43.3085640" lon="-2.0106240">
        <ele>14.0</ele>
        <time>2022-11-27T09:45:09Z</time>
      </trkpt>
      <trkpt lat="43.3085300" lon="-2.0106380">
        <ele>13.8</ele>
        <time>2022-11-27T09:45:10Z</time>
      </trkpt>
      <trkpt lat="43.3085010" lon="-2.0106330">
        <ele>13.8</ele>
        <time>2022-11-27T09:45:11Z</time>
      </trkpt>
      <trkpt lat="43.3084720" lon="-2.0106250">
        <ele>13.8</ele>
        <time>2022-11-27T09:45:12Z</time>
      </trkpt>
      <trkpt lat="43.3084380" lon="-2.0106310">
        <ele>13.8</ele>
        <time>2022-11-27T09:45:13Z</time>
      </trkpt>
      <trkpt lat="43.3084050" lon="-2.0106610">
        <ele>13.8</ele>
        <time>2022-11-27T09:45:14Z</time>
      </trkpt>
      <trkpt lat="43.3083760" lon="-2.0107080">
        <ele>13.8</ele>
        <time>2022-11-27T09:45:15Z</time>
      </trkpt>
      <trkpt lat="43.3083490" lon="-2.0107660">
        <ele>13.8</ele>
        <time>2022-11-27T09:45:16Z</time>
      </trkpt>
      <trkpt lat="43.3083270" lon="-2.0108300">
        <ele>13.8</ele>
        <time>2022-11-27T09:45:17Z</time>
      </trkpt>
      <trkpt lat="43.3083030" lon="-2.0108950">
        <ele>13.8</ele>
        <time>2022-11-27T09:45:18Z</time>
      </trkpt>
      <trkpt lat="43.3082770" lon="-2.0109580">
        <ele>13.8</ele>
        <time>2022-11-27T09:45:19Z</time>
      </trkpt>
      <trkpt lat="43.3082460" lon="-2.0110220">
        <ele>13.8</ele>
        <time>2022-11-27T09:45:20Z</time>
      </trkpt>
      <trkpt lat="43.3082140" lon="-2.0110870">
        <ele>13.8</ele>
        <time>2022-11-27T09:45:21Z</time>
      </trkpt>
      <trkpt lat="43.3081840" lon="-2.0111540">
        <ele>13.8</ele>
        <time>2022-11-27T09:45:22Z</time>
      </trkpt>
      <trkpt lat="43.3081520" lon="-2.0112220">
        <ele>13.8</ele>
        <time>2022-11-27T09:45:23Z</time>
      </trkpt>
      <trkpt lat="43.3081180" lon="-2.0112890">
        <ele>13.8</ele>
        <time>2022-11-27T09:45:24Z</time>
      </trkpt>
      <trkpt lat="43.3080860" lon="-2.0113560">
        <ele>13.6</ele>
        <time>2022-11-27T09:45:25Z</time>
      </trkpt>
      <trkpt lat="43.3080530" lon="-2.0114240">
        <ele>13.6</ele>
        <time>2022-11-27T09:45:26Z</time>
      </trkpt>
      <trkpt lat="43.3080200" lon="-2.0114890">
        <ele>13.6</ele>
        <time>2022-11-27T09:45:27Z</time>
      </trkpt>
      <trkpt lat="43.3079860" lon="-2.0115530">
        <ele>13.4</ele>
        <time>2022-11-27T09:45:28Z</time>
      </trkpt>
      <trkpt lat="43.3079520" lon="-2.0116160">
        <ele>13.4</ele>
        <time>2022-11-27T09:45:29Z</time>
      </trkpt>
      <trkpt lat="43.3079170" lon="-2.0116780">
        <ele>13.4</ele>
        <time>2022-11-27T09:45:30Z</time>
      </trkpt>
      <trkpt lat="43.3078840" lon="-2.0117390">
        <ele>13.4</ele>
        <time>2022-11-27T09:45:31Z</time>
      </trkpt>
      <trkpt lat="43.3078500" lon="-2.0118010">
        <ele>13.4</ele>
        <time>2022-11-27T09:45:32Z</time>
      </trkpt>
      <trkpt lat="43.3078160" lon="-2.0118630">
        <ele>13.4</ele>
        <time>2022-11-27T09:45:33Z</time>
      </trkpt>
      <trkpt lat="43.3077810" lon="-2.0119200">
        <ele>13.4</ele>
        <time>2022-11-27T09:45:34Z</time>
      </trkpt>
      <trkpt lat="43.3077410" lon="-2.0119710">
        <ele>13.4</ele>
        <time>2022-11-27T09:45:35Z</time>
      </trkpt>
      <trkpt lat="43.3076990" lon="-2.0120190">
        <ele>13.4</ele>
        <time>2022-11-27T09:45:36Z</time>
      </trkpt>
      <trkpt lat="43.3076550" lon="-2.0120680">
        <ele>13.4</ele>
        <time>2022-11-27T09:45:37Z</time>
      </trkpt>
      <trkpt lat="43.3076120" lon="-2.0121200">
        <ele>13.6</ele>
        <time>2022-11-27T09:45:38Z</time>
      </trkpt>
      <trkpt lat="43.3075750" lon="-2.0121790">
        <ele>13.6</ele>
        <time>2022-11-27T09:45:39Z</time>
      </trkpt>
      <trkpt lat="43.3075410" lon="-2.0122420">
        <ele>13.6</ele>
        <time>2022-11-27T09:45:40Z</time>
      </trkpt>
      <trkpt lat="43.3075060" lon="-2.0123050">
        <ele>13.6</ele>
        <time>2022-11-27T09:45:41Z</time>
      </trkpt>
      <trkpt lat="43.3074700" lon="-2.0123670">
        <ele>13.8</ele>
        <time>2022-11-27T09:45:42Z</time>
      </trkpt>
      <trkpt lat="43.3074360" lon="-2.0124320">
        <ele>13.8</ele>
        <time>2022-11-27T09:45:43Z</time>
      </trkpt>
      <trkpt lat="43.3074030" lon="-2.0125020">
        <ele>13.8</ele>
        <time>2022-11-27T09:45:44Z</time>
      </trkpt>
      <trkpt lat="43.3073720" lon="-2.0125730">
        <ele>13.8</ele>
        <time>2022-11-27T09:45:45Z</time>
      </trkpt>
      <trkpt lat="43.3073420" lon="-2.0126430">
        <ele>13.8</ele>
        <time>2022-11-27T09:45:46Z</time>
      </trkpt>
      <trkpt lat="43.3073150" lon="-2.0127150">
        <ele>14.0</ele>
        <time>2022-11-27T09:45:47Z</time>
      </trkpt>
      <trkpt lat="43.3072970" lon="-2.0127960">
        <ele>14.0</ele>
        <time>2022-11-27T09:45:48Z</time>
      </trkpt>
      <trkpt lat="43.3072780" lon="-2.0128750">
        <ele>14.0</ele>
        <time>2022-11-27T09:45:49Z</time>
      </trkpt>
      <trkpt lat="43.3072610" lon="-2.0129510">
        <ele>14.0</ele>
        <time>2022-11-27T09:45:50Z</time>
      </trkpt>
      <trkpt lat="43.3072480" lon="-2.0130270">
        <ele>14.2</ele>
        <time>2022-11-27T09:45:51Z</time>
      </trkpt>
      <trkpt lat="43.3072390" lon="-2.0131010">
        <ele>14.4</ele>
        <time>2022-11-27T09:45:52Z</time>
      </trkpt>
      <trkpt lat="43.3072340" lon="-2.0131730">
        <ele>14.4</ele>
        <time>2022-11-27T09:45:53Z</time>
      </trkpt>
      <trkpt lat="43.3072330" lon="-2.0132430">
        <ele>14.4</ele>
        <time>2022-11-27T09:45:54Z</time>
      </trkpt>
      <trkpt lat="43.3072350" lon="-2.0133130">
        <ele>14.6</ele>
        <time>2022-11-27T09:45:55Z</time>
      </trkpt>
      <trkpt lat="43.3072360" lon="-2.0133790">
        <ele>14.6</ele>
        <time>2022-11-27T09:45:56Z</time>
      </trkpt>
      <trkpt lat="43.3072400" lon="-2.0134430">
        <ele>14.6</ele>
        <time>2022-11-27T09:45:57Z</time>
      </trkpt>
      <trkpt lat="43.3072460" lon="-2.0135030">
        <ele>15.0</ele>
        <time>2022-11-27T09:45:58Z</time>
      </trkpt>
      <trkpt lat="43.3072550" lon="-2.0135590">
        <ele>15.2</ele>
        <time>2022-11-27T09:45:59Z</time>
      </trkpt>
      <trkpt lat="43.3072680" lon="-2.0136070">
        <ele>15.4</ele>
        <time>2022-11-27T09:46:00Z</time>
      </trkpt>
      <trkpt lat="43.3072880" lon="-2.0136430">
        <ele>15.6</ele>
        <time>2022-11-27T09:46:01Z</time>
      </trkpt>
      <trkpt lat="43.3073130" lon="-2.0136710">
        <ele>16.0</ele>
        <time>2022-11-27T09:46:02Z</time>
      </trkpt>
      <trkpt lat="43.3073410" lon="-2.0136920">
        <ele>16.4</ele>
        <time>2022-11-27T09:46:03Z</time>
      </trkpt>
      <trkpt lat="43.3073740" lon="-2.0137140">
        <ele>16.6</ele>
        <time>2022-11-27T09:46:04Z</time>
      </trkpt>
      <trkpt lat="43.3074120" lon="-2.0137410">
        <ele>17.0</ele>
        <time>2022-11-27T09:46:05Z</time>
      </trkpt>
      <trkpt lat="43.3074540" lon="-2.0137710">
        <ele>17.2</ele>
        <time>2022-11-27T09:46:06Z</time>
      </trkpt>
      <trkpt lat="43.3074990" lon="-2.0138070">
        <ele>17.6</ele>
        <time>2022-11-27T09:46:07Z</time>
      </trkpt>
      <trkpt lat="43.3075430" lon="-2.0138490">
        <ele>18.0</ele>
        <time>2022-11-27T09:46:08Z</time>
      </trkpt>
      <trkpt lat="43.3075820" lon="-2.0138990">
        <ele>18.4</ele>
        <time>2022-11-27T09:46:09Z</time>
      </trkpt>
      <trkpt lat="43.3076150" lon="-2.0139570">
        <ele>18.6</ele>
        <time>2022-11-27T09:46:10Z</time>
      </trkpt>
      <trkpt lat="43.3076410" lon="-2.0140170">
        <ele>18.8</ele>
        <time>2022-11-27T09:46:11Z</time>
      </trkpt>
      <trkpt lat="43.3076610" lon="-2.0140790">
        <ele>18.8</ele>
        <time>2022-11-27T09:46:12Z</time>
      </trkpt>
      <trkpt lat="43.3076770" lon="-2.0141390">
        <ele>18.8</ele>
        <time>2022-11-27T09:46:13Z</time>
      </trkpt>
      <trkpt lat="43.3076900" lon="-2.0141950">
        <ele>19.0</ele>
        <time>2022-11-27T09:46:14Z</time>
      </trkpt>
      <trkpt lat="43.3076980" lon="-2.0142500">
        <ele>19.0</ele>
        <time>2022-11-27T09:46:15Z</time>
      </trkpt>
      <trkpt lat="43.3077050" lon="-2.0143040">
        <ele>19.2</ele>
        <time>2022-11-27T09:46:16Z</time>
      </trkpt>
      <trkpt lat="43.3077130" lon="-2.0143540">
        <ele>19.2</ele>
        <time>2022-11-27T09:46:17Z</time>
      </trkpt>
      <trkpt lat="43.3077200" lon="-2.0144030">
        <ele>19.2</ele>
        <time>2022-11-27T09:46:18Z</time>
      </trkpt>
      <trkpt lat="43.3077330" lon="-2.0144450">
        <ele>19.2</ele>
        <time>2022-11-27T09:46:19Z</time>
      </trkpt>
      <trkpt lat="43.3077550" lon="-2.0144760">
        <ele>19.4</ele>
        <time>2022-11-27T09:46:20Z</time>
      </trkpt>
      <trkpt lat="43.3077840" lon="-2.0144950">
        <ele>19.6</ele>
        <time>2022-11-27T09:46:21Z</time>
      </trkpt>
      <trkpt lat="43.3078140" lon="-2.0145100">
        <ele>19.6</ele>
        <time>2022-11-27T09:46:22Z</time>
      </trkpt>
      <trkpt lat="43.3078470" lon="-2.0145260">
        <ele>19.6</ele>
        <time>2022-11-27T09:46:23Z</time>
      </trkpt>
      <trkpt lat="43.3078820" lon="-2.0145380">
        <ele>19.6</ele>
        <time>2022-11-27T09:46:24Z</time>
      </trkpt>
      <trkpt lat="43.3079160" lon="-2.0145430">
        <ele>19.6</ele>
        <time>2022-11-27T09:46:25Z</time>
      </trkpt>
      <trkpt lat="43.3079500" lon="-2.0145460">
        <ele>19.6</ele>
        <time>2022-11-27T09:46:26Z</time>
      </trkpt>
      <trkpt lat="43.3079770" lon="-2.0145500">
        <ele>19.8</ele>
        <time>2022-11-27T09:46:27Z</time>
      </trkpt>
      <trkpt lat="43.3079970" lon="-2.0145510">
        <ele>20.0</ele>
        <time>2022-11-27T09:46:28Z</time>
      </trkpt>
      <trkpt lat="43.3080080" lon="-2.0145480">
        <ele>20.0</ele>
        <time>2022-11-27T09:46:29Z</time>
      </trkpt>
      <trkpt lat="43.3080120" lon="-2.0145480">
        <ele>20.2</ele>
        <time>2022-11-27T09:46:30Z</time>
      </trkpt>
    </trkseg>
  </trk>
</gpx>
